# Wetter Temperatur Luftdruck Luftfeuchtigkeit Sichtweite Windgeschwindigkeit Windrichtung Zeit
1 Clouds 42 1012 12 16093 2.6 0 20:59 12.07.2020
2 Clouds 42 1012 12 16093 2.6 0 20:41 12.07.2020
3 Clouds 42 1012 12 16093 4.1 170 20:20 12.07.2020
4 Clouds 42 1012 12 16093 4.1 170 19:59 12.07.2020
5 Clouds 41 1012 12 16093 4.1 170 19:39 12.07.2020
6 Clouds 39 1013 13 16093 2.6 200 19:19 12.07.2020
7 Clouds 39 1013 13 16093 2.6 200 18:44 12.07.2020
8 Clouds 38 1013 15 16093 3.6 200 18:21 12.07.2020
9 Clouds 37 1013 15 16093 3.6 200 17:59 12.07.2020
10 Clouds 36 1013 15 16093 3.6 200 17:37 12.07.2020
11 Clouds 36 1013 15 16093 4.1 190 17:19 12.07.2020
12 Clouds 35 1013 15 16093 4.1 190 16:47 12.07.2020
13 Clouds 34 1012 17 16093 2.6 220 16:21 12.07.2020
14 Clouds 32 1012 17 16093 2.6 220 15:48 12.07.2020
15 Clouds 32 1012 17 16093 2.6 220 15:29 12.07.2020
16 Clouds 32 1012 16 16093 3.1 210 14:57 12.07.2020
17 Clouds 33 1012 16 16093 3.1 210 14:38 12.07.2020
18 Clouds 33 1012 16 16093 3.1 190 14:19 12.07.2020
19 Clouds 33 1012 16 16093 3.1 190 14:19 12.07.2020
20 Clouds 33 1012 16 16093 3.1 190 13:39 12.07.2020
21 Clouds 33 1012 13 16093 4.6 220 13:21 12.07.2020
22 Clouds 34 1012 13 16093 4.6 220 12:55 12.07.2020
23 Clouds 34 1012 13 16093 4.6 220 12:36 12.07.2020
24 Clouds 34 1012 13 16093 3.6 240 12:18 12.07.2020
25 Clear 33 1012 18 16093 2.6 290 11:44 12.07.2020
26 Clear 34 1012 18 16093 2.6 290 11:20 12.07.2020
27 Clouds 35 1012 14 16093 3.6 200 10:43 12.07.2020
28 Clouds 36 1012 14 16093 3.6 200 10:23 12.07.2020
29 Clouds 36 1013 16 16093 3.1 190 09:58 12.07.2020
30 Clouds 36 1013 16 16093 3.1 190 09:40 12.07.2020
31 Clouds 36 1013 15 16093 2.6 220 09:20 12.07.2020
32 Clouds 37 1013 15 16093 2.6 220 08:54 12.07.2020
33 Clouds 37 1013 15 16093 2.6 220 08:36 12.07.2020
34 Clouds 37 1013 14 16093 2.1 220 08:18 12.07.2020
35 Clouds 38 1013 14 16093 2.1 220 07:42 12.07.2020
36 Clouds 38 1013 12 16093 3.1 230 07:21 12.07.2020
37 Clouds 39 1013 12 16093 3.1 230 06:51 12.07.2020
38 Clouds 39 1012 11 16093 6.2 250 06:21 12.07.2020
39 Clouds 41 1012 11 16093 6.2 250 05:33 12.07.2020
40 Clouds 41 1012 10 16093 5.1 260 04:55 12.07.2020
41 Clouds 42 1012 10 16093 5.1 260 04:25 12.07.2020
42 Clouds 43 1012 11 16093 6.2 250 03:34 12.07.2020
43 Clouds 43 1012 11 16093 6.2 250 03:34 12.07.2020
44 Clouds 43 1012 11 16093 6.2 220 02:47 12.07.2020
45 Clouds 44 1013 11 16093 5.1 200 01:44 12.07.2020
46 Clouds 44 1014 11 16093 5.7 220 00:49 12.07.2020
47 Clouds 43 1014 11 16093 4.1 210 00:23 12.07.2020
48 Clouds 43 1014 11 16093 4.1 210 23:57 11.07.2020
49 Clouds 43 1014 11 16093 4.1 210 23:57 11.07.2020
50 Clouds 43 1014 11 16093 4.1 210 23:38 11.07.2020
51 Clouds 43 1015 12 16093 8.2 230 23:19 11.07.2020
52 Clouds 43 1015 12 16093 8.2 230 22:46 11.07.2020
53 Clouds 42 1015 12 16093 8.2 230 22:26 11.07.2020
54 Clouds 42 1016 10 16093 1.5 0 21:59 11.07.2020
55 Clouds 42 1016 10 16093 1.5 0 21:40 11.07.2020
56 Clouds 41 1016 10 16093 1.5 0 21:22 11.07.2020
57 Clouds 40 1016 10 16093 1.5 0 20:56 11.07.2020
58 Clouds 40 1016 10 16093 1.5 0 20:38 11.07.2020
59 Clouds 40 1017 11 16093 2.14 136 20:20 11.07.2020
60 Clouds 39 1017 11 16093 2.14 136 19:56 11.07.2020
61 Clouds 39 1017 11 16093 2.14 136 19:38 11.07.2020
62 Clouds 38 1016 12 16093 1.93 112 19:20 11.07.2020
63 Clouds 37 1016 12 16093 1.93 112 18:55 11.07.2020
64 Clouds 36 1016 12 16093 1.93 112 18:36 11.07.2020
65 Clouds 35 1016 15 16093 1.5 130 18:18 11.07.2020
66 Clouds 34 1016 15 16093 1.5 130 17:41 11.07.2020
67 Clouds 34 1016 17 16093 0.68 37 17:21 11.07.2020
68 Clouds 32 1016 17 16093 0.68 37 16:59 11.07.2020
69 Clouds 32 1016 17 16093 0.68 37 16:38 11.07.2020
70 Clouds 32 1015 15 16093 2.1 220 16:19 11.07.2020
71 Clouds 32 1015 15 16093 2.1 220 16:19 11.07.2020
72 Clouds 31 1015 15 16093 2.1 220 15:57 11.07.2020
73 Clouds 31 1015 15 16093 2.1 220 15:37 11.07.2020
74 Clouds 30 1015 16 16093 1.5 200 15:18 11.07.2020
75 Clouds 30 1015 16 16093 1.5 200 14:43 11.07.2020
76 Clouds 31 1014 15 16093 1.5 210 14:23 11.07.2020
77 Clouds 31 1014 15 16093 1.5 210 13:44 11.07.2020
78 Clouds 31 1014 14 16093 1.19 256 13:23 11.07.2020
79 Clouds 32 1014 14 16093 1.19 256 12:59 11.07.2020
80 Clouds 32 1014 14 16093 1.19 256 12:41 11.07.2020
81 Clouds 32 1014 14 16093 3.1 200 12:23 11.07.2020
82 Clouds 33 1014 14 16093 3.1 200 11:58 11.07.2020
83 Clouds 32 1014 14 16093 3.1 200 11:40 11.07.2020
84 Clouds 33 1014 14 16093 2.6 220 11:19 11.07.2020
85 Clouds 33 1014 14 16093 2.6 220 10:46 11.07.2020
86 Clouds 33 1014 14 16093 2.6 220 10:26 11.07.2020
87 Clouds 34 1015 12 16093 2.1 210 09:56 11.07.2020
88 Clouds 34 1015 12 16093 2.1 210 09:37 11.07.2020
89 Clouds 34 1014 11 16093 3.1 220 09:18 11.07.2020
90 Clouds 35 1014 11 16093 3.1 220 08:38 11.07.2020
91 Clouds 35 1014 11 16093 3.1 230 08:19 11.07.2020
92 Clouds 36 1014 11 16093 3.1 230 07:46 11.07.2020
93 Clouds 36 1013 10 16093 3.1 260 07:27 11.07.2020
94 Clouds 36 1013 10 16093 3.1 260 07:27 11.07.2020
95 Clouds 38 1013 10 16093 3.1 260 06:59 11.07.2020
96 Clouds 38 1013 9 16093 5.1 280 06:22 11.07.2020
97 Clouds 38 1013 9 16093 5.1 280 05:42 11.07.2020
98 Clouds 40 1013 10 16093 3.1 250 04:57 11.07.2020
99 Clouds 41 1013 10 16093 3.1 250 04:33 11.07.2020
100 Clouds 42 1013 9 16093 3.6 250 03:38 11.07.2020
101 Clouds 42 1013 8 16093 3.6 210 02:48 11.07.2020
102 Clouds 43 1014 8 16093 5.1 240 01:51 11.07.2020
103 Clouds 42 1015 8 16093 4.1 220 01:19 11.07.2020
104 Clouds 42 1015 8 16093 4.1 220 00:41 11.07.2020
105 Clouds 42 1015 8 16093 4.6 260 00:22 11.07.2020
106 Clouds 42 1015 8 16093 4.6 260 23:58 10.07.2020
107 Clouds 42 1015 8 16093 4.6 260 23:40 10.07.2020
108 Clouds 41 1016 6 16093 5.1 110 23:20 10.07.2020
109 Clouds 41 1016 6 16093 5.1 110 22:46 10.07.2020
110 Clouds 40 1017 6 16093 4.6 100 22:22 10.07.2020
111 Clouds 40 1017 6 16093 4.6 100 21:59 10.07.2020
112 Clouds 39 1017 6 16093 4.6 100 21:38 10.07.2020
113 Clouds 39 1017 6 16093 4.6 100 21:38 10.07.2020
114 Clouds 38 1017 8 16093 2.6 60 21:19 10.07.2020
115 Clouds 37 1017 8 16093 2.6 60 20:43 10.07.2020
116 Clouds 36 1017 8 16093 2.6 60 20:24 10.07.2020
117 Clouds 36 1017 7 16093 1.5 10 19:59 10.07.2020
118 Clouds 36 1017 7 16093 1.5 10 19:40 10.07.2020
119 Clouds 35 1017 7 16093 2.1 280 19:21 10.07.2020
120 Clouds 34 1017 7 16093 2.1 280 18:42 10.07.2020
121 Clouds 32 1016 10 16093 1.5 190 18:22 10.07.2020
122 Clouds 31 1016 10 16093 1.5 190 17:59 10.07.2020
123 Clouds 31 1016 10 16093 1.5 190 17:40 10.07.2020
124 Clouds 30 1015 12 16093 1.48 75 17:22 10.07.2020
125 Clouds 30 1015 12 16093 1.48 75 17:22 10.07.2020
126 Clouds 29 1015 12 16093 1.48 75 16:44 10.07.2020
127 Clouds 29 1015 12 16093 1.5 220 16:21 10.07.2020
128 Clouds 26 1015 12 16093 1.5 220 15:57 10.07.2020
129 Clouds 26 1015 12 16093 1.5 220 15:39 10.07.2020
130 Clouds 25 1014 9 16093 1.5 230 15:18 10.07.2020
131 Clouds 26 1014 9 16093 1.5 230 14:41 10.07.2020
132 Clear 26 1013 8 16093 2.1 150 14:22 10.07.2020
133 Clear 26 1013 8 16093 2.1 150 13:58 10.07.2020
134 Clear 26 1013 8 16093 2.1 150 13:39 10.07.2020
135 Clear 27 1013 6 16093 3.6 200 13:21 10.07.2020
136 Clear 27 1013 6 16093 3.6 200 12:58 10.07.2020
137 Clear 27 1013 6 16093 3.6 200 12:38 10.07.2020
138 Clear 28 1013 5 16093 3.6 200 12:19 10.07.2020
139 Clear 28 1013 5 16093 3.6 200 11:42 10.07.2020
140 Clear 29 1013 5 16093 3.6 200 11:21 10.07.2020
141 Clear 29 1012 6 16093 2.6 210 10:58 10.07.2020
142 Clear 29 1012 6 16093 2.6 210 10:39 10.07.2020
143 Clear 31 1012 6 16093 2.6 210 10:20 10.07.2020
144 Clear 32 1012 7 16093 4.1 200 09:41 10.07.2020
145 Clear 32 1011 7 16093 2.6 220 09:23 10.07.2020
146 Clear 33 1011 7 16093 2.6 220 08:59 10.07.2020
147 Clear 33 1011 7 16093 2.6 220 08:41 10.07.2020
148 Clear 33 1011 6 16093 4.1 200 08:23 10.07.2020
149 Clear 34 1011 6 16093 4.1 200 07:48 10.07.2020
150 Clear 34 1010 6 16093 5.1 230 07:24 10.07.2020
151 Clear 35 1010 6 16093 5.1 230 06:58 10.07.2020
152 Clear 35 1010 6 16093 5.1 230 06:40 10.07.2020
153 Clear 36 1009 4 16093 5.1 240 05:40 10.07.2020
154 Clear 40 1009 2 16093 6.7 230 03:55 10.07.2020
155 Clear 41 1009 2 16093 5.1 220 02:55 10.07.2020
156 Clear 41 1009 3 16093 3.1 200 02:21 10.07.2020
157 Clear 41 1009 2 16093 5.7 220 00:55 10.07.2020
158 Clear 41 1010 3 16093 3.1 170 00:23 10.07.2020
159 Clear 40 1010 3 16093 3.1 170 23:56 09.07.2020
160 Clear 40 1010 3 16093 3.1 170 23:37 09.07.2020
161 Clear 40 1011 4 16093 2.6 0 23:19 09.07.2020
162 Clear 39 1011 4 16093 2.6 0 22:56 09.07.2020
163 Clear 38 1011 4 16093 2.6 0 22:38 09.07.2020
164 Clear 38 1012 7 16093 3.6 110 22:19 09.07.2020
165 Clear 38 1012 7 16093 3.6 110 21:54 09.07.2020
166 Clear 38 1012 7 16093 3.6 110 21:36 09.07.2020
167 Clear 36 1012 8 16093 2.1 0 21:18 09.07.2020
168 Clear 36 1012 8 16093 2.1 0 20:41 09.07.2020
169 Clear 36 1012 9 16093 3.6 180 20:22 09.07.2020
170 Clear 35 1012 9 16093 3.6 180 19:43 09.07.2020
171 Clear 34 1012 11 16093 2.6 160 19:22 09.07.2020
172 Clear 32 1012 11 16093 2.6 160 18:57 09.07.2020
173 Clear 32 1012 11 16093 2.6 160 18:39 09.07.2020
174 Clear 30 1011 16 16093 3.1 190 18:19 09.07.2020
175 Clear 29 1011 16 16093 3.1 190 17:43 09.07.2020
176 Clear 29 1011 16 16093 3.1 190 17:23 09.07.2020
177 Clear 28 1010 18 16093 3.6 260 16:58 09.07.2020
178 Clear 28 1010 18 16093 3.6 260 16:38 09.07.2020
179 Clear 27 1010 18 16093 3.1 220 16:19 09.07.2020
180 Clear 26 1010 18 16093 3.1 220 15:58 09.07.2020
181 Clear 25 1010 18 16093 3.1 220 15:37 09.07.2020
182 Clear 24 1010 18 16093 3.1 220 15:18 09.07.2020
183 Clear 25 1009 17 16093 4.6 190 14:57 09.07.2020
184 Clear 25 1009 17 16093 4.6 190 14:39 09.07.2020
185 Clear 26 1009 15 16093 4.1 190 14:20 09.07.2020
186 Clear 26 1009 15 16093 4.1 190 13:56 09.07.2020
187 Clear 26 1009 15 16093 4.1 190 13:38 09.07.2020
188 Clear 26 1009 12 16093 4.6 190 13:18 09.07.2020
189 Clear 27 1009 12 16093 4.6 190 12:41 09.07.2020
190 Clear 28 1008 11 16093 3.6 200 12:23 09.07.2020
191 Clear 28 1008 11 16093 3.6 200 11:57 09.07.2020
192 Clear 29 1008 11 16093 3.6 200 11:38 09.07.2020
193 Clear 29 1008 7 16093 4.6 190 11:18 09.07.2020
194 Clear 30 1008 7 16093 4.6 190 10:55 09.07.2020
195 Clear 30 1008 7 16093 4.6 190 10:37 09.07.2020
196 Clear 30 1008 7 16093 4.1 190 10:19 09.07.2020
197 Clear 31 1008 7 16093 4.1 190 09:42 09.07.2020
198 Clear 31 1008 7 16093 4.1 190 09:22 09.07.2020
199 Clear 32 1008 7 16093 2.1 180 08:49 09.07.2020
200 Clear 32 1008 7 16093 2.1 180 08:26 09.07.2020
201 Clear 32 1008 5 16093 4.1 200 07:50 09.07.2020
202 Clear 32 1008 5 16093 4.1 200 07:30 09.07.2020
203 Clear 34 1007 5 16093 2.6 200 06:59 09.07.2020
204 Clear 34 1007 4 16093 4.1 220 06:20 09.07.2020
205 Clear 35 1007 4 16093 4.1 220 05:50 09.07.2020
206 Clear 37 1007 3 16093 5.1 230 04:29 09.07.2020
207 Clear 39 1007 3 16093 3.6 210 02:45 09.07.2020
208 Clear 40 1007 3 16093 5.7 230 01:54 09.07.2020
209 Clear 40 1008 2 16093 5.1 210 00:59 09.07.2020
210 Clear 40 1008 2 16093 5.1 210 00:38 09.07.2020
211 Clear 39 1009 4 16093 5.7 230 00:19 09.07.2020
212 Clear 39 1009 4 16093 5.7 230 23:43 08.07.2020
213 Clear 39 1009 4 16093 5.7 230 23:24 08.07.2020
214 Clear 38 1010 4 16093 4.6 160 22:55 08.07.2020
215 Clear 38 1010 4 16093 4.6 160 22:36 08.07.2020
216 Clear 38 1011 4 16093 4.1 200 22:18 08.07.2020
217 Clear 37 1011 4 16093 4.1 200 21:39 08.07.2020
218 Clear 36 1011 5 16093 5.1 200 21:21 08.07.2020
219 Clear 36 1011 5 16093 5.1 200 20:58 08.07.2020
220 Clear 36 1011 5 16093 5.1 200 20:58 08.07.2020
221 Clear 36 1011 5 16093 5.1 200 20:40 08.07.2020
222 Clear 35 1011 6 16093 4.6 200 20:22 08.07.2020
223 Clear 34 1011 6 16093 4.6 200 19:43 08.07.2020
224 Clear 34 1011 6 16093 4.6 200 19:25 08.07.2020
225 Clear 32 1011 9 16093 5.7 220 18:58 08.07.2020
226 Clear 32 1011 9 16093 5.7 220 18:40 08.07.2020
227 Clear 31 1011 12 16093 2.1 220 18:21 08.07.2020
228 Clear 30 1011 12 16093 2.1 220 17:56 08.07.2020
229 Clear 30 1011 12 16093 2.1 220 17:38 08.07.2020
230 Clear 29 1010 14 16093 5.1 190 17:20 08.07.2020
231 Clear 28 1010 14 16093 5.1 190 16:55 08.07.2020
232 Clear 28 1010 14 16093 5.1 190 16:36 08.07.2020
233 Clear 28 1009 14 16093 4.1 200 16:18 08.07.2020
234 Clear 28 1009 14 16093 4.1 200 15:56 08.07.2020
235 Clear 27 1009 14 16093 4.1 200 15:37 08.07.2020
236 Clear 26 1009 14 16093 5.1 190 15:18 08.07.2020
237 Clear 26 1009 14 16093 5.1 190 14:42 08.07.2020
238 Clear 27 1008 13 16093 4.6 190 14:20 08.07.2020
239 Clear 27 1008 13 16093 4.6 190 13:45 08.07.2020
240 Clear 28 1008 13 16093 4.6 190 13:27 08.07.2020
241 Clear 30 1008 12 16093 3.6 190 12:46 08.07.2020
242 Clear 30 1008 10 16093 6.2 200 12:22 08.07.2020
243 Clear 30 1008 10 16093 6.2 200 12:22 08.07.2020
244 Clear 31 1008 10 16093 6.2 200 11:59 08.07.2020
245 Clear 31 1008 10 16093 6.2 200 11:39 08.07.2020
246 Clear 30 1008 10 16093 4.6 190 11:20 08.07.2020
247 Clear 31 1008 10 16093 4.6 190 10:54 08.07.2020
248 Clear 31 1008 10 16093 4.6 190 10:36 08.07.2020
249 Clear 32 1008 7 16093 7.2 240 10:18 08.07.2020
250 Clear 32 1008 7 16093 7.2 240 09:41 08.07.2020
251 Clear 32 1008 6 16093 5.7 260 09:21 08.07.2020
252 Clear 32 1008 6 16093 5.7 260 08:43 08.07.2020
253 Clear 32 1008 7 16093 1.5 210 08:24 08.07.2020
254 Clear 33 1008 7 16093 1.5 210 07:47 08.07.2020
255 Clear 33 1008 7 16093 1.5 210 07:47 08.07.2020
256 Clear 34 1007 6 16093 1.5 210 07:23 08.07.2020
257 Clear 35 1007 6 16093 1.5 210 06:55 08.07.2020
258 Clear 35 1007 6 16093 1.5 210 06:35 08.07.2020
259 Clear 36 1007 5 16093 2.6 210 05:55 08.07.2020
260 Clear 37 1007 5 16093 5.1 230 05:20 08.07.2020
261 Clear 38 1007 5 16093 5.1 230 04:27 08.07.2020
262 Clear 40 1008 3 16093 6.2 200 02:20 08.07.2020
263 Clear 40 1008 3 16093 6.2 200 01:45 08.07.2020
264 Clear 40 1009 2 16093 6.7 230 00:59 08.07.2020
265 Clear 40 1009 2 16093 6.7 230 00:25 08.07.2020
266 Clear 40 1009 3 16093 6.7 210 23:45 07.07.2020
267 Clear 40 1009 3 16093 6.7 210 23:24 07.07.2020
268 Clear 39 1010 4 16093 6.7 200 22:59 07.07.2020
269 Clear 39 1010 4 16093 6.7 200 22:41 07.07.2020
270 Clear 39 1011 5 16093 8.2 230 22:21 07.07.2020
271 Clear 38 1011 5 16093 8.2 230 21:58 07.07.2020
272 Clear 38 1011 5 16093 8.2 230 21:38 07.07.2020
273 Clear 38 1011 6 16093 8.7 240 21:19 07.07.2020
274 Clear 37 1011 6 16093 8.7 240 20:56 07.07.2020
275 Clear 37 1011 6 16093 8.7 240 20:37 07.07.2020
276 Clear 37 1011 6 16093 4.6 210 20:19 07.07.2020
277 Clear 36 1011 6 16093 4.6 210 19:39 07.07.2020
278 Clear 36 1011 6 16093 4.6 210 19:39 07.07.2020
279 Clear 35 1010 6 16093 7.7 170 19:21 07.07.2020
280 Clear 34 1011 7 16093 7.2 190 18:55 07.07.2020
281 Clear 34 1011 7 16093 7.2 190 18:37 07.07.2020
282 Clear 33 1011 10 16093 5.1 180 18:19 07.07.2020
283 Clear 32 1011 10 16093 5.1 180 17:56 07.07.2020
284 Clear 32 1011 10 16093 5.1 180 17:37 07.07.2020
285 Clear 31 1010 12 16093 4.6 170 17:19 07.07.2020
286 Clear 29 1010 12 16093 4.6 170 16:42 07.07.2020
287 Clear 29 1010 12 16093 4.6 170 16:23 07.07.2020
288 Clear 29 1010 12 16093 4.6 170 16:23 07.07.2020
289 Clear 29 1009 12 16093 4.6 190 15:56 07.07.2020
290 Clear 30 1009 12 16093 4.6 190 15:37 07.07.2020
291 Clear 29 1009 11 16093 4.1 200 15:19 07.07.2020
292 Clear 30 1009 11 16093 4.1 200 14:45 07.07.2020
293 Clear 29 1009 11 16093 4.1 200 14:24 07.07.2020
294 Clear 30 1008 11 16093 6.2 200 13:46 07.07.2020
295 Clear 31 1009 12 16093 3.6 210 13:21 07.07.2020
296 Clear 31 1009 12 16093 3.6 210 12:57 07.07.2020
297 Clear 31 1009 12 16093 3.6 210 12:39 07.07.2020
298 Clear 31 1009 11 16093 4.6 220 12:21 07.07.2020
299 Clear 31 1009 11 16093 4.6 220 11:46 07.07.2020
300 Clear 31 1009 11 16093 4.6 220 11:24 07.07.2020
301 Clear 32 1009 11 16093 4.6 220 10:58 07.07.2020
302 Clear 32 1009 11 16093 4.6 220 10:40 07.07.2020
303 Clear 32 1009 9 16093 4.6 200 10:21 07.07.2020
304 Clear 33 1009 9 16093 4.6 200 09:55 07.07.2020
305 Clear 33 1009 9 16093 4.6 200 09:37 07.07.2020
306 Clear 32 1008 9 16093 3.1 190 09:18 07.07.2020
307 Clear 33 1008 9 16093 3.1 190 08:40 07.07.2020
308 Clear 34 1008 7 16093 1.5 190 08:20 07.07.2020
309 Clear 36 1008 7 16093 1.5 190 07:39 07.07.2020
310 Clear 35 1008 7 16093 4.1 230 07:20 07.07.2020
311 Clear 36 1008 7 16093 4.1 230 06:48 07.07.2020
312 Clear 36 1007 7 16093 5.7 230 06:27 07.07.2020
313 Clear 37 1007 7 16093 5.7 230 05:47 07.07.2020
314 Clear 39 1007 6 16093 5.1 230 04:59 07.07.2020
315 Clear 39 1007 6 16093 5.1 230 04:25 07.07.2020
316 Clear 41 1006 6 16093 6.2 240 03:34 07.07.2020
317 Clear 42 1008 6 16093 5.1 100 01:58 07.07.2020
318 Clear 41 1009 6 16093 5.9 223 01:20 07.07.2020
319 Clear 41 1009 6 16093 5.9 223 00:41 07.07.2020
320 Clear 41 1009 6 16093 6.2 110 00:22 07.07.2020
321 Clear 41 1009 6 16093 6.2 110 23:44 06.07.2020
322 Clear 41 1009 6 16093 6.2 110 23:25 06.07.2020
323 Clear 41 1011 6 16093 2.1 60 22:59 06.07.2020
324 Clear 41 1011 6 16093 2.1 60 22:39 06.07.2020
325 Clear 40 1011 7 16093 2.6 0 22:19 06.07.2020
326 Clear 40 1011 7 16093 2.6 0 21:57 06.07.2020
327 Clear 40 1011 7 16093 2.6 0 21:37 06.07.2020
328 Clear 38 1012 7 16093 2.6 0 21:18 06.07.2020
329 Clear 38 1012 7 16093 2.6 0 20:41 06.07.2020
330 Smoke 37 1012 10 16093 1.5 120 20:22 06.07.2020
331 Smoke 37 1012 10 16093 1.5 120 19:59 06.07.2020
332 Smoke 36 1012 10 16093 1.5 120 19:41 06.07.2020
333 Clear 35 1012 9 16093 1.77 139 19:23 06.07.2020
334 Clear 34 1012 9 16093 1.77 139 18:59 06.07.2020
335 Clear 34 1012 9 16093 1.77 139 18:59 06.07.2020
336 Clear 34 1012 9 16093 1.77 139 18:41 06.07.2020
337 Clear 34 1012 9 16093 1.77 139 18:41 06.07.2020
338 Clear 33 1012 12 16093 1.5 310 18:22 06.07.2020
339 Clear 32 1012 12 16093 1.5 310 17:57 06.07.2020
340 Clear 32 1012 12 16093 1.5 310 17:38 06.07.2020
341 Clear 31 1011 13 16093 1.5 220 17:19 06.07.2020
342 Clear 30 1011 13 16093 1.5 220 16:43 06.07.2020
343 Clear 30 1011 13 16093 1.5 220 16:23 06.07.2020
344 Clear 28 1010 13 16093 1.5 210 15:57 06.07.2020
345 Clear 27 1010 13 16093 1.5 210 15:38 06.07.2020
346 Clear 28 1010 11 16093 1.5 240 15:19 06.07.2020
347 Clear 27 1010 11 16093 1.5 240 14:55 06.07.2020
348 Clear 27 1010 11 16093 1.5 240 14:36 06.07.2020
349 Clear 28 1009 9 16093 4.1 210 14:18 06.07.2020
350 Clear 27 1009 9 16093 4.1 210 13:40 06.07.2020
351 Clear 28 1009 8 16093 4.6 190 13:21 06.07.2020
352 Clear 30 1009 8 16093 4.6 190 12:45 06.07.2020
353 Clear 31 1009 8 16093 2.6 180 12:20 06.07.2020
354 Clear 32 1009 8 16093 2.6 180 11:59 06.07.2020
355 Clear 32 1009 8 16093 2.6 180 11:41 06.07.2020
356 Clear 31 1009 8 16093 2.6 180 11:23 06.07.2020
357 Clear 31 1009 9 16093 2.6 210 10:58 06.07.2020
358 Clear 31 1009 9 16093 2.6 210 10:40 06.07.2020
359 Clear 32 1009 10 16093 3.1 200 10:19 06.07.2020
360 Clear 32 1009 10 16093 3.1 200 09:46 06.07.2020
361 Clear 33 1009 10 16093 2.6 210 09:22 06.07.2020
362 Clear 33 1009 10 16093 2.6 210 08:59 06.07.2020
363 Clear 34 1009 10 16093 2.6 210 08:40 06.07.2020
364 Clear 33 1009 9 16093 3.6 230 08:21 06.07.2020
365 Clear 34 1009 9 16093 3.6 230 07:48 06.07.2020
366 Clear 35 1009 9 16093 3.6 230 07:29 06.07.2020
367 Clear 36 1008 8 16093 2.6 270 06:49 06.07.2020
368 Clear 36 1008 8 16093 2.6 270 06:31 06.07.2020
369 Clear 38 1008 7 16093 5.1 290 05:44 06.07.2020
370 Clear 38 1008 7 16093 3.47 246 05:25 06.07.2020
371 Clear 41 1008 6 16093 3.44 245 03:52 06.07.2020
372 Clear 41 1009 5 16093 5.1 190 02:29 06.07.2020
373 Clear 41 1010 5 16093 2.1 230 01:45 06.07.2020
374 Clear 41 1011 6 16093 3.6 190 00:44 06.07.2020
375 Clear 41 1012 6 16093 4.6 100 00:22 06.07.2020
376 Clear 41 1012 6 16093 4.6 100 23:45 05.07.2020
377 Clear 40 1012 6 16093 4.6 100 23:27 05.07.2020
378 Clear 40 1012 6 16093 1.5 0 22:59 05.07.2020
379 Clear 40 1012 6 16093 1.5 0 22:41 05.07.2020
380 Clear 40 1012 6 16093 1.5 0 22:41 05.07.2020
381 Clear 40 1013 8 16093 2.6 0 22:20 05.07.2020
382 Clear 39 1013 8 16093 2.6 0 21:58 05.07.2020
383 Clear 39 1013 8 16093 2.6 0 21:40 05.07.2020
384 Clear 39 1013 8 16093 2.6 0 21:40 05.07.2020
385 Clear 38 1013 8 16093 2.1 100 21:19 05.07.2020
386 Clear 37 1013 8 16093 2.1 100 20:58 05.07.2020
387 Clear 37 1013 8 16093 2.1 100 20:58 05.07.2020
388 Clear 37 1013 8 16093 2.1 100 20:39 05.07.2020
389 Clear 36 1014 10 16093 1.32 117 20:21 05.07.2020
390 Clear 36 1014 10 16093 1.32 117 19:55 05.07.2020
391 Clear 36 1014 10 16093 1.32 117 19:36 05.07.2020
392 Clear 35 1014 13 16093 1.5 20 19:18 05.07.2020
393 Clear 34 1014 13 16093 1.5 20 18:41 05.07.2020
394 Clear 33 1014 13 16093 0.81 114 18:21 05.07.2020
395 Clear 32 1014 13 16093 0.81 114 17:56 05.07.2020
396 Clear 32 1014 13 16093 0.81 114 17:37 05.07.2020
397 Clear 31 1013 16 16093 1.5 240 17:18 05.07.2020
398 Clear 29 1013 16 16093 1.5 240 16:43 05.07.2020
399 Clear 29 1013 16 16093 1.5 240 16:24 05.07.2020
400 Clear 28 1013 15 16093 1.5 210 15:55 05.07.2020
401 Clear 27 1013 15 16093 1.5 210 15:37 05.07.2020
402 Clear 27 1012 13 16093 2.1 190 15:18 05.07.2020
403 Clear 27 1012 13 16093 2.1 190 14:41 05.07.2020
404 Clear 28 1012 13 16093 1.5 230 14:21 05.07.2020
405 Clear 27 1012 13 16093 1.5 230 13:42 05.07.2020
406 Clear 28 1012 13 16093 2.1 200 13:23 05.07.2020
407 Clear 28 1012 13 16093 2.1 200 12:47 05.07.2020
408 Clear 29 1012 13 16093 2.1 200 12:27 05.07.2020
409 Clear 29 1012 11 16093 3.1 200 11:58 05.07.2020
410 Clear 29 1012 11 16093 3.1 200 11:58 05.07.2020
411 Clear 29 1012 11 16093 3.1 200 11:40 05.07.2020
412 Clear 30 1012 11 16093 3.1 200 11:21 05.07.2020
413 Clear 30 1012 11 16093 3.1 200 10:58 05.07.2020
414 Clear 30 1012 11 16093 3.1 200 10:39 05.07.2020
415 Clear 31 1012 13 16093 2.1 210 10:19 05.07.2020
416 Clear 31 1012 13 16093 2.1 210 09:55 05.07.2020
417 Clear 32 1012 13 16093 2.1 210 09:37 05.07.2020
418 Clear 32 1012 12 16093 3.1 200 09:18 05.07.2020
419 Clear 32 1012 12 16093 3.1 200 08:43 05.07.2020
420 Clear 33 1012 12 16093 3.1 200 08:25 05.07.2020
421 Clear 33 1012 11 16093 3.6 230 07:46 05.07.2020
422 Clear 34 1011 10 16093 3.6 230 07:27 05.07.2020
423 Clear 35 1011 10 16093 3.6 230 06:50 05.07.2020
424 Clouds 37 1011 8 16093 5.1 220 05:18 05.07.2020
425 Clouds 40 1011 8 16093 3.6 230 03:20 05.07.2020
426 Clouds 40 1011 8 16093 3.6 230 02:41 05.07.2020
427 Clouds 40 1012 7 16093 5.1 270 01:59 05.07.2020
428 Clouds 40 1012 7 16093 5.1 270 01:32 05.07.2020
429 Clouds 40 1013 9 16093 3.1 0 00:54 05.07.2020
430 Clouds 40 1013 9 16093 3.1 0 00:31 05.07.2020
431 Clouds 40 1013 10 16093 4.1 190 23:59 04.07.2020
432 Clouds 40 1013 10 16093 4.1 190 23:41 04.07.2020
433 Clouds 40 1014 11 16093 3.6 140 23:23 04.07.2020
434 Clouds 38 1014 11 16093 3.6 140 22:43 04.07.2020
435 Clouds 39 1014 11 16093 3.6 140 22:25 04.07.2020
436 Clouds 38 1015 12 16093 3.1 0 21:59 04.07.2020
437 Clouds 38 1015 12 16093 3.1 0 21:40 04.07.2020
438 Clear 37 1016 9 16093 3.6 100 21:22 04.07.2020
439 Clear 36 1016 9 16093 3.6 100 20:54 04.07.2020
440 Clear 36 1016 9 16093 3.6 100 20:36 04.07.2020
441 Clear 36 1016 9 16093 2.1 10 20:18 04.07.2020
442 Clear 35 1016 9 16093 2.1 10 19:41 04.07.2020
443 Clear 35 1016 9 16093 2.1 10 19:21 04.07.2020
444 Clear 33 1016 9 16093 1.53 132 18:55 04.07.2020
445 Clear 33 1016 9 16093 1.53 132 18:36 04.07.2020
446 Clear 31 1016 10 16093 1.03 117 18:18 04.07.2020
447 Clear 31 1016 10 16093 1.03 117 17:41 04.07.2020
448 Clear 30 1015 15 16093 0.71 116 17:22 04.07.2020
449 Clear 29 1015 15 16093 0.71 116 16:56 04.07.2020
450 Clear 28 1015 15 16093 0.71 116 16:37 04.07.2020
451 Clear 28 1015 13 16093 3.1 200 16:18 04.07.2020
452 Clear 25 1015 13 16093 3.1 200 15:42 04.07.2020
453 Clear 25 1015 13 16093 3.1 200 15:24 04.07.2020
454 Clear 26 1014 13 16093 2.1 200 14:58 04.07.2020
455 Clear 26 1014 13 16093 2.1 200 14:37 04.07.2020
456 Clear 26 1014 13 16093 2.6 190 14:18 04.07.2020
457 Clear 26 1014 13 16093 2.6 190 14:18 04.07.2020
458 Clear 27 1014 13 16093 2.6 190 13:43 04.07.2020
459 Clear 28 1014 9 16093 3.1 210 13:20 04.07.2020
460 Clear 27 1014 9 16093 3.1 210 12:59 04.07.2020
461 Clear 28 1014 9 16093 3.1 210 12:40 04.07.2020
462 Clear 28 1014 10 16093 4.6 230 12:19 04.07.2020
463 Clear 28 1014 10 16093 4.6 230 11:45 04.07.2020
464 Clear 28 1014 10 16093 4.6 230 11:24 04.07.2020
465 Clear 29 1014 10 16093 3.6 220 10:56 04.07.2020
466 Clear 29 1014 10 16093 3.6 220 10:38 04.07.2020
467 Clear 29 1014 10 16093 2.6 190 10:19 04.07.2020
468 Clear 30 1014 10 16093 2.6 190 09:41 04.07.2020
469 Clear 30 1014 8 16093 3.1 200 09:22 04.07.2020
470 Clear 30 1014 8 16093 3.1 200 08:58 04.07.2020
471 Clear 31 1014 8 16093 3.1 200 08:39 04.07.2020
472 Clear 31 1013 7 16093 5.7 240 08:21 04.07.2020
473 Clear 32 1013 7 16093 5.7 240 07:41 04.07.2020
474 Clear 33 1013 7 16093 6.2 240 07:18 04.07.2020
475 Clear 34 1013 7 16093 6.2 240 06:38 04.07.2020
476 Clouds 34 1012 8 16093 4.6 240 06:19 04.07.2020
477 Clouds 35 1012 8 16093 4.6 240 05:29 04.07.2020
478 Clouds 36 1012 12 16093 5.1 230 04:21 04.07.2020
479 Clouds 38 1012 13 16093 5.1 250 02:41 04.07.2020
480 Clouds 38 1013 12 16093 3.6 190 01:42 04.07.2020
481 Clouds 39 1013 13 16093 4.1 190 00:54 04.07.2020
482 Clouds 39 1013 13 16093 4.1 190 00:36 04.07.2020
483 Clouds 38 1014 12 16093 3.6 240 00:18 04.07.2020
484 Clouds 39 1014 12 16093 3.6 240 23:39 03.07.2020
485 Clouds 38 1014 13 16093 5.1 240 23:18 03.07.2020
486 Clouds 37 1014 13 16093 5.1 240 22:42 03.07.2020
487 Clouds 38 1014 13 16093 5.1 240 22:24 03.07.2020
488 Clouds 37 1015 14 16093 5.1 190 21:59 03.07.2020
489 Clouds 37 1015 14 16093 5.1 190 21:38 03.07.2020
490 Clouds 36 1016 15 16093 2.6 0 21:19 03.07.2020
491 Clouds 35 1016 15 16093 2.6 0 20:43 03.07.2020
492 Clouds 35 1016 15 16093 2.6 0 20:25 03.07.2020
493 Clouds 34 1016 14 16093 2.6 0 19:57 03.07.2020
494 Clouds 34 1016 14 16093 2.6 0 19:39 03.07.2020
495 Clear 33 1016 13 16093 3.6 190 19:18 03.07.2020
496 Clear 32 1016 13 16093 3.6 190 18:45 03.07.2020
497 Clear 31 1016 16 16093 2.1 170 18:23 03.07.2020
498 Clear 31 1016 16 16093 2.1 170 17:56 03.07.2020
499 Clear 30 1016 16 16093 2.1 170 17:38 03.07.2020
500 Clouds 29 1015 18 16093 3.6 170 17:19 03.07.2020
501 Clouds 29 1015 18 16093 3.6 170 17:19 03.07.2020
502 Clouds 28 1015 18 16093 3.6 170 16:40 03.07.2020
503 Clouds 27 1014 18 16093 4.6 160 16:20 03.07.2020
504 Clouds 27 1014 18 16093 4.6 160 15:44 03.07.2020
505 Clouds 26 1014 18 16093 4.6 160 15:23 03.07.2020
506 Clear 25 1014 21 16093 3.1 150 14:57 03.07.2020
507 Clear 25 1014 22 16093 3.1 150 14:38 03.07.2020
508 Clear 25 1013 15 16093 2.6 140 14:19 03.07.2020
509 Clear 26 1013 15 16093 2.6 140 13:43 03.07.2020
510 Clear 26 1013 15 16093 2.6 140 13:25 03.07.2020
511 Clear 27 1013 12 16093 2.6 190 12:45 03.07.2020
512 Clear 27 1013 13 16093 3.6 200 12:24 03.07.2020
513 Clear 28 1013 13 16093 3.6 200 11:58 03.07.2020
514 Clear 28 1013 13 16093 3.6 200 11:40 03.07.2020
515 Clear 28 1012 14 16093 2.36 214 11:21 03.07.2020
516 Clear 28 1012 14 16093 2.36 214 10:55 03.07.2020
517 Clear 28 1012 14 16093 2.36 214 10:37 03.07.2020
518 Clear 29 1012 12 16093 3.1 250 10:18 03.07.2020
519 Clear 30 1012 12 16093 3.1 250 09:40 03.07.2020
520 Clear 30 1012 12 16093 3.1 250 09:22 03.07.2020
521 Clear 30 1012 16 16093 2.6 210 08:59 03.07.2020
522 Clear 31 1012 16 16093 2.6 210 08:39 03.07.2020
523 Clear 32 1012 13 16093 3.6 180 08:18 03.07.2020
524 Clear 32 1012 13 16093 3.6 180 07:47 03.07.2020
525 Clear 32 1011 12 16093 3.1 0 07:23 03.07.2020
526 Clear 33 1011 12 16093 3.1 0 06:40 03.07.2020
527 Clear 34 1009 10 16093 5.7 200 05:56 03.07.2020
528 Clouds 36 1009 8 16093 4.6 200 04:28 03.07.2020
529 Clouds 37 1010 8 16093 4.6 190 02:57 03.07.2020
530 Clouds 38 1010 8 16093 4.6 190 02:32 03.07.2020
531 Clouds 38 1010 8 16093 4.1 180 01:51 03.07.2020
532 Clear 38 1011 10 16093 6.2 200 01:20 03.07.2020
533 Clear 37 1011 10 16093 6.2 200 00:42 03.07.2020
534 Clear 37 1011 12 16093 2.6 210 23:59 02.07.2020
535 Clear 36 1011 12 16093 2.6 210 23:39 02.07.2020
536 Clear 36 1012 12 16093 4.1 130 23:19 02.07.2020
537 Clear 36 1012 12 16093 4.1 130 22:56 02.07.2020
538 Clear 36 1012 12 16093 4.1 130 22:38 02.07.2020
539 Clear 36 1012 12 16093 4.1 130 22:38 02.07.2020
540 Clear 36 1013 16 16093 4.1 160 22:19 02.07.2020
541 Clear 35 1013 16 16093 4.1 160 21:42 02.07.2020
542 Clear 34 1013 17 16093 2.6 0 21:21 02.07.2020
543 Clear 34 1013 17 16093 2.6 0 20:59 02.07.2020
544 Clear 34 1013 17 16093 2.6 0 20:41 02.07.2020
545 Clear 33 1013 17 16093 3.6 160 20:20 02.07.2020
546 Clear 33 1013 17 16093 3.6 160 19:56 02.07.2020
547 Clear 33 1013 17 16093 3.6 160 19:38 02.07.2020
548 Clear 33 1013 17 16093 3.6 160 19:38 02.07.2020
549 Clear 32 1013 15 16093 3.1 190 19:19 02.07.2020
550 Clear 31 1013 15 16093 3.1 190 18:42 02.07.2020
551 Clear 30 1013 18 16093 3.6 170 18:22 02.07.2020
552 Clear 29 1013 18 16093 3.6 170 17:58 02.07.2020
553 Clear 29 1013 18 16093 3.6 170 17:39 02.07.2020
554 Clear 29 1012 18 16093 3.6 100 17:19 02.07.2020
555 Clear 27 1012 21 16093 2.6 190 16:55 02.07.2020
556 Clear 27 1012 21 16093 2.6 190 16:37 02.07.2020
557 Clear 27 1011 22 16093 3.1 180 16:18 02.07.2020
558 Clear 25 1011 22 16093 3.1 180 15:39 02.07.2020
559 Clear 25 1010 21 16093 2.1 150 15:21 02.07.2020
560 Clear 24 1010 21 16093 2.1 150 14:46 02.07.2020
561 Clear 25 1010 21 16093 2.1 150 14:25 02.07.2020
562 Clear 26 1009 19 16093 1.5 170 13:57 02.07.2020
563 Clear 26 1009 19 16093 1.5 170 13:39 02.07.2020
564 Clear 26 1009 20 16093 2.1 180 13:20 02.07.2020
565 Clear 27 1009 20 16093 2.1 180 12:58 02.07.2020
566 Clear 27 1009 20 16093 2.1 180 12:38 02.07.2020
567 Clear 27 1009 18 16093 4.1 200 12:20 02.07.2020
568 Clear 27 1009 18 16093 4.1 200 12:20 02.07.2020
569 Clear 28 1009 18 16093 4.1 200 11:43 02.07.2020
570 Clear 28 1009 18 16093 4.1 200 11:25 02.07.2020
571 Clear 28 1009 17 16093 1.5 200 10:48 02.07.2020
572 Clear 28 1009 17 16093 1.5 200 10:27 02.07.2020
573 Clear 30 1009 16 16093 2.6 180 09:57 02.07.2020
574 Clear 30 1009 16 16093 2.6 180 09:39 02.07.2020
575 Clear 29 1008 14 16093 3.6 170 09:20 02.07.2020
576 Clear 30 1008 14 16093 3.6 170 08:44 02.07.2020
577 Clear 30 1008 14 16093 3.6 170 08:24 02.07.2020
578 Clear 31 1008 13 16093 4.1 200 07:56 02.07.2020
579 Clear 31 1008 13 16093 4.1 200 07:37 02.07.2020
580 Clear 32 1007 16 16093 2.1 210 07:18 02.07.2020
581 Clear 32 1007 16 16093 2.1 210 06:40 02.07.2020
582 Clear 33 1007 10 16093 4.1 230 06:20 02.07.2020
583 Clear 33 1007 10 16093 4.1 230 05:44 02.07.2020
584 Clear 36 1006 9 16093 5.1 220 03:55 02.07.2020
585 Clear 36 1006 9 16093 5.1 220 03:31 02.07.2020
586 Clear 37 1008 10 16093 5.1 170 00:48 02.07.2020
587 Clear 36 1008 9 16093 6.2 190 00:25 02.07.2020
588 Clear 36 1008 9 16093 6.2 190 23:47 01.07.2020
589 Clear 36 1008 9 16093 6.2 190 23:27 01.07.2020
590 Clear 36 1009 11 16093 4.1 160 22:57 01.07.2020
591 Clear 36 1009 11 16093 4.1 160 22:38 01.07.2020
592 Clear 36 1010 10 16093 5.7 150 22:19 01.07.2020
593 Clear 35 1010 10 16093 5.7 150 21:58 01.07.2020
594 Clear 35 1010 10 16093 5.7 150 21:40 01.07.2020
595 Clear 34 1011 10 16093 5.1 160 21:22 01.07.2020
596 Clear 34 1011 10 16093 5.1 160 20:56 01.07.2020
597 Clear 34 1011 10 16093 5.1 160 20:56 01.07.2020
598 Clear 34 1011 10 16093 5.1 160 20:38 01.07.2020
599 Clear 34 1011 10 16093 5.1 160 20:38 01.07.2020
600 Clear 33 1011 11 16093 3.6 70 20:19 01.07.2020
601 Clear 33 1011 11 16093 3.6 70 19:43 01.07.2020
602 Clear 32 1011 15 16093 3.1 140 19:24 01.07.2020
603 Clear 31 1011 15 16093 3.1 140 18:59 01.07.2020
604 Clear 31 1011 15 16093 3.1 140 18:40 01.07.2020
605 Clear 29 1011 14 16093 2.15 135 18:21 01.07.2020
606 Clear 28 1011 14 16093 2.15 135 17:56 01.07.2020
607 Clear 28 1011 14 16093 2.15 135 17:37 01.07.2020
608 Clear 27 1010 15 16093 2.1 300 17:18 01.07.2020
609 Clear 26 1010 15 16093 2.1 300 16:44 01.07.2020
610 Clear 25 1010 15 16093 2.1 300 16:26 01.07.2020
611 Clear 23 1010 16 16093 1.5 250 15:43 01.07.2020
612 Clear 23 1010 16 16093 1.5 250 15:25 01.07.2020
613 Clear 23 1009 14 16093 1.5 210 14:59 01.07.2020
614 Clear 23 1009 14 16093 1.5 210 14:41 01.07.2020
615 Clear 23 1009 14 16093 0.59 211 14:21 01.07.2020
616 Clear 23 1009 14 16093 0.59 211 13:56 01.07.2020
617 Clear 23 1009 14 16093 0.59 211 13:37 01.07.2020
618 Clear 23 1009 11 16093 1.5 0 13:19 01.07.2020
619 Clear 24 1009 11 16093 1.5 0 12:54 01.07.2020
620 Clear 24 1009 11 16093 1.5 0 12:36 01.07.2020
621 Clear 26 1009 10 16093 4.1 260 12:18 01.07.2020
622 Clear 25 1009 10 16093 4.1 260 11:40 01.07.2020
623 Clear 25 1009 10 16093 2.6 210 11:21 01.07.2020
624 Clear 25 1009 10 16093 2.6 210 10:57 01.07.2020
625 Clear 25 1009 10 16093 2.6 210 10:57 01.07.2020
626 Clear 25 1009 10 16093 2.6 210 10:39 01.07.2020
627 Clear 25 1009 9 16093 3.1 230 10:20 01.07.2020
628 Clear 27 1009 9 16093 3.1 230 09:39 01.07.2020
629 Clear 27 1009 9 16093 3.6 220 09:20 01.07.2020
630 Clear 28 1009 9 16093 3.6 220 08:59 01.07.2020
631 Clear 28 1009 9 16093 3.6 220 08:40 01.07.2020
632 Clear 29 1009 8 16093 1.5 200 08:19 01.07.2020
633 Clear 29 1009 8 16093 1.5 200 07:42 01.07.2020
634 Clear 29 1009 8 16093 1.5 200 07:24 01.07.2020
635 Clear 30 1009 10 16093 3.1 290 06:55 01.07.2020
636 Clear 31 1009 10 16093 3.1 290 06:32 01.07.2020
637 Clear 31 1008 7 16093 2.6 320 05:46 01.07.2020
638 Clear 34 1008 6 16093 2.6 230 04:29 01.07.2020
639 Clear 34 1008 7 16093 3.1 0 03:41 01.07.2020
640 Clear 35 1009 7 16093 2.1 0 03:21 01.07.2020
641 Clear 34 1009 7 16093 4.1 250 02:19 01.07.2020
642 Clear 34 1010 7 16093 3.1 0 00:49 01.07.2020
643 Clear 34 1010 7 16093 3.1 0 00:29 01.07.2020
644 Clear 33 1011 7 16093 5.1 180 23:59 30.06.2020
645 Clear 33 1011 7 16093 5.1 180 23:39 30.06.2020
646 Clear 33 1012 9 16093 2.1 250 23:19 30.06.2020
647 Clear 32 1012 9 16093 2.1 250 22:42 30.06.2020
648 Clear 32 1013 10 16093 2.1 0 22:19 30.06.2020
649 Clear 32 1013 10 16093 2.1 0 21:43 30.06.2020
650 Clear 31 1014 12 16093 3.1 0 21:20 30.06.2020
651 Clear 29 1014 12 16093 3.1 0 20:59 30.06.2020
652 Clear 30 1014 12 16093 3.1 0 20:41 30.06.2020
653 Clear 30 1014 12 16093 3.1 50 20:20 30.06.2020
654 Clear 29 1014 12 16093 3.1 50 19:44 30.06.2020
655 Clear 28 1014 12 16093 2.1 20 19:21 30.06.2020
656 Clear 28 1014 12 16093 2.1 20 19:21 30.06.2020
657 Clear 27 1014 12 16093 2.1 20 18:57 30.06.2020
658 Clear 27 1014 12 16093 2.1 20 18:38 30.06.2020
659 Clear 26 1014 14 16093 2.64 21 18:20 30.06.2020
660 Clear 25 1014 14 16093 2.64 21 17:39 30.06.2020
661 Clear 24 1014 13 16093 1.5 200 17:20 30.06.2020
662 Clear 24 1014 13 16093 1.5 200 16:57 30.06.2020
663 Clear 23 1014 13 16093 1.5 200 16:38 30.06.2020
664 Clear 22 1013 13 16093 2.6 220 16:19 30.06.2020
665 Clear 21 1013 13 16093 2.6 220 15:42 30.06.2020
666 Clear 20 1013 13 16093 2.6 220 15:23 30.06.2020
667 Clear 20 1012 12 16093 2.1 180 14:58 30.06.2020
668 Clear 20 1012 12 16093 2.1 180 14:58 30.06.2020
669 Clear 20 1012 12 16093 2.1 180 14:40 30.06.2020
670 Clear 21 1012 12 16093 2.6 130 14:21 30.06.2020
671 Clear 21 1012 12 16093 2.6 130 13:42 30.06.2020
672 Clear 22 1011 11 16093 3.6 270 13:21 30.06.2020
673 Clear 22 1011 11 16093 3.6 270 12:59 30.06.2020
674 Clear 22 1011 11 16093 3.6 270 12:41 30.06.2020
675 Clear 23 1011 11 16093 2.6 200 12:23 30.06.2020
676 Clear 23 1011 11 16093 2.6 200 11:59 30.06.2020
677 Clear 23 1011 11 16093 2.6 200 11:39 30.06.2020
678 Clear 23 1011 12 16093 2.1 280 11:20 30.06.2020
679 Clear 23 1011 12 16093 2.1 280 11:20 30.06.2020
680 Clear 23 1011 12 16093 2.1 280 11:20 30.06.2020
681 Clear 23 1011 12 16093 2.1 280 10:59 30.06.2020
682 Clouds 31 1003 23 16093 5.1 190 16:44 28.06.2020
683 Clouds 31 1003 23 16093 5.1 190 16:26 28.06.2020
684 Clouds 31 1003 23 16093 5.1 190 16:26 28.06.2020
685 Clouds 30 1003 25 16093 5.7 190 15:58 28.06.2020
686 Clouds 30 1003 25 16093 5.7 190 15:58 28.06.2020
687 Clouds 30 1003 25 16093 5.7 190 15:39 28.06.2020
688 Clouds 30 1002 25 16093 3.1 170 15:19 28.06.2020
689 Clouds 30 1002 25 16093 3.1 170 14:47 28.06.2020
690 Clouds 30 1002 25 16093 3.1 170 14:47 28.06.2020
691 Clouds 31 1002 25 16093 3.1 170 14:28 28.06.2020
692 Clouds 31 1003 25 16093 2.1 190 13:59 28.06.2020
693 Clouds 31 1003 25 16093 2.1 190 13:38 28.06.2020
694 Clouds 31 1003 25 16093 2.1 190 13:38 28.06.2020
695 Clouds 31 1003 25 16093 2.1 190 13:38 28.06.2020
696 Clouds 31 1003 24 16093 5.7 210 13:20 28.06.2020
697 Clouds 31 1003 24 16093 5.7 210 13:20 28.06.2020
698 Clouds 31 1003 24 16093 5.7 210 12:56 28.06.2020
699 Clouds 32 1003 24 16093 5.7 210 12:37 28.06.2020
700 Clouds 32 1003 26 16093 5.1 190 12:19 28.06.2020
701 Clouds 32 1003 26 16093 5.1 190 11:56 28.06.2020
702 Clouds 32 1003 26 16093 5.1 190 11:38 28.06.2020
703 Clouds 32 1004 21 16093 5.1 210 11:19 28.06.2020
704 Clouds 34 1004 21 16093 5.1 210 10:55 28.06.2020
705 Clouds 34 1004 21 16093 5.1 210 10:36 28.06.2020
706 Clouds 34 1004 21 16093 5.1 210 10:36 28.06.2020
707 Clouds 34 1004 20 16093 5.7 200 10:18 28.06.2020
708 Clouds 35 1004 20 16093 5.7 200 09:39 28.06.2020
709 Clouds 34 1004 15 16093 5.1 200 09:20 28.06.2020
710 Clouds 35 1004 15 16093 5.1 200 08:47 28.06.2020
711 Clouds 35 1004 15 16093 5.1 200 08:25 28.06.2020
712 Clouds 36 1004 10 16093 3.6 200 07:47 28.06.2020
713 Clouds 36 1004 10 16093 3.6 200 07:47 28.06.2020
714 Clouds 36 1004 10 16093 3.6 200 07:28 28.06.2020
715 Clouds 37 1004 9 16093 3.6 200 06:41 28.06.2020
716 Clouds 37 1004 10 16093 3.6 210 06:22 28.06.2020
717 Clouds 38 1004 10 16093 3.6 210 05:26 28.06.2020
718 Clouds 41 1004 9 16093 5.7 180 03:32 28.06.2020
719 Clouds 41 1005 9 16093 5.7 180 02:39 28.06.2020
720 Clouds 41 1005 8 16093 5.1 160 01:53 28.06.2020
721 Clouds 42 1005 8 16093 5.1 160 01:26 28.06.2020
722 Clouds 41 1006 6 16093 2.6 0 00:46 28.06.2020
723 Clouds 41 1006 6 16093 2.6 0 00:46 28.06.2020
724 Clouds 41 1008 7 16093 6.13 154 00:24 28.06.2020
725 Clouds 41 1008 7 16093 6.13 154 23:41 27.06.2020
726 Clouds 41 1008 7 16093 5.07 145 23:23 27.06.2020
727 Clouds 41 1009 9 16093 3.6 120 22:58 27.06.2020
728 Clouds 41 1009 9 16093 3.6 120 22:40 27.06.2020
729 Clouds 40 1010 12 16093 3.6 100 22:19 27.06.2020
730 Clouds 39 1010 12 16093 3.6 100 21:43 27.06.2020
731 Clouds 38 1011 13 16093 3.1 50 21:21 27.06.2020
732 Clouds 37 1011 13 16093 3.1 50 20:57 27.06.2020
733 Clouds 37 1011 13 16093 3.1 50 20:57 27.06.2020
734 Clouds 37 1011 13 16093 3.1 50 20:37 27.06.2020
735 Clouds 36 1011 17 16093 1.5 0 20:18 27.06.2020
736 Clouds 35 1011 17 16093 1.5 0 19:54 27.06.2020
737 Clouds 35 1011 17 16093 1.5 0 19:36 27.06.2020
738 Clouds 35 1011 18 16093 1.71 133 19:18 27.06.2020
739 Clouds 33 1011 18 16093 1.71 133 18:42 27.06.2020
740 Clear 33 1011 16 16093 1.06 117 18:21 27.06.2020
741 Clear 31 1011 16 16093 1.06 117 17:41 27.06.2020
742 Clouds 30 1011 18 16093 0.75 101 17:21 27.06.2020
743 Clouds 30 1011 18 16093 0.75 101 17:21 27.06.2020
744 Clouds 29 1011 18 16093 0.75 101 16:59 27.06.2020
745 Clouds 29 1011 18 16093 0.75 101 16:39 27.06.2020
746 Clouds 27 1010 19 16093 2.1 210 16:20 27.06.2020
747 Clouds 26 1010 19 16093 2.1 210 15:45 27.06.2020
748 Clouds 26 1010 19 16093 2.1 210 15:24 27.06.2020
749 Clouds 26 1010 19 16093 2.1 210 15:24 27.06.2020
750 Clouds 26 1010 19 16093 2.6 220 14:59 27.06.2020
751 Clouds 27 1010 19 16093 2.6 220 14:39 27.06.2020
752 Clear 26 1009 20 16093 1.5 210 14:20 27.06.2020
753 Clear 26 1009 20 16093 1.5 210 13:54 27.06.2020
754 Clear 26 1009 20 16093 1.5 210 13:36 27.06.2020
755 Clear 27 1009 18 16093 3.6 220 13:18 27.06.2020
756 Clear 27 1009 18 16093 3.6 220 12:41 27.06.2020
757 Clear 27 1009 17 16093 2.1 200 12:22 27.06.2020
758 Clear 28 1009 17 16093 2.1 200 11:59 27.06.2020
759 Clear 28 1009 17 16093 2.1 200 11:59 27.06.2020
760 Clear 28 1009 17 16093 2.1 200 11:40 27.06.2020
761 Clear 28 1009 15 16093 2.1 230 11:21 27.06.2020
762 Clear 29 1009 15 16093 2.1 230 10:41 27.06.2020
763 Clear 30 1010 17 16093 1.5 220 10:19 27.06.2020
764 Clear 31 1010 17 16093 1.5 220 09:58 27.06.2020
765 Clear 31 1010 17 16093 1.5 220 09:39 27.06.2020
766 Clouds 31 1010 16 16093 4.1 190 09:20 27.06.2020
767 Clouds 32 1010 16 16093 4.1 190 08:44 27.06.2020
768 Clouds 32 1010 16 16093 4.1 190 08:23 27.06.2020
769 Clouds 33 1010 14 16093 3.6 200 07:48 27.06.2020
770 Clouds 33 1009 14 16093 4.1 200 07:25 27.06.2020
771 Clouds 34 1009 14 16093 4.1 200 06:51 27.06.2020
772 Clouds 34 1009 14 16093 4.1 200 06:33 27.06.2020
773 Clouds 36 1008 12 16093 5.7 230 04:44 27.06.2020
774 Clouds 37 1008 7 16093 6.35 224 04:18 27.06.2020
775 Clouds 38 1008 7 16093 6.35 224 03:43 27.06.2020
776 Clouds 39 1009 13 16093 2.1 0 02:42 27.06.2020
777 Clouds 39 1009 12 16093 2.1 0 02:22 27.06.2020
778 Clouds 39 1009 10 16093 1.5 260 01:24 27.06.2020
779 Clouds 39 1010 12 16093 3.6 190 00:42 27.06.2020
780 Clouds 38 1011 14 16093 2.6 340 23:47 26.06.2020
781 Clouds 38 1011 14 16093 2.6 340 23:27 26.06.2020
782 Clouds 38 1011 14 16093 2.6 340 23:27 26.06.2020
783 Clouds 38 1011 14 16093 2.6 100 22:58 26.06.2020
784 Clouds 37 1011 14 16093 2.6 100 22:39 26.06.2020
785 Clouds 37 1012 15 16093 2.6 40 22:20 26.06.2020
786 Clouds 37 1012 15 16093 2.6 40 21:58 26.06.2020
787 Clouds 36 1012 15 16093 2.6 40 21:38 26.06.2020
788 Clouds 36 1012 16 16093 3.6 100 21:20 26.06.2020
789 Clouds 36 1012 16 16093 3.6 100 21:20 26.06.2020
790 Clouds 35 1012 16 16093 3.6 100 20:46 26.06.2020
791 Clouds 35 1012 16 16093 3.6 100 20:26 26.06.2020
792 Clouds 34 1012 18 16093 1.5 0 19:47 26.06.2020
793 Clouds 33 1012 21 16093 2.1 10 19:24 26.06.2020
794 Clouds 33 1012 21 16093 2.1 10 18:59 26.06.2020
795 Clouds 32 1012 21 16093 2.1 10 18:38 26.06.2020
796 Clouds 31 1012 22 16093 1.26 33 18:20 26.06.2020
797 Clouds 31 1012 22 16093 1.26 33 17:44 26.06.2020
798 Clouds 31 1012 22 16093 1.25 344 17:26 26.06.2020
799 Clouds 29 1011 25 16093 1.5 250 16:51 26.06.2020
800 Clouds 29 1011 25 16093 1.5 250 16:28 26.06.2020
801 Clouds 27 1011 26 16093 2.1 240 15:58 26.06.2020
802 Clouds 27 1011 26 16093 2.1 240 15:39 26.06.2020
803 Clouds 27 1010 25 16093 1.5 220 15:21 26.06.2020
804 Clouds 27 1010 25 16093 1.5 220 14:57 26.06.2020
805 Clouds 27 1010 25 16093 1.5 220 14:38 26.06.2020
806 Clouds 27 1009 25 16093 2.1 300 14:20 26.06.2020
807 Clouds 27 1009 25 16093 2.1 300 13:44 26.06.2020
808 Clouds 28 1009 22 16093 5.1 340 13:23 26.06.2020
809 Clouds 29 1009 22 16093 5.1 340 12:55 26.06.2020
810 Clouds 29 1009 22 16093 5.1 340 12:37 26.06.2020
811 Clouds 29 1009 22 16093 7.7 340 12:18 26.06.2020
812 Clouds 30 1009 22 16093 7.7 340 11:54 26.06.2020
813 Clouds 30 1009 22 16093 7.7 340 11:36 26.06.2020
814 Dust 30 1009 21 16093 8.7 340 11:18 26.06.2020
815 Dust 30 1009 21 16093 8.7 340 11:18 26.06.2020
816 Dust 30 1009 21 16093 8.7 340 10:40 26.06.2020
817 Dust 31 1008 21 16093 9.8 340 10:20 26.06.2020
818 Dust 31 1008 21 16093 9.8 340 09:56 26.06.2020
819 Dust 31 1008 21 16093 9.8 340 09:38 26.06.2020
820 Dust 31 1008 21 16093 9.8 340 09:38 26.06.2020
821 Dust 31 1009 21 14484 12.3 350 09:18 26.06.2020
822 Dust 32 1009 21 14484 12.3 350 08:44 26.06.2020
823 Dust 32 1009 21 14484 12.3 350 08:25 26.06.2020
824 Clear 33 1020 18 16093 14.4 320 07:47 26.06.2020
825 Clouds 34 1007 9 16093 2.6 250 07:23 26.06.2020
826 Clouds 36 1007 9 16093 2.6 250 06:49 26.06.2020
827 Clouds 36 1007 9 16093 2.6 250 06:30 26.06.2020
828 Clouds 37 1006 8 16093 3.6 250 05:52 26.06.2020
829 Clouds 38 1005 8 16093 5.7 250 04:55 26.06.2020
830 Clouds 41 1005 8 16093 5.1 240 02:29 26.06.2020
831 Clouds 41 1005 9 16093 4.1 200 01:26 26.06.2020
832 Clouds 41 1006 9 16093 6.7 110 00:42 26.06.2020
833 Clouds 41 1007 10 16093 2.1 0 00:22 26.06.2020
834 Clouds 40 1007 10 16093 2.1 0 23:46 25.06.2020
835 Clouds 40 1007 10 16093 4.1 230 23:21 25.06.2020
836 Clouds 40 1007 10 16093 4.1 230 22:57 25.06.2020
837 Clouds 40 1007 10 16093 4.1 230 22:38 25.06.2020
838 Clouds 39 1008 11 16093 2.1 0 22:19 25.06.2020
839 Clouds 39 1008 11 16093 2.1 0 21:56 25.06.2020
840 Clouds 39 1008 11 16093 2.1 0 21:38 25.06.2020
841 Clouds 38 1008 12 16093 2.6 80 21:20 25.06.2020
842 Clouds 37 1008 12 16093 2.6 80 20:55 25.06.2020
843 Clouds 38 1008 12 16093 2.6 80 20:37 25.06.2020
844 Clouds 37 1009 15 16093 2.6 70 20:19 25.06.2020
845 Clouds 36 1009 15 16093 2.6 70 19:41 25.06.2020
846 Clouds 36 1009 15 16093 2.6 70 19:19 25.06.2020
847 Clouds 34 1009 15 16093 2.25 147 18:58 25.06.2020
848 Clouds 34 1009 15 16093 2.25 147 18:38 25.06.2020
849 Clouds 33 1009 16 16093 1.5 0 18:19 25.06.2020
850 Clouds 31 1009 16 16093 1.5 0 17:42 25.06.2020
851 Clouds 31 1008 16 16093 3.1 300 17:20 25.06.2020
852 Clouds 31 1008 16 16093 3.1 300 17:20 25.06.2020
853 Clouds 30 1008 16 16093 3.1 300 16:57 25.06.2020
854 Clouds 30 1008 16 16093 3.1 300 16:37 25.06.2020
855 Clouds 29 1008 17 16093 1.5 260 16:18 25.06.2020
856 Clouds 28 1008 17 16093 1.5 260 15:41 25.06.2020
857 Clouds 28 1007 17 16093 2.6 270 15:22 25.06.2020
858 Clouds 28 1007 17 16093 2.6 270 15:22 25.06.2020
859 Clouds 29 1007 17 16093 2.6 270 14:44 25.06.2020
860 Clouds 29 1007 17 16093 2.6 270 14:25 25.06.2020
861 Clouds 28 1006 15 16093 4.6 190 13:59 25.06.2020
862 Clouds 28 1006 15 16093 4.6 190 13:41 25.06.2020
863 Clouds 29 1006 13 16093 3.1 200 13:19 25.06.2020
864 Clouds 29 1006 13 16093 3.1 200 12:46 25.06.2020
865 Clouds 30 1006 13 16093 3.6 190 12:21 25.06.2020
866 Clouds 31 1006 13 16093 3.6 190 11:59 25.06.2020
867 Clouds 31 1006 13 16093 3.6 190 11:40 25.06.2020
868 Clouds 32 1006 12 16093 4.6 200 11:21 25.06.2020
869 Clouds 32 1006 12 16093 4.6 200 10:42 25.06.2020
870 Clouds 33 1006 10 16093 2.6 220 10:24 25.06.2020
871 Clouds 33 1006 10 16093 2.6 220 09:42 25.06.2020
872 Clouds 33 1006 10 16093 2.6 220 09:23 25.06.2020
873 Clouds 34 1006 9 16093 3.6 190 08:59 25.06.2020
874 Clouds 34 1006 9 16093 3.6 190 08:40 25.06.2020
875 Clouds 34 1006 8 16093 2.6 180 08:18 25.06.2020
876 Clouds 34 1006 8 16093 2.6 180 07:42 25.06.2020
877 Clouds 35 1005 8 16093 3.6 220 07:24 25.06.2020
878 Clouds 36 1005 8 16093 3.6 220 06:37 25.06.2020
879 Clouds 37 1005 7 16093 7.2 240 06:18 25.06.2020
880 Clouds 37 1005 7 16093 7.2 240 05:31 25.06.2020
881 Clouds 40 1004 7 16093 6.7 240 03:39 25.06.2020
882 Clouds 41 1005 8 16093 3.1 0 02:46 25.06.2020
883 Clouds 41 1006 8 16093 7.07 230 02:25 25.06.2020
884 Clouds 41 1006 8 16093 7.07 230 01:41 25.06.2020
885 Clouds 41 1007 8 16093 3.1 30 00:50 25.06.2020
886 Clouds 40 1008 8 16093 3.1 0 00:22 25.06.2020
887 Clouds 40 1008 8 16093 3.1 0 23:58 24.06.2020
888 Clouds 40 1008 8 16093 3.1 0 23:38 24.06.2020
889 Clouds 40 1009 9 16093 1.5 0 23:19 24.06.2020
890 Clouds 39 1009 9 16093 1.5 0 22:42 24.06.2020
891 Clouds 39 1010 8 16093 1.5 0 22:21 24.06.2020
892 Clouds 39 1010 8 16093 1.5 0 21:57 24.06.2020
893 Clouds 39 1010 8 16093 1.5 0 21:37 24.06.2020
894 Clouds 38 1011 11 16093 3.1 80 21:19 24.06.2020
895 Clouds 37 1011 11 16093 3.1 80 20:58 24.06.2020
896 Clouds 37 1011 11 16093 3.1 80 20:58 24.06.2020
897 Clouds 37 1011 11 16093 3.1 80 20:39 24.06.2020
898 Clouds 37 1011 13 16093 3.1 70 20:21 24.06.2020
899 Clouds 36 1011 13 16093 3.1 70 19:58 24.06.2020
900 Clouds 36 1011 13 16093 3.1 70 19:38 24.06.2020
901 Clouds 35 1011 11 16093 1.73 113 19:20 24.06.2020
902 Clouds 33 1011 11 16093 1.73 113 18:58 24.06.2020
903 Clouds 33 1011 11 16093 1.73 113 18:39 24.06.2020
904 Clouds 32 1011 12 16093 1.51 83 18:20 24.06.2020
905 Clouds 31 1011 12 16093 1.51 83 17:55 24.06.2020
906 Clouds 31 1011 12 16093 1.51 83 17:37 24.06.2020
907 Clouds 30 1011 14 16093 3.1 290 17:18 24.06.2020
908 Clouds 29 1011 14 16093 3.1 290 16:55 24.06.2020
909 Clouds 29 1011 14 16093 3.1 290 16:37 24.06.2020
910 Clouds 29 1010 15 16093 1.5 200 16:19 24.06.2020
911 Clouds 27 1010 15 16093 1.5 200 15:54 24.06.2020
912 Clouds 27 1010 15 16093 1.5 200 15:36 24.06.2020
913 Clouds 27 1010 14 16093 0.35 118 15:18 24.06.2020
914 Clouds 27 1010 14 16093 0.35 118 14:40 24.06.2020
915 Clouds 27 1009 12 16093 1.5 230 14:22 24.06.2020
916 Clouds 27 1009 12 16093 1.5 230 13:42 24.06.2020
917 Clouds 28 1009 12 16093 1.5 230 13:21 24.06.2020
918 Clouds 29 1009 10 16093 3.1 240 12:45 24.06.2020
919 Clear 29 1009 9 16093 1.5 0 12:22 24.06.2020
920 Clear 30 1009 9 16093 1.5 0 11:58 24.06.2020
921 Clear 31 1009 9 16093 1.5 0 11:40 24.06.2020
922 Clear 31 1009 9 16093 2.6 180 11:22 24.06.2020
923 Clear 31 1009 9 16093 2.6 180 10:48 24.06.2020
924 Clear 31 1009 9 16093 2.6 190 10:20 24.06.2020
925 Clear 31 1009 9 16093 2.6 190 10:20 24.06.2020
926 Clear 32 1009 9 16093 2.6 190 09:57 24.06.2020
927 Clear 32 1009 9 16093 2.6 190 09:39 24.06.2020
928 Clouds 33 1009 7 16093 3.1 180 09:20 24.06.2020
929 Clouds 33 1009 7 16093 3.1 180 08:40 24.06.2020
930 Clouds 33 1009 7 16093 3.1 190 08:19 24.06.2020
931 Clouds 34 1009 7 16093 3.1 190 07:50 24.06.2020
932 Clouds 35 1008 7 16093 3.1 180 07:26 24.06.2020
933 Clouds 36 1008 7 16093 3.1 180 06:46 24.06.2020
934 Clouds 37 1008 5 16093 3.6 170 06:24 24.06.2020
935 Clouds 38 1008 5 16093 3.6 170 05:46 24.06.2020
936 Clouds 40 1008 6 16093 3.6 170 04:40 24.06.2020
937 Clouds 41 1008 6 16093 4.6 180 03:40 24.06.2020
938 Clouds 41 1009 6 16093 5.1 190 03:18 24.06.2020
939 Clouds 42 1009 6 16093 5.1 190 02:36 24.06.2020
940 Clouds 42 1011 6 16093 2.6 0 00:53 24.06.2020
941 Clouds 42 1011 6 16093 2.6 0 00:34 24.06.2020
942 Clouds 41 1012 7 16093 5.36 148 23:49 23.06.2020
943 Clouds 40 1012 7 16093 4.06 138 23:24 23.06.2020
944 Clouds 40 1013 6 16093 2.1 0 22:59 23.06.2020
945 Clouds 40 1013 6 16093 2.1 0 22:59 23.06.2020
946 Clouds 40 1013 6 16093 2.1 0 22:59 23.06.2020
947 Clouds 40 1013 6 16093 2.1 0 22:41 23.06.2020
948 Clear 39 1013 9 16093 2.6 50 22:19 23.06.2020
949 Clear 39 1013 9 16093 2.6 50 21:56 23.06.2020
950 Clear 38 1013 9 16093 2.6 50 21:37 23.06.2020
951 Clear 38 1014 11 16093 2.6 60 21:18 23.06.2020
952 Clear 37 1014 11 16093 2.6 60 20:55 23.06.2020
953 Clear 37 1014 11 16093 2.6 60 20:36 23.06.2020
954 Clear 37 1014 11 16093 2.6 60 20:36 23.06.2020
955 Clear 36 1014 12 16093 1.44 104 20:18 23.06.2020
956 Clear 35 1014 12 16093 1.44 104 19:41 23.06.2020
957 Clear 35 1014 13 16093 1.29 97 19:23 23.06.2020
958 Clear 34 1014 13 16093 1.29 97 18:39 23.06.2020
959 Clear 33 1014 15 16093 1.02 77 18:19 23.06.2020
960 Clear 32 1014 15 16093 1.02 77 17:43 23.06.2020
961 Clear 32 1014 15 16093 0.83 57 17:25 23.06.2020
962 Clear 30 1013 14 16093 2.6 290 16:57 23.06.2020
963 Clear 30 1013 14 16093 2.6 290 16:38 23.06.2020
964 Clouds 29 1013 16 16093 2.1 240 16:20 23.06.2020
965 Clouds 28 1013 16 16093 2.1 240 15:57 23.06.2020
966 Clouds 28 1013 16 16093 2.1 240 15:57 23.06.2020
967 Clouds 28 1013 16 16093 2.1 240 15:39 23.06.2020
968 Clear 28 1012 16 16093 2.1 280 15:18 23.06.2020
969 Clear 28 1012 16 16093 2.1 280 14:43 23.06.2020
970 Clear 28 1012 18 16093 2.1 310 14:20 23.06.2020
971 Clear 29 1012 18 16093 2.1 310 13:58 23.06.2020
972 Clear 29 1012 18 16093 2.1 310 13:39 23.06.2020
973 Clear 29 1011 12 16093 1.5 230 13:20 23.06.2020
974 Clear 30 1011 12 16093 1.5 230 12:45 23.06.2020
975 Clear 31 1011 11 16093 3.1 190 12:23 23.06.2020
976 Clear 32 1011 11 16093 3.1 190 11:58 23.06.2020
977 Clear 31 1011 11 16093 3.1 190 11:40 23.06.2020
978 Clear 32 1011 10 16093 3.6 190 11:19 23.06.2020
979 Clear 32 1011 10 16093 3.6 190 10:57 23.06.2020
980 Clear 32 1011 10 16093 3.6 190 10:39 23.06.2020
981 Clear 32 1011 9 16093 3.1 190 10:21 23.06.2020
982 Clear 33 1011 9 16093 3.1 190 09:42 23.06.2020
983 Clear 34 1011 8 16093 3.6 200 09:21 23.06.2020
984 Clear 34 1011 8 16093 3.6 200 08:58 23.06.2020
985 Clear 35 1011 8 16093 3.6 200 08:39 23.06.2020
986 Clear 35 1010 9 16093 3.1 220 08:20 23.06.2020
987 Clear 36 1010 9 16093 3.1 220 07:40 23.06.2020
988 Clear 36 1010 9 16093 3.1 220 07:22 23.06.2020
989 Clear 36 1010 11 16093 3.6 170 06:49 23.06.2020
990 Clear 37 1010 11 16093 3.6 170 06:31 23.06.2020
991 Clear 38 1010 11 16093 2.6 160 05:42 23.06.2020
992 Clear 41 1010 8 16093 5.1 120 03:39 23.06.2020
993 Clear 41 1011 8 16093 4.6 100 02:56 23.06.2020
994 Clear 41 1011 8 16093 4.6 100 02:37 23.06.2020
995 Clear 41 1011 8 16093 4.6 70 02:19 23.06.2020
996 Clear 42 1011 8 16093 4.6 70 01:37 23.06.2020
997 Clear 42 1011 8 16093 4.6 70 01:18 23.06.2020
998 Clear 41 1013 10 16093 4.6 120 00:24 23.06.2020
999 Clear 41 1013 10 16093 4.6 120 23:57 22.06.2020
1000 Clear 41 1013 10 16093 4.6 120 23:38 22.06.2020
1001 Clouds 40 1013 10 16093 2.1 140 23:19 22.06.2020
1002 Clouds 39 1013 10 16093 2.1 140 22:57 22.06.2020
1003 Clouds 39 1013 10 16093 2.1 140 22:38 22.06.2020
1004 Clouds 39 1014 10 16093 1.5 10 22:19 22.06.2020
1005 Clouds 39 1014 10 16093 1.5 10 22:19 22.06.2020
1006 Clouds 38 1014 10 16093 1.5 10 21:57 22.06.2020
1007 Clouds 38 1014 10 16093 1.5 10 21:38 22.06.2020
1008 Clouds 37 1014 11 16093 3.1 60 21:20 22.06.2020
1009 Clouds 37 1014 11 16093 3.1 60 21:20 22.06.2020
1010 Clouds 37 1014 11 16093 3.1 60 20:41 22.06.2020
1011 Clouds 36 1014 11 16093 1.5 310 20:23 22.06.2020
1012 Clouds 35 1014 11 16093 1.5 310 19:56 22.06.2020
1013 Clouds 35 1014 11 16093 1.5 310 19:37 22.06.2020
1014 Clouds 35 1014 12 16093 1.5 0 19:18 22.06.2020
1015 Clouds 34 1014 12 16093 1.5 0 18:40 22.06.2020
1016 Clouds 33 1014 12 16093 1.5 0 18:21 22.06.2020
1017 Clouds 32 1014 13 16093 2.6 290 17:57 22.06.2020
1018 Clouds 32 1014 13 16093 2.6 290 17:38 22.06.2020
1019 Clouds 31 1014 13 16093 2.6 290 17:19 22.06.2020
1020 Clouds 31 1013 15 16093 2.6 300 16:55 22.06.2020
1021 Clouds 30 1013 15 16093 2.6 300 16:37 22.06.2020
1022 Clouds 30 1013 15 16093 2.6 300 16:18 22.06.2020
1023 Clouds 27 1012 20 16093 1.5 210 15:42 22.06.2020
1024 Clouds 27 1012 20 16093 1.5 210 15:24 22.06.2020
1025 Clouds 27 1011 18 16093 1.5 230 14:56 22.06.2020
1026 Clouds 27 1011 18 16093 1.5 230 14:36 22.06.2020
1027 Clouds 28 1011 18 16093 1.5 230 14:18 22.06.2020
1028 Clouds 28 1011 17 16093 2.1 260 13:39 22.06.2020
1029 Clouds 28 1011 17 16093 2.1 260 13:21 22.06.2020
1030 Clouds 29 1010 16 16093 2.6 200 12:59 22.06.2020
1031 Clouds 29 1010 16 16093 2.6 200 12:40 22.06.2020
1032 Clouds 29 1010 16 16093 2.6 200 12:22 22.06.2020
1033 Clouds 30 1010 15 16093 3.6 190 11:37 22.06.2020
1034 Clouds 30 1010 15 16093 3.6 190 11:19 22.06.2020
1035 Clouds 31 1010 13 16093 3.6 190 10:57 22.06.2020
1036 Clouds 31 1010 13 16093 3.6 190 10:38 22.06.2020
1037 Clouds 31 1010 13 16093 3.6 190 10:19 22.06.2020
1038 Clouds 31 1010 11 16093 3.1 190 09:56 22.06.2020
1039 Clouds 32 1010 11 16093 3.1 190 09:38 22.06.2020
1040 Clouds 32 1010 11 16093 3.1 190 09:18 22.06.2020
1041 Clouds 33 1009 10 16093 2.6 190 08:54 22.06.2020
1042 Clouds 33 1009 10 16093 2.6 190 08:36 22.06.2020
1043 Clouds 33 1009 10 16093 2.6 190 08:18 22.06.2020
1044 Clouds 34 1009 8 16093 3.6 220 07:45 22.06.2020
1045 Clouds 34 1009 8 16093 3.6 220 07:24 22.06.2020
1046 Clouds 36 1009 7 16093 4.6 220 06:38 22.06.2020
1047 Clouds 36 1009 7 16093 4.6 220 06:19 22.06.2020
1048 Clouds 37 1008 8 16093 5.1 230 05:41 22.06.2020
1049 Clouds 40 1007 7 16093 1.5 200 03:41 22.06.2020
1050 Clouds 41 1008 6 16093 4.1 190 01:48 22.06.2020
1051 Clouds 40 1009 7 16093 3.6 100 00:54 22.06.2020
1052 Clouds 40 1009 7 16093 3.6 100 00:29 22.06.2020
1053 Clouds 40 1011 9 16093 2.6 0 23:56 21.06.2020
1054 Clouds 40 1011 9 16093 2.6 0 23:37 21.06.2020
1055 Clouds 40 1011 9 16093 2.6 0 23:19 21.06.2020
1056 Clouds 39 1011 9 16093 2.1 50 22:55 21.06.2020
1057 Clouds 39 1011 9 16093 2.1 50 22:36 21.06.2020
1058 Clouds 40 1011 9 16093 2.1 50 22:18 21.06.2020
1059 Clouds 39 1012 10 16093 4.1 90 21:55 21.06.2020
1060 Clouds 38 1012 10 16093 4.1 90 21:37 21.06.2020
1061 Clouds 38 1012 10 16093 4.1 90 21:18 21.06.2020
1062 Clouds 37 1012 12 16093 3.6 80 20:40 21.06.2020
1063 Clouds 37 1012 12 16093 3.6 80 20:40 21.06.2020
1064 Clouds 37 1012 12 16093 3.6 80 20:21 21.06.2020
1065 Clouds 36 1012 13 16093 2.1 60 19:59 21.06.2020
1066 Clouds 36 1012 13 16093 2.1 60 19:40 21.06.2020
1067 Clouds 35 1012 13 16093 2.1 60 19:20 21.06.2020
1068 Clouds 33 1013 15 16093 1.5 20 18:56 21.06.2020
1069 Clouds 33 1013 15 16093 1.5 20 18:38 21.06.2020
1070 Clouds 33 1013 15 16093 1.5 20 18:19 21.06.2020
1071 Clouds 31 1013 13 16093 1.5 40 17:41 21.06.2020
1072 Clouds 31 1013 13 16093 1.5 40 17:21 21.06.2020
1073 Clouds 29 1012 17 16093 2.1 220 16:57 21.06.2020
1074 Clouds 29 1012 17 16093 2.1 220 16:39 21.06.2020
1075 Clouds 29 1012 17 16093 2.1 220 16:21 21.06.2020
1076 Clouds 28 1012 18 16093 1.5 290 15:40 21.06.2020
1077 Clouds 28 1012 18 16093 1.5 290 15:40 21.06.2020
1078 Clouds 28 1012 18 16093 1.5 290 15:22 21.06.2020
1079 Clouds 28 1011 18 16093 2.1 250 14:58 21.06.2020
1080 Clouds 27 1011 18 16093 2.1 250 14:37 21.06.2020
1081 Clouds 27 1011 18 16093 2.1 250 14:19 21.06.2020
1082 Clear 27 1010 18 16093 3.1 190 13:55 21.06.2020
1083 Clear 28 1010 18 16093 3.1 190 13:36 21.06.2020
1084 Clear 28 1010 18 16093 3.1 190 13:18 21.06.2020
1085 Clouds 28 1010 16 16093 3.6 190 12:42 21.06.2020
1086 Clouds 29 1010 16 16093 3.6 190 12:23 21.06.2020
1087 Clouds 30 1010 12 16093 2.6 190 11:43 21.06.2020
1088 Clouds 30 1010 12 16093 2.6 190 11:25 21.06.2020
1089 Clear 31 1011 10 16093 4.6 200 10:59 21.06.2020
1090 Clear 31 1011 10 16093 4.6 200 10:40 21.06.2020
1091 Clear 31 1011 10 16093 4.6 200 10:22 21.06.2020
1092 Clear 32 1010 10 16093 3.1 210 09:55 21.06.2020
1093 Clear 32 1010 10 16093 3.1 210 09:36 21.06.2020
1094 Clear 32 1010 10 16093 3.1 210 09:18 21.06.2020
1095 Clear 33 1011 11 16093 3.1 190 08:41 21.06.2020
1096 Clear 33 1011 11 16093 3.1 190 08:21 21.06.2020
1097 Clouds 33 1011 11 16093 2.6 180 07:59 21.06.2020
1098 Clouds 34 1011 11 16093 2.6 180 07:40 21.06.2020
1099 Clouds 34 1011 11 16093 2.6 180 07:20 21.06.2020
1100 Clouds 34 1011 11 16093 2.6 180 07:20 21.06.2020
1101 Clouds 35 1010 11 16093 1.5 170 06:46 21.06.2020
1102 Clouds 36 1009 9 16093 4.1 150 05:58 21.06.2020
1103 Clouds 37 1009 8 16093 4.1 150 04:49 21.06.2020
1104 Clouds 39 1009 8 16093 4.6 80 03:20 21.06.2020
1105 Clouds 39 1009 8 16093 3.6 70 02:49 21.06.2020
1106 Clouds 39 1010 8 16093 3.6 70 01:48 21.06.2020
1107 Clouds 39 1010 8 16093 3.6 70 01:21 21.06.2020
1108 Clouds 39 1011 7 16093 3.1 0 00:55 21.06.2020
1109 Clouds 39 1011 7 16093 3.1 0 00:36 21.06.2020
1110 Clouds 39 1011 7 16093 3.1 0 00:18 21.06.2020
1111 Clouds 38 1012 8 16093 4.6 130 23:41 20.06.2020
1112 Clouds 38 1012 8 16093 4.6 130 23:21 20.06.2020
1113 Clouds 38 1013 6 16093 2.6 0 22:55 20.06.2020
1114 Clouds 38 1013 6 16093 2.6 0 22:36 20.06.2020
1115 Clouds 38 1013 6 16093 2.6 0 22:18 20.06.2020
1116 Clouds 37 1014 7 16093 1.5 0 21:55 20.06.2020
1117 Clouds 37 1014 7 16093 1.5 0 21:37 20.06.2020
1118 Clouds 37 1014 7 16093 1.5 0 21:18 20.06.2020
1119 Clouds 35 1014 8 16093 1.5 340 20:54 20.06.2020
1120 Clouds 35 1014 8 16093 1.5 340 20:36 20.06.2020
1121 Clouds 35 1014 8 16093 1.5 340 20:36 20.06.2020
1122 Clouds 35 1014 8 16093 1.5 340 20:18 20.06.2020
1123 Clouds 34 1014 9 16093 1.35 105 19:41 20.06.2020
1124 Clouds 33 1014 9 16093 1.35 102 19:21 20.06.2020
1125 Clouds 31 1014 9 16093 1.5 0 18:43 20.06.2020
1126 Clouds 31 1014 9 16093 1.5 0 18:21 20.06.2020
1127 Clouds 31 1014 10 16093 1.5 50 17:58 20.06.2020
1128 Clouds 30 1014 10 16093 1.5 50 17:40 20.06.2020
1129 Clouds 30 1014 10 16093 1.5 50 17:40 20.06.2020
1130 Clouds 30 1014 10 16093 1.5 50 17:20 20.06.2020
1131 Clouds 27 1013 18 16093 1.03 92 16:56 20.06.2020
1132 Clouds 27 1013 18 16093 1.03 92 16:37 20.06.2020
1133 Clouds 27 1013 18 16093 0.29 92 16:18 20.06.2020
1134 Clouds 24 1012 16 16093 0.29 92 15:42 20.06.2020
1135 Clouds 24 1012 16 16093 0.25 191 15:18 20.06.2020
1136 Clouds 24 1012 16 16093 1.5 30 14:43 20.06.2020
1137 Clouds 24 1012 16 16093 1.5 30 14:21 20.06.2020
1138 Clouds 25 1011 13 16093 3.1 210 13:55 20.06.2020
1139 Clouds 25 1011 13 16093 3.1 210 13:37 20.06.2020
1140 Clouds 25 1011 13 16093 3.1 210 13:19 20.06.2020
1141 Clear 26 1011 10 16093 2.1 200 12:42 20.06.2020
1142 Clear 26 1011 10 16093 2.1 200 12:21 20.06.2020
1143 Clouds 26 1011 10 16093 3.1 270 11:57 20.06.2020
1144 Clouds 26 1011 10 16093 3.1 270 11:37 20.06.2020
1145 Clouds 26 1011 10 16093 3.1 270 11:19 20.06.2020
1146 Clouds 27 1011 11 16093 2.6 230 10:47 20.06.2020
1147 Clouds 26 1011 11 16093 2.6 230 10:22 20.06.2020
1148 Clouds 27 1011 11 16093 2.1 240 09:55 20.06.2020
1149 Clouds 27 1011 11 16093 2.1 240 09:37 20.06.2020
1150 Clouds 28 1011 11 16093 2.1 240 09:19 20.06.2020
1151 Clouds 28 1011 9 16093 3.1 240 08:46 20.06.2020
1152 Clouds 29 1011 9 16093 3.1 240 08:27 20.06.2020
1153 Clouds 30 1010 9 16093 2.13 208 07:51 20.06.2020
1154 Clouds 30 1010 9 16093 2.11 191 07:28 20.06.2020
1155 Clouds 32 1009 9 16093 1.5 130 06:56 20.06.2020
1156 Clouds 31 1009 9 16093 1.5 130 06:23 20.06.2020
1157 Clouds 33 1009 6 16093 4.6 80 05:52 20.06.2020
1158 Clouds 35 1009 6 16093 5.1 70 04:58 20.06.2020
1159 Clouds 36 1009 6 16093 1.48 165 02:27 20.06.2020
1160 Clouds 36 1010 6 16093 2.1 10 01:48 20.06.2020
1161 Clouds 36 1011 7 16093 3.1 240 00:55 20.06.2020
1162 Clouds 36 1011 7 16093 3.1 240 00:21 20.06.2020
1163 Clouds 35 1012 8 16093 1.55 120 23:55 19.06.2020
1164 Clouds 34 1012 8 16093 1.55 120 23:37 19.06.2020
1165 Clouds 34 1012 8 16093 1.2 118 23:18 19.06.2020
1166 Clouds 34 1013 9 16093 3.1 0 22:40 19.06.2020
1167 Clouds 34 1013 9 16093 3.1 0 22:22 19.06.2020
1168 Clouds 33 1013 9 16093 3.1 90 21:58 19.06.2020
1169 Clouds 33 1013 9 16093 3.1 90 21:38 19.06.2020
1170 Clouds 33 1013 9 16093 3.1 90 21:18 19.06.2020
1171 Clouds 32 1014 10 16093 2.1 0 20:58 19.06.2020
1172 Clouds 32 1014 10 16093 2.1 0 20:40 19.06.2020
1173 Clouds 32 1014 10 16093 2.1 0 20:21 19.06.2020
1174 Clouds 30 1014 10 16093 3.1 0 19:57 19.06.2020
1175 Clouds 31 1014 10 16093 3.1 0 19:38 19.06.2020
1176 Clouds 30 1014 10 16093 3.1 0 19:19 19.06.2020
1177 Clouds 29 1014 12 16093 2.6 20 18:41 19.06.2020
1178 Clouds 29 1014 12 16093 2.6 20 18:21 19.06.2020
1179 Clouds 27 1013 15 16093 2.1 30 17:58 19.06.2020
1180 Clouds 27 1013 15 16093 2.1 30 17:38 19.06.2020
1181 Clouds 27 1013 15 16093 2.1 30 17:20 19.06.2020
1182 Clouds 25 1013 15 16093 2.1 150 16:54 19.06.2020
1183 Clouds 25 1013 15 16093 2.1 150 16:36 19.06.2020
1184 Clouds 24 1013 15 16093 2.1 150 16:18 19.06.2020
1185 Clear 22 1012 16 16093 1.59 37 15:42 19.06.2020
1186 Clear 22 1012 16 16093 1.21 31 15:20 19.06.2020
1187 Clear 22 1012 16 12874 2.6 250 14:56 19.06.2020
1188 Clear 22 1012 16 12874 2.6 250 14:38 19.06.2020
1189 Clear 22 1012 16 12874 2.6 250 14:18 19.06.2020
1190 Clear 23 1011 15 16093 1.5 210 13:43 19.06.2020
1191 Clear 23 1011 15 16093 1.5 210 13:25 19.06.2020
1192 Clear 25 1011 13 16093 3.1 20 12:48 19.06.2020
1193 Clear 24 1011 13 16093 3.1 20 12:23 19.06.2020
1194 Clear 24 1010 14 16093 2.36 29 11:58 19.06.2020
1195 Clear 24 1010 14 16093 2.36 29 11:39 19.06.2020
1196 Clear 24 1010 14 16093 1.97 30 11:18 19.06.2020
1197 Clear 24 1010 12 16093 2.6 240 10:46 19.06.2020
1198 Clear 24 1010 12 16093 2.6 240 10:26 19.06.2020
1199 Clear 25 1011 12 16093 2.6 240 09:59 19.06.2020
1200 Clear 25 1011 12 16093 2.6 240 09:41 19.06.2020
1201 Clear 25 1011 12 16093 2.6 240 09:20 19.06.2020
1202 Clear 26 1011 13 16093 1.5 270 08:44 19.06.2020
1203 Clear 27 1011 13 16093 1.5 270 08:26 19.06.2020
1204 Clear 27 1010 10 16093 2.1 220 07:56 19.06.2020
1205 Clear 27 1010 10 16093 2.1 220 07:38 19.06.2020
1206 Clear 28 1010 10 16093 2.1 220 07:19 19.06.2020
1207 Clear 28 1009 8 16093 1.5 70 06:25 19.06.2020
1208 Clear 31 1009 7 16093 1.54 336 05:44 19.06.2020
1209 Clear 33 1009 7 16093 2.1 50 04:25 19.06.2020
1210 Clear 34 1010 7 16093 2.1 0 02:51 19.06.2020
1211 Clear 34 1011 7 16093 0.44 334 00:49 19.06.2020
1212 Clear 33 1011 7 16093 0.99 354 00:22 19.06.2020
1213 Clear 33 1012 8 16093 2.6 0 23:59 18.06.2020
1214 Clear 33 1012 8 16093 2.6 0 23:41 18.06.2020
1215 Clear 33 1012 8 16093 2.6 0 23:23 18.06.2020
1216 Clear 32 1013 8 16093 3.1 0 22:58 18.06.2020
1217 Clear 32 1013 8 16093 3.1 0 22:37 18.06.2020
1218 Clear 32 1013 8 16093 3.1 0 22:18 18.06.2020
1219 Clear 32 1013 8 16093 3.1 0 22:18 18.06.2020
1220 Clear 31 1014 8 16093 3.1 340 21:39 18.06.2020
1221 Clear 31 1014 8 16093 3.1 340 21:20 18.06.2020
1222 Clear 29 1014 9 16093 3.1 50 20:56 18.06.2020
1223 Clear 29 1014 9 16093 3.1 50 20:38 18.06.2020
1224 Clear 29 1014 9 16093 3.1 50 20:18 18.06.2020
1225 Clear 29 1015 9 16093 5.1 20 19:42 18.06.2020
1226 Clear 29 1015 9 16093 5.1 20 19:21 18.06.2020
1227 Clear 28 1015 10 16093 4.6 40 18:57 18.06.2020
1228 Clear 28 1015 10 16093 4.6 40 18:37 18.06.2020
1229 Clear 27 1015 10 16093 4.6 40 18:18 18.06.2020
1230 Clear 26 1015 11 16093 2.6 50 17:45 18.06.2020
1231 Clear 26 1015 11 16093 2.6 50 17:25 18.06.2020
1232 Clear 24 1014 11 16093 3.6 60 16:55 18.06.2020
1233 Clear 24 1014 11 16093 3.6 60 16:37 18.06.2020
1234 Clear 24 1014 11 16093 3.6 60 16:18 18.06.2020
1235 Clear 23 1014 11 16093 5.7 360 15:40 18.06.2020
1236 Clear 22 1014 11 16093 5.7 360 15:21 18.06.2020
1237 Clear 23 1013 8 16093 3.6 60 14:58 18.06.2020
1238 Clear 23 1013 8 16093 3.6 60 14:58 18.06.2020
1239 Clear 22 1013 8 16093 3.6 60 14:40 18.06.2020
1240 Clear 22 1013 8 16093 3.6 60 14:21 18.06.2020
1241 Clear 23 1013 7 16093 4.6 50 13:56 18.06.2020
1242 Clear 23 1013 7 16093 4.6 50 13:38 18.06.2020
1243 Clear 23 1013 7 16093 4.6 50 13:18 18.06.2020
1244 Clear 25 1013 7 16093 3.1 30 12:54 18.06.2020
1245 Clear 25 1013 7 16093 3.1 30 12:36 18.06.2020
1246 Clear 24 1013 7 16093 3.1 30 12:18 18.06.2020
1247 Clear 24 1012 7 16093 5.7 60 11:44 18.06.2020
1248 Clear 24 1012 7 16093 5.7 60 11:21 18.06.2020
1249 Clear 26 1012 9 16093 5.7 80 10:41 18.06.2020
1250 Clear 26 1012 9 16093 5.7 80 10:20 18.06.2020
1251 Clear 26 1012 7 16093 2.1 260 09:57 18.06.2020
1252 Clear 27 1012 7 16093 2.1 260 09:38 18.06.2020
1253 Clear 27 1012 7 16093 2.1 260 09:19 18.06.2020
1254 Clear 27 1012 8 16093 4.6 360 08:40 18.06.2020
1255 Clear 27 1012 8 16093 4.6 360 08:21 18.06.2020
1256 Clear 27 1012 8 16093 4.6 360 08:21 18.06.2020
1257 Clear 27 1011 8 16093 4.1 40 07:46 18.06.2020
1258 Clear 28 1011 8 16093 4.1 40 07:27 18.06.2020
1259 Clear 29 1011 11 16093 3.6 60 06:55 18.06.2020
1260 Clear 30 1010 11 16093 2.6 60 05:58 18.06.2020
1261 Clear 32 1010 10 16093 2.6 330 04:24 18.06.2020
1262 Clear 33 1010 10 16093 2.1 20 02:51 18.06.2020
1263 Clear 33 1011 10 16093 1.5 0 01:29 18.06.2020
1264 Clear 33 1011 11 16093 2.1 230 00:56 18.06.2020
1265 Clear 33 1011 11 16093 2.1 230 00:37 18.06.2020
1266 Clear 33 1011 11 16093 2.1 230 00:19 18.06.2020
1267 Clear 32 1012 11 16093 2.6 0 23:42 17.06.2020
1268 Clear 32 1012 11 16093 2.6 0 23:20 17.06.2020
1269 Haze 31 1012 12 16093 1.5 200 22:57 17.06.2020
1270 Haze 31 1012 12 16093 1.5 200 22:38 17.06.2020
1271 Haze 31 1012 12 16093 1.5 200 22:20 17.06.2020
1272 Clear 31 1013 11 16093 2.1 10 21:55 17.06.2020
1273 Clear 31 1013 11 16093 2.1 10 21:36 17.06.2020
1274 Clear 31 1013 11 16093 2.1 10 21:18 17.06.2020
1275 Haze 29 1013 13 16093 5.7 350 20:38 17.06.2020
1276 Haze 29 1013 13 16093 5.7 350 20:19 17.06.2020
1277 Haze 29 1013 13 16093 5.7 350 20:19 17.06.2020
1278 Clear 29 1013 13 16093 7.7 10 19:46 17.06.2020
1279 Clear 29 1013 13 16093 7.7 10 19:23 17.06.2020
1280 Clear 29 1013 13 16093 7.7 10 19:23 17.06.2020
1281 Clear 28 1013 14 16093 8.2 360 18:59 17.06.2020
1282 Clear 27 1013 14 16093 8.2 360 18:40 17.06.2020
1283 Clear 27 1013 14 16093 8.2 360 18:22 17.06.2020
1284 Clear 27 1012 14 16093 7.2 350 17:44 17.06.2020
1285 Clear 27 1012 14 16093 7.2 350 17:22 17.06.2020
1286 Clear 25 1011 25 16093 1.5 210 16:57 17.06.2020
1287 Clear 24 1011 25 16093 1.5 210 16:38 17.06.2020
1288 Clear 25 1011 25 16093 1.5 210 16:20 17.06.2020
1289 Clear 24 1010 25 16093 2.6 190 15:56 17.06.2020
1290 Clear 22 1009 25 16093 3.1 320 15:38 17.06.2020
1291 Clear 22 1008 27 16093 4.6 160 15:18 17.06.2020
1292 Clear 22 1008 27 16093 4.6 160 14:56 17.06.2020
1293 Clear 22 1008 27 16093 4.6 160 14:38 17.06.2020
1294 Clear 22 1008 27 16093 4.6 160 14:19 17.06.2020
1295 Clear 22 1008 23 16093 6.7 200 13:42 17.06.2020
1296 Clear 23 1008 23 16093 6.7 200 13:22 17.06.2020
1297 Clear 23 1007 20 16093 3.1 200 12:58 17.06.2020
1298 Clear 24 1007 20 16093 3.1 200 12:40 17.06.2020
1299 Clear 24 1007 20 16093 3.1 200 12:20 17.06.2020
1300 Clear 25 1006 22 16093 4.1 200 11:44 17.06.2020
1301 Clear 25 1006 22 16093 4.1 200 11:24 17.06.2020
1302 Clear 26 1006 21 16093 6.7 200 10:55 17.06.2020
1303 Clear 26 1006 21 16093 6.7 200 10:37 17.06.2020
1304 Clear 26 1006 21 16093 6.7 200 10:18 17.06.2020
1305 Clear 27 1007 21 16093 5.1 170 09:54 17.06.2020
1306 Clear 27 1007 21 16093 5.1 170 09:36 17.06.2020
1307 Clear 27 1007 21 16093 5.1 170 09:18 17.06.2020
1308 Clear 28 1007 20 16093 3.1 170 08:41 17.06.2020
1309 Clear 28 1007 20 16093 3.1 170 08:19 17.06.2020
1310 Clear 28 1007 20 16093 3.1 170 08:19 17.06.2020
1311 Clear 29 1006 17 16093 4.6 230 07:43 17.06.2020
1312 Clear 29 1006 17 16093 4.6 230 07:23 17.06.2020
1313 Clear 30 1006 15 16093 6.2 250 06:57 17.06.2020
1314 Clear 30 1006 15 16093 6.2 250 06:38 17.06.2020
1315 Clear 31 1006 15 16093 6.2 250 06:20 17.06.2020
1316 Clear 32 1005 15 16093 6.2 240 05:31 17.06.2020
1317 Clear 35 1004 12 16093 7.2 230 03:30 17.06.2020
1318 Clear 35 1006 11 16093 7.7 220 01:55 17.06.2020
1319 Clear 35 1007 12 16093 8.2 240 00:48 17.06.2020
1320 Clear 35 1007 11 16093 8.2 240 00:25 17.06.2020
1321 Clear 35 1007 9 16093 6.2 230 23:57 16.06.2020
1322 Clear 35 1007 9 16093 6.2 230 23:38 16.06.2020
1323 Clear 35 1007 9 16093 6.2 230 23:19 16.06.2020
1324 Clear 34 1008 10 16093 6.7 220 22:56 16.06.2020
1325 Clear 34 1008 10 16093 6.7 220 22:37 16.06.2020
1326 Clear 34 1008 10 16093 6.7 220 22:18 16.06.2020
1327 Clear 34 1009 14 16093 8.2 210 21:47 16.06.2020
1328 Clear 33 1009 14 16093 8.2 210 21:24 16.06.2020
1329 Clear 32 1009 15 16093 6.7 220 20:58 16.06.2020
1330 Clear 32 1009 15 16093 6.7 220 20:40 16.06.2020
1331 Clear 32 1009 15 16093 6.7 220 20:19 16.06.2020
1332 Clear 31 1009 16 16093 6.7 200 19:58 16.06.2020
1333 Clear 31 1009 16 16093 6.7 200 19:39 16.06.2020
1334 Clear 31 1009 16 16093 6.7 200 19:21 16.06.2020
1335 Clear 30 1009 21 16093 5.1 200 18:55 16.06.2020
1336 Clear 30 1009 21 16093 5.1 200 18:36 16.06.2020
1337 Clear 29 1009 21 16093 5.1 200 18:18 16.06.2020
1338 Clouds 29 1009 23 16093 5.7 180 17:54 16.06.2020
1339 Clouds 29 1009 23 16093 5.7 180 17:36 16.06.2020
1340 Clouds 29 1009 23 16093 5.7 180 17:18 16.06.2020
1341 Clouds 27 1008 24 16093 6.7 180 16:42 16.06.2020
1342 Clouds 27 1008 24 16093 6.7 180 16:20 16.06.2020
1343 Clouds 26 1008 24 16093 4.6 170 15:58 16.06.2020
1344 Clouds 26 1008 24 16093 4.6 170 15:40 16.06.2020
1345 Clouds 26 1008 24 16093 4.6 170 15:21 16.06.2020
1346 Clouds 27 1008 21 16093 6.7 190 14:57 16.06.2020
1347 Clouds 26 1008 21 16093 6.7 190 14:38 16.06.2020
1348 Clouds 26 1008 21 16093 6.7 190 14:20 16.06.2020
1349 Clouds 26 1008 21 16093 5.7 200 13:48 16.06.2020
1350 Clouds 26 1008 21 16093 5.7 200 13:26 16.06.2020
1351 Clouds 27 1008 20 16093 3.6 200 12:57 16.06.2020
1352 Clouds 26 1008 20 16093 3.6 200 12:38 16.06.2020
1353 Clouds 26 1008 20 16093 3.6 200 12:19 16.06.2020
1354 Clouds 27 1008 18 16093 6.2 200 11:54 16.06.2020
1355 Clouds 27 1008 18 16093 6.2 200 11:36 16.06.2020
1356 Clouds 28 1008 18 16093 6.2 200 11:18 16.06.2020
1357 Clouds 28 1008 17 16093 4.1 210 10:42 16.06.2020
1358 Clouds 28 1008 17 16093 4.1 210 10:20 16.06.2020
1359 Clouds 28 1008 17 16093 4.1 210 10:20 16.06.2020
1360 Clouds 29 1008 21 16093 4.6 200 09:48 16.06.2020
1361 Clouds 30 1008 17 16093 4.6 200 09:27 16.06.2020
1362 Clouds 30 1008 17 16093 2.6 210 08:59 16.06.2020
1363 Clouds 30 1008 17 16093 2.6 210 08:41 16.06.2020
1364 Clouds 30 1008 15 16093 2.6 210 08:22 16.06.2020
1365 Clouds 31 1008 15 16093 3.6 190 07:45 16.06.2020
1366 Clouds 31 1008 14 16093 3.6 190 07:26 16.06.2020
1367 Clouds 32 1008 10 16093 4.1 230 06:44 16.06.2020
1368 Clouds 32 1008 10 16093 4.1 230 06:19 16.06.2020
1369 Clouds 33 1008 9 16093 5.7 230 05:26 16.06.2020
1370 Clouds 35 1008 9 16093 6.2 240 04:26 16.06.2020
1371 Clouds 36 1009 8 16093 4.1 200 02:47 16.06.2020
1372 Clouds 37 1009 8 16093 2.6 0 01:34 16.06.2020
1373 Clouds 36 1011 8 16093 3.1 170 00:58 16.06.2020
1374 Clouds 36 1011 8 16093 3.1 170 00:29 16.06.2020
1375 Clouds 36 1011 8 16093 5.1 150 23:59 15.06.2020
1376 Clouds 36 1011 8 16093 5.1 150 23:41 15.06.2020
1377 Clouds 36 1011 8 16093 5.1 150 23:21 15.06.2020
1378 Clouds 36 1011 8 16093 5.1 150 23:21 15.06.2020
1379 Clouds 35 1012 9 16093 5.1 130 22:42 15.06.2020
1380 Clouds 35 1012 9 16093 5.1 130 22:23 15.06.2020
1381 Clouds 34 1013 10 16093 2.1 130 21:58 15.06.2020
1382 Clouds 34 1013 10 16093 2.1 130 21:38 15.06.2020
1383 Clouds 34 1013 10 16093 2.1 130 21:20 15.06.2020
1384 Clouds 33 1014 11 16093 3.6 90 20:59 15.06.2020
1385 Clouds 33 1014 11 16093 3.6 90 20:39 15.06.2020
1386 Clouds 33 1014 11 16093 3.6 90 20:19 15.06.2020
1387 Clouds 32 1014 14 16093 2.6 110 19:57 15.06.2020
1388 Clouds 32 1014 14 16093 2.6 110 19:57 15.06.2020
1389 -273 0 0 0 0 0 19:39 15.06.2020
1390 Clouds 31 1014 14 16093 2.6 110 19:21 15.06.2020
1391 Clouds 30 1014 16 16093 1.5 90 18:57 15.06.2020
1392 Clouds 29 1014 16 16093 1.5 90 18:39 15.06.2020
1393 Clouds 29 1014 16 16093 1.5 90 18:39 15.06.2020
1394 Clouds 29 1014 16 16093 1.5 90 18:19 15.06.2020
1395 Clouds 28 1014 17 16093 2.24 144 17:56 15.06.2020
1396 Clouds 28 1014 17 16093 2.24 144 17:56 15.06.2020
1397 Clouds 28 1014 17 16093 2.24 144 17:37 15.06.2020
1398 Clouds 28 1014 17 16093 1.27 117 17:19 15.06.2020
1399 Clouds 25 1013 17 16093 1.27 117 16:42 15.06.2020
1400 Clouds 24 1013 17 16093 0.78 117 16:19 15.06.2020
1401 Clouds 23 1013 18 16093 0.78 117 15:57 15.06.2020
1402 Clouds 22 1013 18 16093 0.78 117 15:39 15.06.2020
1403 Clouds 22 1013 18 16093 0.38 83 15:19 15.06.2020
1404 Clouds 22 1012 18 16093 1.5 250 14:55 15.06.2020
1405 Clouds 21 1012 18 16093 1.5 250 14:37 15.06.2020
1406 Clouds 22 1012 18 16093 1.5 250 14:18 15.06.2020
1407 Clouds 22 1011 18 16093 3.1 220 13:42 15.06.2020
1408 Clouds 23 1011 18 16093 3.1 220 13:23 15.06.2020
1409 Clouds 23 1011 19 16093 2.1 180 12:58 15.06.2020
1410 Clouds 23 1011 19 16093 2.1 180 12:39 15.06.2020
1411 Clouds 23 1011 19 16093 2.1 180 12:21 15.06.2020
1412 Clouds 25 1011 15 16093 2.1 230 11:45 15.06.2020
1413 Clouds 25 1011 15 16093 2.1 230 11:26 15.06.2020
1414 Clouds 25 1011 15 16093 2.1 210 10:56 15.06.2020
1415 Clouds 25 1011 15 16093 2.1 210 10:38 15.06.2020
1416 Clouds 25 1011 15 16093 2.1 210 10:19 15.06.2020
1417 Clouds 25 1011 15 16093 2.1 210 10:19 15.06.2020
1418 Clouds 27 1010 14 16093 2.6 220 09:41 15.06.2020
1419 Clouds 27 1010 14 16093 2.6 220 09:22 15.06.2020
1420 Clouds 28 1011 12 16093 2.6 210 08:43 15.06.2020
1421 Clouds 29 1011 12 16093 2.6 210 08:24 15.06.2020
1422 Clouds 29 1010 11 16093 2.1 170 07:50 15.06.2020
1423 Clouds 29 1010 11 16093 2.1 170 07:32 15.06.2020
1424 Clouds 30 1009 11 16093 3.1 120 06:53 15.06.2020
1425 Clouds 31 1009 11 16093 3.1 120 06:26 15.06.2020
1426 Clouds 31 1009 10 16093 2.1 130 05:48 15.06.2020
1427 Clouds 32 1009 10 16093 2.1 130 05:27 15.06.2020
1428 Clouds 33 1009 10 16093 4.1 120 04:21 15.06.2020
1429 Clouds 34 1009 9 16093 2.62 99 03:48 15.06.2020
1430 Clouds 34 1009 9 16093 3.6 80 02:55 15.06.2020
1431 Clouds 34 1010 10 16093 1.5 0 01:59 15.06.2020
1432 Clouds 34 1010 10 16093 1.5 0 01:39 15.06.2020
1433 Clouds 34 1010 10 16093 1.5 0 01:21 15.06.2020
1434 Clouds 34 1010 10 16093 2.6 40 00:40 15.06.2020
1435 Clouds 33 1010 10 16093 2.6 40 00:20 15.06.2020
1436 Clouds 33 1011 11 16093 3.6 130 23:47 14.06.2020
1437 Clouds 33 1011 11 16093 1.5 0 23:26 14.06.2020
1438 Clouds 32 1012 11 16093 3.1 0 22:58 14.06.2020
1439 Clouds 32 1012 11 16093 3.1 0 22:40 14.06.2020
1440 Clouds 32 1012 11 16093 3.1 0 22:21 14.06.2020
1441 Clouds 31 1012 12 16093 2.1 140 21:58 14.06.2020
1442 Clouds 30 1012 12 16093 2.1 140 21:40 14.06.2020
1443 Clouds 30 1012 12 16093 2.1 140 21:19 14.06.2020
1444 Clouds 29 1013 14 16093 2.1 40 20:59 14.06.2020
1445 Clouds 29 1013 14 16093 2.1 40 20:40 14.06.2020
1446 Clouds 29 1013 14 16093 2.1 40 20:21 14.06.2020
1447 Clouds 28 1012 14 16093 2.1 70 19:59 14.06.2020
1448 Clouds 28 1012 14 16093 2.1 70 19:40 14.06.2020
1449 Clouds 28 1012 14 16093 2.1 70 19:40 14.06.2020
1450 Clouds 28 1012 14 16093 2.1 70 19:20 14.06.2020
1451 Clear 27 1012 15 16093 2.1 90 18:58 14.06.2020
1452 Clear 27 1012 15 16093 2.1 90 18:58 14.06.2020
1453 Clear 26 1012 15 16093 2.1 90 18:40 14.06.2020
1454 Clear 26 1012 15 16093 2.1 90 18:21 14.06.2020
1455 Clear 24 1012 19 16093 1.5 0 17:58 14.06.2020
1456 Clear 24 1012 19 16093 1.5 0 17:39 14.06.2020
1457 Clear 24 1012 19 16093 1.5 0 17:20 14.06.2020
1458 Clouds 23 1012 20 16093 1.5 260 16:41 14.06.2020
1459 Clouds 22 1012 22 16093 1.5 260 16:22 14.06.2020
1460 Clouds 21 1011 22 16093 1.5 170 16:00 14.06.2020
1461 Clouds 20 1011 22 16093 1.5 170 15:41 14.06.2020
1462 Clouds 19 1011 28 16093 1.5 170 15:19 14.06.2020
1463 Clear 20 1010 28 16093 1.5 220 14:59 14.06.2020
1464 Clear 20 1010 28 16093 1.5 220 14:40 14.06.2020
1465 Clear 20 1010 29 16093 1.5 220 14:21 14.06.2020
1466 Clear 20 1009 21 16093 0.63 211 13:57 14.06.2020
1467 Clear 21 1009 21 16093 0.63 211 13:39 14.06.2020
1468 Clear 20 1009 21 16093 1 179 13:21 14.06.2020
1469 Clear 21 1008 20 16093 4.1 240 12:55 14.06.2020
1470 Clear 21 1008 20 16093 4.1 240 12:37 14.06.2020
1471 Clear 21 1008 20 16093 4.1 240 12:18 14.06.2020
1472 Clear 21 1008 20 16093 4.6 190 11:56 14.06.2020
1473 Clear 22 1008 20 16093 4.6 190 11:37 14.06.2020
1474 Clear 22 1008 20 16093 4.6 190 11:18 14.06.2020
1475 Clear 23 1008 19 16093 4.6 210 10:42 14.06.2020
1476 Clear 23 1008 19 16093 4.6 210 10:19 14.06.2020
1477 Clear 24 1008 17 16093 4.1 210 09:45 14.06.2020
1478 Clear 24 1008 17 16093 4.1 210 09:25 14.06.2020
1479 Clear 24 1007 15 16093 5.7 200 08:56 14.06.2020
1480 Clear 24 1007 15 16093 5.7 200 08:38 14.06.2020
1481 Clear 25 1007 15 16093 5.7 200 08:18 14.06.2020
1482 Clear 25 1007 14 16093 5.7 220 07:48 14.06.2020
1483 Clear 25 1007 14 16093 5.7 220 07:30 14.06.2020
1484 Clear 27 1007 14 16093 6.2 220 06:26 14.06.2020
1485 Clear 28 1006 13 16093 6.7 220 05:40 14.06.2020
1486 Clear 29 1006 11 16093 7.7 220 04:53 14.06.2020
1487 Clear 30 1006 11 16093 7.7 220 04:28 14.06.2020
1488 Clear 31 1006 8 16093 8.7 220 02:56 14.06.2020
1489 Clear 31 1006 8 16093 8.7 220 02:27 14.06.2020
1490 Clouds 31 1007 10 16093 8.7 230 01:36 14.06.2020
1491 Clouds 31 1008 7 16093 6.2 210 00:55 14.06.2020
1492 Clouds 31 1008 7 16093 6.2 210 00:36 14.06.2020
1493 Clouds 32 1008 7 16093 6.2 210 00:18 14.06.2020
1494 Clouds 31 1008 8 16093 6.2 190 23:41 13.06.2020
1495 Clouds 31 1008 8 16093 6.2 190 23:23 13.06.2020
1496 Clouds 30 1009 7 16093 8.2 190 22:56 13.06.2020
1497 Clouds 30 1009 7 16093 8.2 190 22:36 13.06.2020
1498 Clouds 30 1009 7 16093 8.2 190 22:18 13.06.2020
1499 Clouds 29 1010 9 16093 7.7 180 21:43 13.06.2020
1500 Clouds 29 1010 9 16093 7.7 180 21:24 13.06.2020
1501 Clouds 27 1011 13 16093 6.2 180 20:57 13.06.2020
1502 Clouds 27 1011 13 16093 6.2 180 20:39 13.06.2020
1503 Clouds 27 1011 13 16093 6.2 180 20:18 13.06.2020
1504 Clouds 26 1011 13 16093 3.6 190 19:41 13.06.2020
1505 Clouds 26 1011 13 16093 3.6 190 19:20 13.06.2020
1506 Clouds 24 1011 14 16093 6.2 170 18:59 13.06.2020
1507 Clouds 24 1011 14 16093 6.2 170 18:40 13.06.2020
1508 Clouds 24 1011 17 16093 6.2 170 18:20 13.06.2020
1509 Clouds 23 1011 24 16093 5.7 190 17:57 13.06.2020
1510 Clouds 22 1011 24 16093 5.7 190 17:39 13.06.2020
1511 Clouds 22 1011 24 16093 5.7 190 17:20 13.06.2020
1512 Clouds 22 1011 18 16093 4.6 200 16:55 13.06.2020
1513 Clouds 22 1011 18 16093 4.6 200 16:37 13.06.2020
1514 Clouds 22 1011 18 16093 3.1 110 16:18 13.06.2020
1515 Clouds 22 1011 18 16093 3.1 110 15:42 13.06.2020
1516 Clouds 22 1011 18 16093 3.1 110 15:22 13.06.2020
1517 Clear 22 1009 21 16093 9.3 200 14:44 13.06.2020
1518 Clear 21 1009 21 16093 9.3 200 14:25 13.06.2020
1519 Clear 22 1009 25 16093 6.7 200 13:58 13.06.2020
1520 Clear 22 1009 25 16093 6.7 200 13:39 13.06.2020
1521 Clear 22 1009 25 16093 6.7 200 13:20 13.06.2020
1522 Clear 23 1009 22 16093 5.1 210 12:43 13.06.2020
1523 Clear 23 1009 22 16093 5.1 210 12:43 13.06.2020
1524 Clear 23 1009 22 16093 5.1 210 12:25 13.06.2020
1525 Clear 23 1009 25 16093 11.3 240 11:57 13.06.2020
1526 Clear 24 1009 25 16093 11.3 240 11:38 13.06.2020
1527 Clear 24 1009 22 16093 11.3 240 11:19 13.06.2020
1528 Clear 25 1010 10 16093 7.2 230 10:55 13.06.2020
1529 Clear 25 1010 10 16093 7.2 230 10:37 13.06.2020
1530 Clear 25 1010 10 16093 7.2 230 10:18 13.06.2020
1531 Clear 26 1011 10 16093 3.6 230 09:42 13.06.2020
1532 Clear 26 1011 10 16093 3.6 230 09:20 13.06.2020
1533 Clouds 27 1011 9 16093 6.7 240 08:46 13.06.2020
1534 Clouds 27 1011 9 16093 6.7 240 08:28 13.06.2020
1535 Clouds 29 1010 9 16093 7.7 240 07:50 13.06.2020
1536 Clouds 29 1010 9 16093 7.7 240 07:27 13.06.2020
1537 Clouds 30 1009 7 16093 4.1 230 06:47 13.06.2020
1538 Clouds 30 1009 7 16093 4.1 230 06:27 13.06.2020
1539 Clouds 32 1009 4 16093 8.7 240 05:36 13.06.2020
1540 Clouds 34 1008 4 16093 10.3 240 04:59 13.06.2020
1541 Clouds 36 1008 5 16093 7.7 200 03:46 13.06.2020
1542 Clouds 37 1009 4 16093 5.1 180 02:53 13.06.2020
1543 Clouds 37 1009 4 16093 5.1 180 02:25 13.06.2020
1544 Clouds 38 1010 5 16093 8.2 200 01:26 13.06.2020
1545 Clouds 38 1011 5 16093 5.7 210 00:58 13.06.2020
1546 Clouds 38 1011 5 16093 5.7 210 00:38 13.06.2020
1547 Clouds 38 1011 5 16093 5.7 210 00:19 13.06.2020
1548 Clouds 38 1012 5 16093 7.7 200 23:40 12.06.2020
1549 Clouds 38 1012 5 16093 7.7 200 23:19 12.06.2020
1550 Clouds 37 1013 6 16093 5.7 200 22:56 12.06.2020
1551 Clouds 37 1013 6 16093 5.7 200 22:37 12.06.2020
1552 Clouds 37 1013 6 16093 5.7 200 22:18 12.06.2020
1553 Clouds 37 1014 7 16093 5.1 100 21:44 12.06.2020
1554 Clouds 37 1014 7 16093 5.1 100 21:24 12.06.2020
1555 Clouds 36 1015 8 16093 2.1 0 20:57 12.06.2020
1556 Clouds 36 1015 8 16093 2.1 0 20:39 12.06.2020
1557 Clouds 36 1015 8 16093 2.1 0 20:20 12.06.2020
1558 Clouds 34 1016 9 16093 3.1 100 19:46 12.06.2020
1559 Clouds 33 1016 9 16093 3.1 100 19:22 12.06.2020
1560 Clouds 32 1016 9 16093 2.1 110 18:59 12.06.2020
1561 Clouds 31 1016 9 16093 2.1 110 18:37 12.06.2020
1562 Clouds 31 1016 10 16093 2.1 110 18:18 12.06.2020
1563 Clouds 29 1016 11 16093 3.54 141 17:44 12.06.2020
1564 Clouds 29 1016 11 16093 1.88 111 17:26 12.06.2020
1565 Clouds 27 1016 11 16093 1.5 0 16:47 12.06.2020
1566 Clouds 26 1016 11 16093 1.5 0 16:24 12.06.2020
1567 Clouds 24 1016 12 16093 2.1 210 15:59 12.06.2020
1568 Clouds 23 1016 12 16093 2.1 210 15:41 12.06.2020
1569 Clouds 23 1016 12 16093 2.1 210 15:19 12.06.2020
1570 Clouds 23 1015 12 16093 3.1 290 14:42 12.06.2020
1571 Clouds 24 1015 12 16093 3.1 290 14:22 12.06.2020
1572 Clear 24 1015 9 16093 1.5 220 13:57 12.06.2020
1573 Clear 24 1015 9 16093 1.5 220 13:39 12.06.2020
1574 Clear 24 1015 9 16093 1.5 220 13:18 12.06.2020
1575 Clear 25 1015 9 16093 2.1 200 12:40 12.06.2020
1576 Clear 25 1015 9 16093 2.1 200 12:40 12.06.2020
1577 Clear 26 1015 9 16093 2.1 200 12:19 12.06.2020
1578 Clear 27 1015 7 16093 2.1 210 11:49 12.06.2020
1579 Clear 27 1015 7 16093 2.1 210 11:23 12.06.2020
1580 Clear 28 1015 6 16093 2.6 170 10:58 12.06.2020
1581 Clear 28 1015 6 16093 2.6 170 10:40 12.06.2020
1582 Clear 28 1015 6 16093 2.6 170 10:21 12.06.2020
1583 Clear 30 1015 5 16093 2.1 210 09:44 12.06.2020
1584 Clear 29 1015 5 16093 2.1 210 09:21 12.06.2020
1585 Clear 30 1015 5 16093 2.1 220 08:43 12.06.2020
1586 Clear 30 1015 5 16093 2.1 220 08:24 12.06.2020
1587 Clear 31 1015 4 16093 1.5 200 07:43 12.06.2020
1588 Clear 32 1015 4 16093 1.5 200 07:24 12.06.2020
1589 Clouds 33 1014 4 16093 2.1 200 06:44 12.06.2020
1590 Clouds 34 1014 4 16093 2.1 200 06:24 12.06.2020
1591 Clouds 35 1014 3 16093 3.6 200 05:50 12.06.2020
1592 Clouds 36 1014 3 16093 3.6 200 05:26 12.06.2020
1593 Clear 38 1013 4 16093 4.1 220 03:58 12.06.2020
1594 Clear 38 1013 3 16093 5.1 210 02:43 12.06.2020
1595 Clear 38 1014 5 16093 3.1 50 01:51 12.06.2020
1596 Clear 38 1014 5 16093 3.1 50 01:21 12.06.2020
1597 Clear 39 1015 5 16093 6.2 60 00:41 12.06.2020
1598 Clear 39 1015 5 16093 6.2 60 00:22 12.06.2020
1599 Clear 38 1016 6 16093 3.1 50 23:58 11.06.2020
1600 Clear 38 1016 6 16093 3.1 50 23:39 11.06.2020
1601 Clear 37 1016 6 16093 3.1 50 23:20 11.06.2020
1602 Clear 38 1016 6 16093 1.5 0 22:56 11.06.2020
1603 Clear 37 1016 6 16093 1.5 0 22:38 11.06.2020
1604 Clear 37 1016 6 16093 1.5 0 22:38 11.06.2020
1605 Clear 37 1016 6 16093 1.5 0 22:19 11.06.2020
1606 Clear 36 1017 8 16093 2.1 0 21:43 11.06.2020
1607 Clear 36 1017 8 16093 2.1 0 21:20 11.06.2020
1608 Clear 34 1018 9 16093 1.5 70 20:58 11.06.2020
1609 Clear 34 1018 9 16093 1.5 70 20:40 11.06.2020
1610 Clear 34 1018 9 16093 1.5 70 20:21 11.06.2020
1611 Clear 32 1017 9 16093 2.6 120 19:44 11.06.2020
1612 Clear 31 1018 12 16093 1.5 80 19:23 11.06.2020
1613 Clear 30 1018 12 16093 1.5 80 18:57 11.06.2020
1614 Clear 30 1018 12 16093 1.5 80 18:39 11.06.2020
1615 Clear 30 1018 13 16093 2.1 60 18:20 11.06.2020
1616 Clear 29 1018 13 16093 2.1 60 17:55 11.06.2020
1617 Clear 28 1018 13 16093 2.1 60 17:37 11.06.2020
1618 Clear 27 1017 16 16093 1.45 54 17:18 11.06.2020
1619 Clear 26 1017 16 16093 1.45 54 16:43 11.06.2020
1620 Clear 24 1017 16 16093 0.79 31 16:25 11.06.2020
1621 Clear 22 1017 16 16093 0.79 31 15:58 11.06.2020
1622 Clear 22 1017 16 16093 0.79 31 15:39 11.06.2020
1623 Clear 22 1016 16 16093 1.5 220 15:21 11.06.2020
1624 Clear 22 1016 16 16093 1.5 220 14:46 11.06.2020
1625 Clear 22 1016 13 16093 2.1 210 14:21 11.06.2020
1626 Clear 22 1016 13 16093 2.1 210 13:57 11.06.2020
1627 Clear 22 1016 13 16093 2.1 210 13:39 11.06.2020
1628 Clear 22 1015 13 16093 1.5 220 13:20 11.06.2020
1629 Clear 22 1015 13 16093 1.5 220 12:57 11.06.2020
1630 Clear 23 1015 13 16093 1.5 220 12:39 11.06.2020
1631 Clear 24 1015 12 16093 2.6 220 12:19 11.06.2020
1632 Clear 24 1015 12 16093 2.6 220 12:19 11.06.2020
1633 Clear 24 1015 12 16093 2.6 220 11:57 11.06.2020
1634 Clear 24 1015 12 16093 2.6 220 11:38 11.06.2020
1635 Clear 24 1015 17 16093 0.52 249 11:20 11.06.2020
1636 Clear 25 1015 13 16093 2.6 210 10:57 11.06.2020
1637 Clear 25 1015 13 16093 2.6 210 10:38 11.06.2020
1638 Clear 26 1016 13 16093 0.76 251 10:18 11.06.2020
1639 Clear 26 1016 13 16093 0.76 251 09:41 11.06.2020
1640 Clear 27 1015 12 16093 2.6 260 09:23 11.06.2020
1641 Clear 27 1015 12 16093 2.6 260 08:44 11.06.2020
1642 Clear 27 1015 10 16093 0.73 273 08:20 11.06.2020
1643 Clear 28 1015 10 16093 0.73 273 07:42 11.06.2020
1644 Clear 28 1015 9 16093 0.7 339 07:24 11.06.2020
1645 Clear 29 1015 9 16093 0.7 339 06:40 11.06.2020
1646 Clear 30 1014 7 16093 2.1 110 06:22 11.06.2020
1647 Clear 32 1014 7 16093 2.1 110 05:29 11.06.2020
1648 Clear 34 1014 6 16093 0.45 349 03:30 11.06.2020
1649 Clear 35 1015 6 16093 1.5 340 02:50 11.06.2020
1650 Clear 35 1015 6 16093 1.5 340 02:32 11.06.2020
1651 Clear 35 1015 7 16093 1.5 320 01:46 11.06.2020
1652 Clear 35 1016 7 16093 3.1 60 01:22 11.06.2020
1653 Clear 35 1016 7 16093 3.1 60 00:45 11.06.2020
1654 Clear 34 1017 8 16093 1.75 54 00:26 11.06.2020
1655 Clear 34 1017 8 16093 1.75 54 23:44 10.06.2020
1656 Clear 34 1017 8 16093 2.69 57 23:25 10.06.2020
1657 Clear 34 1018 9 16093 4.6 10 22:56 10.06.2020
1658 Clear 34 1018 9 16093 4.6 10 22:37 10.06.2020
1659 Clear 34 1018 9 16093 4.6 10 22:37 10.06.2020
1660 Clear 34 1018 9 16093 4.1 40 22:19 10.06.2020
1661 Clear 33 1018 9 16093 4.1 40 21:55 10.06.2020
1662 Clear 33 1018 9 16093 4.1 40 21:37 10.06.2020
1663 Clear 32 1019 10 16093 2.6 40 21:18 10.06.2020
1664 Clear 32 1019 10 16093 2.6 40 21:18 10.06.2020
1665 Clear 32 1019 10 16093 2.6 40 20:56 10.06.2020
1666 Clear 32 1019 10 16093 2.6 40 20:38 10.06.2020
1667 Clear 31 1019 10 16093 4.1 20 20:19 10.06.2020
1668 Clear 30 1019 10 16093 4.1 20 19:40 10.06.2020
1669 Clear 30 1019 10 16093 4.1 20 19:19 10.06.2020
1670 Clear 28 1019 12 16093 1.5 0 18:58 10.06.2020
1671 Clear 28 1019 12 16093 1.5 0 18:40 10.06.2020
1672 Clear 27 1019 12 16093 1.5 0 18:19 10.06.2020
1673 Clear 27 1019 13 16093 2.64 52 17:55 10.06.2020
1674 Clear 27 1019 13 16093 2.64 52 17:55 10.06.2020
1675 Clear 26 1019 13 16093 2.64 52 17:36 10.06.2020
1676 Clear 25 1019 16 16093 1.5 220 17:18 10.06.2020
1677 Clear 24 1019 16 16093 1.5 220 16:56 10.06.2020
1678 Clear 23 1019 16 16093 1.5 220 16:38 10.06.2020
1679 Clear 22 1019 16 16093 2.1 210 16:18 10.06.2020
1680 Clear 20 1019 16 16093 2.1 210 15:40 10.06.2020
1681 Clear 20 1018 18 16093 3.1 220 15:21 10.06.2020
1682 Clear 20 1018 18 16093 3.1 220 14:56 10.06.2020
1683 Clear 19 1018 18 16093 3.1 220 14:37 10.06.2020
1684 Clear 20 1018 18 16093 1.5 260 14:19 10.06.2020
1685 Clear 20 1018 18 16093 1.5 260 13:40 10.06.2020
1686 Clear 20 1018 15 16093 2.1 210 13:21 10.06.2020
1687 Clear 20 1018 15 16093 2.1 210 12:43 10.06.2020
1688 Clear 20 1018 14 16093 2.6 220 12:20 10.06.2020
1689 Clear 21 1018 14 16093 2.6 220 11:57 10.06.2020
1690 Clear 21 1018 14 16093 2.6 220 11:39 10.06.2020
1691 Clear 21 1018 17 16093 2.6 300 11:19 10.06.2020
1692 Clear 21 1018 17 16093 2.6 300 11:19 10.06.2020
1693 Clear 21 1018 13 16093 1.5 200 10:55 10.06.2020
1694 Clear 22 1018 13 16093 1.5 200 10:36 10.06.2020
1695 Clear 22 1018 13 16093 1.5 200 10:18 10.06.2020
1696 Clear 23 1018 12 16093 2.1 270 09:40 10.06.2020
1697 Clear 23 1018 11 16093 3.6 270 09:22 10.06.2020
1698 Clear 23 1018 11 16093 3.6 270 08:44 10.06.2020
1699 Clear 24 1018 11 16093 1.56 273 08:23 10.06.2020
1700 Clear 24 1018 11 16093 1.56 273 07:54 10.06.2020
1701 Clear 24 1018 11 16093 1.56 273 07:36 10.06.2020
1702 Clear 25 1018 10 16093 1.05 244 07:18 10.06.2020
1703 Clear 26 1018 10 16093 1.05 244 06:44 10.06.2020
1704 Clear 26 1018 9 16093 1.5 130 06:20 10.06.2020
1705 Clear 26 1018 9 16093 1.5 130 05:55 10.06.2020
1706 Clear 27 1018 8 16093 1.5 70 05:23 10.06.2020
1707 Clear 29 1018 8 16093 1.5 70 04:32 10.06.2020
1708 Clear 29 1018 9 16093 1.5 0 02:50 10.06.2020
1709 Clear 30 1019 9 16093 1.5 0 01:54 10.06.2020
1710 Clear 29 1019 9 16093 1.5 0 01:31 10.06.2020
1711 Clear 29 1020 9 16093 1.5 0 00:39 10.06.2020
1712 Clear 29 1021 10 16093 1.5 0 00:21 10.06.2020
1713 Clear 28 1021 10 16093 1.5 0 23:55 09.06.2020
1714 Clear 28 1021 10 16093 1.5 0 23:36 09.06.2020
1715 Clear 28 1022 10 16093 2.04 56 23:18 09.06.2020
1716 Clear 28 1022 10 16093 2.04 56 22:54 09.06.2020
1717 Clear 28 1022 10 16093 2.04 56 22:36 09.06.2020
1718 Clear 28 1022 11 16093 3.6 10 22:18 09.06.2020
1719 Clear 27 1022 11 16093 3.6 10 21:54 09.06.2020
1720 Clear 27 1022 11 16093 3.6 10 21:36 09.06.2020
1721 Clear 26 1023 12 16093 4.6 30 21:18 09.06.2020
1722 Clear 26 1023 12 16093 4.6 30 20:55 09.06.2020
1723 Clear 26 1023 12 16093 4.6 30 20:37 09.06.2020
1724 Clear 25 1023 13 16093 5.7 60 20:18 09.06.2020
1725 Clear 25 1023 13 16093 5.7 60 19:54 09.06.2020
1726 Clear 24 1023 13 16093 5.7 60 19:36 09.06.2020
1727 Clear 24 1023 13 16093 5.1 50 19:18 09.06.2020
1728 Clear 23 1023 13 16093 5.1 50 18:42 09.06.2020
1729 Clear 22 1023 14 16093 2.1 110 18:24 09.06.2020
1730 Clear 21 1023 14 16093 2.1 110 17:57 09.06.2020
1731 Clear 21 1023 14 16093 2.1 110 17:38 09.06.2020
1732 Clear 21 1023 16 16093 1.5 150 17:20 09.06.2020
1733 Clear 20 1023 16 16093 1.5 150 16:46 09.06.2020
1734 Clear 19 1023 16 16093 1.5 150 16:28 09.06.2020
1735 Clear 18 1022 15 16093 1.5 90 15:59 09.06.2020
1736 Clear 18 1022 15 16093 1.5 90 15:39 09.06.2020
1737 Clear 17 1022 16 16093 1.35 40 15:21 09.06.2020
1738 Clear 16 1022 16 16093 1.35 40 14:55 09.06.2020
1739 Clear 16 1022 16 16093 1.35 40 14:37 09.06.2020
1740 Clear 16 1021 14 16093 2.1 230 14:18 09.06.2020
1741 Clear 16 1021 14 16093 2.1 230 13:43 09.06.2020
1742 Clear 16 1021 14 16093 2.1 230 13:21 09.06.2020
1743 Clear 16 1021 15 16093 1.5 200 12:59 09.06.2020
1744 Clear 17 1021 15 16093 1.5 200 12:40 09.06.2020
1745 Clear 16 1020 12 16093 2.6 210 12:19 09.06.2020
1746 Clear 17 1020 12 16093 2.6 210 11:55 09.06.2020
1747 Clear 17 1020 12 16093 2.6 210 11:37 09.06.2020
1748 Clear 17 1020 13 16093 1.64 342 11:19 09.06.2020
1749 Clear 18 1020 13 16093 1.64 342 10:44 09.06.2020
1750 Clear 18 1020 13 16093 1.26 323 10:25 09.06.2020
1751 Clear 19 1020 10 16093 3.1 260 09:44 09.06.2020
1752 Clear 19 1020 10 16093 3.1 260 09:25 09.06.2020
1753 Clear 20 1020 10 16093 2.6 250 08:58 09.06.2020
1754 Clear 20 1020 10 16093 2.6 250 08:39 09.06.2020
1755 Clear 20 1019 10 16093 1.5 210 08:20 09.06.2020
1756 Clear 20 1019 10 16093 1.5 210 07:40 09.06.2020
1757 Clear 21 1019 8 16093 1.5 140 07:21 09.06.2020
1758 Clear 21 1019 8 16093 1.5 140 06:54 09.06.2020
1759 Clear 21 1019 8 16093 1.5 140 06:35 09.06.2020
1760 Clear 23 1018 7 16093 4.1 60 05:36 09.06.2020
1761 Clouds 25 1018 7 16093 2.6 0 03:50 09.06.2020
1762 Clouds 25 1018 8 16093 2.1 70 01:45 09.06.2020
1763 Clouds 25 1018 8 16093 2.1 70 01:20 09.06.2020
1764 Clouds 25 1019 9 16093 2.1 0 00:58 09.06.2020
1765 Clouds 25 1019 9 16093 2.1 0 00:38 09.06.2020
1766 Clouds 24 1019 9 16093 2.1 0 00:18 09.06.2020
1767 Clouds 24 1019 9 16093 2.1 0 23:40 08.06.2020
1768 Clouds 24 1019 11 16093 4.6 70 23:20 08.06.2020
1769 Clouds 23 1019 11 16093 4.6 70 22:55 08.06.2020
1770 Clouds 23 1019 11 16093 4.6 70 22:37 08.06.2020
1771 Clouds 23 1019 11 16093 8.66 358 22:19 08.06.2020
1772 Clouds 22 1019 11 16093 8.66 358 21:55 08.06.2020
1773 Clouds 22 1019 11 16093 8.66 358 21:36 08.06.2020
1774 Clouds 21 1020 11 16093 7.2 10 21:18 08.06.2020
1775 Clouds 21 1020 14 16093 5.1 350 20:54 08.06.2020
1776 Clouds 21 1020 14 16093 5.1 350 20:54 08.06.2020
1777 Clouds 20 1020 14 16093 5.1 350 20:36 08.06.2020
1778 Clouds 20 1019 14 16093 11.8 330 20:18 08.06.2020
1779 Clouds 19 1019 14 16093 11.8 330 19:42 08.06.2020
1780 Clouds 19 1019 14 16093 11.8 330 19:20 08.06.2020
1781 Clouds 18 1019 15 16093 8.7 320 18:42 08.06.2020
1782 Clear 18 1018 17 16093 9.3 340 18:20 08.06.2020
1783 Clear 18 1018 17 16093 9.3 340 18:20 08.06.2020
1784 Clear 17 1018 17 16093 9.3 340 17:57 08.06.2020
1785 Clear 17 1018 17 16093 9.3 340 17:39 08.06.2020
1786 Clear 17 1017 17 16093 11.3 330 17:21 08.06.2020
1787 Clear 16 1017 17 16093 11.3 330 16:56 08.06.2020
1788 Clear 16 1017 17 16093 11.3 330 16:38 08.06.2020
1789 Clouds 15 1016 17 16093 9.3 340 16:20 08.06.2020
1790 Clouds 15 1016 17 16093 9.3 340 16:20 08.06.2020
1791 Clouds 15 1016 17 16093 9.3 340 15:42 08.06.2020
1792 Clouds 15 1015 15 16093 9.3 340 15:21 08.06.2020
1793 Clouds 15 1015 15 16093 9.3 340 14:57 08.06.2020
1794 Clouds 15 1015 15 16093 9.3 340 14:38 08.06.2020
1795 Clear 15 1013 12 16093 9.8 340 14:18 08.06.2020
1796 Clear 16 1013 12 16093 9.8 340 13:42 08.06.2020
1797 Clear 16 1012 11 16093 9.3 340 13:21 08.06.2020
1798 Clear 17 1012 11 16093 9.3 340 12:42 08.06.2020
1799 Clear 17 1011 12 16093 9.3 340 12:20 08.06.2020
1800 Clear 17 1011 12 16093 9.3 340 11:58 08.06.2020
1801 Clear 17 1011 12 16093 9.3 340 11:40 08.06.2020
1802 Dust 17 1011 12 16093 14.9 360 11:21 08.06.2020
1803 Dust 18 1011 12 16093 14.9 360 10:56 08.06.2020
1804 Dust 18 1011 12 16093 14.9 360 10:37 08.06.2020
1805 Dust 18 1010 13 16093 11.8 340 10:19 08.06.2020
1806 Dust 18 1010 13 16093 11.8 340 10:19 08.06.2020
1807 Dust 19 1010 13 16093 11.8 340 09:47 08.06.2020
1808 Clear 19 1009 8 16093 6.7 340 09:23 08.06.2020
1809 Clear 20 1009 8 16093 6.7 340 08:50 08.06.2020
1810 Clear 20 1009 8 16093 6.7 340 08:25 08.06.2020
1811 Clouds 21 1007 12 16093 4.1 200 07:59 08.06.2020
1812 Clouds 22 1007 12 16093 4.1 200 07:39 08.06.2020
1813 Clouds 22 1005 11 16093 5.1 220 07:20 08.06.2020
1814 Clouds 23 1005 11 16093 5.1 220 06:39 08.06.2020
1815 Clouds 23 1005 11 16093 5.1 220 06:39 08.06.2020
1816 Clouds 23 1004 10 16093 7.7 230 05:55 08.06.2020
1817 Clouds 25 1004 7 16093 8.2 230 05:23 08.06.2020
1818 Clouds 27 1004 6 16093 9.3 240 03:26 08.06.2020
1819 Clouds 28 1004 7 16093 8.2 220 02:26 08.06.2020
1820 Clouds 29 1004 7 16093 7.7 230 01:44 08.06.2020
1821 Clouds 29 1005 9 16093 10.3 230 00:58 08.06.2020
1822 Clouds 28 1005 11 16093 7.2 220 00:25 08.06.2020
1823 Clouds 28 1005 11 16093 7.2 220 23:40 07.06.2020
1824 Clouds 28 1006 14 16093 5.7 200 23:19 07.06.2020
1825 Clouds 28 1006 14 16093 5.7 200 22:58 07.06.2020
1826 Clouds 28 1006 14 16093 5.7 200 22:38 07.06.2020
1827 Clouds 28 1006 18 16093 6.2 180 22:18 07.06.2020
1828 Clouds 27 1006 18 16093 6.2 180 21:58 07.06.2020
1829 Clouds 27 1006 18 16093 6.2 180 21:58 07.06.2020
1830 Clouds 27 1006 18 16093 6.2 180 21:37 07.06.2020
1831 Clouds 26 1007 19 16093 4.6 180 21:19 07.06.2020
1832 Clouds 26 1007 19 16093 4.6 180 20:40 07.06.2020
1833 Clouds 25 1007 22 16093 4.1 180 20:21 07.06.2020
1834 Clouds 24 1007 22 16093 4.1 180 19:58 07.06.2020
1835 Clouds 24 1007 22 16093 4.1 180 19:39 07.06.2020
1836 Clouds 24 1007 22 16093 4.1 180 19:21 07.06.2020
1837 Clear 23 1007 26 16093 5.7 180 18:59 07.06.2020
1838 Clear 23 1007 26 16093 5.7 180 18:59 07.06.2020
1839 Clear 23 1007 26 16093 5.7 180 18:38 07.06.2020
1840 Clear 22 1006 28 16093 4.6 190 18:20 07.06.2020
1841 Clear 21 1006 28 16093 4.6 190 17:57 07.06.2020
1842 Clear 21 1006 28 16093 4.6 190 17:38 07.06.2020
1843 Clear 20 1006 34 16093 3.1 260 17:20 07.06.2020
1844 Clear 19 1006 34 16093 3.1 260 16:43 07.06.2020
1845 Clear 19 1006 34 16093 3.1 260 16:43 07.06.2020
1846 Clear 19 1005 36 16093 4.1 200 16:21 07.06.2020
1847 Clear 18 1005 36 16093 4.1 200 15:44 07.06.2020
1848 Clear 18 1005 36 16093 4.1 200 15:44 07.06.2020
1849 Clear 18 1005 36 16093 4.1 200 15:44 07.06.2020
1850 Clear 18 1005 36 16093 4.1 200 15:44 07.06.2020
1851 Clear 17 1004 36 16093 5.7 190 15:22 07.06.2020
1852 Clear 17 1004 36 16093 5.7 190 14:41 07.06.2020
1853 Clear 17 1004 32 16093 5.1 200 14:22 07.06.2020
1854 Clear 17 1004 32 16093 5.1 200 13:50 07.06.2020
1855 Clear 18 1005 34 16093 5.1 200 13:23 07.06.2020
1856 Clear 18 1005 34 16093 5.1 200 12:58 07.06.2020
1857 Clear 18 1005 34 16093 5.1 200 12:40 07.06.2020
1858 Clear 18 1005 32 16093 5.1 190 12:20 07.06.2020
1859 Clear 18 1005 32 16093 5.1 190 11:55 07.06.2020
1860 Clear 19 1005 32 16093 5.1 190 11:37 07.06.2020
1861 Clear 19 1005 32 16093 5.1 190 11:37 07.06.2020
1862 Clear 19 1005 28 16093 6.2 200 11:18 07.06.2020
1863 Clear 19 1005 28 16093 6.2 200 10:45 07.06.2020
1864 Clear 19 1005 30 16093 6.2 190 10:21 07.06.2020
1865 Clear 20 1005 30 16093 6.2 190 09:59 07.06.2020
1866 Clear 20 1005 30 16093 6.2 190 09:39 07.06.2020
1867 Clear 20 1005 30 16093 6.2 190 09:39 07.06.2020
1868 Clear 21 1005 26 16093 4.1 180 09:21 07.06.2020
1869 Clear 21 1005 26 16093 4.1 180 08:58 07.06.2020
1870 Clear 21 1005 26 16093 4.1 180 08:58 07.06.2020
1871 Clear 21 1005 26 16093 4.1 180 08:39 07.06.2020
1872 Clouds 22 1006 25 16093 6.2 220 08:21 07.06.2020
1873 Clouds 22 1006 25 16093 6.2 220 08:21 07.06.2020
1874 Clouds 22 1006 25 16093 6.2 220 07:38 07.06.2020
1875 Clouds 23 1005 23 16093 7.2 220 06:54 07.06.2020
1876 Clouds 25 1005 19 16093 8.7 230 05:53 07.06.2020
1877 Clouds 27 1004 17 16093 10.3 240 04:22 07.06.2020
1878 Clouds 28 1004 17 16093 10.3 240 03:48 07.06.2020
1879 Clouds 29 1004 17 16093 9.3 210 02:18 07.06.2020
1880 Clouds 30 1004 17 16093 9.3 210 01:25 07.06.2020
1881 Clouds 29 1005 20 16093 9.8 230 00:48 07.06.2020
1882 Clouds 29 1006 24 16093 6.2 230 00:20 07.06.2020
1883 Clouds 29 1006 24 16093 6.2 230 23:59 06.06.2020
1884 Clouds 29 1006 24 16093 6.2 230 23:38 06.06.2020
1885 Clouds 28 1006 28 16093 6.2 210 23:20 06.06.2020
1886 Clouds 28 1006 28 16093 6.2 210 23:20 06.06.2020
1887 Clouds 28 1006 28 16093 6.2 210 22:56 06.06.2020
1888 Clouds 28 1006 28 16093 6.2 210 22:38 06.06.2020
1889 Clouds 27 1007 30 16093 7.7 210 22:19 06.06.2020
1890 Clouds 27 1007 30 16093 7.7 210 21:47 06.06.2020
1891 Clouds 26 1007 30 16093 7.7 210 21:23 06.06.2020
1892 Clouds 26 1006 33 16093 8.2 180 20:58 06.06.2020
1893 Clouds 26 1006 33 16093 8.2 180 20:40 06.06.2020
1894 Clouds 25 1006 36 16093 7.7 210 20:19 06.06.2020
1895 Clouds 25 1006 36 16093 7.7 210 19:57 06.06.2020
1896 Clouds 25 1006 36 16093 7.7 210 19:38 06.06.2020
1897 Clouds 24 1006 38 16093 8.2 190 19:20 06.06.2020
1898 Clouds 23 1006 38 16093 8.2 190 18:55 06.06.2020
1899 Clouds 23 1006 38 16093 8.2 190 18:36 06.06.2020
1900 Clouds 23 1006 43 16093 6.2 180 18:18 06.06.2020
1901 Clouds 22 1006 43 16093 6.2 180 17:41 06.06.2020
1902 Clouds 22 1005 43 16093 7.7 200 17:20 06.06.2020
1903 Clouds 21 1005 43 16093 7.7 200 16:55 06.06.2020
1904 Clouds 21 1005 43 16093 7.7 200 16:37 06.06.2020
1905 Clouds 21 1004 43 16093 6.2 190 16:19 06.06.2020
1906 Clouds 20 1004 43 16093 6.2 190 15:44 06.06.2020
1907 Clouds 21 1002 37 16093 6.2 180 15:20 06.06.2020
1908 Clouds 21 1002 37 16093 6.2 180 14:56 06.06.2020
1909 Clouds 21 1002 37 16093 6.2 180 14:56 06.06.2020
1910 Clouds 21 1002 37 16093 6.2 180 14:37 06.06.2020
1911 Clouds 21 1002 37 16093 6.7 200 14:19 06.06.2020
1912 Clouds 22 1002 37 16093 6.7 200 13:45 06.06.2020
1913 Clouds 22 1002 35 16093 5.1 170 13:19 06.06.2020
1914 Clouds 23 1002 35 16093 5.1 170 12:55 06.06.2020
1915 Clouds 23 1002 35 16093 5.1 170 12:37 06.06.2020
1916 Clouds 23 1002 29 16093 4.6 180 12:18 06.06.2020
1917 Clouds 24 1002 29 16093 4.6 180 11:39 06.06.2020
1918 Clear 25 1001 27 16093 5.1 190 11:20 06.06.2020
1919 Clear 25 1001 27 16093 5.1 190 10:59 06.06.2020
1920 Clear 25 1001 27 16093 5.1 190 10:40 06.06.2020
1921 Clear 26 1002 22 16093 4.6 190 10:21 06.06.2020
1922 Clear 26 1002 22 16093 4.6 190 09:58 06.06.2020
1923 Clear 26 1002 22 16093 4.6 190 09:40 06.06.2020
1924 Clear 27 1002 20 16093 4.1 210 09:21 06.06.2020
1925 Clear 28 1002 20 16093 4.1 210 08:43 06.06.2020
1926 Clear 28 1001 18 16093 3.6 210 08:23 06.06.2020
1927 Clear 28 1001 18 16093 3.6 210 07:46 06.06.2020
1928 Clear 29 1001 18 16093 3.6 210 07:23 06.06.2020
1929 Clear 29 1001 18 16093 3.6 210 07:23 06.06.2020
1930 Clouds 30 1001 11 16093 3.1 190 06:49 06.06.2020
1931 Clouds 31 1001 11 16093 3.1 190 06:31 06.06.2020
1932 Clouds 32 1001 9 16093 5.1 170 05:58 06.06.2020
1933 Clouds 32 1001 9 16093 5.1 170 05:30 06.06.2020
1934 Clouds 34 1001 8 16093 7.7 170 04:46 06.06.2020
1935 Clouds 36 1001 6 16093 6.2 170 02:52 06.06.2020
1936 Clouds 37 1002 8 16093 7.7 160 01:57 06.06.2020
1937 Clouds 36 1003 7 16093 7.7 140 01:19 06.06.2020
1938 Clouds 37 1003 7 16093 7.7 140 00:46 06.06.2020
1939 Clouds 37 1003 7 16093 7.7 140 00:27 06.06.2020
1940 Clouds 37 1003 6 16093 6.7 160 23:56 05.06.2020
1941 Clouds 37 1003 6 16093 6.7 160 23:37 05.06.2020
1942 Clouds 37 1004 7 16093 8.2 180 23:18 05.06.2020
1943 Clouds 38 1004 7 16093 8.2 180 22:41 05.06.2020
1944 Clouds 38 1004 7 16093 8.2 180 22:23 05.06.2020
1945 Clouds 38 1005 10 16093 5.7 160 21:59 05.06.2020
1946 Clouds 38 1005 10 16093 5.7 160 21:59 05.06.2020
1947 Clouds 37 1005 10 16093 5.7 160 21:40 05.06.2020
1948 Clouds 37 1005 13 16093 4.1 180 21:21 05.06.2020
1949 Clouds 37 1005 13 16093 4.1 180 20:57 05.06.2020
1950 Clouds 37 1005 13 16093 4.1 180 20:38 05.06.2020
1951 Clouds 37 1005 13 16093 4.1 180 20:20 05.06.2020
1952 Clouds 35 1006 12 16093 2.6 30 19:41 05.06.2020
1953 Clouds 35 1006 13 16093 1.5 80 19:22 05.06.2020
1954 Clouds 34 1006 13 16093 1.5 80 18:56 05.06.2020
1955 Clouds 33 1006 13 16093 1.5 80 18:38 05.06.2020
1956 Clouds 33 1006 12 16093 4.4 145 18:19 05.06.2020
1957 Clouds 31 1006 12 16093 4.4 145 17:56 05.06.2020
1958 Clouds 31 1006 12 16093 4.4 145 17:37 05.06.2020
1959 Clouds 30 1006 13 16093 1.5 230 17:18 05.06.2020
1960 Clouds 29 1006 13 16093 1.5 230 16:38 05.06.2020
1961 Clouds 28 1006 14 16093 0.97 98 16:20 05.06.2020
1962 Clouds 28 1006 14 16093 0.97 98 15:43 05.06.2020
1963 Clouds 27 1005 15 16093 1.2 106 15:22 05.06.2020
1964 -273 0 0 0 0 0 14:58 05.06.2020
1965 Clouds 27 1005 15 16093 1.2 106 14:40 05.06.2020
1966 Clouds 27 1005 12 16093 3.6 200 14:22 05.06.2020
1967 Clouds 28 1005 12 16093 3.6 200 13:57 05.06.2020
1968 Clouds 28 1005 12 16093 3.6 200 13:38 05.06.2020
1969 Clouds 29 1005 12 16093 3.1 180 13:19 05.06.2020
1970 Clouds 29 1005 12 16093 3.1 180 12:41 05.06.2020
1971 Clouds 29 1005 15 16093 2.1 210 12:19 05.06.2020
1972 Clouds 30 1005 15 16093 2.1 210 11:55 05.06.2020
1973 Clouds 30 1005 15 16093 2.1 210 11:37 05.06.2020
1974 Clouds 31 1006 14 16093 3.6 200 11:18 05.06.2020
1975 Clouds 31 1006 14 16093 3.6 200 10:42 05.06.2020
1976 Clouds 32 1006 13 16093 2.1 190 10:21 05.06.2020
1977 Clouds 32 1006 13 16093 2.1 190 09:57 05.06.2020
1978 Clouds 32 1006 13 16093 2.1 190 09:39 05.06.2020
1979 Clouds 33 1006 15 16093 5.1 220 09:20 05.06.2020
1980 Clouds 33 1006 15 16093 5.1 220 08:58 05.06.2020
1981 Clouds 34 1006 15 16093 5.1 220 08:40 05.06.2020
1982 Clouds 34 1006 11 16093 3.1 190 08:18 05.06.2020
1983 Clouds 34 1006 11 16093 3.1 190 07:52 05.06.2020
1984 Clouds 34 1006 11 16093 3.1 190 07:33 05.06.2020
1985 Clouds 36 1005 11 16093 3.6 200 06:50 05.06.2020
1986 Clouds 38 1005 8 16093 3.1 200 05:23 05.06.2020
1987 Clouds 39 1005 9 16093 5.1 200 04:28 05.06.2020
1988 Clouds 40 1005 8 16093 4.6 200 03:32 05.06.2020
1989 Clouds 40 1005 8 16093 5.1 210 02:30 05.06.2020
1990 Clouds 41 1006 7 16093 4.6 180 01:59 05.06.2020
1991 Clouds 41 1006 7 16093 4.6 180 01:33 05.06.2020
1992 Clouds 41 1006 7 16093 4.6 240 00:46 05.06.2020
1993 Clouds 41 1007 10 16093 2.1 0 00:22 05.06.2020
1994 Clouds 40 1007 10 16093 2.1 0 23:58 04.06.2020
1995 Clouds 40 1007 10 16093 2.1 0 23:40 04.06.2020
1996 Clouds 40 1008 10 16093 4.6 100 23:21 04.06.2020
1997 Clouds 39 1008 10 16093 4.6 100 22:42 04.06.2020
1998 Clouds 39 1009 10 16093 4.6 80 22:21 04.06.2020
1999 Clouds 39 1009 10 16093 4.6 80 21:58 04.06.2020
2000 -273 0 0 0 0 0 21:58 04.06.2020
2001 Clouds 39 1009 10 16093 4.6 80 21:38 04.06.2020
2002 Clouds 38 1010 12 16093 2.6 0 21:20 04.06.2020
2003 Clouds 37 1010 12 16093 2.6 0 20:57 04.06.2020
2004 Clouds 37 1010 12 16093 2.6 0 20:38 04.06.2020
2005 Clouds 37 1010 12 16093 2.6 0 20:19 04.06.2020
2006 Clouds 36 1011 11 16093 2.1 360 19:54 04.06.2020
2007 Clouds 36 1011 11 16093 2.1 360 19:36 04.06.2020
2008 Clouds 35 1011 11 16093 2.1 360 19:18 04.06.2020
2009 Clouds 34 1011 14 16093 1.5 110 18:38 04.06.2020
2010 Clear 33 1011 14 16093 1.19 71 18:20 04.06.2020
2011 Clear 33 1011 14 16093 1.19 71 18:20 04.06.2020
2012 Clear 32 1011 16 16093 1.19 71 17:44 04.06.2020
2013 Clear 31 1010 20 16093 1.18 79 17:23 04.06.2020
2014 Clear 30 1010 20 16093 1.18 79 16:59 04.06.2020
2015 Clear 29 1010 20 16093 1.18 79 16:40 04.06.2020
2016 Clear 28 1010 17 16093 0.66 70 16:20 04.06.2020
2017 Clear 28 1010 17 16093 0.66 70 16:20 04.06.2020
2018 Clear 27 1010 17 16093 0.66 70 15:44 04.06.2020
2019 Clear 27 1010 17 16093 0.22 71 15:26 04.06.2020
2020 Clear 27 1009 17 16093 1.5 200 14:42 04.06.2020
2021 Clear 28 1009 16 16093 2.1 220 14:23 04.06.2020
2022 Clear 27 1009 16 16093 2.1 220 13:59 04.06.2020
2023 Clear 27 1009 16 16093 2.1 220 13:59 04.06.2020
2024 Clear 28 1009 16 16093 2.1 220 13:40 04.06.2020
2025 Clear 28 1009 15 16093 2.6 210 13:21 04.06.2020
2026 Clear 28 1009 15 16093 2.6 210 12:59 04.06.2020
2027 Clear 29 1009 15 16093 2.6 210 12:40 04.06.2020
2028 Clear 29 1009 14 16093 4.1 220 12:22 04.06.2020
2029 Clear 29 1009 14 16093 4.1 220 11:55 04.06.2020
2030 Clear 29 1009 14 16093 4.1 220 11:37 04.06.2020
2031 Clear 30 1009 14 16093 2.1 230 11:19 04.06.2020
2032 Clear 30 1009 14 16093 2.1 230 10:41 04.06.2020
2033 Clear 31 1010 13 16093 2.6 230 10:23 04.06.2020
2034 Clear 32 1010 13 16093 2.6 230 09:57 04.06.2020
2035 Clear 32 1010 13 16093 2.6 230 09:38 04.06.2020
2036 Clouds 32 1010 13 16093 2.1 250 09:20 04.06.2020
2037 Clouds 33 1010 13 16093 2.1 250 08:42 04.06.2020
2038 Clouds 33 1009 11 16093 2.6 240 08:24 04.06.2020
2039 Clouds 33 1009 11 16093 2.6 240 07:46 04.06.2020
2040 Clouds 33 1009 11 16093 2.6 240 07:22 04.06.2020
2041 Clouds 33 1009 12 16093 2.1 140 06:42 04.06.2020
2042 Clouds 34 1009 12 16093 2.1 140 06:23 04.06.2020
2043 Clouds 35 1009 12 16093 1.98 248 05:34 04.06.2020
2044 Clouds 35 1009 12 16093 1.98 248 05:34 04.06.2020
2045 Clouds 37 1009 10 16093 1.5 90 03:54 04.06.2020
2046 Clouds 39 1010 10 16093 2.1 0 02:38 04.06.2020
2047 Clouds 39 1011 10 16093 1.5 0 01:42 04.06.2020
2048 Clouds 39 1011 10 16093 1.5 0 01:19 04.06.2020
2049 Clouds 39 1012 10 16093 3.1 330 00:28 04.06.2020
2050 Clouds 39 1013 10 16093 2.1 50 23:40 03.06.2020
2051 Clouds 38 1014 10 16093 3.1 0 23:20 03.06.2020
2052 Clouds 38 1014 10 16093 3.1 0 22:56 03.06.2020
2053 Clouds 38 1014 10 16093 3.1 0 22:38 03.06.2020
2054 Clouds 38 1015 11 16093 2.1 0 22:18 03.06.2020
2055 Clouds 37 1015 11 16093 2.1 0 21:55 03.06.2020
2056 Clouds 37 1015 11 16093 2.1 0 21:37 03.06.2020
2057 Clouds 36 1015 12 16093 3.6 100 21:19 03.06.2020
2058 Clouds 36 1015 12 16093 3.6 100 20:42 03.06.2020
2059 Clouds 35 1015 13 16093 2.6 280 20:21 03.06.2020
2060 Clouds 35 1015 13 16093 2.6 280 19:58 03.06.2020
2061 Clouds 35 1015 13 16093 2.6 280 19:39 03.06.2020
2062 Clouds 34 1015 13 16093 1.5 0 19:21 03.06.2020
2063 Clouds 33 1015 13 16093 1.5 0 18:59 03.06.2020
2064 Clouds 33 1015 13 16093 1.5 0 18:40 03.06.2020
2065 Clouds 32 1015 13 16093 1.5 0 18:19 03.06.2020
2066 Clouds 32 1015 15 16093 1.5 250 17:45 03.06.2020
2067 Clouds 31 1015 15 16093 1.5 250 17:23 03.06.2020
2068 Clouds 29 1015 18 16093 0.86 177 16:59 03.06.2020
2069 Clouds 29 1015 18 16093 0.86 177 16:41 03.06.2020
2070 Clouds 28 1014 17 16093 2.1 350 16:19 03.06.2020
2071 Clouds 28 1014 17 16093 2.1 350 15:55 03.06.2020
2072 Clouds 28 1014 17 16093 2.1 350 15:37 03.06.2020
2073 Clouds 27 1014 17 16093 1.59 295 15:18 03.06.2020
2074 Clouds 28 1014 17 16093 1.59 295 14:42 03.06.2020
2075 Clouds 28 1014 17 16093 1.7 266 14:23 03.06.2020
2076 Clouds 28 1014 15 16093 3.1 230 13:40 03.06.2020
2077 Clouds 28 1014 15 16093 3.1 230 13:40 03.06.2020
2078 Clouds 29 1014 17 16093 3.1 200 13:21 03.06.2020
2079 Clouds 28 1014 17 16093 3.1 200 12:57 03.06.2020
2080 Clouds 28 1014 17 16093 3.1 200 12:38 03.06.2020
2081 Clouds 28 1014 17 16093 2.6 210 12:18 03.06.2020
2082 Clouds 28 1014 17 16093 2.6 210 11:44 03.06.2020
2083 Clouds 28 1014 17 16093 2.6 210 11:24 03.06.2020
2084 Clouds 29 1014 18 16093 2.1 220 10:44 03.06.2020
2085 Clouds 29 1014 18 16093 2.1 220 10:25 03.06.2020
2086 Clouds 29 1014 16 16093 2.1 260 09:58 03.06.2020
2087 Clouds 30 1014 16 16093 2.1 260 09:37 03.06.2020
2088 Clouds 31 1014 14 16093 3.1 220 09:18 03.06.2020
2089 Clouds 30 1014 14 16093 3.1 220 08:47 03.06.2020
2090 Clouds 31 1015 14 16093 3.6 240 08:22 03.06.2020
2091 Clouds 32 1015 14 16093 3.6 240 07:50 03.06.2020
2092 Clouds 32 1015 14 16093 3.6 240 07:24 03.06.2020
2093 Clouds 33 1014 14 16093 2.1 170 06:59 03.06.2020
2094 Clouds 33 1014 14 16093 2.1 170 06:41 03.06.2020
2095 Clouds 32 1014 14 16093 2.1 170 06:21 03.06.2020
2096 Clouds 33 1014 11 16093 1.5 110 05:44 03.06.2020
2097 Clouds 35 1013 11 16093 2.1 110 04:19 03.06.2020
2098 Clouds 37 1013 11 16093 2.1 110 03:41 03.06.2020
2099 Clouds 37 1014 10 16093 3.6 90 02:33 03.06.2020
2100 Clouds 37 1014 11 16093 2.6 30 01:34 03.06.2020
2101 Clouds 36 1015 11 16093 1.5 340 00:38 03.06.2020
2102 Clouds 36 1016 12 16093 2.1 60 00:19 03.06.2020
2103 Clouds 36 1016 12 16093 2.1 60 23:43 02.06.2020
2104 Clouds 35 1016 12 16093 2.1 60 23:24 02.06.2020
2105 Clouds 35 1016 12 16093 1.5 0 22:40 02.06.2020
2106 Clouds 34 1017 13 16093 2.58 143 22:19 02.06.2020
2107 Clouds 34 1017 13 16093 2.58 143 21:57 02.06.2020
2108 Clouds 34 1017 13 16093 2.58 143 21:39 02.06.2020
2109 Clouds 33 1017 11 16093 1.5 40 21:21 02.06.2020
2110 Clouds 33 1017 11 16093 1.5 40 21:21 02.06.2020
2111 Clouds 33 1017 11 16093 1.5 40 20:59 02.06.2020
2112 Clouds 33 1017 11 16093 1.5 40 20:40 02.06.2020
2113 Clouds 32 1016 11 16093 2.14 138 20:22 02.06.2020
2114 Clouds 32 1016 11 16093 2.14 138 19:45 02.06.2020
2115 Clouds 31 1016 15 16093 1.5 70 19:26 02.06.2020
2116 Clouds 31 1016 15 16093 1.5 70 18:59 02.06.2020
2117 Clouds 30 1016 15 16093 1.5 70 18:40 02.06.2020
2118 Clouds 30 1016 15 16093 1.5 70 18:40 02.06.2020
2119 Clouds 30 1016 18 16093 1.07 89 18:21 02.06.2020
2120 Clouds 29 1016 18 16093 1.07 89 17:59 02.06.2020
2121 Clouds 28 1016 18 16093 1.07 89 17:40 02.06.2020
2122 Clouds 28 1015 19 16093 1.5 270 17:21 02.06.2020
2123 Clouds 27 1015 19 16093 1.5 270 16:56 02.06.2020
2124 Clouds 26 1015 19 16093 1.5 270 16:37 02.06.2020
2125 Clouds 25 1014 21 16093 1.5 310 16:19 02.06.2020
2126 Clouds 25 1014 21 16093 1.5 310 15:40 02.06.2020
2127 Clouds 25 1014 16 16093 1.5 250 15:22 02.06.2020
2128 Clouds 24 1014 16 16093 1.5 250 14:48 02.06.2020
2129 Clouds 25 1014 16 16093 1.5 250 14:28 02.06.2020
2130 Clouds 25 1013 16 16093 2.1 230 13:57 02.06.2020
2131 Clouds 25 1013 16 16093 2.1 230 13:37 02.06.2020
2132 Clouds 25 1013 16 16093 2.1 230 13:37 02.06.2020
2133 Clouds 26 1013 18 16093 1.5 190 13:18 02.06.2020
2134 Clouds 26 1013 18 16093 1.5 190 12:56 02.06.2020
2135 Clouds 26 1013 18 16093 1.5 190 12:38 02.06.2020
2136 Clouds 26 1013 15 16093 2.1 220 12:19 02.06.2020
2137 Clouds 26 1013 15 16093 2.1 220 11:41 02.06.2020
2138 Clouds 26 1013 15 16093 2.1 220 11:23 02.06.2020
2139 Clouds 27 1013 15 16093 1.5 200 10:59 02.06.2020
2140 Clouds 26 1013 15 16093 1.5 200 10:41 02.06.2020
2141 Clouds 28 1013 16 16093 0.81 243 10:21 02.06.2020
2142 Clouds 28 1013 16 16093 0.81 243 09:43 02.06.2020
2143 Clouds 28 1013 13 16093 1.5 180 09:21 02.06.2020
2144 Clouds 29 1013 13 16093 1.5 180 08:54 02.06.2020
2145 Clouds 29 1013 13 16093 1.5 180 08:28 02.06.2020
2146 Clouds 30 1013 13 16093 1.5 180 07:58 02.06.2020
2147 Clouds 30 1013 11 16093 3.1 260 07:33 02.06.2020
2148 Clouds 31 1012 10 16093 3.6 270 06:59 02.06.2020
2149 Clouds 31 1012 10 16093 3.6 270 06:38 02.06.2020
2150 Clouds 32 1011 9 16093 5.7 280 05:37 02.06.2020
2151 Clouds 34 1011 9 16093 4.6 250 04:24 02.06.2020
2152 Clouds 35 1011 7 16093 5.1 200 02:37 02.06.2020
2153 Clouds 36 1011 8 16093 3.6 220 01:55 02.06.2020
2154 Clouds 36 1012 9 16093 3.6 200 00:51 02.06.2020
2155 Clouds 36 1012 9 16093 6.7 220 00:21 02.06.2020
2156 Clouds 36 1012 9 16093 6.7 220 23:39 01.06.2020
2157 Clouds 36 1013 9 16093 6.2 190 23:20 01.06.2020
2158 Clouds 36 1013 9 16093 6.2 190 22:56 01.06.2020
2159 Clouds 35 1013 9 16093 6.2 190 22:38 01.06.2020
2160 Clouds 35 1014 10 16093 3.6 230 22:19 01.06.2020
2161 Clouds 35 1014 10 16093 3.6 230 22:19 01.06.2020
2162 Clouds 34 1014 10 16093 3.6 230 21:42 01.06.2020
2163 Clouds 34 1014 11 16093 5.7 230 21:21 01.06.2020
2164 Clouds 34 1014 11 16093 5.7 230 20:59 01.06.2020
2165 Clouds 33 1014 11 16093 5.7 230 20:41 01.06.2020
2166 Clouds 33 1014 12 16093 3.1 0 20:20 01.06.2020
2167 Clouds 32 1014 12 16093 3.1 0 19:58 01.06.2020
2168 Clouds 32 1014 12 16093 3.1 0 19:58 01.06.2020
2169 Clouds 32 1014 12 16093 3.1 0 19:39 01.06.2020
2170 Clouds 31 1014 13 16093 3.1 0 19:20 01.06.2020
2171 Clouds 30 1014 16 16093 3.1 160 18:57 01.06.2020
2172 Clouds 29 1014 16 16093 3.1 160 18:38 01.06.2020
2173 Clouds 29 1014 18 16093 3.1 170 18:19 01.06.2020
2174 Clouds 27 1014 18 16093 3.1 170 17:41 01.06.2020
2175 Clouds 27 1013 20 16093 2.1 190 17:21 01.06.2020
2176 Clouds 25 1013 20 16093 2.1 190 16:58 01.06.2020
2177 Clouds 25 1013 20 16093 2.1 190 16:39 01.06.2020
2178 Clouds 24 1013 18 16093 1.5 170 16:19 01.06.2020
2179 Clouds 23 1013 18 16093 1.5 170 15:54 01.06.2020
2180 Clouds 22 1013 18 16093 1.5 170 15:36 01.06.2020
2181 Clouds 23 1012 19 16093 3.6 190 15:18 01.06.2020
2182 Clouds 23 1012 19 16093 3.6 190 14:41 01.06.2020
2183 Clouds 22 1012 19 16093 3.6 200 14:23 01.06.2020
2184 Clouds 23 1012 19 16093 3.6 200 13:58 01.06.2020
2185 Clouds 23 1012 19 16093 3.6 200 13:39 01.06.2020
2186 Clouds 23 1012 19 16093 3.6 200 13:20 01.06.2020
2187 Clouds 24 1011 16 16093 3.1 190 12:57 01.06.2020
2188 Clouds 24 1011 16 16093 3.1 190 12:39 01.06.2020
2189 Clouds 24 1011 16 16093 3.1 190 12:20 01.06.2020
2190 Clouds 25 1011 16 16093 4.6 230 11:41 01.06.2020
2191 Clouds 25 1011 16 16093 4.6 230 11:23 01.06.2020
2192 Clouds 26 1011 15 16093 4.1 200 10:59 01.06.2020
2193 Clouds 26 1011 15 16093 4.1 200 10:39 01.06.2020
2194 Clouds 26 1011 15 16093 4.1 200 10:20 01.06.2020
2195 Clouds 27 1011 15 16093 1.5 220 09:56 01.06.2020
2196 Clouds 27 1011 15 16093 1.5 220 09:37 01.06.2020
2197 Clouds 27 1011 15 16093 1.5 220 09:19 01.06.2020
2198 Clouds 28 1011 14 16093 2.6 180 08:45 01.06.2020
2199 Clouds 28 1011 14 16093 2.6 180 08:25 01.06.2020
2200 Clouds 28 1011 12 16093 4.1 240 07:45 01.06.2020
2201 Clouds 28 1011 12 16093 4.1 240 07:27 01.06.2020
2202 Clouds 29 1010 10 16093 4.1 230 06:54 01.06.2020
2203 Clouds 29 1010 10 16093 4.1 230 06:20 01.06.2020
2204 Clouds 30 1009 9 16093 4.1 240 05:50 01.06.2020
2205 Clouds 32 1008 9 16093 5.1 250 04:23 01.06.2020
2206 Clouds 33 1008 8 16093 6.7 250 03:45 01.06.2020
2207 Clouds 34 1008 8 16093 6.7 250 03:18 01.06.2020
2208 Clouds 35 1009 9 16093 4.6 240 01:47 01.06.2020
2209 Clouds 35 1009 9 16093 4.6 240 01:28 01.06.2020
2210 Clouds 35 1009 9 16093 4.6 200 00:57 01.06.2020
2211 Clouds 35 1009 9 16093 4.6 200 00:39 01.06.2020
2212 Clouds 34 1009 9 16093 4.6 200 00:20 01.06.2020
2213 Clouds 34 1010 10 16093 1.5 0 23:54 31.05.2020
2214 Clouds 34 1010 10 16093 1.5 0 23:36 31.05.2020
2215 Clouds 34 1010 10 16093 1.5 0 23:18 31.05.2020
2216 Clouds 34 1011 11 16093 2.1 0 22:42 31.05.2020
2217 Clouds 34 1011 11 16093 2.1 0 22:42 31.05.2020
2218 Clouds 34 1011 11 16093 2.1 0 22:24 31.05.2020
2219 Clouds 33 1012 13 16093 7.09 191 21:58 31.05.2020
2220 Clouds 33 1012 13 16093 7.09 191 21:39 31.05.2020
2221 Clouds 32 1012 13 16093 7.12 172 21:21 31.05.2020
2222 Clouds 31 1012 15 16093 3.1 60 20:48 31.05.2020
2223 Clouds 31 1012 15 16093 3.1 60 20:25 31.05.2020
2224 Clouds 29 1012 17 16093 3.1 0 19:57 31.05.2020
2225 Clouds 29 1012 17 16093 3.1 0 19:38 31.05.2020
2226 Clouds 28 1012 17 16093 3.1 0 19:20 31.05.2020
2227 Clouds 27 1012 24 16093 4.6 170 18:58 31.05.2020
2228 Clouds 27 1012 24 16093 4.6 170 18:39 31.05.2020
2229 Clouds 26 1012 24 16093 4.6 170 18:21 31.05.2020
2230 Clouds 26 1012 24 16093 4.6 170 18:21 31.05.2020
2231 Clouds 25 1012 29 16093 2.6 120 17:42 31.05.2020
2232 Clouds 24 1012 29 16093 2.6 120 17:24 31.05.2020
2233 Clouds 23 1011 33 16093 3.6 210 16:42 31.05.2020
2234 Clouds 22 1011 33 16093 3.6 210 16:22 31.05.2020
2235 Clouds 22 1011 30 16093 4.6 170 15:57 31.05.2020
2236 Clouds 22 1011 30 16093 4.6 170 15:37 31.05.2020
2237 Clouds 22 1011 30 16093 4.6 170 15:19 31.05.2020
2238 Clouds 22 1010 28 16093 3.6 160 14:42 31.05.2020
2239 Clouds 22 1010 28 16093 3.6 160 14:19 31.05.2020
2240 Clouds 22 1010 27 16093 4.6 170 13:56 31.05.2020
2241 Clouds 23 1010 27 16093 4.6 170 13:37 31.05.2020
2242 Clouds 23 1010 27 16093 4.6 170 13:19 31.05.2020
2243 Clouds 23 1009 23 16093 3.1 150 12:46 31.05.2020
2244 Clouds 24 1009 23 16093 3.1 150 12:24 31.05.2020
2245 Clouds 24 1009 19 16093 4.1 190 11:59 31.05.2020
2246 Clouds 25 1009 19 16093 4.1 190 11:39 31.05.2020
2247 Clouds 25 1009 19 16093 4.1 190 11:21 31.05.2020
2248 Clouds 25 1009 15 16093 4.6 190 10:45 31.05.2020
2249 Clouds 26 1009 15 16093 4.6 190 10:27 31.05.2020
2250 Clouds 26 1009 14 16093 5.7 230 09:59 31.05.2020
2251 Clouds 26 1009 14 16093 5.7 230 09:41 31.05.2020
2252 Clouds 26 1009 14 16093 5.7 230 09:21 31.05.2020
2253 Clouds 27 1008 13 16093 5.1 210 08:43 31.05.2020
2254 Clouds 27 1008 13 16093 5.1 210 08:24 31.05.2020
2255 Clouds 28 1008 10 16093 2.1 200 07:52 31.05.2020
2256 Clouds 28 1008 10 16093 2.1 200 07:22 31.05.2020
2257 Clouds 28 1008 10 16093 4.1 230 06:57 31.05.2020
2258 Clouds 28 1008 10 16093 4.1 230 06:36 31.05.2020
2259 Clouds 29 1007 10 16093 5.7 230 05:55 31.05.2020
2260 Clouds 29 1007 10 16093 5.7 230 05:37 31.05.2020
2261 Clouds 31 1007 9 16093 6.7 240 04:18 31.05.2020
2262 Clouds 32 1007 9 16093 7.7 240 03:44 31.05.2020
2263 Clouds 33 1007 9 16093 7.2 230 02:49 31.05.2020
2264 Clouds 34 1007 10 16093 7.7 220 01:46 31.05.2020
2265 Clouds 34 1008 10 16093 8.7 230 00:42 31.05.2020
2266 Clouds 34 1008 10 16093 8.7 230 00:24 31.05.2020
2267 Clouds 35 1007 8 16093 7.7 230 23:42 30.05.2020
2268 Clouds 36 1007 8 16093 7.7 230 23:24 30.05.2020
2269 Clouds 37 1008 9 16093 5.1 180 22:56 30.05.2020
2270 Clouds 37 1008 9 16093 5.1 180 22:38 30.05.2020
2271 Clouds 36 1008 9 16093 5.1 180 22:20 30.05.2020
2272 Clouds 36 1009 13 16093 5.7 160 21:43 30.05.2020
2273 Clouds 36 1009 13 16093 5.7 160 21:22 30.05.2020
2274 Clouds 36 1009 13 16093 5.7 160 21:22 30.05.2020
2275 Clouds 35 1009 17 16093 3.6 180 20:58 30.05.2020
2276 Clouds 35 1009 17 16093 3.6 180 20:39 30.05.2020
2277 Clouds 34 1009 17 16093 3.6 180 20:21 30.05.2020
2278 Clouds 34 1010 18 16093 4.1 190 19:56 30.05.2020
2279 Clouds 33 1010 18 16093 4.1 190 19:38 30.05.2020
2280 Clouds 33 1010 18 16093 4.1 190 19:18 30.05.2020
2281 Clouds 32 1011 21 16093 3.1 0 18:43 30.05.2020
2282 Clouds 32 1011 21 16093 3.1 0 18:19 30.05.2020
2283 Clouds 31 1011 22 16093 7.28 173 17:42 30.05.2020
2284 Clouds 30 1011 22 16093 5.99 168 17:24 30.05.2020
2285 Clouds 29 1011 23 16093 2.1 220 16:58 30.05.2020
2286 Clouds 29 1011 23 16093 2.1 220 16:39 30.05.2020
2287 Clouds 29 1011 23 16093 2.1 220 16:20 30.05.2020
2288 Clouds 27 1010 22 16093 2.1 200 15:42 30.05.2020
2289 Clouds 27 1010 22 16093 2.1 200 15:24 30.05.2020
2290 Clouds 27 1010 20 16093 2.1 210 14:44 30.05.2020
2291 Clouds 27 1010 20 16093 2.1 210 14:25 30.05.2020
2292 Clouds 28 1010 18 16093 1.5 0 13:44 30.05.2020
2293 Clouds 28 1010 18 16093 1.5 0 13:24 30.05.2020
2294 Clouds 29 1010 18 16093 1.5 220 12:42 30.05.2020
2295 Clouds 29 1010 18 16093 1.5 220 12:21 30.05.2020
2296 Clouds 30 1010 16 16093 1.5 220 11:58 30.05.2020
2297 Clouds 29 1010 16 16093 1.5 220 11:40 30.05.2020
2298 Clouds 29 1010 16 16093 1.5 220 11:22 30.05.2020
2299 Clouds 30 1010 15 16093 2.1 220 10:41 30.05.2020
2300 Clouds 31 1010 15 16093 2.1 220 10:21 30.05.2020
2301 Clouds 31 1011 13 16093 1.5 180 09:51 30.05.2020
2302 Clouds 31 1011 13 16093 1.5 180 09:33 30.05.2020
2303 Clouds 31 1011 13 16093 3.1 220 08:52 30.05.2020
2304 Clouds 32 1011 13 16093 3.1 220 08:33 30.05.2020
2305 Clouds 33 1011 14 16093 3.1 200 07:50 30.05.2020
2306 Clouds 34 1011 13 16093 3.1 200 07:27 30.05.2020
2307 Clouds 34 1011 13 16093 2.6 210 06:59 30.05.2020
2308 Clouds 35 1011 11 16093 2.6 210 06:25 30.05.2020
2309 Clouds 35 1011 9 16093 3.1 170 05:49 30.05.2020
2310 Clouds 36 1011 9 16093 5.1 220 04:21 30.05.2020
2311 Clouds 39 1010 7 16093 5.7 200 02:33 30.05.2020
2312 Clouds 40 1010 6 16093 8.2 230 01:52 30.05.2020
2313 Clouds 40 1011 7 16093 7.2 170 00:42 30.05.2020
2314 Clouds 40 1011 7 16093 7.2 170 00:21 30.05.2020
2315 Clouds 40 1012 7 16093 6.2 170 23:58 29.05.2020
2316 Clouds 40 1012 7 16093 6.2 170 23:38 29.05.2020
2317 Clouds 40 1012 7 16093 6.2 170 23:19 29.05.2020
2318 Clouds 40 1012 7 16093 6.7 140 22:41 29.05.2020
2319 Clouds 40 1012 7 16093 6.7 140 22:21 29.05.2020
2320 Clouds 39 1013 9 16093 2.1 0 21:59 29.05.2020
2321 Clouds 39 1013 9 16093 2.1 0 21:39 29.05.2020
2322 Clouds 38 1013 9 16093 2.1 0 21:20 29.05.2020
2323 Clear 37 1014 11 16093 2.6 0 20:54 29.05.2020
2324 Clear 37 1014 11 16093 2.6 0 20:36 29.05.2020
2325 Clear 37 1014 11 16093 2.6 0 20:18 29.05.2020
2326 Clear 36 1015 11 16093 2.1 80 19:42 29.05.2020
2327 Clear 35 1015 11 16093 2.1 80 19:23 29.05.2020
2328 Clear 33 1015 10 16093 1.5 350 18:47 29.05.2020
2329 Clear 33 1015 11 16093 1.5 350 18:21 29.05.2020
2330 Clear 32 1015 15 16093 1.2 89 17:57 29.05.2020
2331 Clear 31 1015 15 16093 1.2 89 17:38 29.05.2020
2332 Clear 31 1015 15 16093 1.2 89 17:38 29.05.2020
2333 Clear 31 1015 15 16093 1.05 70 17:19 29.05.2020
2334 Clear 29 1014 20 16093 1.5 270 16:45 29.05.2020
2335 Clear 28 1014 20 16093 1.5 270 16:27 29.05.2020
2336 Clouds 27 1014 19 16093 3.1 290 15:57 29.05.2020
2337 Clouds 26 1014 19 16093 3.1 290 15:38 29.05.2020
2338 Clouds 26 1014 19 16093 3.1 290 15:20 29.05.2020
2339 Clear 27 1013 17 16093 0.55 104 14:51 29.05.2020
2340 Clear 27 1013 17 16093 0.66 145 14:24 29.05.2020
2341 Clear 28 1013 14 16093 0.66 145 13:58 29.05.2020
2342 Clear 28 1013 14 16093 0.66 145 13:39 29.05.2020
2343 Clear 28 1013 14 16093 1.08 171 13:18 29.05.2020
2344 Clear 29 1013 14 16093 1.08 171 12:44 29.05.2020
2345 Clear 29 1013 14 16093 1.94 195 12:25 29.05.2020
2346 Clear 30 1013 12 16093 2.6 200 11:46 29.05.2020
2347 Clear 31 1013 12 16093 2.6 200 11:27 29.05.2020
2348 Clear 31 1012 11 16093 2.29 219 10:58 29.05.2020
2349 Clear 31 1012 11 16093 2.29 219 10:38 29.05.2020
2350 Clear 32 1012 11 16093 2.99 234 10:20 29.05.2020
2351 Clear 32 1012 9 16093 2.1 210 09:45 29.05.2020
2352 Clear 33 1012 9 16093 2.1 210 09:21 29.05.2020
2353 Clouds 33 1012 9 16093 2.1 190 08:57 29.05.2020
2354 Clouds 34 1012 9 16093 2.1 190 08:39 29.05.2020
2355 Clouds 34 1012 9 16093 2.1 190 08:20 29.05.2020
2356 Clouds 34 1012 8 16093 3.6 220 07:44 29.05.2020
2357 Clouds 35 1012 8 16093 3.6 220 07:26 29.05.2020
2358 Clouds 36 1011 8 16093 4.1 200 06:49 29.05.2020
2359 Clouds 36 1011 8 16093 4.1 200 06:28 29.05.2020
2360 Clouds 36 1011 8 16093 4.1 170 05:53 29.05.2020
2361 Clouds 40 1010 8 16093 5.7 150 03:55 29.05.2020
2362 Clouds 40 1011 9 16093 3.6 340 01:47 29.05.2020
2363 Clouds 40 1011 9 16093 3.6 340 01:25 29.05.2020
2364 Clouds 40 1011 9 16093 3.6 340 01:25 29.05.2020
2365 Clouds 40 1012 9 16093 2.1 0 00:47 29.05.2020
2366 Clouds 40 1012 9 16093 2.1 0 00:22 29.05.2020
2367 Clouds 40 1012 9 16093 4.1 40 23:40 28.05.2020
2368 Clouds 40 1012 9 16093 4.1 40 23:19 28.05.2020
2369 Clouds 39 1013 11 16093 1.63 117 22:45 28.05.2020
2370 Clouds 39 1013 11 16093 1.84 105 22:27 28.05.2020
2371 Clouds 38 1014 14 16093 2.6 160 21:59 28.05.2020
2372 Clouds 38 1014 14 16093 2.6 160 21:40 28.05.2020
2373 Clouds 37 1014 14 16093 2.6 160 21:20 28.05.2020
2374 Clouds 36 1014 12 16093 2.1 60 20:58 28.05.2020
2375 Clouds 36 1014 12 16093 2.1 60 20:39 28.05.2020
2376 Clouds 36 1014 12 16093 2.1 60 20:19 28.05.2020
2377 Clouds 35 1014 14 16093 1.99 66 19:57 28.05.2020
2378 Clouds 35 1014 14 16093 1.99 66 19:57 28.05.2020
2379 Clouds 35 1014 14 16093 1.99 66 19:39 28.05.2020
2380 Clouds 35 1014 14 16093 1.83 62 19:20 28.05.2020
2381 Clouds 34 1014 15 16093 2.6 360 18:43 28.05.2020
2382 Clouds 33 1014 15 16093 2.6 360 18:25 28.05.2020
2383 Clouds 32 1014 15 16093 3.1 10 17:57 28.05.2020
2384 Clouds 32 1014 15 16093 3.1 10 17:39 28.05.2020
2385 Clouds 32 1014 15 16093 3.1 10 17:19 28.05.2020
2386 Clear 30 1013 18 16093 2.6 290 16:45 28.05.2020
2387 Clear 29 1013 18 16093 2.6 290 16:21 28.05.2020
2388 Clouds 28 1013 20 16093 1.34 36 15:47 28.05.2020
2389 Clouds 27 1013 20 16093 0.39 339 15:25 28.05.2020
2390 Clear 27 1012 20 16093 1.5 190 14:59 28.05.2020
2391 Clear 27 1012 20 16093 1.5 190 14:40 28.05.2020
2392 Clear 27 1012 20 16093 1.5 190 14:22 28.05.2020
2393 Clear 27 1012 20 16093 1.5 190 14:22 28.05.2020
2394 Clear 28 1011 21 16093 2.1 300 13:45 28.05.2020
2395 Clear 29 1011 21 16093 2.1 300 13:27 28.05.2020
2396 Clear 30 1011 20 16093 2.6 190 12:43 28.05.2020
2397 Clear 30 1011 20 16093 2.6 190 12:20 28.05.2020
2398 Clear 31 1011 16 16093 3.1 190 11:54 28.05.2020
2399 Clear 32 1011 16 16093 3.1 190 11:36 28.05.2020
2400 Clear 32 1011 16 16093 3.1 190 11:36 28.05.2020
2401 Clear 32 1011 16 16093 3.1 190 11:18 28.05.2020
2402 Clear 32 1011 11 16093 3.1 200 10:42 28.05.2020
2403 Clear 32 1011 11 16093 3.1 200 10:24 28.05.2020
2404 Clear 32 1011 13 16093 2.1 180 09:41 28.05.2020
2405 Clear 32 1011 12 16093 2.1 180 09:22 28.05.2020
2406 Clouds 33 1011 11 16093 2.73 255 08:57 28.05.2020
2407 Clouds 33 1011 11 16093 2.73 255 08:39 28.05.2020
2408 Clouds 33 1011 11 16093 3.14 263 08:20 28.05.2020
2409 Clouds 34 1010 12 16093 3.14 263 07:41 28.05.2020
2410 Clouds 34 1010 12 16093 3.84 269 07:23 28.05.2020
2411 Clouds 35 1009 12 16093 1.5 320 06:44 28.05.2020
2412 Clouds 35 1009 12 16093 1.5 320 06:26 28.05.2020
2413 Clouds 36 1009 9 16093 3.6 150 05:38 28.05.2020
2414 Clouds 38 1009 10 16093 2.1 0 04:36 28.05.2020
2415 Clouds 39 1008 7 16093 1.5 10 03:53 28.05.2020
2416 Clouds 40 1009 7 16093 3.6 270 02:55 28.05.2020
2417 Clouds 40 1009 8 16093 1.64 270 01:57 28.05.2020
2418 Clouds 40 1009 8 16093 1.64 270 01:35 28.05.2020
2419 Clouds 40 1010 8 16093 3.1 0 00:47 28.05.2020
2420 Clouds 40 1010 8 16093 3.1 0 00:19 28.05.2020
2421 Clouds 40 1011 9 16093 3.6 80 23:55 27.05.2020
2422 Clouds 39 1011 9 16093 3.6 80 23:36 27.05.2020
2423 Clouds 39 1011 9 16093 3.6 80 23:18 27.05.2020
2424 Clouds 38 1012 9 16093 2.6 10 22:41 27.05.2020
2425 Clouds 38 1012 9 16093 2.6 10 22:23 27.05.2020
2426 Clouds 37 1013 11 16093 1.54 115 21:56 27.05.2020
2427 Clouds 37 1013 11 16093 1.54 115 21:37 27.05.2020
2428 Clouds 36 1013 11 16093 1.2 96 21:19 27.05.2020
2429 Clouds 36 1013 12 16093 1.2 96 20:56 27.05.2020
2430 Clouds 35 1013 12 16093 1.2 96 20:36 27.05.2020
2431 Clouds 35 1013 12 16093 1.14 79 20:18 27.05.2020
2432 Clouds 34 1013 13 16093 2.6 360 19:42 27.05.2020
2433 Clouds 34 1013 13 16093 2.6 360 19:20 27.05.2020
2434 Clouds 32 1013 14 16093 1.2 86 18:44 27.05.2020
2435 Clouds 32 1013 14 16093 1.26 80 18:20 27.05.2020
2436 Clouds 31 1013 17 16093 2.1 290 17:58 27.05.2020
2437 Clouds 30 1013 17 16093 2.1 290 17:39 27.05.2020
2438 Clouds 30 1013 17 16093 2.1 290 17:21 27.05.2020
2439 Clouds 28 1013 20 16093 0.99 68 16:56 27.05.2020
2440 Clouds 28 1013 20 16093 0.99 68 16:38 27.05.2020
2441 Clouds 27 1013 20 16093 0.52 74 16:19 27.05.2020
2442 Clouds 25 1012 19 16093 1.5 220 15:47 27.05.2020
2443 Clouds 25 1012 19 16093 1.5 220 15:22 27.05.2020
2444 Clouds 25 1011 18 16093 1.5 240 14:46 27.05.2020
2445 Clouds 25 1011 18 16093 1.5 240 14:46 27.05.2020
2446 Clouds 25 1011 18 16093 1.5 240 14:46 27.05.2020
2447 Clouds 25 1011 18 16093 1.5 240 14:22 27.05.2020
2448 Clouds 25 1011 19 16093 0.81 239 13:58 27.05.2020
2449 Clouds 25 1011 19 16093 0.81 239 13:39 27.05.2020
2450 Clouds 26 1011 19 16093 1.28 244 13:21 27.05.2020
2451 Clouds 27 1011 18 16093 1.5 180 12:42 27.05.2020
2452 Clouds 26 1011 18 16093 1.5 180 12:23 27.05.2020
2453 Clouds 26 1011 18 16093 1.5 180 12:23 27.05.2020
2454 Clouds 27 1011 16 16093 2.1 200 11:55 27.05.2020
2455 Clouds 27 1011 16 16093 2.1 200 11:36 27.05.2020
2456 Clouds 27 1011 15 16093 2.1 200 11:18 27.05.2020
2457 Clouds 29 1011 13 16093 2.6 230 10:43 27.05.2020
2458 Clouds 30 1011 13 16093 2.6 230 10:24 27.05.2020
2459 Clouds 30 1011 13 16093 1.5 210 09:56 27.05.2020
2460 Clouds 29 1011 13 16093 1.5 210 09:38 27.05.2020
2461 Clouds 30 1011 13 16093 1.5 210 09:20 27.05.2020
2462 Clouds 31 1011 12 16093 1.5 210 08:42 27.05.2020
2463 Clouds 30 1011 12 16093 1.5 210 08:24 27.05.2020
2464 Clouds 31 1011 14 16093 3.1 220 07:53 27.05.2020
2465 Clouds 31 1011 14 16093 3.1 220 07:34 27.05.2020
2466 Clouds 32 1011 10 16093 2.6 100 06:55 27.05.2020
2467 Clouds 32 1011 10 16093 2.6 100 06:24 27.05.2020
2468 Clouds 33 1010 10 16093 2.6 110 05:50 27.05.2020
2469 Clouds 34 1010 10 16093 2.6 110 05:24 27.05.2020
2470 Clouds 37 1010 8 16093 4.1 60 03:21 27.05.2020
2471 Clear 37 1010 8 16093 4.1 90 02:27 27.05.2020
2472 Clear 37 1011 9 16093 2.1 40 01:32 27.05.2020
2473 Clear 36 1012 8 16093 2.1 20 00:50 27.05.2020
2474 Clear 36 1012 8 16093 2.1 20 00:24 27.05.2020
2475 Clear 36 1013 8 16093 3.1 30 23:59 26.05.2020
2476 Clear 35 1013 8 16093 3.1 30 23:40 26.05.2020
2477 Clear 35 1013 8 16093 3.1 30 23:22 26.05.2020
2478 Clear 34 1013 9 16093 2.6 100 22:58 26.05.2020
2479 Clear 34 1013 9 16093 2.6 100 22:37 26.05.2020
2480 Clear 34 1013 9 16093 2.6 100 22:19 26.05.2020
2481 Clear 33 1014 10 16093 1.5 0 21:55 26.05.2020
2482 Clear 33 1014 10 16093 1.5 0 21:36 26.05.2020
2483 Clear 33 1014 10 16093 1.5 0 21:36 26.05.2020
2484 Clear 32 1014 10 16093 1.5 0 21:18 26.05.2020
2485 Clear 32 1015 10 16093 1.14 97 20:41 26.05.2020
2486 Clear 32 1015 10 16093 1.22 77 20:20 26.05.2020
2487 Clear 30 1015 12 16093 3.6 90 19:41 26.05.2020
2488 Clear 30 1015 12 16093 3.6 90 19:22 26.05.2020
2489 Clear 28 1015 14 16093 1.5 0 18:59 26.05.2020
2490 Clear 28 1015 14 16093 1.5 0 18:39 26.05.2020
2491 Clear 28 1015 14 16093 1.5 0 18:21 26.05.2020
2492 Clear 26 1015 14 16093 1.12 41 17:42 26.05.2020
2493 Clear 26 1015 15 16093 1 22 17:23 26.05.2020
2494 Clear 25 1015 22 16093 1 22 16:49 26.05.2020
2495 Clear 24 1015 22 16093 0.92 14 16:24 26.05.2020
2496 Clear 21 1014 26 16093 2.6 290 15:59 26.05.2020
2497 Clear 21 1014 26 16093 2.6 290 15:41 26.05.2020
2498 Clear 20 1014 26 16093 2.6 290 15:20 26.05.2020
2499 Clear 20 1014 19 16093 2.1 250 14:55 26.05.2020
2500 Clear 20 1014 19 16093 2.1 250 14:37 26.05.2020
2501 Clear 20 1014 19 16093 2.1 250 14:18 26.05.2020
2502 Clear 22 1013 19 16093 1.5 220 13:41 26.05.2020
2503 Clear 22 1013 19 16093 1.5 220 13:22 26.05.2020
2504 Smoke 22 1013 21 16093 1.06 17 12:44 26.05.2020
2505 Smoke 22 1013 20 16093 0.82 336 12:23 26.05.2020
2506 Smoke 22 1013 19 16093 3.6 260 11:59 26.05.2020
2507 Smoke 22 1013 19 16093 3.6 260 11:59 26.05.2020
2508 Smoke 22 1013 19 16093 3.6 260 11:40 26.05.2020
2509 Smoke 22 1013 19 16093 3.6 260 11:40 26.05.2020
2510 Smoke 22 1013 19 16093 3.6 260 11:40 26.05.2020
2511 Smoke 22 1013 19 16093 3.6 260 11:19 26.05.2020
2512 Smoke 22 1013 17 16093 0.76 312 10:47 26.05.2020
2513 Smoke 22 1013 17 16093 0.61 308 10:19 26.05.2020
2514 Smoke 24 1013 15 16093 1.5 190 09:57 26.05.2020
2515 Smoke 24 1013 15 16093 1.5 190 09:37 26.05.2020
2516 Smoke 24 1013 15 16093 1.5 190 09:18 26.05.2020
2517 Clear 25 1013 15 16093 4.1 240 08:40 26.05.2020
2518 Clear 26 1013 15 16093 4.1 240 08:21 26.05.2020
2519 Clear 26 1013 14 16093 2.6 240 07:42 26.05.2020
2520 Clear 27 1013 14 16093 2.6 240 07:23 26.05.2020
2521 Clear 28 1013 13 16093 1.43 182 06:52 26.05.2020
2522 Clear 27 1013 13 16093 1.02 176 06:28 26.05.2020
2523 Clear 28 1012 11 16093 1.5 160 05:41 26.05.2020
2524 Clear 29 1012 11 16093 1.5 160 05:18 26.05.2020
2525 Clear 30 1012 10 16093 3.1 110 04:47 26.05.2020
2526 Clear 30 1012 10 16093 3.1 110 04:28 26.05.2020
2527 Clear 31 1012 10 16093 4.6 70 03:34 26.05.2020
2528 Clear 32 1013 10 16093 2.6 0 02:34 26.05.2020
2529 Clear 31 1013 10 16093 3.39 8 01:42 26.05.2020
2530 Clear 31 1014 10 16093 5.7 20 00:39 26.05.2020
2531 Clear 31 1014 10 16093 5.7 20 00:20 26.05.2020
2532 Clear 31 1015 11 16093 4.1 70 23:59 25.05.2020
2533 Clear 31 1015 11 16093 4.1 70 23:38 25.05.2020
2534 Clear 30 1015 11 16093 4.1 70 23:19 25.05.2020
2535 Clear 30 1016 12 16093 5.1 60 22:56 25.05.2020
2536 Clear 30 1016 12 16093 5.1 60 22:37 25.05.2020
2537 Clear 29 1016 12 16093 5.1 60 22:19 25.05.2020
2538 Clear 29 1016 13 16093 2.6 20 21:58 25.05.2020
2539 Clear 29 1016 13 16093 2.6 20 21:37 25.05.2020
2540 Clear 28 1016 13 16093 2.6 20 21:18 25.05.2020
2541 Clear 28 1017 13 16093 5.1 40 20:57 25.05.2020
2542 Clear 28 1017 13 16093 5.1 40 20:38 25.05.2020
2543 Clear 28 1017 13 16093 5.1 40 20:19 25.05.2020
2544 Clouds 27 1017 12 16093 4.1 60 19:42 25.05.2020
2545 Clouds 27 1017 12 16093 4.1 60 19:20 25.05.2020
2546 Clouds 26 1017 13 16093 6.7 50 18:58 25.05.2020
2547 Clouds 26 1017 13 16093 6.7 50 18:40 25.05.2020
2548 Clouds 26 1017 13 16093 6.7 50 18:21 25.05.2020
2549 Clouds 24 1017 16 16093 1.5 10 17:44 25.05.2020
2550 Clouds 23 1017 16 16093 1.5 10 17:25 25.05.2020
2551 Clouds 22 1017 19 16093 1.5 190 16:58 25.05.2020
2552 Clouds 22 1017 19 16093 1.5 190 16:58 25.05.2020
2553 Clouds 21 1017 19 16093 1.5 190 16:40 25.05.2020
2554 Clouds 20 1017 19 16093 1.5 190 16:21 25.05.2020
2555 Clouds 20 1017 16 16093 2.1 20 15:45 25.05.2020
2556 Clouds 20 1017 16 16093 2.1 20 15:45 25.05.2020
2557 Clouds 19 1017 16 16093 2.1 20 15:21 25.05.2020
2558 Clouds 20 1016 15 16093 3.1 60 14:59 25.05.2020
2559 Clouds 20 1016 15 16093 3.1 60 14:41 25.05.2020
2560 Clouds 21 1016 15 16093 3.1 60 14:23 25.05.2020
2561 Clear 19 1015 14 16093 4.1 80 13:56 25.05.2020
2562 Clear 19 1015 14 16093 4.1 80 13:37 25.05.2020
2563 Clear 19 1015 14 16093 4.1 80 13:37 25.05.2020
2564 Clear 20 1015 14 16093 4.1 80 13:19 25.05.2020
2565 Clear 20 1015 13 16093 3.6 60 12:39 25.05.2020
2566 Clear 21 1015 13 16093 3.6 60 12:21 25.05.2020
2567 Clear 21 1015 13 16093 5.1 50 11:57 25.05.2020
2568 Clear 21 1015 13 16093 5.1 50 11:37 25.05.2020
2569 Clear 21 1015 13 16093 5.1 50 11:18 25.05.2020
2570 Clouds 22 1014 13 16093 4.1 30 10:41 25.05.2020
2571 Clouds 22 1014 13 16093 4.1 30 10:21 25.05.2020
2572 Clouds 23 1014 12 16093 6.7 30 09:56 25.05.2020
2573 Clouds 23 1014 12 16093 6.7 30 09:38 25.05.2020
2574 Clouds 23 1014 12 16093 6.7 30 09:19 25.05.2020
2575 Clouds 23 1013 14 16093 2.1 20 08:43 25.05.2020
2576 Clouds 23 1013 14 16093 2.1 20 08:24 25.05.2020
2577 Clouds 24 1012 11 16093 4.65 22 07:58 25.05.2020
2578 Clouds 24 1012 11 16093 4.65 22 07:39 25.05.2020
2579 Clouds 24 1012 11 16093 4.39 357 07:19 25.05.2020
2580 Clouds 25 1012 10 16093 4.39 357 06:41 25.05.2020
2581 Clouds 25 1012 10 16093 4.39 357 06:41 25.05.2020
2582 Clouds 26 1012 10 16093 4.86 15 06:21 25.05.2020
2583 Clouds 30 1011 7 16093 7.2 330 03:32 25.05.2020
2584 Clouds 30 1012 9 16093 2.6 50 02:57 25.05.2020
2585 Clouds 30 1012 9 16093 2.6 50 02:36 25.05.2020
2586 Clouds 30 1012 9 16093 2.6 0 01:42 25.05.2020
2587 Clouds 30 1013 9 16093 3.1 0 00:49 25.05.2020
2588 Clouds 30 1013 9 16093 3.1 0 00:31 25.05.2020
2589 Clouds 28 1014 10 16093 2.6 80 23:59 24.05.2020
2590 Clouds 29 1014 10 16093 2.6 80 23:39 24.05.2020
2591 Clouds 29 1014 10 16093 2.6 80 23:39 24.05.2020
2592 Clouds 28 1014 10 16093 2.6 80 23:20 24.05.2020
2593 Clouds 28 1015 11 16093 3.6 10 22:55 24.05.2020
2594 Clouds 28 1015 11 16093 3.6 10 22:37 24.05.2020
2595 Clouds 28 1015 11 16093 3.6 10 22:18 24.05.2020
2596 Clouds 28 1015 11 16093 3.6 10 22:18 24.05.2020
2597 Clouds 27 1016 12 16093 1.5 0 21:55 24.05.2020
2598 Clouds 27 1016 12 16093 1.5 0 21:36 24.05.2020
2599 Clouds 26 1016 12 16093 1.5 0 21:18 24.05.2020
2600 Clouds 25 1016 12 16093 3.1 30 20:43 24.05.2020
2601 Clouds 25 1016 12 16093 3.1 30 20:43 24.05.2020
2602 Clouds 25 1016 12 16093 3.1 30 20:21 24.05.2020
2603 Clouds 24 1016 13 16093 6.7 50 19:56 24.05.2020
2604 Clouds 24 1016 13 16093 6.7 50 19:38 24.05.2020
2605 Clouds 24 1016 13 16093 6.7 50 19:18 24.05.2020
2606 Clouds 23 1016 13 16093 4.6 360 18:42 24.05.2020
2607 Clouds 22 1016 13 16093 4.6 360 18:23 24.05.2020
2608 Clouds 21 1016 15 16093 4.31 26 17:57 24.05.2020
2609 Clouds 20 1016 15 16093 4.31 26 17:38 24.05.2020
2610 Clouds 20 1016 15 16093 3.65 26 17:19 24.05.2020
2611 Clouds 19 1016 17 16093 1.5 90 16:56 24.05.2020
2612 Clouds 19 1016 17 16093 1.5 90 16:37 24.05.2020
2613 Clouds 18 1016 17 16093 1.5 90 16:19 24.05.2020
2614 Clouds 17 1015 17 16093 2.6 70 15:55 24.05.2020
2615 Clouds 17 1015 17 16093 2.6 70 15:36 24.05.2020
2616 Clouds 16 1015 17 16093 2.6 70 15:18 24.05.2020
2617 Clouds 16 1015 17 16093 2.6 70 15:18 24.05.2020
2618 Clear 16 1015 17 16093 2.6 70 14:41 24.05.2020
2619 Clear 17 1015 17 16093 2.6 70 14:22 24.05.2020
2620 Clouds 17 1014 16 16093 2.6 30 13:56 24.05.2020
2621 Clouds 18 1014 16 16093 2.6 30 13:38 24.05.2020
2622 Clouds 18 1014 16 16093 2.6 30 13:19 24.05.2020
2623 Clouds 18 1014 15 16093 2.6 140 12:56 24.05.2020
2624 Clouds 18 1014 15 16093 2.6 140 12:37 24.05.2020
2625 Clouds 18 1014 15 16093 2.6 140 12:19 24.05.2020
2626 Clouds 18 1013 15 16093 2.05 14 11:54 24.05.2020
2627 Clouds 18 1013 15 16093 2.05 14 11:36 24.05.2020
2628 Clouds 19 1013 15 16093 2.44 10 11:18 24.05.2020
2629 Clouds 19 1013 14 16093 2.1 90 10:42 24.05.2020
2630 Clouds 20 1013 14 16093 2.1 90 10:23 24.05.2020
2631 Clear 20 1012 14 16093 3.6 300 09:57 24.05.2020
2632 Clear 20 1012 14 16093 3.6 300 09:39 24.05.2020
2633 Clear 21 1012 14 16093 3.6 300 09:18 24.05.2020
2634 Clear 21 1012 13 16093 2.6 280 08:42 24.05.2020
2635 Clear 21 1012 13 16093 2.6 280 08:24 24.05.2020
2636 Clear 22 1012 10 16093 3.08 352 07:59 24.05.2020
2637 Clear 21 1012 10 16093 3.08 352 07:40 24.05.2020
2638 Clear 22 1012 10 16093 4.05 346 07:21 24.05.2020
2639 Clouds 23 1011 7 16093 2.6 30 06:39 24.05.2020
2640 Clouds 24 1011 7 16093 5.1 360 05:50 24.05.2020
2641 Clouds 27 1010 6 16093 3.1 0 03:57 24.05.2020
2642 Clouds 27 1010 6 16093 3.1 0 03:37 24.05.2020
2643 Clouds 27 1011 7 16093 4.1 310 02:24 24.05.2020
2644 Clouds 27 1011 8 16093 2.6 0 01:18 24.05.2020
2645 Clouds 26 1011 9 16093 3.6 280 00:37 24.05.2020
2646 Clouds 27 1011 9 16093 3.6 280 00:19 24.05.2020
2647 Clouds 26 1012 10 16093 2.1 0 23:39 23.05.2020
2648 Clouds 26 1012 10 16093 2.1 0 23:20 23.05.2020
2649 Clouds 25 1012 12 16093 5.7 20 22:55 23.05.2020
2650 Clouds 25 1012 12 16093 5.7 20 22:37 23.05.2020
2651 Clouds 25 1012 12 16093 5.7 20 22:19 23.05.2020
2652 Clouds 24 1013 12 16093 7.2 360 21:56 23.05.2020
2653 Clouds 24 1013 12 16093 7.2 360 21:36 23.05.2020
2654 Clouds 23 1013 12 16093 7.2 360 21:18 23.05.2020
2655 Clouds 23 1013 14 16093 9.3 30 20:40 23.05.2020
2656 Clouds 23 1013 14 16093 9.3 30 20:20 23.05.2020
2657 Clouds 22 1013 14 16093 10.8 20 19:59 23.05.2020
2658 Clouds 22 1013 14 16093 10.8 20 19:40 23.05.2020
2659 Clouds 22 1013 14 16093 10.8 20 19:19 23.05.2020
2660 Clouds 20 1013 18 16093 8.2 20 18:42 23.05.2020
2661 Clouds 20 1013 18 16093 8.2 20 18:23 23.05.2020
2662 Clouds 19 1012 20 16093 8.2 360 17:58 23.05.2020
2663 Clouds 19 1012 20 16093 8.2 360 17:40 23.05.2020
2664 Clouds 19 1012 20 16093 8.2 360 17:21 23.05.2020
2665 Clouds 18 1012 22 16093 10.8 350 16:59 23.05.2020
2666 Clouds 18 1012 22 16093 10.8 350 16:41 23.05.2020
2667 Clouds 18 1012 22 16093 10.8 350 16:41 23.05.2020
2668 Clouds 18 1012 22 16093 10.8 350 16:20 23.05.2020
2669 Clouds 17 1011 23 16093 13.4 350 15:57 23.05.2020
2670 Clouds 17 1011 23 16093 13.4 350 15:39 23.05.2020
2671 Clouds 17 1011 23 16093 13.4 350 15:20 23.05.2020
2672 Clear 18 1010 24 16093 12.3 350 14:42 23.05.2020
2673 Clear 18 1010 24 16093 12.3 350 14:24 23.05.2020
2674 Clear 18 1009 24 16093 10.3 340 13:56 23.05.2020
2675 Clear 18 1009 24 16093 10.3 340 13:37 23.05.2020
2676 Clear 18 1009 24 16093 10.3 340 13:18 23.05.2020
2677 Clear 19 1008 29 16093 9.8 340 12:41 23.05.2020
2678 Clear 19 1008 28 16093 9.8 340 12:20 23.05.2020
2679 Clouds 20 1008 24 16093 8.2 340 11:57 23.05.2020
2680 Clouds 20 1008 24 16093 8.2 340 11:37 23.05.2020
2681 Clouds 20 1008 24 16093 8.2 340 11:19 23.05.2020
2682 Clouds 21 1007 25 16093 3.1 290 10:55 23.05.2020
2683 Clouds 21 1007 25 16093 3.1 290 10:36 23.05.2020
2684 Clouds 22 1007 25 16093 3.1 290 10:18 23.05.2020
2685 Clouds 22 1006 25 16093 6.2 220 09:42 23.05.2020
2686 Clouds 23 1006 25 16093 6.2 220 09:24 23.05.2020
2687 Clear 23 1005 16 16093 6.7 200 08:57 23.05.2020
2688 Clear 23 1005 16 16093 6.7 200 08:37 23.05.2020
2689 Clear 24 1005 16 16093 6.7 200 08:18 23.05.2020
2690 Clear 24 1005 14 16093 4.1 220 07:44 23.05.2020
2691 Clear 24 1005 14 16093 4.1 220 07:22 23.05.2020
2692 Clouds 25 1004 14 16093 9.8 250 06:42 23.05.2020
2693 Clouds 26 1003 13 16093 10.8 240 05:51 23.05.2020
2694 Clouds 29 1002 10 16093 12.3 230 03:52 23.05.2020
2695 Clouds 30 1002 10 16093 12.3 230 03:23 23.05.2020
2696 Clouds 30 1002 10 16093 12.3 230 03:23 23.05.2020
2697 Clouds 30 1003 8 16093 10.3 230 02:33 23.05.2020
2698 Clouds 31 1003 10 16093 7.7 220 01:46 23.05.2020
2699 Clouds 31 1003 10 16093 7.7 220 01:18 23.05.2020
2700 Clouds 31 1004 7 16093 8.2 210 00:41 23.05.2020
2701 Clouds 31 1005 7 16093 7.7 200 23:59 22.05.2020
2702 Clouds 31 1005 7 16093 7.7 200 23:40 22.05.2020
2703 Clouds 31 1005 7 16093 7.7 200 23:20 22.05.2020
2704 Clouds 30 1006 6 16093 9.3 200 22:58 22.05.2020
2705 Clouds 30 1006 6 16093 9.3 200 22:39 22.05.2020
2706 Clouds 30 1006 6 16093 9.3 200 22:20 22.05.2020
2707 Clouds 30 1007 9 16093 8.7 200 21:46 22.05.2020
2708 Clouds 30 1007 9 16093 8.7 200 21:22 22.05.2020
2709 Clouds 29 1008 13 16093 6.7 190 20:56 22.05.2020
2710 Clouds 29 1008 13 16093 6.7 190 20:38 22.05.2020
2711 Clouds 28 1008 13 16093 6.7 190 20:19 22.05.2020
2712 Clouds 28 1008 15 16093 6.2 190 19:44 22.05.2020
2713 Clouds 28 1008 15 16093 6.2 190 19:25 22.05.2020
2714 Clouds 26 1008 15 16093 5.7 190 18:54 22.05.2020
2715 Clouds 26 1008 15 16093 5.7 190 18:36 22.05.2020
2716 Clouds 26 1008 17 16093 5.7 190 18:18 22.05.2020
2717 Clouds 24 1008 22 16093 5.7 200 17:39 22.05.2020
2718 Clouds 24 1008 22 16093 5.7 200 17:19 22.05.2020
2719 Clouds 22 1008 26 16093 2.1 150 16:56 22.05.2020
2720 Clouds 22 1008 26 16093 2.1 150 16:37 22.05.2020
2721 Clouds 22 1008 26 16093 2.1 150 16:19 22.05.2020
2722 Clouds 20 1008 22 16093 4.1 180 15:42 22.05.2020
2723 Clouds 20 1008 25 16093 4.1 180 15:22 22.05.2020
2724 Clouds 21 1008 19 16093 3.6 180 14:45 22.05.2020
2725 Clouds 20 1008 19 16093 3.6 180 14:26 22.05.2020
2726 Clear 20 1008 14 16093 2.1 180 13:56 22.05.2020
2727 Clear 21 1008 14 16093 2.1 180 13:37 22.05.2020
2728 Clear 21 1008 14 16093 2.1 180 13:19 22.05.2020
2729 Clear 22 1008 12 16093 5.1 200 12:40 22.05.2020
2730 Clear 22 1008 12 16093 5.1 200 12:21 22.05.2020
2731 Clear 22 1009 14 16093 3.1 180 11:45 22.05.2020
2732 Clear 22 1009 14 16093 3.1 180 11:22 22.05.2020
2733 Clear 22 1009 12 16093 2.6 190 10:58 22.05.2020
2734 Clear 23 1009 12 16093 2.6 190 10:38 22.05.2020
2735 Clear 23 1009 12 16093 2.6 190 10:20 22.05.2020
2736 Clear 23 1010 12 16093 2.1 180 09:48 22.05.2020
2737 Clear 23 1010 12 16093 2.1 180 09:21 22.05.2020
2738 Clear 24 1010 10 16093 2.1 210 08:58 22.05.2020
2739 Clear 24 1010 10 16093 2.1 210 08:39 22.05.2020
2740 Clear 24 1010 10 16093 2.1 210 08:39 22.05.2020
2741 Clear 24 1010 10 16093 2.1 210 08:18 22.05.2020
2742 Clear 25 1011 10 16093 3.1 170 07:52 22.05.2020
2743 Clear 25 1011 10 16093 3.1 170 07:23 22.05.2020
2744 Clear 25 1010 10 16093 2.6 230 06:48 22.05.2020
2745 Clear 26 1010 10 16093 2.6 230 06:29 22.05.2020
2746 Clear 26 1009 10 16093 4.1 240 05:37 22.05.2020
2747 Clouds 27 1009 9 16093 4.1 170 04:49 22.05.2020
2748 Clouds 27 1009 9 16093 4.1 170 04:49 22.05.2020
2749 Clouds 29 1009 9 16093 3.1 160 03:51 22.05.2020
2750 Clouds 29 1009 9 16093 3.1 160 03:32 22.05.2020
2751 Clouds 29 1011 9 16093 3.1 0 02:24 22.05.2020
2752 Clouds 29 1011 9 16093 4.6 140 01:42 22.05.2020
2753 Clouds 29 1011 9 16093 4.6 140 01:20 22.05.2020
2754 Clouds 29 1012 11 16093 4.1 40 00:33 22.05.2020
2755 Clouds 28 1013 13 16093 1.5 0 23:57 21.05.2020
2756 Clouds 28 1013 13 16093 1.5 0 23:39 21.05.2020
2757 Clouds 28 1013 13 16093 1.5 0 23:20 21.05.2020
2758 Clouds 27 1014 12 16093 2.6 60 22:57 21.05.2020
2759 Clouds 27 1014 12 16093 2.6 60 22:37 21.05.2020
2760 Clouds 27 1014 12 16093 2.6 60 22:18 21.05.2020
2761 Clear 26 1015 14 16093 0.91 177 21:47 21.05.2020
2762 Clear 26 1015 14 16093 0.35 119 21:27 21.05.2020
2763 Clear 26 1015 14 16093 0.35 119 21:27 21.05.2020
2764 Clear 26 1015 14 16093 2.6 0 20:57 21.05.2020
2765 Clear 26 1015 14 16093 2.6 0 20:38 21.05.2020
2766 Clear 26 1015 14 16093 2.6 0 20:20 21.05.2020
2767 Clear 24 1016 16 16093 3.1 80 19:39 21.05.2020
2768 Clear 24 1016 16 16093 3.1 80 19:19 21.05.2020
2769 Clear 23 1016 17 16093 4.6 20 18:55 21.05.2020
2770 Clear 23 1016 17 16093 4.6 20 18:36 21.05.2020
2771 Clear 22 1016 17 16093 4.6 20 18:18 21.05.2020
2772 Clear 21 1016 19 16093 3.1 0 17:41 21.05.2020
2773 Clear 20 1016 19 16093 3.1 0 17:22 21.05.2020
2774 Clear 20 1016 19 16093 3.1 0 17:22 21.05.2020
2775 Clear 19 1015 22 16093 1.5 170 16:47 21.05.2020
2776 Clear 18 1015 22 16093 1.5 170 16:27 21.05.2020
2777 Clear 17 1015 23 16093 1.69 353 15:57 21.05.2020
2778 Clear 17 1015 23 16093 1.69 353 15:38 21.05.2020
2779 Clear 17 1015 23 16093 1.69 353 15:38 21.05.2020
2780 Clear 17 1015 23 16093 1.58 328 15:20 21.05.2020
2781 Clear 17 1015 18 16093 2.1 220 14:41 21.05.2020
2782 Clear 17 1015 18 16093 2.1 220 14:19 21.05.2020
2783 Clear 17 1014 18 16093 3.1 220 13:42 21.05.2020
2784 Clear 17 1014 18 16093 3.1 220 13:23 21.05.2020
2785 Clear 18 1014 18 16093 1.5 210 12:59 21.05.2020
2786 Clear 18 1014 18 16093 1.5 210 12:38 21.05.2020
2787 Clear 18 1014 18 16093 1.5 210 12:19 21.05.2020
2788 Clear 18 1014 17 16093 2.1 220 11:42 21.05.2020
2789 Clear 19 1014 17 16093 2.1 220 11:24 21.05.2020
2790 Clear 19 1014 19 16093 2.1 210 10:59 21.05.2020
2791 Clear 19 1014 19 16093 2.1 210 10:39 21.05.2020
2792 Clear 19 1014 19 16093 2.1 210 10:20 21.05.2020
2793 Clear 20 1014 18 16093 1.5 190 09:55 21.05.2020
2794 Clear 20 1014 18 16093 1.5 190 09:37 21.05.2020
2795 Clear 20 1014 18 16093 1.5 190 09:18 21.05.2020
2796 Clear 20 1014 17 16093 4.1 300 08:45 21.05.2020
2797 Clear 20 1014 17 16093 4.1 300 08:45 21.05.2020
2798 Clear 21 1014 17 16093 4.1 300 08:26 21.05.2020
2799 Clear 21 1014 15 16093 4.6 320 07:47 21.05.2020
2800 Clear 21 1014 15 16093 4.6 320 07:27 21.05.2020
2801 Clear 21 1013 14 16093 4.6 340 06:52 21.05.2020
2802 Clouds 23 1013 12 16093 2.68 295 05:58 21.05.2020
2803 Clouds 23 1013 12 16093 1.77 290 05:22 21.05.2020
2804 Clouds 25 1013 12 16093 1.19 261 03:22 21.05.2020
2805 Clouds 25 1013 12 16093 1.19 261 03:22 21.05.2020
2806 Clouds 26 1013 13 16093 3.1 40 02:45 21.05.2020
2807 Clouds 26 1013 13 16093 3.1 40 02:25 21.05.2020
2808 Clouds 25 1014 14 16093 3.1 0 01:45 21.05.2020
2809 Clouds 25 1014 14 16093 3.1 0 01:19 21.05.2020
2810 Clouds 25 1015 14 16093 2.6 0 00:51 21.05.2020
2811 Clouds 25 1015 14 16093 2.6 0 00:23 21.05.2020
2812 Clouds 25 1015 17 16093 2.6 0 23:43 20.05.2020
2813 Clouds 24 1015 17 16093 2.6 0 23:20 20.05.2020
2814 Clouds 24 1016 17 16093 4.1 50 22:58 20.05.2020
2815 Clouds 24 1016 17 16093 4.1 50 22:39 20.05.2020
2816 Clouds 24 1016 17 16093 4.1 50 22:20 20.05.2020
2817 Clouds 22 1017 19 16093 4.1 200 21:40 20.05.2020
2818 Clouds 22 1017 19 16093 4.1 200 21:21 20.05.2020
2819 Clouds 22 1017 22 16093 0.52 229 20:44 20.05.2020
2820 Clouds 22 1017 22 16093 0.12 304 20:25 20.05.2020
2821 Clouds 21 1017 22 16093 1.5 200 19:57 20.05.2020
2822 Clouds 21 1017 22 16093 1.5 200 19:38 20.05.2020
2823 Clouds 21 1017 22 16093 1.5 200 19:19 20.05.2020
2824 Clouds 19 1017 25 16093 0.57 4 18:44 20.05.2020
2825 Clouds 19 1017 25 16093 0.28 352 18:26 20.05.2020
2826 Clouds 18 1016 29 16093 2.6 180 17:44 20.05.2020
2827 Clouds 17 1016 29 16093 2.6 180 17:24 20.05.2020
2828 Clouds 16 1016 33 16093 4.1 190 16:58 20.05.2020
2829 Clouds 16 1016 33 16093 4.1 190 16:39 20.05.2020
2830 Clouds 16 1016 33 16093 4.1 190 16:39 20.05.2020
2831 Clouds 15 1016 33 16093 4.1 190 16:21 20.05.2020
2832 Clouds 14 1015 35 16093 2.1 180 15:55 20.05.2020
2833 Clouds 14 1015 35 16093 2.1 180 15:36 20.05.2020
2834 Clouds 14 1015 35 16093 2.1 180 15:18 20.05.2020
2835 Clouds 14 1015 35 16093 2.1 160 14:38 20.05.2020
2836 Clouds 14 1015 35 16093 2.1 160 14:19 20.05.2020
2837 Clouds 14 1014 33 16093 1.5 170 13:40 20.05.2020
2838 Clouds 14 1014 33 16093 1.5 170 13:18 20.05.2020
2839 Clouds 15 1014 31 16093 2.6 170 12:42 20.05.2020
2840 Clouds 14 1014 31 16093 2.6 170 12:21 20.05.2020
2841 Clouds 15 1013 32 16093 2.1 170 11:39 20.05.2020
2842 Clouds 16 1013 31 16093 2.1 170 11:20 20.05.2020
2843 Clouds 16 1013 31 16093 5.7 340 10:58 20.05.2020
2844 Clouds 16 1013 31 16093 5.7 340 10:40 20.05.2020
2845 Clouds 16 1013 29 16093 5.7 340 10:19 20.05.2020
2846 Clouds 16 1013 25 16093 5.1 360 09:41 20.05.2020
2847 Clouds 16 1013 25 16093 5.1 360 09:21 20.05.2020
2848 Clouds 17 1013 27 16093 3.6 300 08:42 20.05.2020
2849 Clouds 17 1013 27 16093 3.6 300 08:42 20.05.2020
2850 Clouds 17 1013 27 16093 3.6 300 08:20 20.05.2020
2851 Clouds 18 1013 25 16093 3.6 310 07:54 20.05.2020
2852 Clouds 18 1013 25 16093 3.6 310 07:36 20.05.2020
2853 Clouds 18 1013 25 16093 3.6 310 07:18 20.05.2020
2854 Clouds 18 1012 19 16093 4.1 260 06:24 20.05.2020
2855 Rain 20 1011 15 16093 5.7 220 05:18 20.05.2020
2856 Rain 21 1011 15 16093 5.1 230 04:19 20.05.2020
2857 Rain 21 1010 15 16093 7.7 250 03:36 20.05.2020
2858 Clouds 22 1009 15 16093 8.2 220 01:57 20.05.2020
2859 Clouds 23 1009 15 16093 8.2 220 01:24 20.05.2020
2860 Clouds 22 1009 13 16093 7.7 230 00:41 20.05.2020
2861 Clouds 22 1009 13 16093 7.7 230 00:22 20.05.2020
2862 Clouds 22 1010 14 16093 9.8 220 23:38 19.05.2020
2863 Clouds 22 1010 14 16093 9.8 220 23:19 19.05.2020
2864 Clouds 22 1010 13 16093 7.2 230 22:55 19.05.2020
2865 Clouds 22 1010 13 16093 7.2 230 22:37 19.05.2020
2866 Clouds 22 1010 13 16093 7.2 230 22:18 19.05.2020
2867 Clouds 22 1010 18 16093 6.2 260 21:55 19.05.2020
2868 Clouds 22 1010 18 16093 6.2 260 21:36 19.05.2020
2869 Clouds 21 1010 18 16093 6.2 260 21:18 19.05.2020
2870 Clouds 21 1009 21 16093 5.7 220 20:56 19.05.2020
2871 Clouds 20 1009 21 16093 5.7 220 20:37 19.05.2020
2872 Clouds 20 1009 21 16093 5.7 220 20:19 19.05.2020
2873 Clouds 19 1010 24 16093 8.7 200 19:38 19.05.2020
2874 Clouds 19 1010 24 16093 8.7 200 19:20 19.05.2020
2875 Clouds 18 1009 27 16093 7.7 230 18:45 19.05.2020
2876 Clouds 17 1009 27 16093 7.7 230 18:23 19.05.2020
2877 Clouds 16 1009 38 16093 6.2 200 17:58 19.05.2020
2878 Clouds 16 1009 38 16093 6.2 200 17:39 19.05.2020
2879 Clouds 16 1009 38 16093 6.2 200 17:20 19.05.2020
2880 Clouds 16 1009 41 16093 5.1 220 16:55 19.05.2020
2881 Clouds 15 1009 41 16093 5.1 220 16:37 19.05.2020
2882 Clouds 15 1009 41 16093 5.1 220 16:18 19.05.2020
2883 Clouds 14 1008 47 16093 7.2 210 15:41 19.05.2020
2884 Clouds 14 1008 47 16093 7.2 210 15:20 19.05.2020
2885 Clouds 14 1008 41 16093 5.7 200 14:55 19.05.2020
2886 Clouds 15 1008 41 16093 5.7 200 14:36 19.05.2020
2887 Clouds 15 1008 41 16093 5.7 200 14:18 19.05.2020
2888 Clouds 16 1008 39 16093 5.7 220 13:55 19.05.2020
2889 Clouds 15 1008 39 16093 5.7 220 13:37 19.05.2020
2890 Clouds 16 1008 39 16093 5.7 220 13:18 19.05.2020
2891 Clouds 16 1007 36 16093 7.7 230 12:41 19.05.2020
2892 Clouds 17 1007 36 16093 7.7 230 12:22 19.05.2020
2893 Clouds 18 1007 34 16093 8.2 230 11:59 19.05.2020
2894 Clouds 17 1007 34 16093 8.2 230 11:40 19.05.2020
2895 Clouds 18 1007 34 16093 8.2 230 11:21 19.05.2020
2896 Clouds 19 1007 37 16093 5.1 220 10:49 19.05.2020
2897 Clouds 19 1007 37 16093 5.1 220 10:30 19.05.2020
2898 Clouds 20 1007 35 16093 5.1 240 09:59 19.05.2020
2899 Clouds 20 1007 35 16093 5.1 240 09:41 19.05.2020
2900 Clouds 20 1007 35 16093 5.1 240 09:23 19.05.2020
2901 Clouds 21 1007 35 16093 8.7 230 08:44 19.05.2020
2902 Clouds 21 1007 35 16093 8.7 230 08:24 19.05.2020
2903 Clouds 22 1007 35 16093 7.2 230 07:45 19.05.2020
2904 Clouds 23 1007 35 16093 7.2 230 07:27 19.05.2020
2905 Clouds 23 1006 31 16093 6.7 250 06:54 19.05.2020
2906 Clouds 25 1006 31 16093 6.7 250 06:25 19.05.2020
2907 Clouds 25 1005 24 16093 6.2 230 05:42 19.05.2020
2908 Clouds 27 1005 12 16093 4.6 230 04:57 19.05.2020
2909 Clouds 27 1005 12 16093 4.6 230 04:34 19.05.2020
2910 Clouds 31 1006 11 16093 10.8 240 01:51 19.05.2020
2911 Clouds 30 1007 11 16093 9.8 240 00:47 19.05.2020
2912 Clouds 31 1007 11 16093 9.8 240 00:25 19.05.2020
2913 Clouds 30 1008 11 16093 6.7 250 23:58 18.05.2020
2914 Clouds 30 1008 11 16093 6.7 250 23:40 18.05.2020
2915 Clouds 31 1008 11 16093 6.7 250 23:20 18.05.2020
2916 Clouds 30 1009 11 16093 5.1 210 22:41 18.05.2020
2917 Clouds 30 1009 11 16093 5.1 210 22:22 18.05.2020
2918 Clouds 29 1010 14 16093 6.7 230 21:58 18.05.2020
2919 Clouds 28 1010 14 16093 6.7 230 21:39 18.05.2020
2920 Clouds 28 1010 14 16093 6.7 230 21:19 18.05.2020
2921 Clouds 27 1011 14 16093 5.1 190 20:43 18.05.2020
2922 Clouds 27 1011 14 16093 5.1 190 20:22 18.05.2020
2923 Clouds 26 1011 14 16093 5.7 190 19:59 18.05.2020
2924 Clouds 26 1011 14 16093 5.7 190 19:41 18.05.2020
2925 Clouds 26 1011 14 16093 5.7 190 19:19 18.05.2020
2926 Clouds 25 1011 14 16093 4.6 200 18:46 18.05.2020
2927 Clouds 25 1011 14 16093 4.6 200 18:25 18.05.2020
2928 Clouds 23 1010 20 16093 4.6 170 17:55 18.05.2020
2929 Clouds 23 1010 20 16093 4.6 170 17:37 18.05.2020
2930 Clouds 23 1010 20 16093 4.6 170 17:18 18.05.2020
2931 Clouds 22 1009 24 16093 7.7 180 16:43 18.05.2020
2932 Clouds 22 1009 24 16093 7.7 180 16:21 18.05.2020
2933 Clouds 21 1009 24 16093 6.2 190 15:58 18.05.2020
2934 Clouds 21 1009 24 16093 6.2 190 15:39 18.05.2020
2935 Clouds 21 1009 24 16093 6.2 190 15:21 18.05.2020
2936 Clouds 21 1009 24 16093 5.7 180 14:56 18.05.2020
2937 Clouds 21 1009 24 16093 5.7 180 14:38 18.05.2020
2938 Clouds 21 1009 24 16093 5.7 180 14:19 18.05.2020
2939 Clouds 22 1009 23 16093 5.7 200 13:41 18.05.2020
2940 Clouds 22 1009 23 16093 5.7 200 13:20 18.05.2020
2941 Clouds 22 1009 23 16093 5.1 200 12:58 18.05.2020
2942 Clouds 22 1009 23 16093 5.1 200 12:40 18.05.2020
2943 Clouds 22 1009 23 16093 5.1 200 12:19 18.05.2020
2944 Clouds 23 1009 22 16093 4.6 190 11:57 18.05.2020
2945 Clouds 23 1009 22 16093 4.6 190 11:38 18.05.2020
2946 Clouds 23 1009 22 16093 4.6 190 11:20 18.05.2020
2947 Clouds 24 1009 20 16093 4.6 180 10:42 18.05.2020
2948 Clouds 24 1009 20 16093 4.6 180 10:22 18.05.2020
2949 Clouds 24 1009 16 16093 6.2 230 09:45 18.05.2020
2950 Clouds 25 1009 16 16093 6.2 230 09:26 18.05.2020
2951 Clouds 26 1008 14 16093 4.1 220 08:54 18.05.2020
2952 Clouds 26 1008 14 16093 4.1 220 08:36 18.05.2020
2953 Clouds 26 1008 14 16093 4.1 220 08:18 18.05.2020
2954 Clouds 27 1008 13 16093 5.1 230 07:41 18.05.2020
2955 Clouds 28 1008 13 16093 5.1 230 07:20 18.05.2020
2956 Clouds 29 1007 15 16093 4.6 200 06:46 18.05.2020
2957 Clouds 29 1007 15 16093 4.6 200 06:18 18.05.2020
2958 Clouds 30 1006 14 16093 6.2 180 05:42 18.05.2020
2959 Clouds 32 1006 14 16093 5.7 170 03:37 18.05.2020
2960 Clouds 32 1007 14 16093 4.1 200 02:31 18.05.2020
2961 Clouds 33 1007 13 16093 8.2 230 01:32 18.05.2020
2962 Clouds 33 1008 14 16093 5.1 230 00:27 18.05.2020
2963 Clouds 34 1008 12 16093 9.3 190 23:58 17.05.2020
2964 Clouds 33 1008 12 16093 9.3 190 23:40 17.05.2020
2965 Clouds 34 1008 12 16093 9.3 190 23:20 17.05.2020
2966 Clouds 33 1009 13 16093 6.7 180 22:58 17.05.2020
2967 Clouds 33 1009 13 16093 6.7 180 22:38 17.05.2020
2968 Clouds 33 1009 13 16093 6.7 180 22:20 17.05.2020
2969 Clouds 33 1009 14 16093 8.2 190 21:57 17.05.2020
2970 Clouds 33 1009 14 16093 8.2 190 21:39 17.05.2020
2971 Clouds 32 1009 14 16093 8.2 190 21:19 17.05.2020
2972 Clouds 31 1010 20 16093 7.2 180 20:42 17.05.2020
2973 Clouds 31 1010 20 16093 7.2 180 20:22 17.05.2020
2974 Clouds 30 1010 25 16093 5.7 200 19:58 17.05.2020
2975 Clouds 30 1010 25 16093 5.7 200 19:40 17.05.2020
2976 Clouds 29 1010 25 16093 5.7 200 19:21 17.05.2020
2977 Clouds 28 1010 26 16093 4.1 190 18:54 17.05.2020
2978 Clouds 28 1010 26 16093 4.1 190 18:36 17.05.2020
2979 Clouds 28 1010 26 16093 4.1 190 18:18 17.05.2020
2980 Clouds 27 1009 26 16093 3.6 190 17:40 17.05.2020
2981 Clouds 27 1009 26 16093 3.6 190 17:21 17.05.2020
2982 Clouds 24 1009 29 16093 4.1 180 16:40 17.05.2020
2983 Clouds 24 1009 29 16093 4.1 180 16:21 17.05.2020
2984 Clouds 23 1008 29 16093 2.6 170 15:59 17.05.2020
2985 Clouds 23 1008 29 16093 2.6 170 15:40 17.05.2020
2986 Clouds 23 1008 29 16093 2.6 170 15:22 17.05.2020
2987 Clouds 23 1008 25 16093 3.6 170 14:56 17.05.2020
2988 Clouds 24 1008 25 16093 3.6 170 14:37 17.05.2020
2989 Clouds 24 1008 25 16093 3.6 170 14:19 17.05.2020
2990 Clouds 24 1008 22 16093 3.6 170 13:41 17.05.2020
2991 Clouds 25 1008 22 16093 3.6 170 13:20 17.05.2020
2992 Clouds 31 1007 14 16093 4.1 120 04:53 17.05.2020
2993 Clouds 32 1007 14 16093 4.6 100 03:19 17.05.2020
2994 Clouds 33 1008 13 16093 3.6 80 02:23 17.05.2020
2995 Clouds 33 1008 13 16093 3.6 110 01:49 17.05.2020
2996 Clouds 33 1009 13 16093 3.1 0 00:43 17.05.2020
2997 Clouds 33 1009 13 16093 3.1 0 00:21 17.05.2020
2998 Clouds 32 1011 13 16093 2.1 170 23:42 16.05.2020
2999 Clouds 32 1011 13 16093 2.1 170 23:42 16.05.2020
3000 Clouds 32 1011 13 16093 2.1 170 23:21 16.05.2020
3001 Clouds 32 1012 13 16093 2.1 0 22:59 16.05.2020
3002 Clouds 32 1012 13 16093 2.1 0 22:41 16.05.2020
3003 Clouds 32 1012 13 16093 2.1 0 22:20 16.05.2020
3004 Clouds 31 1012 14 16093 0.68 60 21:55 16.05.2020
3005 Clouds 31 1012 14 16093 0.68 60 21:37 16.05.2020
3006 Clouds 30 1012 14 16093 1.52 80 21:18 16.05.2020
3007 Clouds 29 1013 16 16093 1.77 83 20:54 16.05.2020
3008 Clouds 30 1013 16 16093 1.77 83 20:36 16.05.2020
3009 Clouds 30 1013 16 16093 2.23 67 20:18 16.05.2020
3010 Clouds 28 1013 17 16093 2.1 0 19:40 16.05.2020
3011 Clouds 28 1013 17 16093 2.1 0 19:22 16.05.2020
3012 Clouds 27 1013 16 16093 2.6 30 18:55 16.05.2020
3013 Clouds 27 1013 16 16093 2.6 30 18:36 16.05.2020
3014 Clouds 27 1013 17 16093 2.6 30 18:18 16.05.2020
3015 Clouds 26 1013 17 16093 2.6 50 17:40 16.05.2020
3016 Clouds 25 1013 18 16093 2.6 50 17:20 16.05.2020
3017 Clouds 23 1012 23 16093 1.5 350 16:42 16.05.2020
3018 Clouds 23 1012 23 16093 1.5 350 16:23 16.05.2020
3019 Clouds 21 1011 24 16093 3.1 240 15:59 16.05.2020
3020 Clouds 21 1011 24 16093 3.1 240 15:40 16.05.2020
3021 Clouds 22 1011 24 16093 3.1 240 15:20 16.05.2020
3022 Clouds 21 1011 24 16093 1.5 210 14:55 16.05.2020
3023 Clouds 21 1011 24 16093 1.5 210 14:37 16.05.2020
3024 Clouds 22 1011 24 16093 1.5 210 14:19 16.05.2020
3025 Clouds 22 1010 23 16093 1.5 240 13:42 16.05.2020
3026 Clouds 22 1010 23 16093 1.5 240 13:23 16.05.2020
3027 Clear 23 1010 23 16093 2.6 210 12:56 16.05.2020
3028 Clear 23 1010 23 16093 2.6 210 12:38 16.05.2020
3029 Clear 22 1010 23 16093 2.6 210 12:18 16.05.2020
3030 Clear 24 1010 22 16093 2.6 200 11:41 16.05.2020
3031 Clear 24 1010 22 16093 2.6 200 11:41 16.05.2020
3032 Clear 23 1010 22 16093 2.6 200 11:22 16.05.2020
3033 Clear 24 1010 20 16093 3.1 230 10:57 16.05.2020
3034 Clear 24 1010 20 16093 3.1 230 10:38 16.05.2020
3035 Clear 25 1010 20 16093 3.1 230 10:19 16.05.2020
3036 Clear 25 1010 19 16093 3.1 220 09:46 16.05.2020
3037 Clear 25 1010 19 16093 3.1 220 09:27 16.05.2020
3038 Clear 26 1010 19 16093 3.1 200 08:46 16.05.2020
3039 Clear 26 1010 19 16093 3.1 200 08:24 16.05.2020
3040 Clear 27 1010 18 16093 3.6 200 07:58 16.05.2020
3041 Clear 27 1010 18 16093 3.6 200 07:40 16.05.2020
3042 Clear 27 1010 18 16093 3.6 200 07:21 16.05.2020
3043 Clouds 28 1009 16 16093 1.5 0 06:46 16.05.2020
3044 Clouds 28 1009 16 16093 1.5 0 06:19 16.05.2020
3045 Clouds 29 1009 15 16093 3.6 110 05:41 16.05.2020
3046 Clouds 30 1008 16 16093 3.6 110 04:53 16.05.2020
3047 Clouds 31 1008 14 16093 3.1 100 03:26 16.05.2020
3048 Clouds 31 1008 12 16093 2.1 149 02:39 16.05.2020
3049 Clouds 31 1008 12 16093 1.89 146 02:18 16.05.2020
3050 Clouds 31 1009 12 16093 3.1 0 01:39 16.05.2020
3051 Clouds 31 1010 14 16093 2.1 60 00:57 16.05.2020
3052 Clouds 31 1010 14 16093 2.1 60 00:57 16.05.2020
3053 Clouds 31 1010 14 16093 2.1 60 00:38 16.05.2020
3054 Clouds 30 1010 15 16093 2.1 60 00:19 16.05.2020
3055 Clouds 30 1011 15 16093 2.6 360 23:39 15.05.2020
3056 Clouds 30 1011 15 16093 2.6 360 23:19 15.05.2020
3057 Clouds 29 1012 17 16093 2.1 170 22:41 15.05.2020
3058 Clouds 29 1012 17 16093 2.1 170 22:20 15.05.2020
3059 Clouds 28 1012 18 16093 2.1 190 21:57 15.05.2020
3060 Clouds 29 1012 18 16093 2.1 190 21:38 15.05.2020
3061 Clouds 27 1012 18 16093 2.1 190 21:20 15.05.2020
3062 Clouds 27 1012 19 16093 2.6 40 20:54 15.05.2020
3063 Clouds 27 1012 19 16093 2.6 40 20:36 15.05.2020
3064 Clouds 27 1012 19 16093 2.6 40 20:18 15.05.2020
3065 Clouds 27 1012 21 16093 1.46 81 19:42 15.05.2020
3066 Clouds 26 1012 21 16093 1.71 91 19:23 15.05.2020
3067 Clouds 25 1012 23 16093 1.35 100 18:48 15.05.2020
3068 Clouds 24 1012 23 16093 1.19 107 18:28 15.05.2020
3069 Clouds 23 1012 25 16093 3.1 320 17:59 15.05.2020
3070 Clouds 23 1012 25 16093 3.1 320 17:37 15.05.2020
3071 Clouds 22 1012 25 16093 3.1 320 17:19 15.05.2020
3072 Clouds 21 1012 32 16093 1.5 180 16:56 15.05.2020
3073 Clouds 21 1012 32 16093 1.5 180 16:37 15.05.2020
3074 Clouds 20 1012 32 16093 1.5 180 16:18 15.05.2020
3075 Clouds 19 1011 34 16093 0.9 182 15:41 15.05.2020
3076 Clouds 19 1011 34 16093 0.88 189 15:20 15.05.2020
3077 Clouds 20 1011 32 16093 1.5 200 14:57 15.05.2020
3078 Clouds 20 1011 32 16093 1.5 200 14:39 15.05.2020
3079 Clouds 20 1011 32 16093 1.5 200 14:21 15.05.2020
3080 Clouds 20 1010 32 16093 4.1 190 13:42 15.05.2020
3081 Clouds 20 1010 32 16093 4.1 190 13:22 15.05.2020
3082 Clouds 21 1010 30 16093 4.1 190 12:56 15.05.2020
3083 Clouds 21 1010 30 16093 4.1 190 12:37 15.05.2020
3084 Clouds 21 1010 30 16093 4.1 190 12:18 15.05.2020
3085 Clouds 21 1010 30 16093 4.1 190 12:18 15.05.2020
3086 Clouds 21 1009 28 16093 4.1 190 11:56 15.05.2020
3087 Clouds 21 1009 28 16093 4.1 190 11:37 15.05.2020
3088 Clouds 21 1009 28 16093 4.1 190 11:18 15.05.2020
3089 Clouds 22 1009 27 16093 3.6 190 10:54 15.05.2020
3090 Clouds 22 1009 27 16093 3.6 190 10:36 15.05.2020
3091 Clouds 22 1009 27 16093 3.6 190 10:18 15.05.2020
3092 Clouds 23 1010 25 16093 5.1 200 09:39 15.05.2020
3093 Clouds 23 1010 25 16093 5.1 200 09:19 15.05.2020
3094 Clouds 24 1010 17 16093 3.6 190 08:58 15.05.2020
3095 Clouds 24 1010 17 16093 3.6 190 08:37 15.05.2020
3096 Clouds 24 1010 17 16093 3.6 190 08:18 15.05.2020
3097 Clouds 25 1009 16 16093 3.1 220 07:44 15.05.2020
3098 Clouds 25 1009 16 16093 3.1 220 07:24 15.05.2020
3099 Clouds 25 1009 15 16093 3.6 230 06:52 15.05.2020
3100 Clouds 26 1008 15 16093 4.1 220 05:49 15.05.2020
3101 Clouds 28 1008 13 16093 2.6 210 04:28 15.05.2020
3102 Clouds 28 1008 13 16093 2.6 210 04:28 15.05.2020
3103 Clouds 29 1008 12 16093 2.6 0 03:47 15.05.2020
3104 Clouds 29 1008 13 16093 3.1 180 02:35 15.05.2020
3105 Clouds 29 1009 14 16093 2.6 130 01:24 15.05.2020
3106 Clouds 29 1010 15 16093 2.1 0 00:50 15.05.2020
3107 Clouds 29 1010 15 16093 2.1 0 00:30 15.05.2020
3108 Clouds 28 1011 15 16093 2.6 0 23:45 14.05.2020
3109 Clouds 29 1011 16 16093 2.6 0 23:25 14.05.2020
3110 Clouds 28 1012 15 16093 1.5 0 23:00 14.05.2020
3111 Clouds 28 1012 15 16093 1.5 0 22:40 14.05.2020
3112 Clouds 27 1012 15 16093 1.5 0 22:19 14.05.2020
3113 Clouds 27 1013 16 16093 2.6 0 21:58 14.05.2020
3114 Clouds 26 1013 16 16093 2.6 0 21:39 14.05.2020
3115 Clouds 25 1013 16 16093 2.6 0 21:19 14.05.2020
3116 Clouds 25 1013 19 16093 1.5 80 20:55 14.05.2020
3117 Clouds 25 1013 19 16093 1.5 80 20:37 14.05.2020
3118 Clouds 24 1013 19 16093 1.5 80 20:18 14.05.2020
3119 Clouds 24 1013 20 16093 1.5 330 19:41 14.05.2020
3120 Clouds 24 1013 20 16093 1.5 330 19:21 14.05.2020
3121 Clouds 22 1012 22 16093 2.6 280 18:59 14.05.2020
3122 Clouds 22 1012 22 16093 2.6 280 18:38 14.05.2020
3123 Clouds 21 1012 22 16093 2.6 280 18:20 14.05.2020
3124 Clouds 20 1012 24 16093 3.6 310 17:59 14.05.2020
3125 Clouds 20 1012 24 16093 3.6 310 17:38 14.05.2020
3126 Clouds 20 1012 24 16093 3.6 310 17:19 14.05.2020
3127 Clouds 19 1012 27 16093 3.1 230 16:58 14.05.2020
3128 Clouds 18 1012 27 16093 3.1 230 16:38 14.05.2020
3129 Clouds 18 1012 27 16093 3.1 230 16:19 14.05.2020
3130 Clouds 17 1011 27 16093 3.1 210 15:56 14.05.2020
3131 Clouds 17 1011 27 16093 3.1 210 15:38 14.05.2020
3132 Clouds 17 1011 27 16093 3.1 210 15:18 14.05.2020
3133 Clear 17 1010 25 16093 2.6 200 14:55 14.05.2020
3134 Clear 17 1010 25 16093 2.6 200 14:36 14.05.2020
3135 Clear 17 1010 25 16093 2.6 200 14:18 14.05.2020
3136 Clear 17 1009 25 16093 4.1 200 13:42 14.05.2020
3137 Clear 17 1009 25 16093 4.1 200 13:20 14.05.2020
3138 Clear 18 1009 25 16093 5.7 190 12:59 14.05.2020
3139 Clear 18 1009 25 16093 5.7 190 12:39 14.05.2020
3140 Clear 18 1009 25 16093 5.7 190 12:20 14.05.2020
3141 Clear 19 1009 24 16093 6.7 190 11:58 14.05.2020
3142 Clear 19 1009 24 16093 6.7 190 11:39 14.05.2020
3143 Clear 19 1009 24 16093 6.7 190 11:21 14.05.2020
3144 Clear 20 1009 21 16093 7.2 180 10:56 14.05.2020
3145 Clear 20 1009 21 16093 7.2 180 10:37 14.05.2020
3146 Clear 20 1009 21 16093 7.2 180 10:19 14.05.2020
3147 Clear 21 1009 17 16093 4.6 200 09:42 14.05.2020
3148 Clear 21 1009 17 16093 4.6 200 09:22 14.05.2020
3149 Clear 22 1009 13 16093 6.2 230 08:42 14.05.2020
3150 Clear 22 1009 13 16093 6.2 230 08:21 14.05.2020
3151 Clear 23 1009 16 16093 5.1 210 07:46 14.05.2020
3152 Clear 23 1009 16 16093 5.1 210 07:25 14.05.2020
3153 Clear 24 1009 22 16093 3.6 210 06:55 14.05.2020
3154 Clear 24 1009 22 16093 3.6 210 06:31 14.05.2020
3155 Clouds 25 1008 19 16093 4.6 230 05:56 14.05.2020
3156 Clouds 25 1008 19 16093 4.6 230 05:35 14.05.2020
3157 Clouds 26 1008 18 16093 5.7 230 04:25 14.05.2020
3158 Clouds 27 1008 15 16093 5.7 200 03:27 14.05.2020
3159 Clouds 28 1008 17 16093 4.6 220 02:41 14.05.2020
3160 Clouds 28 1008 15 16093 5.7 230 01:56 14.05.2020
3161 Clouds 28 1008 15 16093 5.7 230 01:23 14.05.2020
3162 Clouds 28 1009 16 16093 5.1 210 00:44 14.05.2020
3163 Clouds 27 1009 18 16093 5.1 210 00:23 14.05.2020
3164 Clouds 27 1010 19 16093 3.65 194 23:42 13.05.2020
3165 Clouds 27 1010 19 16093 3.19 184 23:21 13.05.2020
3166 Clouds 26 1011 20 16093 2.6 100 22:54 13.05.2020
3167 Clouds 26 1011 20 16093 2.6 100 22:36 13.05.2020
3168 Clouds 26 1011 20 16093 2.6 100 22:18 13.05.2020
3169 Clouds 25 1011 25 16093 2.1 0 21:55 13.05.2020
3170 Clouds 25 1011 25 16093 2.1 0 21:36 13.05.2020
3171 Clouds 24 1011 25 16093 2.1 0 21:18 13.05.2020
3172 Clouds 23 1012 28 16093 2.6 230 20:40 13.05.2020
3173 Clouds 23 1012 28 16093 2.6 230 20:22 13.05.2020
3174 Clouds 23 1012 28 16093 2.1 170 19:43 13.05.2020
3175 Clouds 23 1012 28 16093 2.1 170 19:24 13.05.2020
3176 Clouds 21 1011 32 16093 1.2 197 18:55 13.05.2020
3177 Clouds 21 1011 32 16093 1.2 197 18:37 13.05.2020
3178 Clouds 21 1011 32 16093 1.31 200 18:18 13.05.2020
3179 Clouds 19 1011 34 16093 2.6 260 17:39 13.05.2020
3180 Clouds 19 1011 34 16093 2.6 260 17:19 13.05.2020
3181 Clouds 18 1010 39 16093 2.6 200 16:55 13.05.2020
3182 Clouds 18 1010 39 16093 2.6 200 16:55 13.05.2020
3183 Clouds 17 1010 39 16093 2.6 200 16:37 13.05.2020
3184 Clouds 17 1010 39 16093 2.6 200 16:18 13.05.2020
3185 Clouds 16 1009 39 16093 2.6 210 15:42 13.05.2020
3186 Clouds 16 1009 39 16093 2.6 210 15:19 13.05.2020
3187 Clouds 16 1009 39 16093 3.6 200 14:57 13.05.2020
3188 Clouds 16 1009 39 16093 3.6 200 14:39 13.05.2020
3189 Clouds 16 1009 39 16093 3.6 200 14:20 13.05.2020
3190 Clouds 16 1008 39 16093 5.7 200 13:56 13.05.2020
3191 Clouds 16 1008 39 16093 5.7 200 13:38 13.05.2020
3192 Clouds 17 1008 39 16093 5.7 200 13:19 13.05.2020
3193 Clouds 17 1008 36 16093 5.1 190 12:43 13.05.2020
3194 Clouds 18 1008 36 16093 5.1 190 12:22 13.05.2020
3195 Clouds 17 1007 36 16093 6.7 160 11:57 13.05.2020
3196 Clouds 18 1007 36 16093 6.7 160 11:38 13.05.2020
3197 Clouds 18 1007 36 16093 6.7 160 11:20 13.05.2020
3198 -273 0 0 0 0 0 10:59 13.05.2020
3199 Clouds 18 1008 32 16093 3.1 0 10:39 13.05.2020
3200 Clouds 18 1008 32 16093 3.1 0 10:20 13.05.2020
3201 Clouds 19 1007 32 16093 12.3 230 09:56 13.05.2020
3202 Clouds 19 1007 32 16093 12.3 230 09:38 13.05.2020
3203 Clouds 19 1007 32 16093 12.3 230 09:19 13.05.2020
3204 Clouds 20 1007 30 16093 8.2 220 08:40 13.05.2020
3205 Clouds 20 1007 30 16093 8.2 220 08:21 13.05.2020
3206 Clouds 21 1008 28 16093 6.2 180 07:58 13.05.2020
3207 Clouds 21 1008 28 16093 6.2 180 07:34 13.05.2020
3208 Clouds 22 1007 25 16093 7.2 160 06:55 13.05.2020
3209 Clouds 22 1007 25 16093 7.2 160 06:35 13.05.2020
3210 Clouds 23 1007 25 16093 3.1 210 05:48 13.05.2020
3211 Clouds 25 1006 22 16093 8.2 240 04:20 13.05.2020
3212 Clouds 27 1006 15 16093 10.3 240 02:43 13.05.2020
3213 Clouds 27 1006 18 16093 9.3 230 01:47 13.05.2020
3214 Clouds 28 1007 15 16093 9.8 230 00:59 13.05.2020
3215 Clouds 28 1007 15 16093 9.8 230 00:28 13.05.2020
3216 Clouds 27 1007 15 16093 9.8 200 23:59 12.05.2020
3217 Clouds 27 1007 15 16093 9.8 200 23:59 12.05.2020
3218 Clouds 27 1007 15 16093 9.8 200 23:39 12.05.2020
3219 Clouds 27 1007 15 16093 9.8 200 23:20 12.05.2020
3220 Clouds 27 1008 17 16093 10.3 190 22:42 12.05.2020
3221 Clouds 27 1008 17 16093 10.3 190 22:23 12.05.2020
3222 Clouds 27 1008 17 16093 10.3 190 22:23 12.05.2020
3223 Clouds 27 1009 17 16093 8.7 200 21:57 12.05.2020
3224 Clouds 27 1009 17 16093 8.7 200 21:38 12.05.2020
3225 Clouds 26 1009 19 16093 8.7 200 21:20 12.05.2020
3226 Clouds 26 1009 16 16093 8.2 220 20:59 12.05.2020
3227 Clouds 26 1009 16 16093 8.2 220 20:59 12.05.2020
3228 Clouds 26 1009 16 16093 8.2 220 20:40 12.05.2020
3229 Clouds 25 1009 16 16093 8.2 220 20:21 12.05.2020
3230 Clouds 25 1009 17 16093 6.7 230 19:58 12.05.2020
3231 Clouds 25 1009 17 16093 6.7 230 19:40 12.05.2020
3232 Clouds 25 1009 17 16093 6.7 230 19:21 12.05.2020
3233 Clouds 24 1009 17 16093 8.7 230 18:56 12.05.2020
3234 Clouds 24 1009 17 16093 8.7 230 18:38 12.05.2020
3235 Clouds 23 1009 17 16093 8.7 230 18:19 12.05.2020
3236 Clouds 22 1009 17 16093 8.7 230 17:42 12.05.2020
3237 Clouds 22 1009 17 16093 8.7 230 17:24 12.05.2020
3238 Clouds 22 1008 17 16093 9.8 230 16:47 12.05.2020
3239 Clouds 21 1008 17 16093 9.8 230 16:26 12.05.2020
3240 Clouds 21 1008 18 16093 5.7 220 15:56 12.05.2020
3241 Clouds 21 1008 18 16093 5.7 220 15:38 12.05.2020
3242 Clouds 21 1008 18 16093 5.7 220 15:38 12.05.2020
3243 Clouds 21 1008 18 16093 5.7 220 15:19 12.05.2020
3244 Clouds 21 1008 18 16093 5.7 220 14:57 12.05.2020
3245 Clouds 21 1008 18 16093 5.7 220 14:37 12.05.2020
3246 Clouds 21 1008 18 16093 5.7 220 14:19 12.05.2020
3247 Clouds 21 1007 17 16093 5.7 220 13:57 12.05.2020
3248 Clouds 21 1007 17 16093 5.7 220 13:39 12.05.2020
3249 Clouds 21 1007 17 16093 5.7 220 13:19 12.05.2020
3250 Clouds 21 1007 17 16093 7.2 230 12:57 12.05.2020
3251 Clouds 21 1007 17 16093 7.2 230 12:39 12.05.2020
3252 Clouds 21 1007 17 16093 7.2 230 12:39 12.05.2020
3253 Clouds 21 1007 17 16093 7.2 230 12:21 12.05.2020
3254 Clouds 21 1007 19 16093 5.1 210 11:58 12.05.2020
3255 Clouds 22 1007 19 16093 5.1 210 11:38 12.05.2020
3256 Clouds 22 1007 19 16093 5.1 210 11:20 12.05.2020
3257 Dust 22 1007 20 16093 9.3 230 10:58 12.05.2020
3258 Dust 22 1007 20 16093 9.3 230 10:39 12.05.2020
3259 Dust 23 1007 20 16093 9.3 230 10:20 12.05.2020
3260 Dust 23 1007 19 16093 10.3 230 09:58 12.05.2020
3261 Dust 23 1007 19 16093 10.3 230 09:39 12.05.2020
3262 Dust 23 1007 19 16093 10.3 230 09:20 12.05.2020
3263 Dust 24 1007 16 16093 6.7 210 08:42 12.05.2020
3264 Dust 24 1007 16 16093 6.7 210 08:22 12.05.2020
3265 Clouds 25 1007 14 16093 8.2 210 07:58 12.05.2020
3266 Clouds 25 1007 14 16093 8.2 210 07:40 12.05.2020
3267 Clouds 25 1007 14 16093 8.2 210 07:40 12.05.2020
3268 Clouds 25 1007 14 16093 8.2 210 07:20 12.05.2020
3269 Clouds 26 1007 10 16093 5.7 210 06:38 12.05.2020
3270 Clouds 26 1007 10 16093 5.7 210 06:20 12.05.2020
3271 Clouds 27 1006 8 16093 8.2 220 05:46 12.05.2020
3272 Clouds 29 1006 6 16093 7.7 230 04:41 12.05.2020
3273 Clouds 31 1007 5 16093 7.7 230 03:22 12.05.2020
3274 Clouds 31 1007 5 16093 6.7 210 02:27 12.05.2020
3275 Clouds 32 1008 4 16093 10.3 240 01:46 12.05.2020
3276 Clouds 32 1008 4 16093 7.7 230 00:59 12.05.2020
3277 Clouds 32 1008 4 16093 7.7 230 00:24 12.05.2020
3278 Clouds 32 1009 4 16093 6.7 220 23:57 11.05.2020
3279 Clouds 32 1009 4 16093 6.7 220 23:38 11.05.2020
3280 Clouds 32 1009 4 16093 6.7 220 23:19 11.05.2020
3281 Clouds 32 1009 4 16093 6.7 220 22:57 11.05.2020
3282 Clouds 32 1009 4 16093 6.7 220 22:39 11.05.2020
3283 Clouds 32 1009 4 16093 6.7 220 22:39 11.05.2020
3284 Clouds 32 1009 4 16093 6.7 220 22:19 11.05.2020
3285 Clouds 32 1010 5 16093 6.7 210 21:55 11.05.2020
3286 Clouds 31 1010 5 16093 6.7 210 21:37 11.05.2020
3287 Clouds 32 1010 5 16093 6.7 210 21:18 11.05.2020
3288 Clouds 31 1010 5 16093 8.2 190 20:55 11.05.2020
3289 Clouds 31 1010 5 16093 8.2 190 20:36 11.05.2020
3290 Clouds 30 1010 5 16093 8.2 190 20:18 11.05.2020
3291 Clouds 30 1011 6 16093 7.2 180 19:41 11.05.2020
3292 Clouds 29 1011 6 16093 7.2 180 19:22 11.05.2020
3293 Clouds 29 1011 7 16093 6.7 190 18:58 11.05.2020
3294 Clouds 28 1011 7 16093 6.7 190 18:39 11.05.2020
3295 Clouds 28 1011 7 16093 6.7 190 18:20 11.05.2020
3296 Clouds 27 1011 10 16093 4.6 170 17:57 11.05.2020
3297 Clouds 27 1011 10 16093 4.6 170 17:39 11.05.2020
3298 Clouds 26 1011 10 16093 4.6 170 17:21 11.05.2020
3299 Clouds 25 1011 13 16093 5.7 180 16:56 11.05.2020
3300 Clouds 25 1011 13 16093 5.7 180 16:37 11.05.2020
3301 Clouds 25 1011 13 16093 5.7 180 16:19 11.05.2020
3302 Clouds 23 1010 13 16093 4.1 170 15:42 11.05.2020
3303 Clouds 23 1010 13 16093 4.1 170 15:20 11.05.2020
3304 Clouds 23 1010 13 16093 2.6 140 14:59 11.05.2020
3305 Clouds 24 1010 13 16093 2.6 140 14:41 11.05.2020
3306 Clouds 24 1010 13 16093 2.6 140 14:21 11.05.2020
3307 Clouds 24 1010 11 16093 2.6 160 13:54 11.05.2020
3308 Clouds 24 1010 11 16093 2.6 160 13:36 11.05.2020
3309 Clouds 24 1010 11 16093 2.6 160 13:18 11.05.2020
3310 Clouds 25 1009 16 16093 4.6 180 12:54 11.05.2020
3311 Clouds 25 1009 16 16093 4.6 180 12:54 11.05.2020
3312 Clouds 25 1009 16 16093 4.6 180 12:36 11.05.2020
3313 Clouds 25 1009 16 16093 4.6 180 12:18 11.05.2020
3314 Clouds 26 1009 15 16093 4.6 180 11:41 11.05.2020
3315 Clouds 26 1009 15 16093 4.6 180 11:22 11.05.2020
3316 Clouds 26 1010 14 16093 2.6 240 10:58 11.05.2020
3317 Clouds 26 1010 14 16093 2.6 240 10:40 11.05.2020
3318 Clouds 27 1010 14 16093 2.6 240 10:21 11.05.2020
3319 Clouds 27 1009 13 16093 1.5 220 09:58 11.05.2020
3320 Clouds 28 1009 13 16093 1.5 220 09:39 11.05.2020
3321 Clouds 28 1009 13 16093 1.5 220 09:19 11.05.2020
3322 Clouds 29 1009 12 16093 3.1 250 08:55 11.05.2020
3323 Clouds 30 1009 12 16093 3.1 250 08:37 11.05.2020
3324 Clouds 30 1009 12 16093 3.1 250 08:18 11.05.2020
3325 Clouds 31 1010 11 16093 4.6 250 07:42 11.05.2020
3326 Clouds 31 1010 11 16093 4.6 250 07:23 11.05.2020
3327 Clouds 32 1008 14 16093 4.1 200 06:41 11.05.2020
3328 Clouds 32 1008 15 16093 4.1 200 05:56 11.05.2020
3329 Clouds 32 1008 15 16093 4.1 200 05:24 11.05.2020
3330 Clouds 34 1007 12 16093 5.7 240 04:31 11.05.2020
3331 Clouds 36 1008 11 16093 6.2 240 02:59 11.05.2020
3332 Clouds 34 1008 11 16093 6.2 240 02:29 11.05.2020
3333 Clouds 35 1008 10 16093 6.7 250 01:34 11.05.2020
3334 Clouds 35 1009 11 16093 6.2 170 00:52 11.05.2020
3335 Clouds 35 1009 11 16093 6.2 170 00:19 11.05.2020
3336 Clouds 35 1010 17 12874 6.2 190 23:43 10.05.2020
3337 Clouds 35 1010 16 12874 6.2 190 23:24 10.05.2020
3338 Clouds 36 1011 9 16093 4.6 210 22:55 10.05.2020
3339 Clouds 35 1011 9 16093 4.6 210 22:37 10.05.2020
3340 Clouds 35 1011 9 16093 4.6 210 22:19 10.05.2020
3341 Clouds 35 1012 11 16093 4.6 190 21:44 10.05.2020
3342 Clouds 35 1012 11 16093 4.6 190 21:19 10.05.2020
3343 Clouds 34 1013 12 16093 3.1 150 20:54 10.05.2020
3344 Clouds 34 1013 12 16093 3.1 150 20:36 10.05.2020
3345 Clouds 34 1013 12 16093 3.1 150 20:36 10.05.2020
3346 Clouds 34 1013 12 16093 3.1 150 20:18 10.05.2020
3347 Clouds 32 1013 14 16093 3.1 80 19:40 10.05.2020
3348 Clouds 31 1013 14 16093 3.1 80 19:22 10.05.2020
3349 Clouds 31 1013 12 16093 1.5 10 18:57 10.05.2020
3350 Clouds 31 1013 12 16093 1.5 10 18:57 10.05.2020
3351 Clouds 30 1013 12 16093 1.5 10 18:37 10.05.2020
3352 Clouds 30 1013 12 16093 1.5 10 18:19 10.05.2020
3353 Clouds 28 1013 15 16093 1.82 130 17:58 10.05.2020
3354 Clouds 28 1013 15 16093 1.82 130 17:40 10.05.2020
3355 Clouds 28 1013 15 16093 0.99 122 17:21 10.05.2020
3356 Clouds 26 1012 16 16093 3.1 300 16:56 10.05.2020
3357 Clouds 26 1012 16 16093 3.1 300 16:38 10.05.2020
3358 Clouds 25 1012 16 16093 3.1 300 16:19 10.05.2020
3359 Clouds 25 1012 17 16093 1.5 230 15:43 10.05.2020
3360 Clouds 24 1012 17 16093 1.5 230 15:24 10.05.2020
3361 Clouds 24 1011 15 16093 2.1 0 14:57 10.05.2020
3362 Clouds 25 1011 15 16093 2.1 0 14:38 10.05.2020
3363 Clouds 25 1011 15 16093 2.1 0 14:19 10.05.2020
3364 Clouds 25 1011 15 16093 2.6 190 13:58 10.05.2020
3365 Clouds 25 1011 15 16093 2.6 190 13:37 10.05.2020
3366 Clouds 25 1011 15 16093 2.6 190 13:19 10.05.2020
3367 Clouds 25 1011 15 16093 2.6 190 13:19 10.05.2020
3368 Clouds 26 1011 15 16093 1.5 190 12:56 10.05.2020
3369 Clouds 27 1011 15 16093 1.5 190 12:37 10.05.2020
3370 Clouds 27 1011 15 16093 1.5 190 12:19 10.05.2020
3371 Clouds 27 1011 13 16093 2.6 210 11:54 10.05.2020
3372 Clouds 27 1011 13 16093 2.6 210 11:36 10.05.2020
3373 Clouds 27 1011 13 16093 2.6 210 11:18 10.05.2020
3374 Clouds 27 1011 12 16093 2.1 210 10:42 10.05.2020
3375 Clouds 27 1011 12 16093 2.1 210 10:42 10.05.2020
3376 Clouds 27 1011 12 16093 2.1 210 10:24 10.05.2020
3377 Clear 28 1011 11 16093 3.6 230 09:56 10.05.2020
3378 Clear 28 1011 11 16093 3.6 230 09:38 10.05.2020
3379 Clear 28 1011 11 16093 3.6 230 09:38 10.05.2020
3380 Clear 28 1011 11 16093 3.6 230 09:19 10.05.2020
3381 Clear 29 1011 11 16093 2.6 220 08:44 10.05.2020
3382 Clear 29 1011 11 16093 2.6 220 08:23 10.05.2020
3383 Clear 29 1011 9 16093 2.6 230 07:44 10.05.2020
3384 Clear 29 1011 9 16093 2.6 230 07:19 10.05.2020
3385 Clear 31 1010 8 16093 3.1 230 06:51 10.05.2020
3386 Clear 31 1010 8 16093 3.1 230 06:51 10.05.2020
3387 Clear 31 1010 8 16093 3.1 230 06:29 10.05.2020
3388 Clouds 32 1010 6 16093 3.6 240 05:48 10.05.2020
3389 Clouds 33 1009 5 16093 4.6 220 04:48 10.05.2020
3390 Clouds 34 1009 5 16093 4.6 220 04:29 10.05.2020
3391 Clouds 35 1009 4 16093 3.6 220 03:51 10.05.2020
3392 Clouds 36 1009 4 16093 3.6 220 03:30 10.05.2020
3393 Clouds 37 1010 4 16093 7.2 220 02:25 10.05.2020
3394 Clouds 37 1009 5 16093 7.7 260 01:59 10.05.2020
3395 Clouds 37 1009 5 16093 7.7 260 01:40 10.05.2020
3396 Clouds 37 1009 5 16093 7.7 260 01:19 10.05.2020
3397 Clouds 36 1011 7 16093 3.6 120 00:53 10.05.2020
3398 Clouds 36 1011 7 16093 3.6 120 00:22 10.05.2020
3399 Clouds 35 1012 8 16093 2.1 120 23:41 09.05.2020
3400 Clouds 35 1012 8 16093 2.1 120 23:23 09.05.2020
3401 Clouds 35 1013 8 16093 3.1 0 22:59 09.05.2020
3402 Clouds 34 1013 8 16093 3.1 0 22:41 09.05.2020
3403 Clouds 34 1013 8 16093 3.1 0 22:22 09.05.2020
3404 Clouds 33 1014 8 16093 2.6 80 21:57 09.05.2020
3405 Clouds 33 1014 8 16093 2.6 80 21:39 09.05.2020
3406 Clouds 32 1014 8 16093 2.6 80 21:20 09.05.2020
3407 Clouds 32 1014 8 16093 2.1 60 20:57 09.05.2020
3408 Clouds 32 1014 8 16093 2.1 60 20:38 09.05.2020
3409 Clouds 31 1014 8 16093 2.1 60 20:19 09.05.2020
3410 Clouds 30 1015 9 16093 1.5 140 19:54 09.05.2020
3411 Clouds 30 1015 9 16093 1.5 140 19:36 09.05.2020
3412 Clouds 30 1015 9 16093 1.5 140 19:36 09.05.2020
3413 Clouds 29 1015 9 16093 1.5 140 19:18 09.05.2020
3414 Clouds 28 1015 11 16093 1.6 67 18:41 09.05.2020
3415 Clouds 27 1015 11 16093 1.42 64 18:21 09.05.2020
3416 Clouds 26 1014 15 16093 1.42 64 17:44 09.05.2020
3417 Clouds 26 1014 15 16093 1.05 64 17:23 09.05.2020
3418 Clouds 24 1013 18 16093 1.05 64 16:56 09.05.2020
3419 Clouds 23 1013 18 16093 1.05 64 16:37 09.05.2020
3420 Clouds 22 1013 18 16093 0.52 59 16:18 09.05.2020
3421 Clouds 21 1013 21 16093 1.5 310 15:42 09.05.2020
3422 Clouds 21 1013 21 16093 1.5 310 15:22 09.05.2020
3423 Clouds 21 1012 17 16093 2.1 290 14:55 09.05.2020
3424 Clouds 21 1012 17 16093 2.1 290 14:36 09.05.2020
3425 Clouds 22 1012 17 16093 2.1 290 14:18 09.05.2020
3426 Clouds 22 1012 14 16093 1.5 230 13:41 09.05.2020
3427 Clouds 22 1012 14 16093 1.5 230 13:22 09.05.2020
3428 Clouds 23 1011 12 16093 3.1 210 12:58 09.05.2020
3429 Clouds 23 1011 12 16093 3.1 210 12:39 09.05.2020
3430 Clouds 23 1011 12 16093 3.1 210 12:39 09.05.2020
3431 Clouds 23 1011 12 16093 3.1 210 12:21 09.05.2020
3432 Clouds 23 1011 13 16093 2.1 210 11:44 09.05.2020
3433 Clouds 24 1011 13 16093 2.1 210 11:20 09.05.2020
3434 Clouds 24 1011 13 16093 2.6 220 10:48 09.05.2020
3435 Clouds 24 1011 13 16093 2.6 220 10:48 09.05.2020
3436 Clouds 24 1011 13 16093 2.6 220 10:27 09.05.2020
3437 Clouds 25 1012 12 16093 2.6 240 10:00 09.05.2020
3438 Clouds 25 1012 12 16093 2.6 240 09:41 09.05.2020
3439 Clouds 25 1012 12 16093 2.6 240 09:20 09.05.2020
3440 Clouds 25 1012 14 16093 3.1 300 08:52 09.05.2020
3441 Clouds 25 1012 14 16093 3.1 300 08:34 09.05.2020
3442 Clouds 27 1012 11 16093 2.1 280 07:55 09.05.2020
3443 Clouds 27 1012 11 16093 2.1 280 07:37 09.05.2020
3444 Clouds 27 1012 11 16093 2.1 280 07:19 09.05.2020
3445 Clouds 28 1011 9 16093 0.87 63 06:26 09.05.2020
3446 Clouds 29 1011 6 16093 3.1 50 05:50 09.05.2020
3447 Clouds 31 1010 6 16093 3.6 60 04:58 09.05.2020
3448 Clouds 33 1011 5 16093 3.6 70 03:39 09.05.2020
3449 Clouds 34 1011 5 16093 2.6 90 02:53 09.05.2020
3450 Clouds 34 1011 5 16093 2.6 90 02:23 09.05.2020
3451 Clear 34 1012 5 16093 3.1 130 01:47 09.05.2020
3452 Clear 34 1012 5 16093 3.1 130 01:20 09.05.2020
3453 Clouds 33 1013 6 16093 2.1 80 00:40 09.05.2020
3454 Clouds 32 1014 6 16093 2.6 0 23:58 08.05.2020
3455 Clouds 32 1014 6 16093 2.6 0 23:39 08.05.2020
3456 Clouds 31 1014 6 16093 2.6 0 23:20 08.05.2020
3457 Clouds 31 1015 6 16093 1.66 82 22:55 08.05.2020
3458 Clouds 31 1015 6 16093 1.66 82 22:36 08.05.2020
3459 Clouds 30 1015 6 16093 1.98 72 22:18 08.05.2020
3460 Clouds 30 1016 6 16093 2.6 0 21:54 08.05.2020
3461 Clouds 30 1016 6 16093 2.6 0 21:36 08.05.2020
3462 Clouds 29 1016 6 16093 2.6 0 21:18 08.05.2020
3463 Clouds 28 1017 7 16093 2.6 50 20:41 08.05.2020
3464 Clouds 28 1017 7 16093 2.6 50 20:23 08.05.2020
3465 Clouds 27 1017 7 16093 4.1 60 19:56 08.05.2020
3466 Clouds 27 1017 7 16093 4.1 60 19:37 08.05.2020
3467 Clouds 27 1017 7 16093 4.1 60 19:19 08.05.2020
3468 Clouds 25 1017 10 16093 3.1 50 18:44 08.05.2020
3469 Clouds 25 1017 10 16093 3.1 50 18:44 08.05.2020
3470 Clouds 25 1017 10 16093 3.1 50 18:26 08.05.2020
3471 Clouds 23 1017 11 16093 1.5 0 17:43 08.05.2020
3472 Clouds 23 1017 11 16093 1.5 0 17:20 08.05.2020
3473 Clouds 22 1017 10 16093 2.6 110 16:55 08.05.2020
3474 Clouds 22 1017 10 16093 2.6 110 16:37 08.05.2020
3475 Clouds 21 1017 10 16093 2.6 110 16:18 08.05.2020
3476 Clouds 20 1016 10 16093 2.1 140 15:42 08.05.2020
3477 Clouds 20 1016 10 16093 2.1 140 15:20 08.05.2020
3478 Clouds 20 1016 8 16093 3.1 100 14:56 08.05.2020
3479 Clouds 21 1016 8 16093 3.1 100 14:37 08.05.2020
3480 Clouds 21 1016 8 16093 3.1 100 14:18 08.05.2020
3481 Clouds 21 1015 8 16093 5.1 80 13:41 08.05.2020
3482 Clouds 21 1015 8 16093 5.1 80 13:20 08.05.2020
3483 Clouds 21 1015 8 16093 5.7 60 12:55 08.05.2020
3484 Clouds 22 1015 8 16093 5.7 60 12:37 08.05.2020
3485 Clouds 22 1015 8 16093 5.7 60 12:18 08.05.2020
3486 Clouds 22 1015 8 16093 5.7 80 11:44 08.05.2020
3487 Clouds 22 1015 8 16093 5.7 80 11:23 08.05.2020
3488 Clouds 23 1015 9 16093 5.1 70 10:58 08.05.2020
3489 Clouds 23 1015 9 16093 5.1 70 10:40 08.05.2020
3490 Clouds 24 1015 9 16093 5.1 70 10:19 08.05.2020
3491 Clouds 24 1015 9 16093 1.5 0 09:54 08.05.2020
3492 Clouds 24 1015 9 16093 1.5 0 09:36 08.05.2020
3493 Clouds 24 1015 9 16093 1.5 0 09:18 08.05.2020
3494 Clouds 25 1015 8 16093 3.6 70 08:40 08.05.2020
3495 Clouds 25 1015 8 16093 3.6 70 08:21 08.05.2020
3496 Clouds 26 1014 9 16093 9.3 40 07:43 08.05.2020
3497 Clouds 27 1014 9 16093 9.3 40 07:23 08.05.2020
3498 Clouds 28 1013 9 16093 3.1 20 06:50 08.05.2020
3499 Clouds 28 1013 9 16093 3.1 20 06:21 08.05.2020
3500 Clouds 28 1012 8 16093 3.6 70 05:36 08.05.2020
3501 Clouds 31 1012 7 16093 2.6 60 04:21 08.05.2020
3502 Clouds 32 1013 7 16093 1.5 50 02:32 08.05.2020
3503 Clouds 33 1014 7 16093 2.6 20 01:44 08.05.2020
3504 Clouds 33 1014 7 16093 2.6 20 01:21 08.05.2020
3505 Clouds 32 1015 7 16093 1.5 0 00:48 08.05.2020
3506 Clouds 32 1015 7 16093 1.5 0 00:48 08.05.2020
3507 Clouds 33 1015 7 16093 1.5 0 00:27 08.05.2020
3508 Clouds 33 1015 7 16093 5.7 50 23:57 07.05.2020
3509 Clouds 33 1015 7 16093 5.7 50 23:39 07.05.2020
3510 Clouds 33 1015 7 16093 5.7 50 23:39 07.05.2020
3511 Clouds 32 1015 7 16093 5.7 50 23:20 07.05.2020
3512 Clouds 32 1016 7 16093 4.1 60 22:42 07.05.2020
3513 Clouds 31 1016 7 16093 4.1 60 22:21 07.05.2020
3514 Haze 31 1017 8 16093 7.2 60 21:58 07.05.2020
3515 Haze 30 1017 8 16093 7.2 60 21:39 07.05.2020
3516 Haze 30 1017 8 16093 7.2 60 21:20 07.05.2020
3517 Haze 29 1017 10 16093 7.2 50 20:58 07.05.2020
3518 Haze 29 1017 10 16093 7.2 50 20:40 07.05.2020
3519 Haze 29 1017 10 16093 7.2 50 20:20 07.05.2020
3520 Haze 29 1017 10 16093 7.2 50 20:20 07.05.2020
3521 Clouds 28 1017 10 16093 2.1 30 19:48 07.05.2020
3522 Clouds 28 1017 10 16093 2.1 30 19:23 07.05.2020
3523 Clouds 27 1017 11 16093 6.2 60 18:57 07.05.2020
3524 Clouds 26 1017 11 16093 6.2 60 18:38 07.05.2020
3525 Clouds 26 1017 11 16093 6.2 60 18:38 07.05.2020
3526 Clouds 26 1017 11 16093 6.2 60 18:20 07.05.2020
3527 Clouds 25 1017 12 16093 4.6 60 17:41 07.05.2020
3528 Clouds 24 1017 12 16093 4.6 60 17:20 07.05.2020
3529 Clouds 23 1016 10 16093 7.2 50 16:43 07.05.2020
3530 Clouds 23 1016 10 16093 7.2 50 16:19 07.05.2020
3531 Clouds 23 1015 8 16093 6.2 50 15:58 07.05.2020
3532 Clouds 23 1015 8 16093 6.2 50 15:39 07.05.2020
3533 Clouds 23 1015 8 16093 6.2 50 15:39 07.05.2020
3534 Clouds 23 1015 8 16093 6.2 50 15:18 07.05.2020
3535 Clouds 23 1015 7 16093 6.2 50 14:57 07.05.2020
3536 Clouds 23 1015 7 16093 6.2 50 14:39 07.05.2020
3537 Clouds 23 1015 7 16093 6.2 50 14:18 07.05.2020
3538 Clouds 23 1014 6 16093 5.7 50 13:42 07.05.2020
3539 Clouds 23 1014 6 16093 5.7 50 13:22 07.05.2020
3540 Clouds 24 1013 6 16093 4.6 30 12:43 07.05.2020
3541 Clouds 25 1013 6 16093 4.6 30 12:20 07.05.2020
3542 Clouds 25 1013 6 16093 4.6 30 12:20 07.05.2020
3543 Clouds 24 1013 13 16093 4.47 344 11:54 07.05.2020
3544 Clouds 24 1013 13 16093 4.47 344 11:36 07.05.2020
3545 Clouds 25 1013 13 16093 4.05 339 11:18 07.05.2020
3546 Clouds 25 1013 12 16093 1.5 180 10:40 07.05.2020
3547 Clouds 25 1013 12 16093 1.5 180 10:20 07.05.2020
3548 Clouds 27 1013 10 16093 2.6 220 09:40 07.05.2020
3549 Clouds 27 1013 10 16093 2.6 220 09:20 07.05.2020
3550 Clouds 27 1013 8 16093 2.6 200 08:56 07.05.2020
3551 Clouds 28 1013 8 16093 2.6 200 08:37 07.05.2020
3552 Clouds 28 1013 8 16093 2.6 200 08:19 07.05.2020
3553 Clouds 29 1012 8 16093 1.5 140 07:41 07.05.2020
3554 Clouds 29 1012 8 16093 1.5 140 07:22 07.05.2020
3555 Clouds 30 1012 6 16093 3.6 260 06:45 07.05.2020
3556 Clouds 30 1012 6 16093 3.6 260 06:23 07.05.2020
3557 Clouds 32 1012 5 16093 4.1 250 05:28 07.05.2020
3558 Clouds 34 1011 5 16093 6.2 260 03:50 07.05.2020
3559 Clouds 34 1011 5 16093 6.2 260 03:23 07.05.2020
3560 Clouds 35 1012 4 16093 6.2 280 02:41 07.05.2020
3561 Clouds 36 1012 4 16093 5.1 290 01:41 07.05.2020
3562 Clouds 36 1012 4 16093 5.1 290 01:23 07.05.2020
3563 Clouds 36 1012 5 16093 4.1 280 00:44 07.05.2020
3564 Clouds 36 1012 5 16093 4.1 280 00:25 07.05.2020
3565 Clouds 36 1013 19 16093 4.55 243 23:46 06.05.2020
3566 Clouds 36 1013 19 16093 3.26 234 23:24 06.05.2020
3567 Clouds 35 1014 15 16093 2.1 360 22:57 06.05.2020
3568 Clouds 35 1014 15 16093 2.1 360 22:39 06.05.2020
3569 Clouds 34 1014 15 16093 2.1 360 22:19 06.05.2020
3570 Clouds 33 1015 10 16093 2.28 215 21:56 06.05.2020
3571 Clouds 33 1015 10 16093 2.28 215 21:38 06.05.2020
3572 Clouds 32 1015 10 16093 1.67 198 21:18 06.05.2020
3573 Clouds 31 1015 10 0 1.67 198 20:42 06.05.2020
3574 Clouds 31 1015 10 0 1.04 166 20:23 06.05.2020
3575 Clouds 31 1015 10 0 1.04 166 20:23 06.05.2020
3576 Clouds 31 1015 10 0 1.04 166 20:23 06.05.2020
3577 Clouds 30 1016 10 16093 2.1 50 19:57 06.05.2020
3578 Clouds 29 1016 10 16093 2.1 50 19:39 06.05.2020
3579 Clouds 29 1016 10 16093 2.1 50 19:19 06.05.2020
3580 Clouds 28 1016 10 16093 0.95 136 18:58 06.05.2020
3581 Clouds 27 1016 10 16093 0.95 136 18:39 06.05.2020
3582 Clouds 27 1016 10 16093 0.53 104 18:21 06.05.2020
3583 Clouds 25 1015 12 16093 0.53 104 17:58 06.05.2020
3584 Clouds 25 1015 12 16093 0.53 104 17:39 06.05.2020
3585 Clouds 24 1015 12 16093 0.28 225 17:21 06.05.2020
3586 Clouds 23 1015 13 16093 0.28 225 16:58 06.05.2020
3587 Clouds 22 1015 13 16093 0.28 225 16:40 06.05.2020
3588 Clouds 21 1015 13 16093 0.62 249 16:20 06.05.2020
3589 Clouds 20 1014 18 16093 0.62 249 15:57 06.05.2020
3590 Clouds 20 1014 18 16093 0.62 249 15:39 06.05.2020
3591 Clouds 20 1014 18 16093 0.69 234 15:20 06.05.2020
3592 Clouds 21 1014 12 16093 0.69 234 14:42 06.05.2020
3593 Clouds 21 1014 12 16093 0.95 219 14:19 06.05.2020
3594 Clouds 21 1014 11 16093 2.1 200 13:59 06.05.2020
3595 Clouds 21 1014 11 16093 2.1 200 13:39 06.05.2020
3596 Clouds 22 1014 11 16093 2.1 200 13:21 06.05.2020
3597 Clouds 22 1014 12 16093 1.5 200 12:44 06.05.2020
3598 Clouds 22 1014 12 16093 1.5 200 12:26 06.05.2020
3599 Clouds 23 1014 11 16093 1.5 220 11:59 06.05.2020
3600 Clouds 23 1014 11 16093 1.5 220 11:39 06.05.2020
3601 Clouds 23 1014 11 16093 1.5 220 11:21 06.05.2020
3602 Clouds 23 1015 11 16093 2.1 200 10:56 06.05.2020
3603 Clouds 23 1015 11 16093 2.1 200 10:37 06.05.2020
3604 Clouds 23 1015 11 16093 2.1 200 10:18 06.05.2020
3605 Clouds 23 1015 10 16093 2.1 220 09:40 06.05.2020
3606 Clouds 23 1015 10 16093 2.1 220 09:21 06.05.2020
3607 Clouds 25 1015 10 16093 2.1 250 08:45 06.05.2020
3608 Clouds 25 1015 10 16093 2.1 250 08:22 06.05.2020
3609 Clouds 26 1015 10 16093 0.36 282 07:58 06.05.2020
3610 Clouds 26 1015 10 16093 0.36 282 07:39 06.05.2020
3611 Clouds 26 1015 10 16093 0.37 334 07:20 06.05.2020
3612 Clear 27 1015 6 16093 0.37 334 06:49 06.05.2020
3613 Clear 27 1015 6 16093 0.39 57 06:21 06.05.2020
3614 Clouds 28 1014 6 16093 2.6 110 05:51 06.05.2020
3615 Clouds 28 1014 6 16093 2.6 110 05:32 06.05.2020
3616 Clouds 30 1014 5 16093 1.29 117 04:22 06.05.2020
3617 Clouds 32 1014 5 16093 1.29 117 03:36 06.05.2020
3618 Clouds 32 1015 5 16093 1.38 129 02:58 06.05.2020
3619 Clouds 33 1015 5 16093 1.34 125 02:28 06.05.2020
3620 Clouds 32 1015 5 16093 2.1 0 01:53 06.05.2020
3621 Clouds 33 1015 5 16093 2.1 0 01:27 06.05.2020
3622 Clouds 33 1016 6 16093 1.5 0 00:45 06.05.2020
3623 Clouds 32 1016 6 16093 1.5 0 00:23 06.05.2020
3624 Clouds 32 1017 6 16093 1.5 0 23:42 05.05.2020
3625 Clouds 32 1017 6 16093 1.5 0 23:20 05.05.2020
3626 Clear 31 1017 6 16093 2.1 30 22:57 05.05.2020
3627 Clear 31 1017 6 16093 2.1 30 22:39 05.05.2020
3628 Clear 31 1017 6 16093 2.1 30 22:19 05.05.2020
3629 Clear 30 1018 7 16093 3.6 40 21:55 05.05.2020
3630 Clear 30 1018 7 16093 3.6 40 21:55 05.05.2020
3631 Clear 30 1018 7 16093 3.6 40 21:37 05.05.2020
3632 Clear 29 1018 7 16093 3.6 40 21:19 05.05.2020
3633 Clear 28 1019 8 16093 3.1 20 20:42 05.05.2020
3634 Clear 28 1019 8 16093 3.1 20 20:20 05.05.2020
3635 Clear 28 1019 8 16093 3.1 20 20:20 05.05.2020
3636 Clear 28 1019 9 16093 3.6 40 19:59 05.05.2020
3637 Clear 27 1019 9 16093 3.6 40 19:41 05.05.2020
3638 Clear 27 1019 9 16093 3.6 40 19:23 05.05.2020
3639 Clear 25 1019 13 16093 2.1 70 18:57 05.05.2020
3640 Clear 25 1019 13 16093 2.1 70 18:39 05.05.2020
3641 Clear 24 1019 13 16093 2.1 70 18:19 05.05.2020
3642 Clear 23 1019 15 16093 1.5 330 17:57 05.05.2020
3643 Clear 23 1019 15 16093 1.5 330 17:38 05.05.2020
3644 Clear 22 1019 15 16093 1.5 330 17:20 05.05.2020
3645 Clear 20 1018 16 16093 1.5 270 16:39 05.05.2020
3646 Clear 19 1018 16 16093 1.5 270 16:20 05.05.2020
3647 Clear 18 1017 15 16093 1.11 36 15:58 05.05.2020
3648 Clear 18 1017 15 16093 1.11 36 15:39 05.05.2020
3649 Clear 18 1017 17 16093 2.1 210 15:21 05.05.2020
3650 Clear 18 1017 17 16093 2.1 210 15:21 05.05.2020
3651 Clear 18 1017 17 16093 2.1 210 14:55 05.05.2020
3652 Clear 18 1017 17 16093 2.1 210 14:37 05.05.2020
3653 Clear 18 1017 17 16093 2.1 210 14:18 05.05.2020
3654 Clear 19 1017 18 16093 1.25 28 13:55 05.05.2020
3655 Clear 19 1017 18 16093 1.25 28 13:37 05.05.2020
3656 Clear 19 1017 18 16093 1.18 27 13:18 05.05.2020
3657 Clear 19 1017 16 16093 1.5 240 12:55 05.05.2020
3658 Clear 19 1017 16 16093 1.5 240 12:36 05.05.2020
3659 Clear 20 1017 16 16093 1.5 240 12:18 05.05.2020
3660 Clear 21 1017 14 16093 1.44 9 11:40 05.05.2020
3661 Clear 21 1017 14 16093 1.77 357 11:20 05.05.2020
3662 Clear 22 1017 12 16093 1.77 357 10:55 05.05.2020
3663 Clear 22 1017 12 16093 1.77 357 10:37 05.05.2020
3664 Clear 21 1017 12 16093 2.72 12 10:18 05.05.2020
3665 Clear 21 1017 11 16093 3.1 20 09:44 05.05.2020
3666 Clear 23 1017 11 16093 3.1 20 09:26 05.05.2020
3667 Clear 23 1017 13 16093 3.26 24 08:58 05.05.2020
3668 Clear 23 1017 13 16093 3.26 24 08:39 05.05.2020
3669 Clear 24 1017 13 16093 3.83 35 08:18 05.05.2020
3670 Clear 25 1017 12 16093 3.83 35 07:43 05.05.2020
3671 Clear 24 1017 12 16093 3.38 4 07:21 05.05.2020
3672 Clear 24 1016 10 16093 1.5 100 06:57 05.05.2020
3673 Clear 25 1016 10 16093 1.5 100 06:39 05.05.2020
3674 Clear 26 1016 9 16093 3.6 80 05:53 05.05.2020
3675 Clouds 27 1015 9 16093 2.6 70 04:59 05.05.2020
3676 Clear 31 1016 8 16093 1.5 0 02:41 05.05.2020
3677 Clear 30 1017 9 16093 2.29 22 00:57 05.05.2020
3678 Clear 30 1017 9 16093 2.29 22 00:37 05.05.2020
3679 Clear 30 1018 10 16093 2.53 31 23:55 04.05.2020
3680 Clear 30 1018 10 16093 2.53 31 23:36 04.05.2020
3681 Clear 29 1018 10 16093 3.18 22 23:18 04.05.2020
3682 Clear 29 1018 11 16093 4.6 30 22:42 04.05.2020
3683 Clear 29 1018 11 16093 4.6 30 22:22 04.05.2020
3684 Clear 28 1019 12 16093 2.1 0 21:59 04.05.2020
3685 Clear 28 1019 12 16093 2.1 0 21:41 04.05.2020
3686 Clear 28 1019 12 16093 2.1 0 21:41 04.05.2020
3687 Clear 28 1019 12 16093 2.1 0 21:41 04.05.2020
3688 Clear 28 1019 12 16093 2.1 0 21:41 04.05.2020
3689 Clear 28 1019 12 16093 2.1 0 21:19 04.05.2020
3690 Clear 28 1019 12 16093 2.1 0 21:19 04.05.2020
3691 Clear 27 1019 11 16093 4.6 40 20:41 04.05.2020
3692 Clear 27 1019 11 16093 4.6 40 20:21 04.05.2020
3693 Clear 27 1019 11 16093 4.6 40 20:21 04.05.2020
3694 Clear 26 1019 13 16093 4.6 50 19:58 04.05.2020
3695 Clear 26 1019 13 16093 4.6 50 19:40 04.05.2020
3696 Clear 26 1019 13 16093 4.6 50 19:40 04.05.2020
3697 Clear 26 1019 13 16093 4.6 50 19:18 04.05.2020
3698 Clear 25 1019 12 16093 7.7 20 18:39 04.05.2020
3699 Clear 25 1019 12 16093 7.7 20 18:20 04.05.2020
3700 Clear 24 1018 14 16093 8.7 10 17:57 04.05.2020
3701 Clear 24 1018 14 16093 8.7 10 17:38 04.05.2020
3702 Clear 23 1018 14 16093 8.7 10 17:20 04.05.2020
3703 Clear 23 1017 13 16093 7.2 10 16:56 04.05.2020
3704 Clear 22 1017 13 16093 7.2 10 16:37 04.05.2020
3705 Clear 22 1017 13 16093 7.2 10 16:19 04.05.2020
3706 Clear 22 1017 13 16093 7.2 10 16:19 04.05.2020
3707 Clouds 21 1016 13 16093 8.2 20 15:40 04.05.2020
3708 Clouds 21 1016 13 16093 8.2 20 15:22 04.05.2020
3709 Clouds 21 1015 13 16093 2.1 0 14:49 04.05.2020
3710 Clouds 21 1015 13 16093 2.1 0 14:24 04.05.2020
3711 Clouds 21 1015 13 16093 2.1 0 14:24 04.05.2020
3712 Clouds 21 1015 13 16093 2.1 0 14:24 04.05.2020
3713 Clouds 21 1015 13 16093 2.1 0 14:24 04.05.2020
3714 Clouds 21 1015 13 16093 2.1 0 14:24 04.05.2020
3715 Clouds 21 1014 19 16093 3.1 180 13:22 04.05.2020
3716 Clouds 21 1014 19 16093 3.1 180 13:22 04.05.2020
3717 Clouds 21 1014 19 16093 3.1 180 13:22 04.05.2020
3718 Clouds 21 1014 19 16093 3.1 180 13:22 04.05.2020
3719 Clouds 21 1014 19 16093 3.1 180 13:22 04.05.2020
3720 Clouds 22 1013 16 16093 2.6 190 12:44 04.05.2020
3721 Clouds 22 1013 16 16093 2.6 190 12:44 04.05.2020
3722 Clouds 22 1013 16 16093 2.6 190 12:44 04.05.2020
3723 Clouds 22 1013 16 16093 2.6 190 12:44 04.05.2020
3724 Clouds 22 1013 16 16093 2.6 190 12:44 04.05.2020
3725 Clear 23 1013 17 16093 3.6 190 11:27 04.05.2020
3726 Clear 23 1013 17 16093 3.6 190 11:27 04.05.2020
3727 Clear 23 1013 17 16093 3.6 190 11:27 04.05.2020
3728 Clear 23 1012 13 16093 4.6 200 09:29 04.05.2020
3729 Clear 25 1012 10 16093 5.1 230 07:54 04.05.2020
3730 Clear 25 1012 10 16093 5.1 230 07:34 04.05.2020
3731 Clear 28 1010 11 16093 3.6 260 05:52 04.05.2020
3732 Clear 29 1010 10 16093 5.1 260 04:52 04.05.2020
3733 Clouds 31 1010 9 16093 9.8 260 02:56 04.05.2020
3734 Clouds 32 1010 9 16093 7.7 260 01:45 04.05.2020
3735 Clouds 32 1010 9 16093 7.7 260 01:45 04.05.2020
3736 Clouds 32 1011 9 16093 8.2 280 00:18 04.05.2020
3737 Clouds 31 1011 9 16093 8.2 250 23:44 03.05.2020
3738 Clouds 32 1011 9 16093 8.2 250 23:23 03.05.2020
3739 Clouds 30 1012 13 16093 4.6 180 22:44 03.05.2020
3740 Clouds 30 1012 13 16093 4.6 180 22:25 03.05.2020
3741 Clouds 29 1013 14 16093 5.1 170 21:56 03.05.2020
3742 Clouds 29 1013 14 16093 5.1 170 21:38 03.05.2020
3743 Clouds 28 1013 14 16093 5.1 170 21:19 03.05.2020
3744 Clouds 29 1013 14 16093 5.1 170 21:19 03.05.2020
3745 Clouds 28 1013 14 16093 5.1 170 21:19 03.05.2020
3746 Clouds 28 1013 14 16093 5.1 170 21:19 03.05.2020
3747 Clouds 27 1014 15 16093 3.1 180 20:42 03.05.2020
3748 Clouds 27 1014 15 16093 3.1 180 20:42 03.05.2020
3749 Clouds 27 1014 15 16093 3.1 180 20:20 03.05.2020
3750 Clouds 26 1014 13 16093 1.5 360 19:48 03.05.2020
3751 Clouds 26 1014 13 16093 1.5 360 19:48 03.05.2020
3752 Clouds 26 1014 13 16093 1.5 360 19:30 03.05.2020
3753 Clouds 25 1014 16 16093 2.1 0 18:56 03.05.2020
3754 Clouds 25 1014 16 16093 2.1 0 18:56 03.05.2020
3755 Clouds 24 1014 16 16093 2.1 0 18:37 03.05.2020
3756 Clouds 24 1014 16 16093 2.1 0 18:37 03.05.2020
3757 Clouds 24 1014 16 16093 2.1 0 18:37 03.05.2020
3758 Clouds 24 1014 16 16093 2.1 0 18:37 03.05.2020
3759 Clouds 24 1014 16 16093 2.1 0 18:37 03.05.2020
3760 Clouds 24 1014 16 16093 2.1 0 18:19 03.05.2020
3761 Clouds 24 1014 16 16093 2.1 0 18:19 03.05.2020
3762 Clouds 24 1014 16 16093 2.1 0 18:19 03.05.2020
3763 Clouds 24 1014 16 16093 2.1 0 18:19 03.05.2020
3764 Clouds 24 1014 16 16093 2.1 0 18:19 03.05.2020
3765 Clouds 22 1014 19 16093 2.6 220 17:41 03.05.2020
3766 Clouds 22 1014 19 16093 2.6 220 17:41 03.05.2020
3767 Clouds 22 1014 19 16093 2.6 220 17:21 03.05.2020
3768 Clouds 20 1013 21 16093 3.6 220 16:45 03.05.2020
3769 Clouds 20 1013 21 16093 3.6 220 16:20 03.05.2020
3770 Clouds 20 1013 20 16093 3.6 220 15:58 03.05.2020
3771 Clouds 20 1013 20 16093 3.6 220 15:58 03.05.2020
3772 Clouds 20 1013 20 16093 3.6 220 15:39 03.05.2020
3773 Clouds 20 1013 20 16093 3.6 220 15:20 03.05.2020
3774 Clouds 20 1013 20 16093 3.6 220 15:20 03.05.2020
3775 Clouds 20 1011 18 16093 7.7 200 14:58 03.05.2020
3776 Clouds 21 1011 18 16093 7.7 200 14:40 03.05.2020
3777 Clouds 21 1011 18 16093 7.7 200 14:21 03.05.2020
3778 Clouds 21 1011 17 16093 8.7 180 13:51 03.05.2020
3779 Clouds 21 1011 17 16093 8.7 180 13:51 03.05.2020
3780 Clouds 21 1011 17 16093 8.7 180 13:51 03.05.2020
3781 Clouds 21 1011 17 16093 8.7 180 13:51 03.05.2020
3782 Clouds 21 1011 17 16093 8.7 180 13:51 03.05.2020
3783 Clouds 21 1011 17 16093 8.7 180 13:18 03.05.2020
3784 Clouds 21 1011 17 16093 8.7 180 13:18 03.05.2020
3785 Clouds 22 1011 17 16093 7.2 180 12:43 03.05.2020
3786 Clouds 22 1011 17 16093 7.2 180 12:18 03.05.2020
3787 Clouds 23 1011 17 16093 9.3 190 11:55 03.05.2020
3788 Clouds 23 1011 17 16093 9.3 190 11:37 03.05.2020
3789 Clouds 23 1011 17 16093 9.3 190 11:18 03.05.2020
3790 Clouds 23 1012 16 16093 7.2 180 10:44 03.05.2020
3791 Clouds 23 1012 16 16093 7.2 180 10:44 03.05.2020
3792 Clouds 23 1012 16 16093 7.2 180 10:44 03.05.2020
3793 Clouds 23 1012 16 16093 7.2 180 10:44 03.05.2020
3794 Clouds 23 1012 16 16093 7.2 180 10:44 03.05.2020
3795 Clear 24 1012 15 16093 3.6 190 09:57 03.05.2020
3796 Clear 24 1012 15 16093 3.6 190 09:57 03.05.2020
3797 Clear 24 1012 15 16093 3.6 190 09:57 03.05.2020
3798 Clear 24 1012 15 16093 3.6 190 09:57 03.05.2020
3799 Clear 24 1012 15 16093 3.6 190 09:57 03.05.2020
3800 Clear 24 1012 15 16093 3.6 190 09:32 03.05.2020
3801 Clear 24 1012 15 16093 3.6 190 09:32 03.05.2020
3802 Clear 24 1012 15 16093 3.6 190 09:32 03.05.2020
3803 Clear 24 1012 15 16093 3.6 190 09:32 03.05.2020
3804 Clear 24 1012 15 16093 3.6 190 09:32 03.05.2020
3805 Clear 25 1012 13 16093 4.1 200 08:54 03.05.2020
3806 Clear 25 1012 13 16093 4.1 200 08:54 03.05.2020
3807 Clear 25 1012 13 16093 4.1 200 08:54 03.05.2020
3808 Clear 25 1012 13 16093 4.1 200 08:54 03.05.2020
3809 Clear 25 1012 13 16093 4.1 200 08:54 03.05.2020
3810 Clear 26 1012 13 16093 4.1 200 08:21 03.05.2020
3811 Clear 26 1012 13 16093 4.1 200 08:21 03.05.2020
3812 Clear 26 1012 13 16093 4.1 200 08:21 03.05.2020
3813 Clear 27 1012 12 16093 5.7 240 07:38 03.05.2020
3814 Clear 28 1012 13 16093 4.6 220 06:19 03.05.2020
3815 Clear 28 1012 13 16093 4.6 220 06:19 03.05.2020
3816 Clear 29 1011 13 16093 5.7 250 05:44 03.05.2020
3817 Clear 30 1010 11 16093 5.1 230 04:31 03.05.2020
3818 Clear 31 1010 10 16093 4.1 200 03:59 03.05.2020
3819 Clouds 32 1010 10 16093 5.1 190 02:53 03.05.2020
3820 Clouds 32 1010 10 16093 5.1 190 02:22 03.05.2020
3821 Clouds 33 1011 10 16093 2.1 0 01:42 03.05.2020
3822 Clouds 33 1011 10 16093 2.1 0 01:24 03.05.2020
3823 Clouds 32 1011 10 16093 3.6 150 00:41 03.05.2020
3824 Clouds 32 1011 10 16093 3.6 150 00:21 03.05.2020
3825 Clouds 32 1011 10 16093 3.6 150 00:21 03.05.2020
3826 Clouds 32 1012 10 16093 4.6 200 23:56 02.05.2020
3827 Clouds 32 1012 10 16093 4.6 200 23:56 02.05.2020
3828 Clouds 32 1012 10 16093 4.6 200 23:38 02.05.2020
3829 Clouds 32 1012 10 16093 4.6 200 23:19 02.05.2020
3830 Clouds 31 1013 11 16093 2.6 0 22:42 02.05.2020
3831 Clouds 31 1013 11 16093 2.6 0 22:23 02.05.2020
3832 Clouds 30 1014 14 16093 3.6 190 21:56 02.05.2020
3833 Clouds 29 1014 14 16093 3.6 190 21:37 02.05.2020
3834 Clouds 28 1014 14 16093 3.6 190 21:18 02.05.2020
3835 Clouds 28 1014 13 16093 2.1 160 20:55 02.05.2020
3836 Clouds 28 1014 13 16093 2.1 160 20:37 02.05.2020
3837 Clouds 28 1014 13 16093 2.1 160 20:18 02.05.2020
3838 Clouds 27 1013 13 16093 1.5 0 19:55 02.05.2020
3839 Clouds 27 1013 13 16093 1.5 0 19:36 02.05.2020
3840 Clouds 27 1013 13 16093 1.5 0 19:18 02.05.2020
3841 Clouds 25 1013 15 16093 3.1 170 18:40 02.05.2020
3842 Clouds 25 1013 15 16093 3.1 170 18:21 02.05.2020
3843 Clouds 23 1012 17 16093 3.6 190 17:57 02.05.2020
3844 Clouds 23 1012 17 16093 3.6 190 17:39 02.05.2020
3845 Clouds 23 1012 17 16093 3.6 190 17:20 02.05.2020
3846 Clouds 22 1012 18 16093 3.6 180 16:57 02.05.2020
3847 Clouds 22 1012 18 16093 3.6 180 16:38 02.05.2020
3848 Clouds 21 1012 18 16093 3.6 180 16:20 02.05.2020
3849 Clouds 21 1011 18 16093 2.6 180 15:42 02.05.2020
3850 Clouds 21 1011 18 16093 2.6 180 15:20 02.05.2020
3851 Clear 22 1010 16 16093 3.1 200 14:45 02.05.2020
3852 Clear 22 1010 16 16093 3.1 200 14:27 02.05.2020
3853 Clear 22 1009 17 16093 2.6 150 13:59 02.05.2020
3854 Clear 22 1009 17 16093 2.6 150 13:39 02.05.2020
3855 Clear 22 1009 17 16093 2.6 150 13:19 02.05.2020
3856 Clear 23 1009 18 16093 2.1 110 12:42 02.05.2020
3857 Clear 23 1009 18 16093 2.1 110 12:23 02.05.2020
3858 Clear 23 1010 19 16093 2.6 170 11:58 02.05.2020
3859 Clear 24 1010 19 16093 2.6 170 11:39 02.05.2020
3860 Clear 24 1010 19 16093 2.6 170 11:21 02.05.2020
3861 Clear 24 1010 15 16093 3.1 200 10:54 02.05.2020
3862 Clear 24 1010 15 16093 3.1 200 10:36 02.05.2020
3863 Clear 24 1010 15 16093 3.1 200 10:18 02.05.2020
3864 Clear 24 1010 15 16093 3.1 200 10:18 02.05.2020
3865 Clear 25 1009 16 16093 6.2 220 09:54 02.05.2020
3866 Clear 25 1009 16 16093 6.2 220 09:36 02.05.2020
3867 Clear 25 1009 16 16093 6.2 220 09:18 02.05.2020
3868 Clear 26 1010 14 16093 4.6 230 08:41 02.05.2020
3869 Clear 26 1010 14 16093 4.6 230 08:22 02.05.2020
3870 Clear 26 1010 13 16093 8.2 220 07:46 02.05.2020
3871 Clear 27 1010 13 16093 8.2 220 07:27 02.05.2020
3872 Clear 27 1010 13 16093 8.2 220 07:27 02.05.2020
3873 Clear 28 1008 9 16093 5.7 220 06:47 02.05.2020
3874 Clouds 29 1008 9 16093 6.7 230 05:28 02.05.2020
3875 Clouds 30 1008 9 16093 6.2 220 04:37 02.05.2020
3876 Clouds 31 1008 9 16093 7.7 250 03:59 02.05.2020
3877 Clouds 33 1008 10 16093 5.7 240 02:43 02.05.2020
3878 Clouds 33 1008 10 16093 6.2 220 01:59 02.05.2020
3879 Clouds 33 1008 10 16093 6.2 220 01:28 02.05.2020
3880 Clouds 34 1009 10 16093 5.1 220 00:44 02.05.2020
3881 Clouds 34 1009 10 16093 5.1 220 00:24 02.05.2020
3882 Clouds 34 1009 13 16093 5.7 210 23:56 01.05.2020
3883 Clouds 34 1009 13 16093 5.7 210 23:37 01.05.2020
3884 Clouds 33 1009 13 16093 5.7 210 23:18 01.05.2020
3885 Clouds 33 1010 14 16093 5.7 170 22:40 01.05.2020
3886 Clouds 33 1010 14 16093 5.7 170 22:21 01.05.2020
3887 Clouds 32 1010 13 16093 3.6 180 21:59 01.05.2020
3888 Clouds 32 1010 13 16093 3.6 180 21:41 01.05.2020
3889 Clouds 32 1010 13 16093 3.6 180 21:21 01.05.2020
3890 Clouds 32 1010 13 16093 3.6 180 21:21 01.05.2020
3891 Clouds 30 1011 16 16093 4.1 180 20:58 01.05.2020
3892 Clouds 30 1011 16 16093 4.1 180 20:58 01.05.2020
3893 Clouds 30 1011 16 16093 4.1 180 20:40 01.05.2020
3894 Clouds 30 1011 16 16093 4.1 180 20:20 01.05.2020
3895 Clouds 30 1011 16 16093 4.1 180 20:20 01.05.2020
3896 Clouds 29 1011 12 16093 4.1 200 19:58 01.05.2020
3897 Clouds 29 1011 12 16093 4.1 200 19:40 01.05.2020
3898 Clouds 28 1011 13 16093 4.1 200 19:20 01.05.2020
3899 Clear 27 1011 16 16093 3.57 204 18:56 01.05.2020
3900 Clear 26 1011 16 16093 3.57 204 18:37 01.05.2020
3901 Clear 26 1011 16 16093 3.06 204 18:19 01.05.2020
3902 Clear 25 1011 14 16093 3.6 230 17:40 01.05.2020
3903 Clear 24 1011 16 16093 3.6 230 17:22 01.05.2020
3904 Clear 23 1010 25 16093 3.1 180 16:57 01.05.2020
3905 Clear 23 1010 25 16093 3.1 180 16:39 01.05.2020
3906 Clear 23 1010 25 16093 3.1 180 16:20 01.05.2020
3907 Clouds 22 1009 24 16093 2.6 210 15:57 01.05.2020
3908 Clouds 22 1009 24 16093 2.6 210 15:57 01.05.2020
3909 Clouds 22 1009 24 16093 2.6 210 15:39 01.05.2020
3910 Clouds 22 1009 24 16093 2.6 210 15:19 01.05.2020
3911 Clouds 22 1009 24 16093 2.6 210 15:19 01.05.2020
3912 Clear 22 1009 23 16093 4.1 210 14:44 01.05.2020
3913 Clear 22 1009 23 16093 4.1 210 14:24 01.05.2020
3914 Clear 23 1008 20 16093 7.7 190 13:56 01.05.2020
3915 Clear 23 1008 20 16093 7.7 190 13:38 01.05.2020
3916 Clear 23 1008 20 16093 7.7 190 13:19 01.05.2020
3917 Clear 24 1008 19 16093 7.2 190 12:54 01.05.2020
3918 Clear 24 1008 19 16093 7.2 190 12:36 01.05.2020
3919 Clear 24 1008 19 16093 7.2 190 12:18 01.05.2020
3920 Clear 25 1008 15 16093 7.7 190 11:41 01.05.2020
3921 Clear 25 1008 15 16093 7.7 190 11:21 01.05.2020
3922 Clear 25 1008 15 16093 7.7 190 11:21 01.05.2020
3923 Clear 26 1008 14 16093 6.2 180 10:56 01.05.2020
3924 Clear 26 1008 14 16093 6.2 180 10:37 01.05.2020
3925 Clear 26 1008 14 16093 6.2 180 10:19 01.05.2020
3926 Clear 27 1008 13 16093 5.7 180 09:43 01.05.2020
3927 Clear 27 1008 13 16093 5.7 180 09:19 01.05.2020
3928 Clear 27 1009 15 16093 4.1 180 08:47 01.05.2020
3929 Clear 27 1009 15 16093 4.1 180 08:28 01.05.2020
3930 Clear 28 1009 12 16093 5.1 220 07:59 01.05.2020
3931 Clear 28 1009 12 16093 5.1 220 07:40 01.05.2020
3932 Clear 29 1009 12 16093 5.1 220 07:20 01.05.2020
3933 Clear 30 1008 14 16093 3.6 220 06:30 01.05.2020
3934 Clear 31 1008 14 16093 5.1 220 05:26 01.05.2020
3935 Clear 34 1008 10 16093 7.7 230 03:45 01.05.2020
3936 Clear 34 1008 11 16093 6.2 240 02:54 01.05.2020
3937 Clear 35 1008 11 16093 6.2 240 02:35 01.05.2020
3938 Clouds 35 1008 11 16093 6.2 240 01:53 01.05.2020
3939 Clouds 35 1008 11 16093 6.2 240 01:27 01.05.2020
3940 Clouds 35 1009 11 16093 7.7 230 00:40 01.05.2020
3941 Clouds 35 1009 11 16093 7.7 230 00:21 01.05.2020
3942 Clouds 36 1009 9 16093 6.2 230 23:57 30.04.2020
3943 Clouds 36 1009 9 16093 6.2 230 23:39 30.04.2020
3944 Clouds 36 1009 9 16093 6.2 230 23:21 30.04.2020
3945 Clouds 35 1010 12 16093 7.2 180 22:57 30.04.2020
3946 Clouds 35 1010 12 16093 7.2 180 22:38 30.04.2020
3947 Clouds 35 1010 12 16093 7.2 180 22:18 30.04.2020
3948 Clouds 34 1011 13 16093 6.2 200 21:42 30.04.2020
3949 Clouds 33 1011 13 16093 6.2 200 21:23 30.04.2020
3950 Clouds 32 1011 15 16093 6.2 200 20:58 30.04.2020
3951 Clouds 32 1011 15 16093 6.2 200 20:40 30.04.2020
3952 Clouds 31 1011 15 16093 6.2 200 20:18 30.04.2020
3953 Clouds 30 1012 18 16093 4.1 190 19:46 30.04.2020
3954 Clouds 30 1012 18 16093 4.1 190 19:26 30.04.2020
3955 Clouds 29 1011 20 16093 4.6 190 18:59 30.04.2020
3956 Clouds 29 1011 20 16093 4.6 190 18:39 30.04.2020
3957 Clouds 29 1011 20 16093 4.6 190 18:21 30.04.2020
3958 Clouds 28 1012 21 16093 4.6 200 17:58 30.04.2020
3959 Clouds 28 1012 21 16093 4.6 200 17:39 30.04.2020
3960 Clouds 27 1012 21 16093 4.6 200 17:20 30.04.2020
3961 Clouds 27 1011 22 16093 5.1 190 16:56 30.04.2020
3962 Clouds 27 1011 22 16093 5.1 190 16:38 30.04.2020
3963 Clouds 27 1011 22 16093 5.1 190 16:18 30.04.2020
3964 Clouds 26 1011 21 16093 6.2 200 15:45 30.04.2020
3965 Clouds 26 1011 21 16093 6.2 200 15:24 30.04.2020
3966 Clouds 27 1011 21 16093 5.1 190 14:54 30.04.2020
3967 Clouds 27 1011 21 16093 5.1 190 14:36 30.04.2020
3968 Clouds 27 1011 21 16093 5.1 190 14:18 30.04.2020
3969 Clouds 27 1011 20 16093 3.1 200 13:54 30.04.2020
3970 Clouds 27 1011 20 16093 3.1 200 13:36 30.04.2020
3971 Clouds 27 1011 20 16093 3.1 200 13:18 30.04.2020
3972 Clouds 27 1011 20 16093 3.1 210 12:41 30.04.2020
3973 Clouds 28 1011 20 16093 3.1 210 12:19 30.04.2020
3974 Clouds 28 1011 18 16093 2.6 170 11:54 30.04.2020
3975 Clouds 28 1011 18 16093 2.6 170 11:36 30.04.2020
3976 Clouds 28 1011 18 16093 2.6 170 11:18 30.04.2020
3977 Clouds 29 1012 17 16093 2.6 190 10:40 30.04.2020
3978 Clouds 29 1012 17 16093 2.6 190 10:21 30.04.2020
3979 Clouds 29 1012 15 16093 2.1 200 09:57 30.04.2020
3980 Clouds 29 1012 15 16093 2.1 200 09:38 30.04.2020
3981 Clouds 29 1012 15 16093 2.1 200 09:20 30.04.2020
3982 Clouds 30 1012 14 16093 1.5 240 08:45 30.04.2020
3983 Clouds 30 1012 14 16093 1.5 240 08:45 30.04.2020
3984 Clouds 30 1012 14 16093 1.5 240 08:26 30.04.2020
3985 Clouds 31 1012 12 16093 2.1 190 07:44 30.04.2020
3986 Clouds 31 1012 12 16093 2.1 190 07:25 30.04.2020
3987 Clouds 32 1012 11 16093 2.6 210 06:53 30.04.2020
3988 Clouds 32 1012 11 16093 2.6 210 06:19 30.04.2020
3989 Clouds 33 1011 12 16093 4.18 227 05:45 30.04.2020
3990 Clouds 34 1011 11 16093 4.6 140 04:43 30.04.2020
3991 Clouds 35 1011 11 16093 4.6 140 04:19 30.04.2020
3992 Clouds 36 1012 11 16093 4.1 70 02:48 30.04.2020
3993 Clouds 37 1012 11 16093 4.1 70 02:26 30.04.2020
3994 Clouds 37 1012 12 16093 4.1 140 01:36 30.04.2020
3995 Clouds 36 1013 12 16093 1.5 0 00:42 30.04.2020
3996 Clouds 36 1013 12 16093 1.5 0 00:20 30.04.2020
3997 Clouds 36 1015 12 16093 2.6 100 23:57 29.04.2020
3998 Clouds 36 1015 12 16093 2.6 100 23:37 29.04.2020
3999 Clouds 35 1015 12 16093 2.6 100 23:19 29.04.2020
4000 Clouds 34 1016 14 16093 1.5 20 22:41 29.04.2020
4001 Clouds 34 1016 14 16093 1.5 20 22:22 29.04.2020
4002 Clouds 34 1017 15 16093 1.14 113 21:59 29.04.2020
4003 Clouds 34 1017 15 16093 1.14 113 21:37 29.04.2020
4004 Clouds 33 1017 15 16093 1.14 75 21:19 29.04.2020
4005 Clouds 32 1017 15 16093 1.5 0 20:56 29.04.2020
4006 Clouds 32 1017 15 16093 1.5 0 20:37 29.04.2020
4007 Clouds 32 1017 15 16093 1.5 0 20:18 29.04.2020
4008 Clouds 31 1018 19 16093 1.5 0 19:43 29.04.2020
4009 Clouds 31 1018 19 16093 1.5 0 19:22 29.04.2020
4010 Clouds 29 1018 21 16093 1.66 53 18:57 29.04.2020
4011 Clouds 29 1018 21 16093 1.66 53 18:38 29.04.2020
4012 Clouds 28 1018 21 16093 1.7 50 18:18 29.04.2020
4013 Clouds 27 1018 22 16093 1.5 40 17:41 29.04.2020
4014 Clouds 27 1018 22 16093 1.5 40 17:21 29.04.2020
4015 Clouds 24 1017 29 16093 1.27 3 16:40 29.04.2020
4016 Clouds 24 1017 29 16093 1.27 3 16:40 29.04.2020
4017 Clouds 23 1017 29 16093 1.09 7 16:20 29.04.2020
4018 Clear 22 1017 28 16093 1.5 230 15:58 29.04.2020
4019 Clear 22 1017 28 16093 1.5 230 15:58 29.04.2020
4020 Clear 22 1017 28 16093 1.5 230 15:40 29.04.2020
4021 Clear 22 1017 28 16093 1.5 230 15:21 29.04.2020
4022 Clear 23 1016 28 16093 2.1 220 14:59 29.04.2020
4023 Clear 22 1016 28 16093 2.1 220 14:41 29.04.2020
4024 Clear 22 1016 28 16093 2.1 220 14:22 29.04.2020
4025 Clear 23 1016 27 16093 2.1 240 13:55 29.04.2020
4026 Clear 23 1016 27 16093 2.1 240 13:37 29.04.2020
4027 Clear 23 1016 27 16093 2.1 240 13:18 29.04.2020
4028 Clear 23 1016 25 16093 1.5 260 12:40 29.04.2020
4029 Clear 24 1016 25 16093 1.5 260 12:19 29.04.2020
4030 Clear 24 1016 23 16093 2.6 210 11:58 29.04.2020
4031 Clear 24 1016 23 16093 2.6 210 11:36 29.04.2020
4032 Clear 24 1016 23 16093 2.6 210 11:18 29.04.2020
4033 Clear 25 1016 22 16093 3.1 300 10:37 29.04.2020
4034 Clear 25 1016 22 16093 3.1 300 10:19 29.04.2020
4035 Clear 26 1016 21 16093 2.6 270 09:57 29.04.2020
4036 Clear 26 1016 21 16093 2.6 270 09:38 29.04.2020
4037 Clear 26 1016 21 16093 2.6 270 09:18 29.04.2020
4038 Clear 27 1016 20 16093 2.1 250 08:43 29.04.2020
4039 Clear 27 1016 20 16093 2.1 250 08:24 29.04.2020
4040 Clear 27 1016 18 16093 2.6 290 07:48 29.04.2020
4041 Clear 27 1016 18 16093 2.6 290 07:25 29.04.2020
4042 Clear 29 1016 14 16093 2.1 110 06:52 29.04.2020
4043 Clear 29 1016 14 16093 2.1 110 06:31 29.04.2020
4044 Clear 31 1015 13 16093 2.6 110 05:22 29.04.2020
4045 Clouds 32 1015 12 16093 1.68 109 04:47 29.04.2020
4046 Clouds 32 1015 12 16093 2.15 93 04:19 29.04.2020
4047 Clouds 35 1015 11 16093 2.6 150 02:50 29.04.2020
4048 Clouds 35 1015 11 16093 3.1 80 01:45 29.04.2020
4049 Clouds 35 1015 11 16093 3.1 80 01:26 29.04.2020
4050 Clouds 35 1016 12 16093 2.1 340 00:50 29.04.2020
4051 Clouds 35 1016 12 16093 2.1 340 00:20 29.04.2020
4052 Clouds 35 1017 12 16093 3.1 0 23:56 28.04.2020
4053 Clouds 35 1017 12 16093 3.1 0 23:37 28.04.2020
4054 Clouds 35 1017 12 16093 3.1 0 23:18 28.04.2020
4055 Clouds 34 1017 12 16093 1.5 0 22:38 28.04.2020
4056 Clouds 34 1017 12 16093 1.5 0 22:38 28.04.2020
4057 Clouds 34 1017 13 16093 1.5 0 22:19 28.04.2020
4058 Clouds 33 1018 13 16093 4.1 20 21:57 28.04.2020
4059 Clouds 33 1018 13 16093 4.1 20 21:39 28.04.2020
4060 Clouds 33 1018 13 16093 4.1 20 21:21 28.04.2020
4061 Clouds 32 1018 13 16093 1.5 0 20:55 28.04.2020
4062 Clouds 32 1018 13 16093 1.5 0 20:37 28.04.2020
4063 Clouds 32 1018 13 16093 1.5 0 20:19 28.04.2020
4064 Clouds 31 1018 14 16093 3.6 50 19:43 28.04.2020
4065 Clouds 31 1018 14 16093 3.6 50 19:43 28.04.2020
4066 Clouds 30 1018 14 16093 3.6 50 19:22 28.04.2020
4067 Clouds 29 1018 17 16093 3.1 360 18:59 28.04.2020
4068 Clouds 28 1018 17 16093 3.1 360 18:41 28.04.2020
4069 Clouds 28 1018 17 16093 3.1 360 18:20 28.04.2020
4070 Clouds 26 1018 22 16093 4.02 19 17:58 28.04.2020
4071 Clouds 25 1018 22 16093 4.02 19 17:37 28.04.2020
4072 Clouds 25 1018 22 16093 2.15 355 17:18 28.04.2020
4073 Clouds 23 1017 22 16093 1.5 20 16:43 28.04.2020
4074 Clouds 23 1017 22 16093 1.5 20 16:24 28.04.2020
4075 Clouds 21 1016 20 16093 2.1 220 15:58 28.04.2020
4076 Clouds 21 1016 20 16093 2.1 220 15:39 28.04.2020
4077 Clouds 21 1016 20 16093 2.1 220 15:21 28.04.2020
4078 Clouds 22 1015 20 16093 1.5 120 14:59 28.04.2020
4079 Clouds 22 1015 20 16093 1.5 120 14:41 28.04.2020
4080 Clouds 22 1015 20 16093 1.5 120 14:21 28.04.2020
4081 Clouds 23 1015 19 16093 2.6 220 13:58 28.04.2020
4082 Clouds 24 1015 19 16093 2.6 220 13:38 28.04.2020
4083 Clouds 24 1015 19 16093 2.6 220 13:19 28.04.2020
4084 Clouds 24 1015 19 16093 2.6 220 13:19 28.04.2020
4085 Clouds 23 1014 19 16093 1.5 210 12:46 28.04.2020
4086 Clouds 23 1014 19 16093 1.5 210 12:25 28.04.2020
4087 Clouds 24 1014 19 16093 3.6 180 11:46 28.04.2020
4088 Clouds 24 1014 18 16093 3.6 180 11:26 28.04.2020
4089 Clouds 25 1014 16 16093 2.1 200 11:00 28.04.2020
4090 Clouds 25 1014 16 16093 2.1 200 10:39 28.04.2020
4091 Clouds 25 1014 16 16093 2.1 200 10:19 28.04.2020
4092 Clouds 26 1014 15 16093 2.1 210 09:58 28.04.2020
4093 Clouds 26 1014 15 16093 2.1 210 09:39 28.04.2020
4094 Clouds 26 1014 15 16093 2.1 210 09:20 28.04.2020
4095 Clouds 26 1013 15 16093 1.5 190 08:46 28.04.2020
4096 Clouds 26 1013 15 16093 1.5 190 08:26 28.04.2020
4097 Clouds 28 1013 14 16093 2.6 230 07:45 28.04.2020
4098 Clouds 28 1013 14 16093 2.6 230 07:20 28.04.2020
4099 Clouds 29 1013 12 16093 3.6 230 06:54 28.04.2020
4100 Clouds 29 1013 12 16093 3.6 230 06:22 28.04.2020
4101 Clouds 30 1012 11 16093 3.1 220 05:41 28.04.2020
4102 Clouds 31 1012 11 16093 3.1 220 05:20 28.04.2020
4103 Clouds 32 1012 11 16093 2.6 220 04:27 28.04.2020
4104 Clouds 34 1012 7 16093 2.1 0 02:34 28.04.2020
4105 Clouds 33 1012 9 16093 2.1 270 01:23 28.04.2020
4106 Clouds 34 1013 8 16093 2.6 360 00:56 28.04.2020
4107 Clouds 34 1013 8 16093 2.6 360 00:23 28.04.2020
4108 Clouds 33 1013 8 16093 1.5 340 23:47 27.04.2020
4109 Clouds 33 1013 8 16093 1.5 340 23:24 27.04.2020
4110 Clouds 33 1014 10 16093 0.92 170 22:55 27.04.2020
4111 Clouds 32 1014 10 16093 1.72 207 22:37 27.04.2020
4112 Clouds 32 1014 10 16093 0.93 192 22:19 27.04.2020
4113 Clouds 32 1014 14 16093 2.1 0 21:56 27.04.2020
4114 Clouds 31 1014 14 16093 2.1 0 21:38 27.04.2020
4115 Clouds 31 1014 14 16093 2.1 0 21:18 27.04.2020
4116 Clouds 30 1014 16 16093 0.5 178 20:43 27.04.2020
4117 Clouds 30 1014 16 16093 0.46 173 20:22 27.04.2020
4118 Clouds 30 1014 16 16093 0.46 173 20:22 27.04.2020
4119 Clear 29 1014 15 16093 3.1 310 19:58 27.04.2020
4120 Clear 29 1014 15 16093 3.1 310 19:39 27.04.2020
4121 Clear 28 1014 15 16093 3.1 310 19:20 27.04.2020
4122 Clear 27 1014 12 16093 1.5 330 18:58 27.04.2020
4123 Clear 26 1014 12 16093 1.5 330 18:40 27.04.2020
4124 Clear 26 1014 13 16093 1.5 330 18:19 27.04.2020
4125 Clear 26 1014 13 16093 1.5 330 18:19 27.04.2020
4126 Clear 24 1014 19 16093 2.1 170 17:43 27.04.2020
4127 Clear 24 1014 19 16093 2.1 170 17:24 27.04.2020
4128 Clouds 23 1013 19 16093 1.5 290 16:58 27.04.2020
4129 Clouds 22 1013 19 16093 1.5 290 16:39 27.04.2020
4130 Clouds 22 1013 19 16093 1.5 290 16:39 27.04.2020
4131 Clouds 21 1013 19 16093 1.5 290 16:21 27.04.2020
4132 Clouds 20 1012 22 16093 1.5 210 15:56 27.04.2020
4133 Clouds 20 1012 22 16093 1.5 210 15:38 27.04.2020
4134 Clouds 20 1012 22 16093 1.5 210 15:18 27.04.2020
4135 Clear 21 1012 21 16093 2.1 300 14:42 27.04.2020
4136 Clear 21 1012 21 16093 2.1 300 14:23 27.04.2020
4137 Clear 22 1012 20 16093 2.6 210 13:59 27.04.2020
4138 Clear 22 1012 20 16093 2.6 210 13:59 27.04.2020
4139 Clear 22 1012 20 16093 2.6 210 13:41 27.04.2020
4140 Clear 22 1012 20 16093 2.6 210 13:20 27.04.2020
4141 Clouds 22 1012 23 16093 4.1 190 12:56 27.04.2020
4142 Clouds 23 1012 23 16093 4.1 190 12:38 27.04.2020
4143 Clouds 23 1012 23 16093 4.1 190 12:18 27.04.2020
4144 Clouds 24 1012 15 16093 2.1 240 11:41 27.04.2020
4145 Clouds 24 1012 15 16093 2.1 240 11:19 27.04.2020
4146 Clouds 24 1012 13 16093 3.1 210 10:56 27.04.2020
4147 Clouds 25 1012 13 16093 3.1 210 10:38 27.04.2020
4148 Clouds 25 1012 13 16093 3.1 210 10:19 27.04.2020
4149 Clouds 25 1012 13 16093 5.7 220 09:43 27.04.2020
4150 Clouds 26 1012 13 16093 5.7 220 09:18 27.04.2020
4151 Clouds 26 1012 14 16093 4.6 230 08:53 27.04.2020
4152 Clouds 27 1012 14 16093 4.6 230 08:34 27.04.2020
4153 Clouds 28 1012 14 16093 1.5 200 07:58 27.04.2020
4154 Clouds 28 1012 14 16093 1.5 200 07:40 27.04.2020
4155 Clouds 27 1012 14 16093 1.5 200 07:19 27.04.2020
4156 Clouds 28 1012 12 16093 2.1 220 06:40 27.04.2020
4157 Clouds 28 1012 12 16093 2.1 220 06:21 27.04.2020
4158 Clouds 29 1011 10 16093 2.6 240 05:48 27.04.2020
4159 Clouds 30 1011 9 16093 6.2 270 04:41 27.04.2020
4160 Clouds 31 1011 10 16093 6.2 290 03:49 27.04.2020
4161 Clouds 33 1011 10 16093 1.5 0 02:41 27.04.2020
4162 Clouds 33 1012 10 16093 1.5 0 01:23 27.04.2020
4163 Clouds 33 1012 9 16093 2.1 20 00:46 27.04.2020
4164 Clouds 33 1012 10 16093 2.1 20 00:19 27.04.2020
4165 Clouds 33 1013 10 16093 2.1 30 23:55 26.04.2020
4166 Clouds 33 1013 10 16093 2.1 30 23:37 26.04.2020
4167 Clouds 32 1013 10 16093 2.1 30 23:18 26.04.2020
4168 Clouds 32 1013 15 16093 2.6 50 22:55 26.04.2020
4169 Clouds 32 1013 15 16093 2.6 50 22:55 26.04.2020
4170 Clouds 32 1013 15 16093 2.6 50 22:37 26.04.2020
4171 Clouds 31 1013 15 16093 2.6 50 22:18 26.04.2020
4172 Clouds 30 1014 17 16093 4.99 241 21:55 26.04.2020
4173 Clouds 30 1014 17 16093 4.99 241 21:37 26.04.2020
4174 Clouds 30 1014 17 16093 6.41 237 21:37 26.04.2020
4175 Clouds 30 1014 17 16093 5.87 241 21:18 26.04.2020
4176 Clouds 29 1014 21 16093 2.6 320 20:39 26.04.2020
4177 Clouds 29 1014 21 16093 2.6 320 20:20 26.04.2020
4178 Clouds 28 1014 21 16093 1.5 340 19:59 26.04.2020
4179 Clouds 28 1014 21 16093 1.5 340 19:38 26.04.2020
4180 Clouds 28 1014 21 16093 1.5 340 19:19 26.04.2020
4181 Clouds 27 1014 20 16093 2.6 230 18:44 26.04.2020
4182 Clouds 26 1014 20 16093 2.6 230 18:25 26.04.2020
4183 Clouds 25 1013 29 16093 3.1 210 17:56 26.04.2020
4184 Clouds 25 1013 29 16093 3.1 210 17:38 26.04.2020
4185 Clouds 24 1013 29 16093 3.1 210 17:18 26.04.2020
4186 Clouds 24 1013 33 16093 3.1 210 16:40 26.04.2020
4187 Clouds 23 1013 33 16093 3.1 210 16:22 26.04.2020
4188 Clouds 23 1013 31 16093 4.6 210 15:59 26.04.2020
4189 Clouds 23 1013 31 16093 4.6 210 15:40 26.04.2020
4190 Clouds 23 1013 31 16093 4.6 210 15:40 26.04.2020
4191 Clouds 24 1013 31 16093 4.6 210 15:21 26.04.2020
4192 Clouds 23 1013 28 16093 3.18 218 14:56 26.04.2020
4193 Clouds 24 1013 28 16093 3.34 215 14:38 26.04.2020
4194 Clouds 23 1013 28 16093 3.34 215 14:18 26.04.2020
4195 Clouds 24 1013 25 16093 3.34 215 13:54 26.04.2020
4196 Clouds 24 1013 25 16093 3.34 215 13:36 26.04.2020
4197 Clouds 24 1013 25 16093 3.34 215 13:18 26.04.2020
4198 Clouds 23 1013 25 16093 3.34 215 12:40 26.04.2020
4199 Clouds 24 1013 25 16093 1.88 200 12:21 26.04.2020
4200 Clouds 24 1013 25 16093 1.88 200 11:59 26.04.2020
4201 Clouds 24 1013 25 16093 1.88 200 11:40 26.04.2020
4202 Clouds 24 1013 25 16093 1.88 200 11:21 26.04.2020
4203 Clouds 24 1014 22 16093 1.5 260 10:56 26.04.2020
4204 Clouds 24 1014 22 16093 1.5 260 10:56 26.04.2020
4205 Clouds 24 1014 22 16093 1.5 260 10:37 26.04.2020
4206 Clouds 23 1014 22 16093 1.5 260 10:18 26.04.2020
4207 Clouds 24 1014 22 16093 1.5 220 09:40 26.04.2020
4208 Clouds 24 1014 22 16093 1.5 220 09:21 26.04.2020
4209 Clouds 24 1014 19 16093 0.93 120 08:56 26.04.2020
4210 Clouds 25 1014 19 16093 0.93 120 08:37 26.04.2020
4211 Clouds 25 1014 19 16093 0.93 120 08:18 26.04.2020
4212 Clouds 25 1015 17 16093 1.5 90 07:46 26.04.2020
4213 Clouds 25 1015 17 16093 1.5 90 07:21 26.04.2020
4214 Clouds 26 1014 19 16093 2.1 70 06:43 26.04.2020
4215 Clouds 27 1014 13 16093 3.6 40 05:57 26.04.2020
4216 Clouds 28 1014 13 16093 3.6 40 05:38 26.04.2020
4217 Clouds 29 1014 12 16093 4.6 80 04:56 26.04.2020
4218 Clouds 30 1014 12 16093 4.6 80 04:22 26.04.2020
4219 Clouds 32 1014 11 16093 2.6 80 02:47 26.04.2020
4220 Clouds 32 1014 11 16093 2.6 80 02:28 26.04.2020
4221 Clouds 32 1015 11 16093 3.1 60 01:46 26.04.2020
4222 Clouds 32 1015 11 16093 3.1 60 01:25 26.04.2020
4223 Clouds 32 1016 11 16093 2.6 0 00:39 26.04.2020
4224 Clouds 31 1016 11 16093 2.6 0 00:19 26.04.2020
4225 Clouds 31 1017 12 16093 3.1 60 23:39 25.04.2020
4226 Clouds 31 1017 12 16093 3.1 60 23:20 25.04.2020
4227 Clouds 30 1018 12 16093 1.5 0 22:57 25.04.2020
4228 Clouds 30 1018 12 16093 1.5 0 22:39 25.04.2020
4229 Clouds 30 1018 12 16093 1.5 0 22:19 25.04.2020
4230 Clouds 29 1019 14 16093 2.1 0 21:40 25.04.2020
4231 Clouds 29 1019 14 16093 2.1 0 21:20 25.04.2020
4232 Clouds 29 1019 14 16093 2.1 0 21:20 25.04.2020
4233 Clouds 27 1020 15 16093 2.1 0 20:58 25.04.2020
4234 Clouds 27 1020 15 16093 2.1 0 20:40 25.04.2020
4235 Clouds 28 1020 15 16093 2.1 0 20:21 25.04.2020
4236 Clouds 27 1020 14 16093 2.1 0 19:42 25.04.2020
4237 Clouds 27 1020 14 16093 2.1 0 19:23 25.04.2020
4238 Clouds 25 1020 14 16093 2.57 48 18:59 25.04.2020
4239 Clouds 25 1020 14 16093 2.57 48 18:39 25.04.2020
4240 Clouds 25 1020 18 16093 2.09 18 18:21 25.04.2020
4241 Clouds 24 1019 23 16093 2.09 18 17:58 25.04.2020
4242 Clouds 24 1019 23 16093 2.09 18 17:58 25.04.2020
4243 Clouds 23 1019 23 16093 2.09 18 17:38 25.04.2020
4244 Clouds 22 1019 23 16093 2.09 18 17:19 25.04.2020
4245 Clouds 21 1019 28 16093 1.5 210 16:55 25.04.2020
4246 Clouds 20 1019 28 16093 1.5 210 16:37 25.04.2020
4247 Clouds 19 1019 28 16093 1.5 210 16:18 25.04.2020
4248 Clouds 19 1018 18 16093 3.1 220 15:41 25.04.2020
4249 Clouds 18 1018 20 16093 3.1 220 15:20 25.04.2020
4250 Clouds 19 1018 20 16093 2.27 2 14:58 25.04.2020
4251 Clouds 19 1018 20 16093 2.27 2 14:58 25.04.2020
4252 Clouds 19 1018 20 16093 2.27 2 14:58 25.04.2020
4253 Clouds 19 1018 20 16093 2.27 2 14:39 25.04.2020
4254 Clouds 19 1018 22 16093 2.28 4 14:20 25.04.2020
4255 Clouds 19 1017 21 16093 2.1 30 13:43 25.04.2020
4256 Clouds 20 1017 21 16093 2.1 30 13:20 25.04.2020
4257 Clouds 19 1017 22 16093 2.28 4 12:58 25.04.2020
4258 Clouds 19 1017 22 16093 2.28 4 12:40 25.04.2020
4259 Clouds 19 1017 20 16093 1.7 350 12:21 25.04.2020
4260 Clear 19 1016 28 16093 2.6 210 11:57 25.04.2020
4261 Clear 20 1016 28 16093 2.6 210 11:39 25.04.2020
4262 Clear 20 1016 28 16093 2.6 210 11:20 25.04.2020
4263 Clear 20 1016 24 16093 2.6 240 10:43 25.04.2020
4264 Clear 20 1016 24 16093 2.6 240 10:23 25.04.2020
4265 Clear 21 1016 20 16093 2.1 280 09:48 25.04.2020
4266 Clear 20 1016 21 16093 2.1 280 09:29 25.04.2020
4267 Clear 22 1016 23 16093 2.1 250 08:58 25.04.2020
4268 Clear 22 1016 23 16093 2.1 250 08:40 25.04.2020
4269 Clear 22 1016 23 16093 2.1 250 08:21 25.04.2020
4270 Clear 22 1016 22 16093 1.5 320 07:58 25.04.2020
4271 Clear 23 1016 22 16093 1.5 320 07:39 25.04.2020
4272 Clouds 24 1015 14 16093 2.1 90 06:48 25.04.2020
4273 Clouds 24 1015 14 16093 2.1 90 06:30 25.04.2020
4274 Clouds 25 1015 14 16093 3.6 100 05:40 25.04.2020
4275 Clouds 26 1015 14 16093 3.6 100 05:19 25.04.2020
4276 Clouds 29 1015 10 16093 0.88 33 02:59 25.04.2020
4277 Clouds 29 1015 10 16093 1.21 52 02:21 25.04.2020
4278 Clouds 29 1016 10 16093 2.1 50 01:54 25.04.2020
4279 Clouds 29 1016 10 16093 2.1 50 01:34 25.04.2020
4280 Clouds 29 1016 11 16093 1.21 52 00:58 25.04.2020
4281 Clouds 29 1016 11 16093 1.21 52 00:34 25.04.2020
4282 Clear 29 1017 12 16093 3.73 29 23:45 24.04.2020
4283 Clear 28 1017 12 16093 3.73 29 23:27 24.04.2020
4284 Clear 27 1018 12 16093 3.73 29 23:00 24.04.2020
4285 Clear 27 1018 12 16093 3.73 29 22:39 24.04.2020
4286 Clear 27 1018 12 16093 3.73 29 22:19 24.04.2020
4287 Clear 28 1019 12 16093 5.1 70 21:56 24.04.2020
4288 Clear 28 1019 12 16093 5.1 70 21:37 24.04.2020
4289 Clear 27 1019 12 16093 5.1 70 21:19 24.04.2020
4290 Clear 27 1019 11 16093 5.7 60 20:56 24.04.2020
4291 Clear 27 1019 11 16093 5.7 60 20:56 24.04.2020
4292 Clear 26 1019 11 16093 5.7 60 20:37 24.04.2020
4293 Clear 27 1019 11 16093 5.7 60 20:18 24.04.2020
4294 Clear 25 1020 12 16093 7.2 40 19:40 24.04.2020
4295 Clear 25 1020 12 16093 7.2 40 19:21 24.04.2020
4296 Clear 24 1020 14 16093 5.1 50 18:45 24.04.2020
4297 Clear 24 1020 14 16093 5.1 50 18:27 24.04.2020
4298 Clear 23 1019 15 16093 6.7 40 17:58 24.04.2020
4299 Clear 23 1019 15 16093 6.7 40 17:58 24.04.2020
4300 Clear 22 1019 15 16093 6.7 40 17:38 24.04.2020
4301 Clear 22 1019 15 16093 6.7 40 17:19 24.04.2020
4302 Clear 21 1018 17 16093 4.6 50 16:58 24.04.2020
4303 Clear 21 1018 17 16093 4.6 50 16:40 24.04.2020
4304 Clear 21 1018 17 16093 4.6 50 16:21 24.04.2020
4305 Clear 20 1017 17 16093 5.1 350 15:42 24.04.2020
4306 Clear 20 1017 17 16093 5.1 350 15:21 24.04.2020
4307 Clear 20 1016 16 16093 5.1 30 14:57 24.04.2020
4308 Clear 21 1016 16 16093 5.1 30 14:38 24.04.2020
4309 Clear 21 1016 16 16093 5.1 30 14:19 24.04.2020
4310 Clear 21 1016 16 16093 5.1 30 14:19 24.04.2020
4311 Clouds 21 1016 17 16093 4.1 60 13:41 24.04.2020
4312 Clouds 21 1016 17 16093 4.1 60 13:41 24.04.2020
4313 Clouds 21 1016 17 16093 4.1 60 13:21 24.04.2020
4314 Clouds 21 1015 18 16093 2.1 180 12:58 24.04.2020
4315 Clouds 21 1015 18 16093 2.1 180 12:40 24.04.2020
4316 Clouds 22 1015 18 16093 2.1 180 12:20 24.04.2020
4317 Clouds 22 1015 12 16093 6.2 340 11:44 24.04.2020
4318 Clouds 23 1015 12 16093 6.2 340 11:23 24.04.2020
4319 Clear 23 1014 14 16093 4.1 330 10:59 24.04.2020
4320 Clouds 24 1014 11 16093 4.6 330 10:38 24.04.2020
4321 Clear 23 1014 14 16093 4.1 330 10:20 24.04.2020
4322 Clear 24 1014 11 16093 6.7 320 09:57 24.04.2020
4323 Clear 23 1014 13 16093 6.7 310 09:37 24.04.2020
4324 Clear 24 1014 11 16093 6.7 320 09:19 24.04.2020
4325 Clear 24 1013 12 16093 5.1 310 08:42 24.04.2020
4326 Clear 25 1013 12 16093 5.1 310 08:20 24.04.2020
4327 Clear 25 1013 13 16093 6.7 330 07:56 24.04.2020
4328 Clear 25 1013 13 16093 6.7 330 07:38 24.04.2020
4329 Clear 25 1013 13 16093 6.7 330 07:20 24.04.2020
4330 Clear 25 1013 14 16093 3.6 320 06:43 24.04.2020
4331 Clouds 26 1012 13 16093 5.7 320 05:51 24.04.2020
4332 Clouds 27 1012 13 16093 5.7 320 05:20 24.04.2020
4333 Clouds 30 1012 10 16093 9.8 350 03:39 24.04.2020
4334 Clouds 30 1012 10 16093 8.7 340 02:50 24.04.2020
4335 Clouds 30 1012 10 16093 8.7 340 02:30 24.04.2020
4336 Clouds 31 1012 9 16093 9.8 360 01:46 24.04.2020
4337 Clouds 31 1013 8 16093 6.7 360 00:50 24.04.2020
4338 Clouds 31 1013 8 16093 6.7 360 00:19 24.04.2020
4339 Clouds 31 1014 8 16093 6.7 350 23:46 23.04.2020
4340 Clouds 31 1014 8 16093 6.7 350 23:27 23.04.2020
4341 Clouds 31 1015 10 16093 7.7 20 22:57 23.04.2020
4342 Clouds 30 1015 10 16093 7.7 20 22:39 23.04.2020
4343 Clouds 31 1015 10 16093 7.7 20 22:19 23.04.2020
4344 Clouds 30 1016 11 16093 10.3 360 21:57 23.04.2020
4345 Clouds 29 1016 11 16093 10.3 360 21:39 23.04.2020
4346 Clouds 29 1016 11 16093 10.3 360 21:20 23.04.2020
4347 Clouds 28 1017 12 16093 10.3 330 20:56 23.04.2020
4348 Clouds 28 1017 12 16093 10.3 330 20:37 23.04.2020
4349 Clouds 29 1017 12 16093 10.3 330 20:18 23.04.2020
4350 Clouds 28 1017 17 16093 9.3 350 19:55 23.04.2020
4351 Clouds 28 1017 17 16093 9.3 350 19:37 23.04.2020
4352 Clouds 28 1017 17 16093 9.3 350 19:19 23.04.2020
4353 Clouds 26 1017 19 16093 9.3 350 18:40 23.04.2020
4354 Clouds 26 1017 19 16093 9.3 350 18:22 23.04.2020
4355 Clouds 25 1017 22 16093 9.3 350 17:57 23.04.2020
4356 Clouds 24 1017 25 16093 3.1 290 17:39 23.04.2020
4357 Clouds 24 1017 25 16093 3.1 290 17:20 23.04.2020
4358 Clouds 22 1017 26 16093 3.6 280 16:44 23.04.2020
4359 Clouds 22 1017 26 16093 3.6 280 16:44 23.04.2020
4360 Clouds 21 1017 26 16093 3.6 280 16:21 23.04.2020
4361 Clouds 20 1016 32 16093 2.1 230 15:59 23.04.2020
4362 Clouds 20 1016 32 16093 2.1 230 15:40 23.04.2020
4363 Clouds 20 1016 32 16093 2.1 230 15:21 23.04.2020
4364 Clouds 20 1016 28 16093 2.6 210 14:41 23.04.2020
4365 Clouds 20 1016 28 16093 2.6 210 14:22 23.04.2020
4366 Clouds 20 1016 26 16093 2.6 190 13:59 23.04.2020
4367 Clouds 20 1016 26 16093 2.6 190 13:40 23.04.2020
4368 Clouds 20 1016 26 16093 2.6 190 13:22 23.04.2020
4369 Clouds 20 1016 26 16093 1.5 190 12:57 23.04.2020
4370 Clouds 21 1016 26 16093 1.5 190 12:38 23.04.2020
4371 Clouds 21 1016 26 16093 1.5 190 12:20 23.04.2020
4372 Clouds 22 1016 21 16093 2.1 0 11:47 23.04.2020
4373 Clouds 22 1016 21 16093 2.1 0 11:27 23.04.2020
4374 Clear 22 1016 21 16093 2.6 190 10:58 23.04.2020
4375 Clear 22 1016 21 16093 2.6 190 10:39 23.04.2020
4376 Clear 21 1016 21 16093 2.6 190 10:20 23.04.2020
4377 Clear 21 1016 22 16093 2.1 200 09:40 23.04.2020
4378 Clear 22 1016 19 16093 2.1 200 09:18 23.04.2020
4379 -273 0 0 0 0 0 08:47 23.04.2020
4380 Clear 23 1016 19 16093 1.5 180 08:29 23.04.2020
4381 Clear 24 1016 16 16093 2.1 230 07:47 23.04.2020
4382 Clear 24 1016 16 16093 2.1 230 07:24 23.04.2020
4383 Clear 24 1016 15 16093 2.6 230 06:58 23.04.2020
4384 Clear 24 1016 15 16093 2.6 230 06:40 23.04.2020
4385 Clear 26 1016 15 16093 3.1 230 05:37 23.04.2020
4386 Clear 26 1016 15 16093 3.1 230 05:18 23.04.2020
4387 Clouds 30 1016 10 16093 5.1 350 02:48 23.04.2020
4388 Clouds 30 1016 10 16093 5.1 350 02:22 23.04.2020
4389 Clouds 30 1016 10 16093 2.6 330 01:38 23.04.2020
4390 Clouds 29 1017 12 16093 5.56 321 00:50 23.04.2020
4391 Clouds 29 1017 12 16093 4.04 312 00:26 23.04.2020
4392 Clouds 28 1018 14 16093 2.1 40 23:53 22.04.2020
4393 Clouds 29 1018 14 16093 2.1 40 23:26 22.04.2020
4394 Clouds 28 1019 13 16093 3.6 110 22:59 22.04.2020
4395 Clouds 27 1019 13 16093 3.6 110 22:39 22.04.2020
4396 Clouds 27 1019 13 16093 3.6 110 22:39 22.04.2020
4397 Clouds 28 1019 13 16093 3.6 110 22:19 22.04.2020
4398 Clouds 27 1019 13 16093 3.1 60 21:57 22.04.2020
4399 Clouds 27 1019 13 16093 3.1 60 21:39 22.04.2020
4400 Clouds 27 1019 14 16093 3.1 60 21:20 22.04.2020
4401 Clouds 27 1019 14 16093 3.1 60 21:20 22.04.2020
4402 Clouds 26 1020 22 16093 1.5 0 20:55 22.04.2020
4403 Clouds 26 1020 22 16093 1.5 0 20:37 22.04.2020
4404 Clouds 26 1020 22 16093 1.5 0 20:18 22.04.2020
4405 Clouds 25 1021 27 16093 3.78 351 19:55 22.04.2020
4406 Clouds 25 1021 27 16093 3.78 351 19:36 22.04.2020
4407 Clouds 24 1021 27 16093 3.78 351 19:18 22.04.2020
4408 Clear 23 1021 30 16093 2.1 360 18:55 22.04.2020
4409 Clear 23 1021 30 16093 2.1 360 18:37 22.04.2020
4410 Clear 22 1021 30 16093 2.1 360 18:18 22.04.2020
4411 Clear 20 1020 39 16093 1.5 130 17:42 22.04.2020
4412 Clear 19 1020 39 16093 1.5 130 17:23 22.04.2020
4413 Clear 18 1020 42 16093 4.21 333 16:47 22.04.2020
4414 Clear 18 1020 42 16093 4.21 333 16:28 22.04.2020
4415 Clear 16 1019 48 16093 4.21 333 15:58 22.04.2020
4416 Clear 15 1019 48 16093 4.21 333 15:38 22.04.2020
4417 Clear 15 1019 48 16093 3 313 15:19 22.04.2020
4418 Clear 15 1018 48 16093 3 313 14:55 22.04.2020
4419 Clear 15 1018 48 16093 3 313 14:36 22.04.2020
4420 Clear 15 1018 48 16093 4.06 323 14:18 22.04.2020
4421 Clear 16 1018 51 16093 2.1 220 13:43 22.04.2020
4422 Clear 17 1018 51 16093 2.1 220 13:20 22.04.2020
4423 Clear 16 1018 51 16093 3.1 210 12:42 22.04.2020
4424 Clear 16 1018 51 16093 3.1 210 12:23 22.04.2020
4425 Clear 16 1018 48 16093 3.1 200 11:58 22.04.2020
4426 Clear 16 1018 48 16093 3.1 200 11:38 22.04.2020
4427 Clear 16 1018 48 16093 3.1 200 11:19 22.04.2020
4428 Clear 17 1018 42 16093 2.6 190 10:42 22.04.2020
4429 Clear 17 1018 42 16093 2.6 190 10:24 22.04.2020
4430 Clouds 17 1017 39 16093 2.6 200 09:43 22.04.2020
4431 Clouds 18 1017 39 16093 2.6 200 09:25 22.04.2020
4432 Clouds 18 1017 42 16093 2.6 200 08:59 22.04.2020
4433 Clouds 18 1017 42 16093 2.6 200 08:41 22.04.2020
4434 Clouds 18 1017 42 16093 2.6 200 08:23 22.04.2020
4435 Clouds 18 1017 40 16093 2.1 220 07:54 22.04.2020
4436 Clouds 18 1017 40 16093 2.1 220 07:33 22.04.2020
4437 Clouds 19 1017 37 16093 1.5 200 06:59 22.04.2020
4438 Clouds 19 1017 37 16093 1.5 200 06:39 22.04.2020
4439 Rain 20 1016 37 16093 4.53 305 05:39 22.04.2020
4440 Rain 21 1015 37 16093 3.6 50 04:42 22.04.2020
4441 Rain 23 1014 27 16093 2.1 0 02:59 22.04.2020
4442 Rain 25 1015 27 16093 2.38 324 01:56 22.04.2020
4443 Rain 25 1015 27 16093 2.38 324 01:38 22.04.2020
4444 Rain 25 1015 27 16093 2.38 324 01:19 22.04.2020
4445 Clouds 25 1015 29 16093 2.38 324 00:41 22.04.2020
4446 Clouds 24 1015 29 16093 2.88 355 00:20 22.04.2020
4447 Clouds 24 1016 31 16093 1.5 0 23:44 21.04.2020
4448 Clouds 24 1016 31 16093 1.5 0 23:21 21.04.2020
4449 Clouds 22 1016 35 16093 2.88 355 22:55 21.04.2020
4450 Clouds 23 1016 35 16093 2.88 355 22:37 21.04.2020
4451 Clouds 23 1016 35 16093 2.88 355 22:19 21.04.2020
4452 Clouds 22 1017 35 16093 4.6 40 21:42 21.04.2020
4453 Clouds 22 1017 35 16093 4.6 40 21:23 21.04.2020
4454 Clouds 21 1017 42 16093 1.5 0 20:58 21.04.2020
4455 Clouds 20 1017 42 16093 1.5 0 20:40 21.04.2020
4456 Clouds 20 1017 42 16093 1.5 0 20:21 21.04.2020
4457 Clouds 20 1017 45 16093 3.6 50 19:41 21.04.2020
4458 Clouds 20 1017 45 16093 3.6 50 19:20 21.04.2020
4459 Rain 19 1016 52 16093 2.6 120 18:59 21.04.2020
4460 Rain 18 1016 52 16093 2.6 120 18:39 21.04.2020
4461 Rain 18 1016 52 16093 2.6 120 18:39 21.04.2020
4462 Rain 17 1016 52 16093 2.6 120 18:19 21.04.2020
4463 Clouds 16 1016 59 16093 1.64 265 17:59 21.04.2020
4464 Clouds 16 1016 59 16093 1.64 265 17:39 21.04.2020
4465 Clouds 15 1016 59 16093 1.9 245 17:19 21.04.2020
4466 Rain 15 1015 55 16093 2.1 240 16:54 21.04.2020
4467 Rain 15 1015 55 16093 2.1 240 16:36 21.04.2020
4468 Rain 14 1015 55 16093 2.1 240 16:18 21.04.2020
4469 Rain 13 1015 67 16093 1.64 265 15:42 21.04.2020
4470 Rain 13 1015 67 16093 1.56 256 15:23 21.04.2020
4471 Clouds 14 1014 58 16093 1.5 0 14:59 21.04.2020
4472 Clouds 14 1014 58 16093 1.5 0 14:40 21.04.2020
4473 Clouds 14 1014 58 16093 1.5 0 14:22 21.04.2020
4474 Clouds 14 1014 55 16093 2.6 80 13:54 21.04.2020
4475 Clouds 14 1014 55 16093 2.6 80 13:36 21.04.2020
4476 Clouds 14 1014 55 16093 2.6 80 13:18 21.04.2020
4477 Clouds 14 1013 55 16093 2.1 0 12:38 21.04.2020
4478 Clouds 14 1013 55 16093 2.1 0 12:19 21.04.2020
4479 Clouds 14 1013 63 16093 1.5 200 11:57 21.04.2020
4480 Clouds 14 1013 63 16093 1.5 200 11:38 21.04.2020
4481 Clouds 15 1013 63 16093 1.5 200 11:18 21.04.2020
4482 Clouds 15 1014 67 16093 3.6 60 10:57 21.04.2020
4483 Clouds 15 1014 67 16093 3.6 60 10:39 21.04.2020
4484 Clouds 15 1014 67 16093 3.6 60 10:20 21.04.2020
4485 Clouds 15 1014 59 16093 1.5 260 09:38 21.04.2020
4486 Clouds 15 1014 59 16093 1.5 260 09:20 21.04.2020
4487 Clouds 15 1014 59 16093 1.5 260 09:20 21.04.2020
4488 Clouds 15 1014 63 16093 1.5 190 08:58 21.04.2020
4489 Clouds 15 1014 63 16093 1.5 190 08:40 21.04.2020
4490 Clouds 15 1014 63 16093 1.5 190 08:19 21.04.2020
4491 Clouds 16 1014 67 16093 1.5 140 07:49 21.04.2020
4492 Clouds 16 1014 67 16093 1.5 140 07:49 21.04.2020
4493 Clouds 16 1014 67 16093 1.5 140 07:24 21.04.2020
4494 Clouds 16 1014 63 16093 1.1 274 06:50 21.04.2020
4495 Clouds 16 1014 63 16093 3.14 298 06:22 21.04.2020
4496 Thunderstorm 17 1013 59 16093 3.14 298 05:49 21.04.2020
4497 Rain 18 1013 52 16093 5.7 40 04:24 21.04.2020
4498 Rain 19 1013 59 16093 6.2 30 03:45 21.04.2020
4499 Rain 22 1013 43 9656 6.2 100 01:46 21.04.2020
4500 Rain 23 1011 22 16093 2.1 120 01:28 21.04.2020
4501 Clouds 25 1012 22 16093 2.1 0 00:37 21.04.2020
4502 Clouds 25 1012 22 16093 2.1 0 00:37 21.04.2020
4503 Clouds 25 1013 22 16093 4.1 180 23:47 20.04.2020
4504 Clouds 25 1013 22 16093 4.1 180 23:25 20.04.2020
4505 Clouds 24 1014 25 16093 1.5 0 22:58 20.04.2020
4506 Clouds 24 1014 25 16093 1.5 0 22:40 20.04.2020
4507 Clouds 24 1014 25 16093 1.5 0 22:21 20.04.2020
4508 Clouds 24 1014 25 16093 1.5 0 22:21 20.04.2020
4509 Clouds 23 1015 28 16093 2.1 0 21:58 20.04.2020
4510 Clouds 23 1015 28 16093 2.1 0 21:39 20.04.2020
4511 Clouds 23 1015 28 16093 2.1 0 21:20 20.04.2020
4512 Clouds 22 1015 30 16093 1.5 60 20:59 20.04.2020
4513 Clouds 22 1015 30 16093 1.5 60 20:40 20.04.2020
4514 Clouds 22 1015 30 16093 1.5 60 20:19 20.04.2020
4515 Clouds 21 1016 32 16093 1.15 94 19:58 20.04.2020
4516 Clouds 21 1016 32 16093 1.15 94 19:58 20.04.2020
4517 Clouds 21 1016 32 16093 1.15 94 19:39 20.04.2020
4518 Clouds 21 1016 32 16093 1.15 94 19:39 20.04.2020
4519 Clouds 21 1016 32 16093 1.15 94 19:19 20.04.2020
4520 Clouds 20 1015 32 16093 2.1 0 18:54 20.04.2020
4521 Clouds 20 1015 32 16093 2.1 0 18:54 20.04.2020
4522 Clouds 20 1015 32 16093 2.1 0 18:36 20.04.2020
4523 Clouds 20 1015 32 16093 2.1 0 18:36 20.04.2020
4524 Clouds 19 1015 32 16093 2.1 0 18:18 20.04.2020
4525 Clouds 18 1015 34 16093 0.23 195 17:40 20.04.2020
4526 Clouds 17 1015 34 16093 0.23 195 17:22 20.04.2020
4527 Clouds 16 1015 41 16093 1.5 180 16:59 20.04.2020
4528 Clouds 16 1015 41 16093 1.5 180 16:40 20.04.2020
4529 Clouds 15 1015 41 16093 1.5 180 16:19 20.04.2020
4530 Clouds 14 1014 47 16093 2.1 210 15:45 20.04.2020
4531 Clouds 14 1014 47 16093 2.1 210 15:25 20.04.2020
4532 Clouds 14 1014 41 16093 2.1 140 14:59 20.04.2020
4533 Clouds 14 1014 41 16093 2.1 140 14:40 20.04.2020
4534 Clouds 14 1014 41 16093 2.1 140 14:19 20.04.2020
4535 Clouds 15 1013 34 16093 1.5 110 13:56 20.04.2020
4536 Clouds 16 1013 34 16093 1.5 110 13:37 20.04.2020
4537 Clouds 16 1013 34 16093 1.5 110 13:19 20.04.2020
4538 Clouds 16 1013 34 16093 3.6 360 12:42 20.04.2020
4539 Clouds 16 1013 34 16093 3.6 360 12:21 20.04.2020
4540 Clouds 17 1012 34 16093 4.6 200 11:42 20.04.2020
4541 Clouds 17 1012 34 16093 4.6 200 11:22 20.04.2020
4542 Clouds 17 1012 32 16093 4.6 240 10:57 20.04.2020
4543 Clouds 18 1012 32 16093 4.6 240 10:39 20.04.2020
4544 Clouds 18 1012 32 16093 4.6 240 10:20 20.04.2020
4545 Clouds 18 1012 32 16093 2.6 210 09:58 20.04.2020
4546 Clouds 18 1012 32 16093 2.6 210 09:39 20.04.2020
4547 Clouds 19 1012 32 16093 2.6 210 09:21 20.04.2020
4548 Clouds 19 1012 28 16093 3.1 200 08:42 20.04.2020
4549 Clouds 19 1012 28 16093 3.1 200 08:23 20.04.2020
4550 Clouds 20 1011 28 16093 3.6 200 07:53 20.04.2020
4551 Clouds 20 1011 28 16093 3.6 200 07:30 20.04.2020
4552 Clouds 20 1011 24 16093 5.1 230 06:58 20.04.2020
4553 Clouds 20 1011 24 16093 5.1 230 06:37 20.04.2020
4554 Clouds 21 1010 17 16093 5.1 240 05:44 20.04.2020
4555 Clouds 22 1010 15 16093 5.7 240 04:33 20.04.2020
4556 Clouds 25 1009 14 16093 7.7 250 02:47 20.04.2020
4557 Clouds 26 1009 14 16093 7.7 250 02:19 20.04.2020
4558 Clouds 26 1010 16 16093 4.6 190 01:29 20.04.2020
4559 Clouds 26 1011 19 16093 5.1 190 00:42 20.04.2020
4560 Clouds 26 1012 22 16093 4.6 190 23:59 19.04.2020
4561 Clouds 26 1012 22 16093 4.6 190 23:39 19.04.2020
4562 Clouds 26 1012 22 16093 4.6 190 23:39 19.04.2020
4563 Clouds 26 1012 22 16093 4.6 190 23:21 19.04.2020
4564 Clouds 25 1013 22 16093 5.7 210 22:55 19.04.2020
4565 Clouds 25 1013 22 16093 5.7 210 22:36 19.04.2020
4566 Clouds 25 1013 22 16093 5.7 210 22:18 19.04.2020
4567 Clouds 23 1014 31 16093 3.6 120 21:42 19.04.2020
4568 Clouds 23 1014 31 16093 3.6 120 21:23 19.04.2020
4569 Clouds 22 1015 37 16093 1.5 210 20:56 19.04.2020
4570 Clouds 22 1015 37 16093 1.5 210 20:38 19.04.2020
4571 Clouds 22 1015 37 16093 1.5 210 20:20 19.04.2020
4572 Clouds 22 1015 37 16093 1.5 210 20:20 19.04.2020
4573 Clouds 20 1015 42 16093 2.1 230 19:55 19.04.2020
4574 Clouds 21 1015 42 16093 2.1 230 19:37 19.04.2020
4575 Clouds 20 1015 42 16093 2.1 230 19:19 19.04.2020
4576 Clouds 19 1015 45 16093 2.99 187 18:54 19.04.2020
4577 Clouds 19 1015 45 16093 2.99 187 18:36 19.04.2020
4578 Clouds 18 1015 45 16093 2.05 205 18:18 19.04.2020
4579 Clouds 17 1015 51 16093 2.05 205 17:41 19.04.2020
4580 Clouds 17 1015 51 16093 2.05 205 17:41 19.04.2020
4581 Clouds 16 1015 51 16093 2.05 205 17:23 19.04.2020
4582 Clouds 15 1014 58 16093 2.05 205 16:59 19.04.2020
4583 Clouds 14 1014 58 16093 2.05 205 16:39 19.04.2020
4584 Clouds 14 1014 58 16093 2.05 205 16:21 19.04.2020
4585 Clouds 14 1014 58 16093 2.05 205 16:21 19.04.2020
4586 Clouds 13 1014 58 16093 2.05 205 15:54 19.04.2020
4587 Clouds 13 1014 58 16093 2.05 205 15:36 19.04.2020
4588 Clouds 13 1014 58 16093 2.05 205 15:36 19.04.2020
4589 Clouds 13 1014 58 16093 2.17 227 15:18 19.04.2020
4590 Clear 14 1013 58 16093 2.6 200 14:38 19.04.2020
4591 Clear 14 1013 58 16093 2.6 200 14:20 19.04.2020
4592 Clear 14 1013 54 16093 3.1 200 13:56 19.04.2020
4593 Clear 14 1013 54 16093 3.1 200 13:36 19.04.2020
4594 Clear 14 1013 54 16093 3.1 200 13:18 19.04.2020
4595 Clear 15 1013 48 16093 3.1 200 12:43 19.04.2020
4596 Clear 15 1013 48 16093 3.1 200 12:24 19.04.2020
4597 Clear 15 1013 41 16093 2.6 190 11:39 19.04.2020
4598 Clear 16 1013 41 16093 2.6 190 11:20 19.04.2020
4599 Clear 16 1013 36 16093 2.6 200 10:59 19.04.2020
4600 Clear 16 1013 36 16093 2.6 200 10:41 19.04.2020
4601 Clear 16 1013 36 16093 2.6 200 10:20 19.04.2020
4602 Clear 16 1013 39 16093 2.6 210 09:55 19.04.2020
4603 Clear 16 1013 39 16093 2.6 210 09:36 19.04.2020
4604 Clear 16 1013 39 16093 2.6 210 09:18 19.04.2020
4605 Clear 17 1013 36 16093 4.1 200 08:39 19.04.2020
4606 Clear 17 1013 36 16093 4.1 200 08:20 19.04.2020
4607 Clear 18 1013 34 16093 3.1 240 07:45 19.04.2020
4608 Clear 18 1013 34 16093 3.1 240 07:25 19.04.2020
4609 Clouds 18 1013 30 16093 3.6 230 06:55 19.04.2020
4610 Clouds 19 1013 30 16093 3.6 230 06:19 19.04.2020
4611 Clouds 20 1011 30 16093 2.1 0 04:56 19.04.2020
4612 Clouds 21 1011 28 16093 3.96 274 03:24 19.04.2020
4613 Clouds 22 1011 30 16093 3.5 267 02:22 19.04.2020
4614 Clouds 21 1012 32 16093 2.1 160 01:39 19.04.2020
4615 Clouds 21 1012 32 16093 2.1 160 01:19 19.04.2020
4616 Clouds 21 1012 32 16093 1.5 20 00:40 19.04.2020
4617 Clouds 21 1012 32 16093 1.5 20 00:19 19.04.2020
4618 Rain 19 1013 52 16093 3.1 320 23:40 18.04.2020
4619 Rain 18 1013 52 16093 3.1 320 23:19 18.04.2020
4620 Rain 18 1013 48 16093 5.7 220 22:43 18.04.2020
4621 Rain 18 1013 48 16093 5.7 220 22:23 18.04.2020
4622 Rain 19 1014 30 16093 3.6 20 21:58 18.04.2020
4623 Rain 20 1014 30 16093 3.6 20 21:39 18.04.2020
4624 Rain 21 1014 30 16093 3.6 20 21:21 18.04.2020
4625 Clouds 20 1014 32 16093 1.5 0 20:56 18.04.2020
4626 Clouds 20 1014 32 16093 1.5 0 20:37 18.04.2020
4627 Clouds 20 1014 32 16093 1.5 0 20:18 18.04.2020
4628 Clouds 19 1014 34 16093 3.19 219 19:40 18.04.2020
4629 Clouds 19 1014 34 16093 3.19 219 19:22 18.04.2020
4630 Clouds 18 1014 42 16093 3.19 219 18:39 18.04.2020
4631 Clouds 17 1014 42 16093 2.72 196 18:20 18.04.2020
4632 Clouds 16 1013 47 16093 2.72 196 17:56 18.04.2020
4633 Clouds 16 1013 47 16093 2.72 196 17:38 18.04.2020
4634 Clouds 15 1013 47 16093 2.72 196 17:18 18.04.2020
4635 Clouds 14 1013 50 16093 2.72 196 16:42 18.04.2020
4636 Clouds 14 1013 50 16093 2.72 196 16:22 18.04.2020
4637 Clouds 13 1012 54 16093 2.1 200 15:55 18.04.2020
4638 Clouds 13 1012 54 16093 2.1 200 15:37 18.04.2020
4639 Clouds 13 1012 54 16093 2.1 200 15:19 18.04.2020
4640 Clouds 13 1011 50 16093 2.1 240 14:44 18.04.2020
4641 Clouds 13 1011 50 16093 2.1 240 14:20 18.04.2020
4642 Clouds 14 1011 47 16093 2.1 210 13:43 18.04.2020
4643 Clouds 14 1011 47 16093 2.1 210 13:21 18.04.2020
4644 Clear 14 1011 47 16093 2.6 190 12:44 18.04.2020
4645 Clear 14 1011 47 16093 2.6 190 12:26 18.04.2020
4646 Clear 14 1012 41 16093 2.81 223 11:59 18.04.2020
4647 Clear 14 1012 41 16093 2.81 223 11:40 18.04.2020
4648 Clear 14 1012 41 16093 2.81 223 11:21 18.04.2020
4649 Clear 15 1011 44 16093 1.5 170 10:56 18.04.2020
4650 Clear 15 1011 44 16093 1.5 170 10:36 18.04.2020
4651 Clear 15 1011 44 16093 1.5 170 10:18 18.04.2020
4652 Clouds 16 1011 39 16093 2.6 190 09:41 18.04.2020
4653 Clouds 16 1011 39 16093 2.6 190 09:20 18.04.2020
4654 Clouds 17 1011 34 16093 3.1 180 08:43 18.04.2020
4655 Clouds 17 1011 34 16093 3.1 180 08:23 18.04.2020
4656 Thunderstorm 18 1012 29 16093 2.6 120 07:49 18.04.2020
4657 Thunderstorm 18 1012 29 16093 2.6 120 07:30 18.04.2020
4658 Thunderstorm 19 1011 25 16093 1.5 120 06:50 18.04.2020
4659 Thunderstorm 20 1010 18 16093 6.2 270 05:50 18.04.2020
4660 Rain 21 1009 24 16093 7.7 270 04:57 18.04.2020
4661 Rain 21 1009 24 16093 7.7 270 04:32 18.04.2020
4662 Rain 21 1009 24 16093 7.7 270 04:32 18.04.2020
4663 Rain 22 1009 18 16093 3.6 310 03:43 18.04.2020
4664 Rain 23 1009 17 16093 2.17 150 02:42 18.04.2020
4665 Rain 23 1009 17 16093 2.17 150 02:21 18.04.2020
4666 Rain 23 1009 17 16093 2.17 150 02:21 18.04.2020
4667 Rain 23 1009 17 16093 2.17 150 02:21 18.04.2020
4668 Clouds 23 1010 16 16093 1.5 0 01:45 18.04.2020
4669 Clouds 24 1010 16 16093 1.5 0 01:27 18.04.2020
4670 Clouds 24 1011 16 16093 2.1 360 00:38 18.04.2020
4671 Clouds 24 1011 16 16093 2.1 360 00:18 18.04.2020
4672 Clouds 23 1012 17 16093 1.79 106 23:41 17.04.2020
4673 Clouds 23 1012 17 16093 1.79 106 23:20 17.04.2020
4674 Clouds 23 1013 17 16093 3.6 360 22:59 17.04.2020
4675 Clouds 23 1013 17 16093 3.6 360 22:40 17.04.2020
4676 Clouds 23 1013 17 16093 3.6 360 22:20 17.04.2020
4677 Clouds 22 1014 17 16093 4.6 20 21:58 17.04.2020
4678 Clouds 22 1014 17 16093 4.6 20 21:39 17.04.2020
4679 Clouds 22 1014 17 16093 4.6 20 21:19 17.04.2020
4680 Clouds 21 1014 18 16093 5.1 30 20:55 17.04.2020
4681 Clouds 21 1014 18 16093 5.1 30 20:36 17.04.2020
4682 Clouds 21 1014 18 16093 5.1 30 20:18 17.04.2020
4683 Clouds 20 1015 19 16093 6.7 70 19:46 17.04.2020
4684 Clouds 20 1015 19 16093 6.7 70 19:24 17.04.2020
4685 Clouds 19 1014 20 16093 6.7 70 18:55 17.04.2020
4686 Clouds 19 1014 20 16093 6.7 70 18:36 17.04.2020
4687 Clouds 18 1014 20 16093 6.7 70 18:18 17.04.2020
4688 Clouds 17 1014 25 16093 5.7 50 17:38 17.04.2020
4689 Clouds 16 1014 25 16093 5.7 50 17:19 17.04.2020
4690 Clouds 15 1014 25 16093 5.7 60 16:44 17.04.2020
4691 Clouds 15 1014 25 16093 5.7 60 16:24 17.04.2020
4692 Clouds 15 1013 26 16093 6.2 40 15:59 17.04.2020
4693 Clouds 14 1013 26 16093 6.2 40 15:38 17.04.2020
4694 Clouds 14 1013 26 16093 6.2 40 15:20 17.04.2020
4695 Clouds 15 1013 26 16093 4.6 50 14:42 17.04.2020
4696 Clouds 15 1013 26 16093 4.6 50 14:23 17.04.2020
4697 Clouds 15 1012 27 16093 5.7 40 13:58 17.04.2020
4698 Clouds 15 1012 27 16093 5.7 40 13:37 17.04.2020
4699 Clouds 15 1012 27 16093 5.7 40 13:19 17.04.2020
4700 Clouds 16 1012 25 16093 4.6 40 12:48 17.04.2020
4701 Clouds 16 1012 25 16093 4.6 40 12:26 17.04.2020
4702 Clouds 17 1011 24 16093 5.7 50 11:58 17.04.2020
4703 Clouds 17 1011 24 16093 5.7 50 11:37 17.04.2020
4704 Clouds 17 1011 24 16093 5.7 50 11:18 17.04.2020
4705 Clouds 18 1011 24 16093 6.2 20 10:39 17.04.2020
4706 Clouds 18 1011 24 16093 6.2 20 10:19 17.04.2020
4707 Clouds 18 1011 34 16093 3.1 280 09:54 17.04.2020
4708 Clouds 18 1011 34 16093 3.1 280 09:36 17.04.2020
4709 Clouds 18 1011 34 16093 3.1 280 09:18 17.04.2020
4710 Clouds 18 1008 38 0 0.45 133 08:45 17.04.2020
4711 Clouds 19 1011 21 16093 2.6 60 08:25 17.04.2020
4712 Clouds 20 1011 21 16093 2.6 60 07:44 17.04.2020
4713 Clouds 20 1011 21 16093 2.6 60 07:25 17.04.2020
4714 Clouds 21 1010 20 16093 2.1 80 06:57 17.04.2020
4715 Clouds 21 1010 20 16093 2.1 80 06:27 17.04.2020
4716 Clouds 22 1009 19 16093 2.6 100 05:38 17.04.2020
4717 Clouds 25 1009 15 16093 1.03 319 03:22 17.04.2020
4718 Clouds 25 1009 15 16093 1.03 319 03:22 17.04.2020
4719 Clouds 26 1009 15 16093 0.79 289 02:37 17.04.2020
4720 Clouds 26 1010 16 16093 2.1 50 01:30 17.04.2020
4721 Clouds 26 1011 16 16093 2.1 0 00:58 17.04.2020
4722 Clouds 25 1012 17 16093 2.1 190 00:20 17.04.2020
4723 Clouds 24 1012 17 16093 2.1 190 23:45 16.04.2020
4724 Clouds 24 1012 17 16093 1.5 110 23:23 16.04.2020
4725 Clouds 24 1012 17 16093 1.5 110 22:58 16.04.2020
4726 Clouds 24 1012 17 16093 1.5 110 22:38 16.04.2020
4727 Clouds 24 1013 20 16093 3.1 70 22:20 16.04.2020
4728 Clouds 23 1013 20 16093 3.1 70 21:56 16.04.2020
4729 Clouds 23 1013 20 16093 3.1 70 21:37 16.04.2020
4730 Clouds 23 1013 21 16093 2.1 20 21:18 16.04.2020
4731 Clouds 22 1013 21 16093 2.1 20 20:40 16.04.2020
4732 Clouds 22 1013 22 16093 1.5 20 20:22 16.04.2020
4733 Clouds 21 1013 22 16093 1.5 20 19:56 16.04.2020
4734 Clouds 21 1013 22 16093 1.5 20 19:37 16.04.2020
4735 Clouds 20 1012 25 16093 1.33 214 19:19 16.04.2020
4736 Clouds 20 1012 25 16093 1.33 214 18:45 16.04.2020
4737 Clouds 19 1012 27 16093 2.58 216 18:26 16.04.2020
4738 Clouds 18 1012 27 16093 2.58 216 17:58 16.04.2020
4739 Clouds 18 1012 27 16093 2.58 216 17:39 16.04.2020
4740 Clouds 17 1011 31 16093 2.58 216 17:20 16.04.2020
4741 Clouds 16 1011 31 16093 2.58 216 16:44 16.04.2020
4742 Clouds 15 1011 31 16093 2.58 216 16:26 16.04.2020
4743 Clouds 15 1011 31 16093 1.5 190 15:55 16.04.2020
4744 Clouds 15 1011 31 16093 1.5 190 15:36 16.04.2020
4745 Clouds 14 1010 29 16093 2.1 220 15:18 16.04.2020
4746 Clouds 15 1010 29 16093 2.1 220 14:45 16.04.2020
4747 Clouds 15 1010 31 16093 2.1 270 14:25 16.04.2020
4748 Clouds 15 1010 31 16093 2.1 270 13:59 16.04.2020
4749 Clouds 15 1010 31 16093 2.1 270 13:40 16.04.2020
4750 Clouds 15 1010 31 16093 2.1 270 13:40 16.04.2020
4751 Clouds 16 1010 27 16093 2.6 210 13:21 16.04.2020
4752 Clouds 16 1010 27 16093 2.6 210 12:58 16.04.2020
4753 Clouds 16 1010 27 16093 2.6 210 12:39 16.04.2020
4754 Clouds 17 1010 25 16093 1.5 210 12:19 16.04.2020
4755 Clouds 17 1010 25 16093 1.5 210 11:57 16.04.2020
4756 Clouds 17 1010 25 16093 1.5 210 11:38 16.04.2020
4757 Clouds 17 1010 24 16093 2.1 210 11:20 16.04.2020
4758 Clouds 17 1010 24 16093 2.1 210 10:55 16.04.2020
4759 Clouds 18 1010 24 16093 2.1 210 10:36 16.04.2020
4760 Clouds 18 1011 20 16093 3.1 210 10:18 16.04.2020
4761 Clouds 18 1011 20 16093 3.1 210 09:39 16.04.2020
4762 Clouds 18 1011 19 16093 4.6 190 09:20 16.04.2020
4763 Clouds 18 1011 19 16093 4.6 190 09:20 16.04.2020
4764 Clouds 19 1011 19 16093 4.6 190 08:45 16.04.2020
4765 Clouds 19 1011 19 16093 4.6 190 08:26 16.04.2020
4766 Clouds 20 1011 17 16093 3.6 200 07:59 16.04.2020
4767 Clouds 20 1011 17 16093 3.6 200 07:41 16.04.2020
4768 Clouds 20 1011 14 16093 5.7 230 07:20 16.04.2020
4769 Clouds 20 1011 14 16093 5.7 230 07:20 16.04.2020
4770 Clouds 20 1011 14 16093 5.7 230 06:41 16.04.2020
4771 Clouds 20 1011 12 16093 3.1 220 06:22 16.04.2020
4772 Clouds 22 1011 12 16093 3.6 240 04:53 16.04.2020
4773 Clouds 24 1011 11 16093 7.2 250 03:28 16.04.2020
4774 Clouds 25 1012 9 16093 5.1 250 02:59 16.04.2020
4775 Clouds 25 1012 9 16093 5.1 250 02:36 16.04.2020
4776 Clear 25 1013 9 16093 6.7 180 01:28 16.04.2020
4777 Clear 25 1014 8 16093 4.6 190 00:53 16.04.2020
4778 Clear 24 1015 10 16093 2.1 0 00:21 16.04.2020
4779 Clear 24 1015 10 16093 2.1 0 23:54 15.04.2020
4780 Clear 24 1015 10 16093 2.1 0 23:36 15.04.2020
4781 Clear 23 1017 10 16093 2.6 160 23:18 15.04.2020
4782 Clear 23 1017 10 16093 2.6 160 22:38 15.04.2020
4783 Clear 23 1018 10 16093 1.5 0 22:20 15.04.2020
4784 Clear 22 1018 10 16093 1.5 0 21:55 15.04.2020
4785 Clear 22 1018 10 16093 1.5 0 21:37 15.04.2020
4786 Clear 20 1019 13 16093 1.5 0 21:18 15.04.2020
4787 Clear 20 1019 13 16093 1.5 0 20:54 15.04.2020
4788 Clear 20 1019 13 16093 1.5 0 20:36 15.04.2020
4789 Clear 19 1019 17 16093 1.01 254 20:18 15.04.2020
4790 Clear 19 1019 17 16093 1.01 254 19:40 15.04.2020
4791 Clear 18 1019 17 16093 1.01 254 19:20 15.04.2020
4792 Clear 16 1020 18 16093 2.1 50 18:41 15.04.2020
4793 Clear 16 1020 18 16093 2.1 50 18:22 15.04.2020
4794 Clear 15 1020 20 16093 0.82 252 17:58 15.04.2020
4795 Clear 14 1020 20 16093 0.82 252 17:39 15.04.2020
4796 Clear 13 1020 25 16093 2.6 220 17:20 15.04.2020
4797 Clear 12 1020 25 16093 2.6 220 16:56 15.04.2020
4798 Clear 11 1020 25 16093 2.6 220 16:37 15.04.2020
4799 Clear 11 1020 29 16093 0.82 252 16:19 15.04.2020
4800 Clear 10 1020 29 16093 0.82 252 15:56 15.04.2020
4801 Clear 10 1020 29 16093 0.82 252 15:38 15.04.2020
4802 Clear 10 1019 23 16093 1.07 262 15:19 15.04.2020
4803 Clear 10 1019 23 16093 1.07 262 14:56 15.04.2020
4804 Clear 10 1019 23 16093 0.92 259 14:38 15.04.2020
4805 Clear 10 1019 23 16093 2.1 210 14:20 15.04.2020
4806 Clear 10 1019 23 16093 2.1 210 13:56 15.04.2020
4807 Clear 10 1019 23 16093 2.1 210 13:37 15.04.2020
4808 Clear 10 1020 25 16093 2.1 210 13:18 15.04.2020
4809 Clear 10 1020 25 16093 2.1 210 12:42 15.04.2020
4810 Clear 11 1020 23 16093 2.1 230 12:23 15.04.2020
4811 Clear 11 1020 23 16093 2.1 230 11:58 15.04.2020
4812 Clear 11 1020 23 16093 2.1 230 11:39 15.04.2020
4813 Clear 11 1021 20 16093 1.34 257 11:21 15.04.2020
4814 Clear 11 1021 20 16093 1.34 257 10:39 15.04.2020
4815 Clear 11 1021 20 16093 1.5 260 10:21 15.04.2020
4816 Clear 12 1021 20 16093 1.5 260 09:58 15.04.2020
4817 Clear 12 1021 20 16093 1.5 260 09:40 15.04.2020
4818 Clear 13 1021 19 16093 2.1 220 09:21 15.04.2020
4819 Clear 13 1021 19 16093 2.1 220 08:58 15.04.2020
4820 Clear 13 1021 19 16093 2.1 220 08:39 15.04.2020
4821 Clear 14 1021 14 16093 1.5 230 08:19 15.04.2020
4822 Clear 14 1021 14 16093 1.5 230 07:51 15.04.2020
4823 Clear 14 1021 14 16093 1.5 230 07:31 15.04.2020
4824 Clear 14 1021 12 16093 0.81 222 06:33 15.04.2020
4825 Clear 16 1020 10 16093 2.1 110 05:50 15.04.2020
4826 Clear 16 1020 9 16093 4.1 70 05:18 15.04.2020
4827 Clear 17 1020 9 16093 4.1 70 04:43 15.04.2020
4828 Clear 19 1020 8 16093 2.6 0 03:26 15.04.2020
4829 Clear 20 1020 8 16093 2.6 90 02:53 15.04.2020
4830 Clear 20 1021 8 16093 4.1 20 01:56 15.04.2020
4831 Clear 20 1021 8 16093 4.1 20 01:27 15.04.2020
4832 Clear 20 1022 8 16093 5.1 50 00:54 15.04.2020
4833 Clear 20 1022 8 16093 5.1 50 00:31 15.04.2020
4834 Clear 19 1023 10 16093 2.6 30 23:57 14.04.2020
4835 Clear 19 1023 10 16093 2.6 30 23:57 14.04.2020
4836 Clear 19 1023 10 16093 2.6 30 23:39 14.04.2020
4837 Clear 18 1024 10 16093 4.1 20 23:21 14.04.2020
4838 Clear 18 1024 10 16093 4.1 20 22:58 14.04.2020
4839 Clear 18 1024 10 16093 4.1 20 22:39 14.04.2020
4840 Clear 18 1024 10 16093 3.6 30 22:21 14.04.2020
4841 Clear 18 1024 10 16093 3.6 30 21:59 14.04.2020
4842 Clear 18 1024 10 16093 3.6 30 21:40 14.04.2020
4843 Clear 17 1025 10 16093 5.1 30 21:20 14.04.2020
4844 Clear 17 1025 10 16093 5.1 30 21:00 14.04.2020
4845 Clear 16 1025 10 16093 5.1 30 20:40 14.04.2020
4846 Clear 16 1026 11 16093 6.2 40 20:21 14.04.2020
4847 Clear 16 1026 11 16093 6.2 40 19:57 14.04.2020
4848 Clear 16 1026 11 16093 6.2 40 19:38 14.04.2020
4849 Clouds 15 1026 15 16093 3.6 40 19:20 14.04.2020
4850 Clouds 14 1026 15 16093 3.6 40 18:41 14.04.2020
4851 Clouds 14 1026 17 16093 4.1 30 18:22 14.04.2020
4852 Clouds 14 1026 17 16093 4.1 30 18:22 14.04.2020
4853 Clouds 13 1026 17 16093 4.1 30 17:59 14.04.2020
4854 Clouds 13 1026 17 16093 4.1 30 17:39 14.04.2020
4855 Clouds 12 1025 18 16093 4.1 20 17:21 14.04.2020
4856 Clouds 11 1025 18 16093 4.1 20 16:58 14.04.2020
4857 Clouds 11 1025 18 16093 4.1 20 16:39 14.04.2020
4858 Clouds 10 1024 20 16093 4.1 50 16:21 14.04.2020
4859 Clouds 10 1024 20 16093 4.1 50 15:57 14.04.2020
4860 Clouds 10 1024 20 16093 4.1 50 15:38 14.04.2020
4861 Clouds 10 1024 21 16093 5.1 90 15:19 14.04.2020
4862 Clouds 10 1024 21 16093 5.1 90 14:57 14.04.2020
4863 Clouds 10 1024 21 16093 5.1 90 14:39 14.04.2020
4864 Clouds 10 1023 18 16093 5.1 80 14:21 14.04.2020
4865 Clouds 11 1023 18 16093 5.1 80 13:43 14.04.2020
4866 Clouds 11 1022 17 16093 5.1 60 13:24 14.04.2020
4867 Clouds 11 1022 17 16093 5.1 60 12:56 14.04.2020
4868 Clouds 12 1022 17 16093 5.1 60 12:38 14.04.2020
4869 Clouds 12 1022 16 16093 5.7 60 12:19 14.04.2020
4870 Clouds 12 1022 16 16093 5.7 60 11:41 14.04.2020
4871 Clear 13 1021 11 16093 5.1 60 11:22 14.04.2020
4872 Clear 13 1021 11 16093 5.1 60 10:56 14.04.2020
4873 Clear 14 1021 11 16093 5.1 60 10:38 14.04.2020
4874 Clouds 14 1020 11 16093 4.1 20 10:20 14.04.2020
4875 Clouds 14 1020 11 16093 4.1 20 09:42 14.04.2020
4876 Clouds 16 1019 10 16093 4.6 30 09:23 14.04.2020
4877 Clouds 16 1019 10 16093 4.6 30 08:56 14.04.2020
4878 Clouds 16 1019 10 16093 4.6 30 08:37 14.04.2020
4879 Clouds 15 1018 22 0 5.43 20 08:19 14.04.2020
4880 Clouds 16 1019 13 16093 5.7 50 07:51 14.04.2020
4881 Clouds 17 1019 13 16093 5.7 50 07:26 14.04.2020
4882 Clouds 17 1017 14 16093 3.1 40 06:45 14.04.2020
4883 Clouds 18 1015 20 0 5.95 18 05:47 14.04.2020
4884 Clouds 21 1014 7 16093 12.3 350 03:48 14.04.2020
4885 Clear 22 1014 9 16093 2.6 0 02:38 14.04.2020
4886 Clouds 23 1014 11 16093 8.7 360 01:28 14.04.2020
4887 Clouds 22 1015 11 16093 3.6 230 00:52 14.04.2020
4888 Clouds 22 1015 11 16093 3.6 230 00:32 14.04.2020
4889 Clouds 22 1015 11 16093 2.6 250 23:59 13.04.2020
4890 Clouds 22 1015 11 16093 2.6 250 23:39 13.04.2020
4891 Clouds 22 1016 12 16093 3.1 150 23:19 13.04.2020
4892 Clouds 22 1016 12 16093 3.1 150 22:54 13.04.2020
4893 Clouds 22 1016 12 16093 3.1 150 22:36 13.04.2020
4894 Clouds 21 1016 14 16093 3.1 10 22:18 13.04.2020
4895 Clouds 21 1016 14 16093 3.1 10 21:41 13.04.2020
4896 Clouds 20 1017 17 16093 3.6 70 21:21 13.04.2020
4897 Clouds 20 1017 17 16093 3.6 70 20:58 13.04.2020
4898 Clouds 20 1017 17 16093 3.6 70 20:58 13.04.2020
4899 Clouds 19 1017 17 16093 3.6 70 20:40 13.04.2020
4900 Clouds 19 1016 20 16093 2.1 40 20:19 13.04.2020
4901 Clouds 19 1016 20 16093 2.1 40 19:58 13.04.2020
4902 Clouds 19 1016 20 16093 2.1 40 19:37 13.04.2020
4903 Clouds 18 1016 25 16093 2.6 90 19:18 13.04.2020
4904 Clouds 17 1016 25 16093 2.6 90 18:57 13.04.2020
4905 Clouds 17 1016 25 16093 2.6 90 18:37 13.04.2020
4906 Clouds 16 1016 41 16093 2.1 80 18:18 13.04.2020
4907 Clouds 15 1016 41 16093 2.1 80 17:56 13.04.2020
4908 Clouds 15 1016 41 16093 2.1 80 17:37 13.04.2020
4909 Clouds 15 1015 71 16093 2.08 6 17:19 13.04.2020
4910 Clouds 13 1015 71 16093 2.08 6 16:57 13.04.2020
4911 Clouds 13 1015 71 16093 2.08 6 16:37 13.04.2020
4912 Clouds 12 1015 76 16093 2.08 6 16:19 13.04.2020
4913 Clouds 13 1015 76 16093 2.08 6 16:19 13.04.2020
4914 Clouds 12 1015 76 16093 2.08 6 15:46 13.04.2020
4915 Clouds 12 1015 76 16093 1.72 342 15:28 13.04.2020
4916 Clouds 12 1014 71 16093 1.5 280 14:59 13.04.2020
4917 Clouds 12 1014 71 16093 1.5 280 14:40 13.04.2020
4918 Clouds 12 1013 67 16093 1.34 308 14:22 13.04.2020
4919 Clouds 12 1013 67 16093 1.34 308 13:56 13.04.2020
4920 Clouds 13 1013 67 16093 1.34 308 13:38 13.04.2020
4921 Clouds 13 1012 71 16093 2.6 0 13:19 13.04.2020
4922 Clouds 13 1012 71 16093 2.6 0 12:58 13.04.2020
4923 Clouds 13 1012 71 16093 2.6 0 12:39 13.04.2020
4924 Clouds 13 1012 67 16093 3.1 200 12:19 13.04.2020
4925 Clouds 13 1012 67 16093 3.1 200 12:19 13.04.2020
4926 Clouds 14 1012 67 16093 3.1 200 11:57 13.04.2020
4927 Clouds 14 1012 67 16093 3.1 200 11:38 13.04.2020
4928 Clouds 14 1012 71 16093 4.1 190 11:18 13.04.2020
4929 Clouds 14 1012 71 16093 4.1 190 10:54 13.04.2020
4930 Clouds 14 1012 71 16093 4.1 190 10:36 13.04.2020
4931 Clouds 14 1012 59 16093 2.6 170 10:18 13.04.2020
4932 Clouds 15 1012 59 16093 2.6 170 09:43 13.04.2020
4933 Clouds 15 1012 59 16093 2.6 170 09:24 13.04.2020
4934 Clouds 15 1012 55 16093 5.7 200 08:45 13.04.2020
4935 Clouds 15 1012 55 16093 5.7 200 08:26 13.04.2020
4936 Clouds 16 1011 48 16093 5.1 210 07:45 13.04.2020
4937 Clouds 17 1011 48 16093 5.1 210 07:26 13.04.2020
4938 Clouds 17 1012 51 16093 3.6 230 06:56 13.04.2020
4939 Clouds 17 1012 51 16093 3.6 230 06:37 13.04.2020
4940 Rain 18 1012 48 16093 5.1 290 05:51 13.04.2020
4941 Rain 18 1010 45 16093 2.6 130 05:19 13.04.2020
4942 Rain 18 1010 45 16093 2.6 130 04:31 13.04.2020
4943 Rain 19 1010 55 16093 3.6 70 03:55 13.04.2020
4944 Rain 20 1010 55 16093 3.6 70 03:34 13.04.2020
4945 Rain 21 1010 43 16093 5.7 60 02:41 13.04.2020
4946 Rain 21 1011 48 16093 2.6 320 01:46 13.04.2020
4947 Rain 21 1011 48 16093 2.6 320 01:28 13.04.2020
4948 Thunderstorm 21 1011 42 16093 4.1 330 00:48 13.04.2020
4949 Rain 20 1012 42 9656 3.6 330 00:25 13.04.2020
4950 Rain 21 1012 42 9656 3.6 330 23:56 12.04.2020
4951 Rain 22 1012 42 9656 3.6 330 23:38 12.04.2020
4952 Clouds 21 1012 25 16093 3.6 350 23:19 12.04.2020
4953 Clouds 23 1012 25 16093 3.6 350 22:54 12.04.2020
4954 Clouds 22 1012 25 16093 3.6 350 22:36 12.04.2020
4955 Clouds 22 1012 30 16093 3.1 40 22:18 12.04.2020
4956 Clouds 22 1012 30 16093 3.1 40 21:37 12.04.2020
4957 Clouds 21 1013 30 16093 2.1 0 21:19 12.04.2020
4958 Clouds 21 1013 30 16093 2.1 0 20:43 12.04.2020
4959 Clouds 20 1012 37 16093 1.5 10 20:23 12.04.2020
4960 Clouds 20 1012 37 16093 1.5 10 19:58 12.04.2020
4961 Clouds 20 1012 37 16093 1.5 10 19:40 12.04.2020
4962 Clouds 19 1012 37 16093 1.5 10 19:19 12.04.2020
4963 Clouds 19 1012 39 16093 2.1 100 18:57 12.04.2020
4964 Clouds 19 1012 39 16093 2.1 100 18:38 12.04.2020
4965 Clouds 17 1012 39 16093 2.1 100 18:19 12.04.2020
4966 Clouds 17 1012 42 16093 1.75 230 17:42 12.04.2020
4967 Clouds 16 1011 47 16093 1.75 230 17:24 12.04.2020
4968 Clouds 15 1011 47 16093 1.75 230 16:59 12.04.2020
4969 Clouds 15 1011 47 16093 1.75 230 16:40 12.04.2020
4970 Clouds 15 1010 50 16093 1.75 230 16:20 12.04.2020
4971 Clouds 14 1010 50 16093 1.75 230 15:50 12.04.2020
4972 Clouds 14 1010 50 16093 1.75 230 15:31 12.04.2020
4973 Clouds 14 1009 44 16093 1.5 260 14:56 12.04.2020
4974 Clouds 15 1009 44 16093 1.5 260 14:37 12.04.2020
4975 Clear 15 1009 44 16093 2.1 240 14:19 12.04.2020
4976 Clear 15 1009 44 16093 2.1 240 13:43 12.04.2020
4977 Clouds 15 1009 42 16093 3.1 200 13:25 12.04.2020
4978 Clouds 15 1009 42 16093 3.1 200 12:56 12.04.2020
4979 Clouds 15 1009 42 16093 3.1 200 12:37 12.04.2020
4980 Clouds 16 1008 39 16093 4.1 200 12:19 12.04.2020
4981 Clouds 16 1008 39 16093 4.1 200 11:56 12.04.2020
4982 Clouds 16 1008 39 16093 4.1 200 11:36 12.04.2020
4983 Clouds 16 1009 42 16093 3.1 190 11:18 12.04.2020
4984 Clouds 16 1009 42 16093 3.1 190 10:54 12.04.2020
4985 Clouds 17 1009 42 16093 3.1 190 10:36 12.04.2020
4986 Clouds 17 1009 37 16093 3.1 210 10:18 12.04.2020
4987 Clouds 17 1009 37 16093 3.1 210 09:40 12.04.2020
4988 Clouds 18 1008 42 16093 4.1 190 09:21 12.04.2020
4989 -273 0 0 0 0 0 09:00 12.04.2020
4990 Clouds 18 1008 42 16093 4.1 190 08:41 12.04.2020
4991 Clouds 18 1008 34 16093 5.1 200 08:23 12.04.2020
4992 Clouds 18 1008 34 16093 5.1 200 07:45 12.04.2020
4993 Clouds 19 1008 30 16093 5.1 200 07:18 12.04.2020
4994 Clouds 19 1008 30 16093 5.1 200 06:35 12.04.2020
4995 Clouds 19 1008 30 16093 5.7 230 05:55 12.04.2020
4996 Clouds 20 1008 30 16093 5.7 230 05:36 12.04.2020
4997 Clouds 23 1008 23 16093 4.1 250 03:44 12.04.2020
4998 Clouds 23 1008 23 16093 4.1 250 03:24 12.04.2020
4999 Clouds 23 1008 23 16093 4.6 270 02:34 12.04.2020
5000 Clouds 24 1008 27 16093 3.6 160 01:51 12.04.2020
5001 Clouds 23 1009 25 16093 1.5 0 00:59 12.04.2020
5002 Clouds 23 1009 25 16093 1.5 0 00:41 12.04.2020
5003 Clouds 23 1010 23 16093 1.5 0 00:20 12.04.2020
5004 Clouds 23 1010 23 16093 1.5 0 23:46 11.04.2020
5005 Clouds 22 1010 23 16093 1.5 0 23:25 11.04.2020
5006 Clouds 22 1011 26 16093 1.5 0 22:42 11.04.2020
5007 Clouds 21 1012 30 16093 3.03 237 22:23 11.04.2020
5008 Clouds 21 1012 30 16093 3.03 237 22:23 11.04.2020
5009 Clouds 21 1012 30 16093 3.03 237 21:58 11.04.2020
5010 Clouds 21 1012 30 16093 3.03 237 21:38 11.04.2020
5011 Clouds 19 1013 39 16093 1.5 30 21:19 11.04.2020
5012 Clouds 18 1013 39 16093 1.5 30 20:58 11.04.2020
5013 Clouds 18 1013 39 16093 1.5 30 20:40 11.04.2020
5014 Clouds 18 1013 42 16093 1.89 227 20:21 11.04.2020
5015 Clouds 18 1013 42 16093 1.89 227 19:59 11.04.2020
5016 Clouds 18 1013 42 16093 1.89 227 19:41 11.04.2020
5017 Clouds 17 1013 50 16093 1.89 227 19:20 11.04.2020
5018 Clouds 16 1013 50 16093 1.89 227 18:58 11.04.2020
5019 Clouds 15 1013 50 16093 1.89 227 18:39 11.04.2020
5020 Clouds 14 1013 62 16093 3.1 200 18:21 11.04.2020
5021 Clouds 13 1013 62 16093 3.1 200 17:59 11.04.2020
5022 Clouds 13 1013 62 16093 3.1 200 17:41 11.04.2020
5023 Clouds 12 1013 66 16093 3.6 180 17:22 11.04.2020
5024 Clouds 11 1013 66 16093 3.6 180 16:59 11.04.2020
5025 Clouds 11 1013 66 16093 3.6 180 16:41 11.04.2020
5026 Clouds 10 1012 57 16093 1.5 170 16:20 11.04.2020
5027 Clouds 10 1012 57 16093 1.5 170 16:20 11.04.2020
5028 Clouds 10 1012 57 16093 1.5 170 15:40 11.04.2020
5029 Clouds 10 1013 57 16093 0.6 233 15:19 11.04.2020
5030 Clouds 11 1013 57 16093 0.6 233 14:44 11.04.2020
5031 Clouds 11 1013 57 16093 1.03 226 14:25 11.04.2020
5032 Clouds 11 1013 57 16093 3.6 210 14:00 11.04.2020
5033 Clouds 11 1013 57 16093 3.6 210 13:41 11.04.2020
5034 Clouds 11 1013 62 16093 2.1 190 13:22 11.04.2020
5035 Clouds 11 1013 62 16093 2.1 190 12:43 11.04.2020
5036 Clouds 11 1013 62 16093 3.1 220 12:22 11.04.2020
5037 Clouds 11 1013 62 16093 3.1 220 11:59 11.04.2020
5038 Clouds 11 1013 62 16093 3.1 220 11:40 11.04.2020
5039 Clouds 11 1014 58 16093 1.5 200 11:20 11.04.2020
5040 Clouds 11 1014 58 16093 1.5 200 10:56 11.04.2020
5041 Clouds 11 1014 58 16093 1.5 200 10:36 11.04.2020
5042 Clouds 11 1014 54 16093 1.5 240 10:18 11.04.2020
5043 Clouds 12 1014 54 16093 1.5 240 09:41 11.04.2020
5044 Clouds 12 1014 47 16093 1.5 280 09:22 11.04.2020
5045 Clouds 12 1014 47 16093 1.5 280 08:59 11.04.2020
5046 Clouds 12 1014 47 16093 1.5 280 08:41 11.04.2020
5047 Clouds 12 1014 47 16093 0.6 115 08:23 11.04.2020
5048 Clouds 13 1014 47 16093 0.6 115 07:41 11.04.2020
5049 Clouds 13 1014 44 16093 2.1 310 07:23 11.04.2020
5050 Clouds 13 1014 44 16093 2.1 310 06:37 11.04.2020
5051 Clouds 13 1014 41 16093 2.1 310 05:57 11.04.2020
5052 Clouds 15 1014 41 16093 1.5 0 03:57 11.04.2020
5053 Clouds 15 1014 41 16093 1.5 0 02:52 11.04.2020
5054 Clouds 15 1015 44 16093 1.17 149 01:26 11.04.2020
5055 Clouds 14 1016 47 16093 1.17 149 00:56 11.04.2020
5056 Clouds 14 1016 47 16093 1.17 149 00:38 11.04.2020
5057 Rain 15 1017 47 16093 1.5 260 00:18 11.04.2020
5058 Rain 15 1017 47 16093 1.5 260 00:18 11.04.2020
5059 Rain 14 1017 47 16093 1.5 260 23:42 10.04.2020
5060 Rain 15 1017 47 16093 3.1 200 23:19 10.04.2020
5061 Rain 14 1017 47 16093 3.1 200 22:58 10.04.2020
5062 Rain 14 1017 47 16093 3.1 200 22:37 10.04.2020
5063 Rain 14 1017 47 16093 3.1 200 22:37 10.04.2020
5064 Rain 14 1017 47 16093 3.1 220 22:19 10.04.2020
5065 Rain 14 1017 47 16093 3.1 220 21:42 10.04.2020
5066 Clouds 14 1017 44 16093 1.2 95 21:21 10.04.2020
5067 Clouds 14 1017 44 16093 0.69 177 20:59 10.04.2020
5068 Clouds 14 1017 44 16093 0.69 177 20:40 10.04.2020
5069 Clouds 14 1017 44 16093 3.1 290 20:20 10.04.2020
5070 Clouds 14 1017 44 16093 3.1 290 19:56 10.04.2020
5071 Clouds 14 1017 44 16093 3.1 290 19:38 10.04.2020
5072 Clouds 13 1017 44 16093 3.1 290 19:19 10.04.2020
5073 Rain 13 1017 50 16093 4.6 290 18:56 10.04.2020
5074 Rain 13 1017 50 16093 4.6 290 18:37 10.04.2020
5075 Rain 12 1017 58 16093 0.73 1 18:19 10.04.2020
5076 Rain 12 1017 58 16093 0.73 1 17:57 10.04.2020
5077 Rain 12 1017 58 16093 0.73 1 17:38 10.04.2020
5078 Clouds 11 1017 62 16093 1.5 160 17:19 10.04.2020
5079 Clouds 11 1017 62 16093 1.5 160 16:44 10.04.2020
5080 Clouds 11 1016 62 16093 1.5 160 16:23 10.04.2020
5081 Clouds 11 1016 62 16093 1.5 160 16:23 10.04.2020
5082 Clouds 10 1016 62 16093 1.5 160 15:59 10.04.2020
5083 Clouds 10 1016 62 16093 1.5 160 15:39 10.04.2020
5084 Clouds 11 1017 58 16093 1.5 200 15:21 10.04.2020
5085 Clouds 11 1017 58 16093 1.5 200 14:59 10.04.2020
5086 Clouds 11 1017 58 16093 1.5 200 14:40 10.04.2020
5087 Clouds 11 1017 58 16093 2.1 180 14:21 10.04.2020
5088 Clouds 11 1017 58 16093 2.1 180 13:49 10.04.2020
5089 Clouds 11 1017 58 16093 1.19 358 13:23 10.04.2020
5090 Clouds 11 1017 58 16093 1.19 358 12:59 10.04.2020
5091 Clouds 11 1017 58 16093 1.19 358 12:59 10.04.2020
5092 Clouds 11 1017 58 16093 1.19 358 12:41 10.04.2020
5093 Clouds 11 1018 58 16093 1.5 190 12:21 10.04.2020
5094 Clouds 11 1018 58 16093 1.5 190 11:43 10.04.2020
5095 Clouds 11 1018 50 16093 1.13 25 11:24 10.04.2020
5096 Clouds 12 1018 50 16093 1.13 25 10:58 10.04.2020
5097 Clouds 12 1018 50 16093 1.13 25 10:39 10.04.2020
5098 Clouds 12 1018 43 16093 3.1 70 10:19 10.04.2020
5099 Clouds 12 1018 43 16093 3.1 70 09:43 10.04.2020
5100 Clouds 12 1018 43 16093 3.1 70 09:43 10.04.2020
5101 Clouds 12 1018 43 16093 3.1 70 09:43 10.04.2020
5102 Clouds 12 1018 43 16093 3.1 310 09:22 10.04.2020
5103 Clouds 12 1018 43 16093 3.1 310 08:50 10.04.2020
5104 Clouds 12 1018 43 16093 3.1 310 08:27 10.04.2020
5105 Clouds 12 1018 43 16093 3.1 310 08:27 10.04.2020
5106 Clouds 12 1018 43 16093 3.1 300 07:55 10.04.2020
5107 Clouds 12 1018 43 16093 3.1 300 07:37 10.04.2020
5108 Clouds 12 1018 41 16093 3.1 340 07:19 10.04.2020
5109 Clouds 12 1018 41 16093 3.1 340 06:31 10.04.2020
5110 Clouds 12 1018 41 16093 3.1 340 06:31 10.04.2020
5111 Clouds 12 1017 41 16093 4.6 340 05:59 10.04.2020
5112 Clouds 13 1017 41 16093 4.6 340 05:29 10.04.2020
5113 Clouds 13 1017 41 16093 3.1 290 04:54 10.04.2020
5114 Rain 14 1017 38 16093 3.1 270 03:35 10.04.2020
5115 Rain 14 1017 38 16093 4.6 190 02:51 10.04.2020
5116 Rain 14 1017 38 16093 4.6 190 02:32 10.04.2020
5117 Rain 15 1018 36 16093 5.1 90 01:46 10.04.2020
5118 Rain 15 1018 36 16093 5.1 90 01:25 10.04.2020
5119 Clear 15 1018 36 16093 4.6 160 00:46 10.04.2020
5120 Rain 14 1019 41 16093 5.7 90 00:20 10.04.2020
5121 Rain 14 1019 41 16093 5.7 90 23:42 09.04.2020
5122 Clouds 15 1019 28 16093 4.6 70 23:24 09.04.2020
5123 Clouds 14 1019 28 16093 4.6 70 22:57 09.04.2020
5124 Clouds 14 1019 28 16093 4.6 70 22:39 09.04.2020
5125 Clouds 14 1020 35 16093 2.1 0 22:21 09.04.2020
5126 Clouds 14 1020 35 16093 2.1 0 21:38 09.04.2020
5127 Clouds 14 1020 31 16093 1.5 0 21:20 09.04.2020
5128 Clouds 13 1020 31 16093 1.5 0 20:47 09.04.2020
5129 Clouds 12 1021 53 16093 3.1 220 20:23 09.04.2020
5130 Clouds 12 1021 53 16093 3.1 220 19:59 09.04.2020
5131 Clouds 12 1021 53 16093 3.1 220 19:39 09.04.2020
5132 Clouds 11 1020 53 16093 2.1 0 19:20 09.04.2020
5133 Clouds 11 1020 53 16093 2.1 0 18:42 09.04.2020
5134 Clouds 10 1020 66 16093 1.5 0 18:21 09.04.2020
5135 Clouds 10 1020 66 16093 1.5 0 17:57 09.04.2020
5136 Clouds 10 1020 66 16093 1.5 0 17:38 09.04.2020
5137 Clouds 9 1019 61 16093 2.6 200 17:18 09.04.2020
5138 Clouds 9 1019 61 16093 2.6 200 16:40 09.04.2020
5139 Clouds 8 1019 61 16093 3.6 180 16:20 09.04.2020
5140 Clouds 8 1019 61 16093 3.6 180 15:56 09.04.2020
5141 Clouds 8 1019 61 16093 3.6 180 15:37 09.04.2020
5142 Clouds 8 1018 61 16093 3.1 170 15:19 09.04.2020
5143 Clouds 8 1018 61 16093 3.1 170 14:42 09.04.2020
5144 Clouds 8 1017 57 16093 2.1 0 14:21 09.04.2020
5145 Clouds 9 1017 57 16093 2.1 0 13:58 09.04.2020
5146 Clouds 9 1017 57 16093 2.1 0 13:40 09.04.2020
5147 Clouds 8 1017 57 16093 3.1 190 13:21 09.04.2020
5148 Clouds 8 1017 57 16093 3.1 190 12:54 09.04.2020
5149 Clouds 8 1017 57 16093 3.1 190 12:36 09.04.2020
5150 Clouds 9 1017 57 16093 3.1 170 12:18 09.04.2020
5151 Clouds 9 1017 57 16093 3.1 170 11:42 09.04.2020
5152 Clouds 9 1017 50 16093 3.6 190 11:20 09.04.2020
5153 Clouds 9 1017 50 16093 3.6 190 11:20 09.04.2020
5154 Clouds 9 1017 50 16093 3.6 190 10:58 09.04.2020
5155 Clouds 9 1017 50 16093 3.6 190 10:40 09.04.2020
5156 Clouds 9 1017 53 16093 3.6 180 10:21 09.04.2020
5157 Clouds 9 1017 53 16093 3.6 180 09:56 09.04.2020
5158 Clouds 10 1017 53 16093 3.6 180 09:38 09.04.2020
5159 Clouds 10 1017 53 16093 4.6 180 09:20 09.04.2020
5160 Clouds 10 1017 53 16093 4.6 180 08:44 09.04.2020
5161 Clouds 10 1016 54 16093 3.6 170 08:23 09.04.2020
5162 Clouds 10 1016 54 16093 3.6 170 07:55 09.04.2020
5163 Clouds 10 1016 54 16093 3.6 170 07:27 09.04.2020
5164 Clouds 11 1016 54 16093 4.1 150 06:55 09.04.2020
5165 Clouds 11 1015 54 16093 3.1 160 05:59 09.04.2020
5166 Clouds 11 1015 54 16093 3.1 160 05:39 09.04.2020
5167 Rain 12 1014 43 16093 3.6 170 03:50 09.04.2020
5168 Rain 14 1014 47 16093 8.7 200 02:27 09.04.2020
5169 Rain 14 1014 47 16093 8.7 200 01:41 09.04.2020
5170 Rain 13 1013 47 16093 9.8 200 01:20 09.04.2020
5171 Rain 14 1013 47 16093 9.8 200 00:41 09.04.2020
5172 Clouds 15 1012 36 16093 9.8 210 00:20 09.04.2020
5173 Clouds 16 1012 36 16093 9.8 210 23:58 08.04.2020
5174 Clouds 17 1012 36 16093 9.8 210 23:40 08.04.2020
5175 Clouds 20 1011 26 16093 3.1 80 23:20 08.04.2020
5176 Clouds 21 1012 34 16093 11.73 150 22:43 08.04.2020
5177 Clouds 21 1012 34 16093 11.73 150 22:24 08.04.2020
5178 Clouds 21 1013 26 16093 2.6 0 21:56 08.04.2020
5179 Clouds 21 1013 26 16093 2.6 0 21:37 08.04.2020
5180 Clouds 21 1013 26 16093 2.6 0 21:19 08.04.2020
5181 Clouds 20 1014 29 16093 6.7 90 20:56 08.04.2020
5182 Clouds 20 1014 29 16093 6.7 90 20:38 08.04.2020
5183 Clouds 19 1014 29 16093 6.7 90 20:19 08.04.2020
5184 Clouds 19 1014 39 16093 3.6 80 19:42 08.04.2020
5185 Clouds 19 1014 39 16093 3.6 80 19:42 08.04.2020
5186 Clouds 18 1014 39 16093 3.6 80 19:22 08.04.2020
5187 Clouds 17 1014 48 16093 8.45 123 18:56 08.04.2020
5188 Clouds 17 1014 48 16093 8.45 123 18:38 08.04.2020
5189 Clouds 15 1014 48 16093 2.77 116 18:19 08.04.2020
5190 Clouds 14 1014 58 16093 1.5 340 17:42 08.04.2020
5191 Clouds 13 1014 58 16093 1.5 340 17:22 08.04.2020
5192 Clouds 12 1013 66 16093 2.77 116 16:57 08.04.2020
5193 Clouds 11 1013 66 16093 2.77 116 16:39 08.04.2020
5194 Clouds 11 1013 66 16093 2.77 116 16:20 08.04.2020
5195 Clouds 10 1013 66 16093 2.77 116 15:39 08.04.2020
5196 Clouds 10 1013 66 16093 2.08 79 15:21 08.04.2020
5197 Clouds 10 1013 71 16093 2.1 210 14:59 08.04.2020
5198 Clouds 10 1013 71 16093 2.1 210 14:40 08.04.2020
5199 Clear 10 1013 71 16093 2.1 210 14:22 08.04.2020
5200 Clear 10 1013 71 16093 2.1 210 13:44 08.04.2020
5201 Clear 10 1014 71 16093 1.5 210 13:21 08.04.2020
5202 Clear 10 1014 71 16093 1.5 210 12:58 08.04.2020
5203 Clear 10 1014 71 16093 1.5 210 12:39 08.04.2020
5204 Clear 11 1014 66 16093 1.5 200 12:18 08.04.2020
5205 Clear 11 1014 66 16093 1.5 200 11:42 08.04.2020
5206 Clear 11 1014 62 16093 2.1 210 11:23 08.04.2020
5207 Clear 12 1014 62 16093 2.1 210 10:58 08.04.2020
5208 Clear 12 1014 62 16093 2.1 210 10:40 08.04.2020
5209 Clear 12 1015 58 16093 2.6 240 10:21 08.04.2020
5210 Clear 12 1015 58 16093 2.6 240 09:59 08.04.2020
5211 Clear 12 1015 58 16093 2.6 240 09:41 08.04.2020
5212 Clear 12 1015 62 16093 2.1 200 09:19 08.04.2020
5213 Clear 12 1015 62 16093 2.1 200 08:57 08.04.2020
5214 Clear 13 1015 62 16093 2.1 200 08:38 08.04.2020
5215 Clear 13 1015 58 16093 1.42 5 08:20 08.04.2020
5216 Clear 13 1015 58 16093 1.42 5 07:42 08.04.2020
5217 Clear 13 1015 55 16093 1.5 300 07:21 08.04.2020
5218 Clear 14 1015 55 16093 1.5 300 06:28 08.04.2020
5219 Clouds 16 1014 51 16093 2.6 350 04:55 08.04.2020
5220 Clouds 17 1015 45 16093 4.1 360 02:50 08.04.2020
5221 Rain 17 1016 55 16093 5.1 350 02:21 08.04.2020
5222 Rain 17 1016 55 16093 5.1 350 01:56 08.04.2020
5223 Rain 17 1016 55 16093 5.1 350 01:28 08.04.2020
5224 Rain 16 1017 67 16093 6.2 340 00:45 08.04.2020
5225 Rain 16 1017 67 16093 6.2 340 00:25 08.04.2020
5226 Rain 15 1018 76 16093 4.1 280 23:41 07.04.2020
5227 Rain 15 1018 67 16093 3.1 290 23:23 07.04.2020
5228 Rain 16 1018 67 16093 3.1 290 22:59 07.04.2020
5229 Rain 16 1018 67 16093 3.1 290 22:40 07.04.2020
5230 Rain 15 1018 48 16093 2.6 350 22:21 07.04.2020
5231 Clouds 16 1018 48 16093 2.6 350 22:00 07.04.2020
5232 Clouds 17 1018 48 16093 2.6 350 21:41 07.04.2020
5233 Clouds 16 1018 48 16093 2.6 350 21:21 07.04.2020
5234 Clouds 16 1018 48 16093 2.6 350 21:21 07.04.2020
5235 Clouds 16 1018 48 16093 3.6 350 20:58 07.04.2020
5236 Clouds 16 1018 48 16093 3.6 350 20:39 07.04.2020
5237 Clouds 16 1018 51 16093 2.1 20 20:20 07.04.2020
5238 Clouds 16 1018 51 16093 2.1 20 19:57 07.04.2020
5239 Clouds 16 1018 51 16093 2.1 20 19:37 07.04.2020
5240 Clouds 15 1018 51 16093 2.1 20 19:19 07.04.2020
5241 Clouds 15 1018 51 16093 2.1 20 19:19 07.04.2020
5242 Clouds 14 1018 58 16093 3.1 350 18:57 07.04.2020
5243 Clouds 14 1018 58 16093 3.1 350 18:38 07.04.2020
5244 Clouds 14 1018 58 16093 3.1 350 18:19 07.04.2020
5245 Clouds 13 1018 66 16093 5.1 350 17:44 07.04.2020
5246 Clouds 12 1018 66 16093 5.1 350 17:21 07.04.2020
5247 Clouds 12 1017 66 16093 2.1 20 16:47 07.04.2020
5248 Clouds 12 1017 66 16093 2.1 20 16:47 07.04.2020
5249 Clouds 11 1017 66 16093 2.1 20 16:28 07.04.2020
5250 Clouds 11 1016 66 16093 1.5 10 15:57 07.04.2020
5251 Clouds 11 1016 66 16093 1.5 10 15:38 07.04.2020
5252 Clouds 11 1016 66 16093 1.5 10 15:20 07.04.2020
5253 Clouds 11 1016 62 16093 1.5 10 14:41 07.04.2020
5254 Rain 11 1015 62 16093 2.1 320 14:22 07.04.2020
5255 Rain 11 1015 62 16093 2.1 320 13:57 07.04.2020
5256 Rain 11 1015 62 16093 2.1 320 13:37 07.04.2020
5257 Clouds 11 1015 62 16093 4.1 320 13:18 07.04.2020
5258 Clouds 11 1015 62 16093 4.1 320 12:55 07.04.2020
5259 Clouds 12 1015 62 16093 4.1 320 12:36 07.04.2020
5260 Clouds 12 1015 62 16093 4.1 320 12:36 07.04.2020
5261 Clouds 12 1016 62 16093 1.24 226 12:18 07.04.2020
5262 Clouds 12 1016 62 16093 1.24 226 11:42 07.04.2020
5263 Clouds 12 1016 66 16093 1.5 340 11:24 07.04.2020
5264 Clouds 12 1016 66 16093 1.5 340 10:58 07.04.2020
5265 Clouds 12 1016 66 16093 1.5 340 10:37 07.04.2020
5266 Rain 12 1015 66 16093 2.6 10 10:19 07.04.2020
5267 Rain 12 1015 66 16093 2.6 10 09:45 07.04.2020
5268 Clouds 12 1015 71 16093 4.1 310 09:18 07.04.2020
5269 Clouds 12 1015 71 16093 4.1 310 08:55 07.04.2020
5270 Clouds 12 1015 71 16093 4.1 310 08:36 07.04.2020
5271 Rain 12 1014 76 16093 2.6 20 08:18 07.04.2020
5272 Rain 12 1014 76 16093 2.6 20 07:40 07.04.2020
5273 Rain 13 1014 67 16093 3.6 310 07:21 07.04.2020
5274 Rain 13 1014 67 16093 3.6 310 06:51 07.04.2020
5275 Rain 13 1013 42 16093 2.6 290 06:21 07.04.2020
5276 Rain 14 1013 42 16093 2.6 290 05:38 07.04.2020
5277 Rain 16 1012 42 16093 4.6 280 04:46 07.04.2020
5278 Rain 17 1011 36 16093 7.7 270 03:26 07.04.2020
5279 Clouds 18 1010 29 16093 6.2 210 02:54 07.04.2020
5280 Clouds 18 1010 28 16093 4.6 200 01:48 07.04.2020
5281 Clouds 18 1010 28 16093 4.6 200 01:25 07.04.2020
5282 Clouds 18 1011 32 16093 3.6 160 00:29 07.04.2020
5283 Clouds 18 1011 32 16093 3.6 160 00:29 07.04.2020
5284 Clouds 18 1011 34 16093 4.6 140 23:55 06.04.2020
5285 Clouds 18 1011 34 16093 4.6 140 23:36 06.04.2020
5286 Clouds 17 1011 34 16093 3.6 170 23:18 06.04.2020
5287 Clouds 17 1011 34 16093 3.6 170 22:39 06.04.2020
5288 Clouds 17 1011 33 16093 4.1 140 22:21 06.04.2020
5289 Clouds 17 1011 33 16093 4.1 140 21:57 06.04.2020
5290 Clouds 17 1011 33 16093 4.1 140 21:38 06.04.2020
5291 Clouds 17 1011 33 16093 5.7 170 21:18 06.04.2020
5292 Clouds 17 1011 33 16093 5.7 170 20:55 06.04.2020
5293 Clouds 16 1011 33 16093 5.7 170 20:37 06.04.2020
5294 Clouds 16 1011 36 16093 3.1 0 20:18 06.04.2020
5295 Clouds 16 1011 36 16093 3.1 0 19:41 06.04.2020
5296 Clouds 16 1010 38 16093 4.6 200 19:22 06.04.2020
5297 Clouds 15 1010 38 16093 4.6 200 18:58 06.04.2020
5298 Clouds 15 1010 38 16093 4.6 200 18:39 06.04.2020
5299 Clouds 14 1010 44 16093 3.6 170 18:20 06.04.2020
5300 Clouds 14 1010 44 16093 3.6 170 17:42 06.04.2020
5301 Clouds 14 1009 44 16093 2.6 180 17:20 06.04.2020
5302 Clouds 13 1009 44 16093 2.6 180 16:50 06.04.2020
5303 Clouds 13 1009 44 16093 2.6 180 16:31 06.04.2020
5304 Clouds 13 1008 39 16093 4.1 212 15:41 06.04.2020
5305 Clouds 14 1007 38 16093 3.6 200 14:00 06.04.2020
5306 Clouds 14 1007 38 16093 3.6 200 14:00 06.04.2020
5307 Clouds 14 1007 38 16093 3.6 200 13:40 06.04.2020
5308 Clouds 14 1007 38 16093 3.6 200 13:40 06.04.2020
5309 Clouds 14 1007 38 16093 3.6 200 13:20 06.04.2020
5310 Clouds 14 1007 38 16093 3.6 200 13:20 06.04.2020
5311 Clouds 14 1007 38 16093 3.6 200 13:20 06.04.2020
5312 Clouds 14 1007 38 16093 3.6 200 13:20 06.04.2020
5313 Clouds 14 1006 41 16093 3.1 180 12:23 06.04.2020
5314 Clouds 14 1006 41 16093 3.1 180 12:22 06.04.2020
5315 Clouds 14 1007 41 16093 4.1 200 11:55 06.04.2020
5316 Clouds 15 1007 41 16093 4.1 200 11:33 06.04.2020
5317 Clouds 15 1007 41 16093 4.1 200 11:33 06.04.2020
5318 Clouds 15 1007 41 16093 4.1 200 11:33 06.04.2020
5319 Clouds 15 1007 41 16093 4.1 200 11:33 06.04.2020
5320 Clouds 15 1007 41 16093 4.1 200 11:33 06.04.2020
5321 Clouds 15 1007 41 16093 3.1 200 10:52 06.04.2020
5322 Clouds 15 1007 41 16093 3.1 200 10:52 06.04.2020
5323 Clouds 15 1007 41 16093 3.1 200 10:52 06.04.2020
5324 Clouds 15 1007 41 16093 3.1 200 10:22 06.04.2020
5325 Clouds 16 1007 39 16093 3.1 180 09:47 06.04.2020
5326 Clouds 16 1007 39 16093 3.1 180 09:22 06.04.2020
5327 Clouds 16 1006 36 16093 4.6 200 08:55 06.04.2020
5328 Clouds 16 1006 36 16093 4.6 200 08:31 06.04.2020
5329 Clouds 17 1006 39 16093 5.7 240 07:39 06.04.2020
5330 Clouds 18 1005 26 16093 7.7 180 06:47 06.04.2020
5331 Clouds 19 1005 26 16093 7.7 180 06:24 06.04.2020
5332 Clouds 20 1004 21 16093 7.7 190 04:20 06.04.2020
5333 Clouds 22 1004 20 16093 8.2 260 02:59 06.04.2020
5334 Clouds 22 1004 20 16093 8.2 260 02:36 06.04.2020
5335 Clouds 22 1004 23 16093 4.6 230 01:28 06.04.2020
5336 Clouds 23 1005 20 16093 5.7 200 00:46 06.04.2020
5337 Clouds 22 1005 20 16093 5.7 200 00:23 06.04.2020
5338 Clouds 22 1006 24 16093 5.1 230 23:44 05.04.2020
5339 Clouds 22 1006 24 16093 5.1 230 23:26 05.04.2020
5340 Clouds 22 1007 21 16093 6.2 220 22:55 05.04.2020
5341 Clouds 22 1007 21 16093 6.2 220 22:37 05.04.2020
5342 Clouds 21 1007 21 16093 6.2 220 22:18 05.04.2020
5343 Clouds 21 1008 26 16093 7.7 200 21:46 05.04.2020
5344 Clouds 21 1008 26 16093 7.7 200 21:25 05.04.2020
5345 Clouds 19 1008 32 16093 8.2 200 20:47 05.04.2020
5346 Clouds 19 1008 32 16093 8.2 200 20:19 05.04.2020
5347 Clouds 19 1008 32 16093 8.2 200 20:19 05.04.2020
5348 Clouds 19 1008 32 16093 8.2 200 20:19 05.04.2020
5349 Clouds 19 1008 32 16093 8.2 200 20:19 05.04.2020
5350 Clouds 19 1008 32 16093 8.2 200 20:19 05.04.2020
5351 Clouds 19 1008 36 16093 5.7 190 19:38 05.04.2020
5352 Clouds 18 1008 36 16093 5.7 190 19:20 05.04.2020
5353 Clouds 17 1008 39 16093 5.7 180 18:44 05.04.2020
5354 Clouds 17 1008 39 16093 5.7 180 18:44 05.04.2020
5355 Clouds 17 1008 39 16093 5.7 180 18:44 05.04.2020
5356 Clouds 17 1008 39 16093 5.7 180 18:44 05.04.2020
5357 Clouds 16 1007 44 16093 7.7 190 17:52 05.04.2020
5358 Clouds 16 1007 44 16093 7.7 190 17:52 05.04.2020
5359 Clouds 16 1007 44 16093 7.7 190 17:52 05.04.2020
5360 Clouds 16 1007 44 16093 7.7 190 17:52 05.04.2020
5361 Clouds 15 1007 44 16093 7.7 190 17:26 05.04.2020
5362 Clouds 15 1007 44 16093 7.7 190 17:25 05.04.2020
5363 Clouds 15 1007 44 16093 7.7 190 17:25 05.04.2020
5364 Clouds 15 1007 44 16093 7.7 190 17:25 05.04.2020
5365 Clouds 15 1007 47 16093 5.1 170 17:02 05.04.2020
5366 Clouds 15 1007 47 16093 5.1 170 17:02 05.04.2020
5367 Clouds 15 1007 47 16093 5.1 170 17:02 05.04.2020
5368 Clouds 15 1007 47 16093 5.1 170 16:56 05.04.2020
5369 Clouds 14 1007 47 16093 5.1 170 16:56 05.04.2020
5370 Clouds 14 1007 47 16093 5.1 170 16:20 05.04.2020
5371 Clouds 14 1006 47 16093 3.6 190 15:52 05.04.2020
5372 Clouds 14 1006 47 16093 3.6 190 15:32 05.04.2020
5373 Clouds 14 1005 44 16093 6.2 190 14:50 05.04.2020
5374 Clouds 14 1005 44 16093 6.2 190 14:25 05.04.2020
5375 Clouds 14 1005 44 16093 6.2 190 14:25 05.04.2020
5376 Clouds 14 1005 44 16093 8.2 180 13:43 05.04.2020
5377 Clouds 15 1005 38 16093 6.2 190 12:49 05.04.2020
5378 Clouds 15 1005 38 16093 6.2 190 12:49 05.04.2020
5379 Clouds 15 1005 38 16093 7.2 180 11:41 05.04.2020
5380 Clouds 15 1005 38 16093 7.2 180 11:21 05.04.2020
5381 Clouds 16 1006 33 16093 7.2 180 10:57 05.04.2020
5382 Clouds 16 1006 33 16093 7.2 180 10:38 05.04.2020
5383 Clouds 16 1006 33 16093 7.2 180 10:38 05.04.2020
5384 Clouds 16 1006 33 16093 7.2 180 10:38 05.04.2020
5385 Clouds 16 1006 33 16093 7.2 180 10:18 05.04.2020
5386 Clouds 17 1006 31 16093 2.6 180 09:42 05.04.2020
5387 Clouds 17 1006 31 16093 2.6 180 09:23 05.04.2020
5388 Clouds 17 1006 31 16093 2.6 180 09:23 05.04.2020
5389 Clouds 17 1006 31 16093 2.6 180 09:23 05.04.2020
5390 Clouds 17 1006 31 16093 2.6 180 09:22 05.04.2020
5391 Clouds 17 1006 31 16093 2.6 180 09:22 05.04.2020
5392 Clouds 18 1005 24 16093 5.7 200 07:41 05.04.2020
5393 Clouds 21 1004 19 16093 5.7 210 04:36 05.04.2020
5394 Clouds 22 1004 16 16093 6.7 240 03:32 05.04.2020
5395 Clouds 23 1004 14 16093 6.2 220 02:51 05.04.2020
5396 Clouds 24 1005 14 16093 6.2 240 01:48 05.04.2020
5397 Clouds 24 1005 14 16093 6.2 240 01:28 05.04.2020
5398 Clouds 24 1006 12 16093 6.7 190 00:44 05.04.2020
5399 Clouds 24 1006 12 16093 6.7 190 00:21 05.04.2020
5400 Clouds 23 1007 16 16093 2.6 230 23:54 04.04.2020
5401 Clouds 23 1007 16 16093 2.6 230 23:36 04.04.2020
5402 Clouds 23 1007 16 16093 2.6 230 23:18 04.04.2020
5403 Clouds 22 1008 17 16093 2.6 0 22:40 04.04.2020
5404 Clouds 22 1008 17 16093 2.6 0 22:21 04.04.2020
5405 Clear 21 1009 18 16093 1.5 0 21:58 04.04.2020
5406 Clear 21 1009 18 16093 1.5 0 21:39 04.04.2020
5407 Clear 20 1009 18 16093 1.5 0 21:19 04.04.2020
5408 Clear 19 1009 17 16093 2.6 0 20:58 04.04.2020
5409 Clear 19 1009 17 16093 2.6 0 20:39 04.04.2020
5410 Clear 19 1009 17 16093 2.6 0 20:21 04.04.2020
5411 Clear 18 1010 23 16093 2.1 0 19:57 04.04.2020
5412 Clear 18 1010 23 16093 2.1 0 19:37 04.04.2020
5413 Clear 17 1010 23 16093 2.1 0 19:19 04.04.2020
5414 Clear 17 1010 23 16093 2.1 0 19:19 04.04.2020
5415 Clear 17 1009 25 16093 3.56 182 18:55 04.04.2020
5416 Clear 16 1009 25 16093 3.56 182 18:37 04.04.2020
5417 Clear 15 1009 25 16093 1.71 206 18:18 04.04.2020
5418 Clear 14 1009 30 16093 2.1 200 17:41 04.04.2020
5419 Clear 13 1009 30 16093 2.1 200 17:20 04.04.2020
5420 Clear 13 1009 32 16093 3.1 260 16:56 04.04.2020
5421 Clear 12 1009 32 16093 3.1 260 16:38 04.04.2020
5422 Clear 11 1009 32 16093 3.1 260 16:19 04.04.2020
5423 Clear 11 1008 32 16093 2.6 200 15:41 04.04.2020
5424 Clear 11 1008 32 16093 2.6 200 15:23 04.04.2020
5425 Clear 11 1008 32 16093 1.5 200 14:57 04.04.2020
5426 Clear 11 1008 32 16093 1.5 200 14:39 04.04.2020
5427 Clear 11 1008 32 16093 1.5 200 14:21 04.04.2020
5428 Clear 11 1008 30 16093 1.68 215 13:55 04.04.2020
5429 Clear 12 1008 30 16093 1.68 215 13:37 04.04.2020
5430 Clear 12 1008 30 16093 1.68 215 13:18 04.04.2020
5431 Clear 12 1008 30 16093 1.68 215 13:18 04.04.2020
5432 Clear 12 1008 30 16093 2.1 230 12:44 04.04.2020
5433 Clear 12 1008 30 16093 2.1 230 12:23 04.04.2020
5434 Clear 12 1008 30 16093 2.1 230 12:23 04.04.2020
5435 Clear 12 1008 30 16093 2.1 190 11:55 04.04.2020
5436 Clear 13 1008 30 16093 2.1 190 11:37 04.04.2020
5437 Clear 13 1008 30 16093 2.1 190 11:18 04.04.2020
5438 Clear 13 1009 28 16093 2.6 200 10:55 04.04.2020
5439 Clear 13 1009 28 16093 2.6 200 10:37 04.04.2020
5440 Clear 13 1009 28 16093 2.6 200 10:18 04.04.2020
5441 Clear 14 1009 26 16093 2.1 220 09:54 04.04.2020
5442 Clear 14 1009 26 16093 2.1 220 09:36 04.04.2020
5443 Clear 14 1009 26 16093 2.1 220 09:18 04.04.2020
5444 Clear 14 1009 25 16093 1.5 220 08:38 04.04.2020
5445 Clear 14 1009 25 16093 1.5 220 08:19 04.04.2020
5446 Clear 15 1009 18 16093 1.5 60 07:41 04.04.2020
5447 Clear 15 1009 18 16093 1.5 60 07:23 04.04.2020
5448 Clouds 16 1009 17 16093 2.6 10 06:46 04.04.2020
5449 Clouds 17 1009 17 16093 2.6 10 06:18 04.04.2020
5450 Clouds 17 1008 16 16093 3.1 60 05:41 04.04.2020
5451 Clouds 18 1008 16 16093 3.1 60 05:22 04.04.2020
5452 Clouds 19 1008 14 16093 5.7 70 04:25 04.04.2020
5453 Clouds 20 1008 13 16093 3.6 90 03:47 04.04.2020
5454 Clouds 22 1008 12 16093 4.6 70 02:49 04.04.2020
5455 Clouds 21 1008 12 16093 4.6 70 02:30 04.04.2020
5456 Clouds 21 1009 11 16093 3.6 60 01:51 04.04.2020
5457 Clouds 21 1009 11 16093 3.6 60 01:22 04.04.2020
5458 Clouds 21 1010 12 16093 1.5 0 00:47 04.04.2020
5459 Clouds 21 1010 12 16093 1.5 0 00:27 04.04.2020
5460 Clouds 20 1011 11 16093 3.1 80 23:39 03.04.2020
5461 Clouds 20 1011 11 16093 3.1 80 23:39 03.04.2020
5462 Clouds 20 1011 11 16093 3.1 80 23:21 03.04.2020
5463 Clouds 19 1012 14 16093 0.57 132 22:56 03.04.2020
5464 Clouds 19 1012 14 16093 0.57 132 22:38 03.04.2020
5465 Clouds 19 1012 14 16093 0.57 132 22:18 03.04.2020
5466 Clouds 19 1013 15 16093 2.1 90 21:43 03.04.2020
5467 Clouds 18 1013 15 16093 2.1 90 21:23 03.04.2020
5468 Clouds 17 1014 14 16093 3.6 50 20:56 03.04.2020
5469 Clouds 17 1014 14 16093 3.6 50 20:37 03.04.2020
5470 Clouds 17 1014 14 16093 3.6 50 20:19 03.04.2020
5471 Clouds 16 1015 17 16093 3.1 60 19:56 03.04.2020
5472 Clouds 16 1015 17 16093 3.1 60 19:37 03.04.2020
5473 Clouds 16 1015 17 16093 3.1 60 19:19 03.04.2020
5474 Clouds 15 1015 19 16093 3.1 50 18:58 03.04.2020
5475 Clouds 15 1015 19 16093 3.1 50 18:40 03.04.2020
5476 Clouds 14 1015 19 16093 3.1 50 18:22 03.04.2020
5477 Clouds 13 1015 20 16093 2.6 30 17:43 03.04.2020
5478 Clouds 12 1015 20 16093 2.6 30 17:21 03.04.2020
5479 Clouds 12 1015 20 16093 2.6 30 17:21 03.04.2020
5480 Clouds 11 1014 23 16093 2.1 350 16:58 03.04.2020
5481 Clouds 10 1014 23 16093 2.1 350 16:40 03.04.2020
5482 Clouds 10 1014 23 16093 2.1 350 16:21 03.04.2020
5483 Clear 9 1014 25 16093 1.5 10 15:57 03.04.2020
5484 Clear 9 1014 25 16093 1.5 10 15:38 03.04.2020
5485 Clear 9 1014 25 16093 1.5 10 15:19 03.04.2020
5486 Clear 8 1013 49 16093 1.88 30 14:41 03.04.2020
5487 Clear 8 1013 49 16093 1.88 30 14:41 03.04.2020
5488 Clear 10 1013 20 16093 3.6 10 14:22 03.04.2020
5489 Clear 10 1013 20 16093 3.6 10 13:57 03.04.2020
5490 Clear 10 1013 20 16093 3.6 10 13:38 03.04.2020
5491 Clear 10 1013 20 16093 3.6 10 13:20 03.04.2020
5492 Clear 11 1013 20 16093 4.1 30 12:43 03.04.2020
5493 Clear 11 1013 20 16093 4.1 30 12:20 03.04.2020
5494 Clear 11 1013 26 16093 1.47 29 11:56 03.04.2020
5495 Clear 11 1013 20 16093 4.1 40 11:37 03.04.2020
5496 Clear 11 1013 20 16093 4.1 40 11:18 03.04.2020
5497 Clear 12 1013 28 16093 1.5 200 10:58 03.04.2020
5498 Clear 12 1013 28 16093 1.5 200 10:38 03.04.2020
5499 Clear 12 1013 28 16093 1.5 200 10:20 03.04.2020
5500 Clear 12 1013 28 16093 3.1 280 09:57 03.04.2020
5501 Clear 12 1013 28 16093 3.1 280 09:39 03.04.2020
5502 Clear 12 1013 28 16093 3.1 280 09:21 03.04.2020
5503 Clear 12 1013 24 16093 2.1 300 08:55 03.04.2020
5504 Clear 12 1013 24 16093 2.1 300 08:36 03.04.2020
5505 Clear 13 1013 24 16093 2.1 300 08:18 03.04.2020
5506 Clear 14 1013 20 16093 2.6 70 07:41 03.04.2020
5507 Clear 14 1013 20 16093 2.6 70 07:23 03.04.2020
5508 Clear 15 1013 17 16093 2.6 70 06:38 03.04.2020
5509 Clear 15 1013 17 16093 3.6 80 06:20 03.04.2020
5510 Clear 16 1012 17 16093 4.6 80 05:34 03.04.2020
5511 Clouds 19 1011 14 16093 2.6 40 03:40 03.04.2020
5512 Clouds 20 1012 15 16093 2.46 18 02:53 03.04.2020
5513 Clouds 20 1012 15 16093 3.1 330 01:36 03.04.2020
5514 Clouds 20 1012 15 16093 3.1 330 01:18 03.04.2020
5515 Clouds 20 1012 15 16093 2.89 21 00:34 03.04.2020
5516 Clouds 20 1013 15 16093 4.6 350 23:57 02.04.2020
5517 Clouds 20 1013 15 16093 4.6 350 23:39 02.04.2020
5518 Clouds 20 1013 15 16093 4.6 350 23:19 02.04.2020
5519 Clouds 20 1013 15 16093 4.6 350 23:19 02.04.2020
5520 Clouds 19 1013 15 16093 5.1 360 22:43 02.04.2020
5521 Clouds 19 1013 15 16093 5.1 360 22:25 02.04.2020
5522 Clouds 19 1013 16 16093 7.2 20 21:59 02.04.2020
5523 Clouds 19 1013 16 16093 7.2 20 21:59 02.04.2020
5524 Clouds 18 1013 16 16093 7.2 20 21:37 02.04.2020
5525 Clouds 18 1013 16 16093 7.2 20 21:19 02.04.2020
5526 Clouds 18 1014 17 16093 9.3 20 20:55 02.04.2020
5527 Clouds 18 1014 17 16093 9.3 20 20:37 02.04.2020
5528 Clouds 17 1014 17 16093 9.3 20 20:18 02.04.2020
5529 Clouds 17 1013 18 16093 7.7 360 19:42 02.04.2020
5530 Clouds 16 1013 18 16093 7.7 360 19:20 02.04.2020
5531 Clear 16 1012 21 16093 9.3 360 18:56 02.04.2020
5532 Clear 16 1012 21 16093 9.3 360 18:38 02.04.2020
5533 Clear 15 1012 21 16093 9.3 360 18:19 02.04.2020
5534 Clear 15 1011 21 16093 8.7 360 17:44 02.04.2020
5535 Clear 14 1011 21 16093 8.7 360 17:26 02.04.2020
5536 Clear 14 1010 21 16093 5.7 30 16:59 02.04.2020
5537 Clear 14 1010 21 16093 5.7 30 16:40 02.04.2020
5538 Clear 14 1010 21 16093 5.7 30 16:22 02.04.2020
5539 Clear 14 1008 38 16093 3.1 150 15:57 02.04.2020
5540 Clear 14 1008 38 16093 3.1 150 15:39 02.04.2020
5541 Clear 14 1008 38 16093 3.1 150 15:19 02.04.2020
5542 Clear 14 1007 30 16093 3.1 200 14:57 02.04.2020
5543 Clear 14 1007 30 16093 3.1 200 14:38 02.04.2020
5544 Clear 14 1007 28 16093 3.1 200 14:18 02.04.2020
5545 Clear 15 1006 31 16093 2.6 210 13:55 02.04.2020
5546 Clear 15 1006 31 16093 2.6 210 13:37 02.04.2020
5547 Clear 15 1006 31 16093 2.6 210 13:18 02.04.2020
5548 Clear 16 1005 27 16093 4.6 220 12:45 02.04.2020
5549 Clear 16 1005 27 16093 4.6 220 12:45 02.04.2020
5550 Clear 16 1005 27 16093 4.6 220 12:45 02.04.2020
5551 Clear 16 1005 27 16093 4.6 220 12:20 02.04.2020
5552 Clear 16 1005 27 16093 4.1 210 11:58 02.04.2020
5553 Clear 16 1005 27 16093 4.1 210 11:58 02.04.2020
5554 Clear 16 1005 27 16093 4.1 210 11:39 02.04.2020
5555 Clear 16 1005 27 16093 4.1 210 11:20 02.04.2020
5556 Clear 17 1003 25 16093 6.7 210 10:56 02.04.2020
5557 Clear 17 1003 25 16093 6.7 210 10:38 02.04.2020
5558 Clear 17 1003 24 16093 7.2 210 10:20 02.04.2020
5559 Clear 17 1003 24 16093 7.2 210 09:58 02.04.2020
5560 Clear 17 1003 24 16093 7.2 210 09:58 02.04.2020
5561 Clear 18 1003 24 16093 7.2 210 09:40 02.04.2020
5562 Clear 18 1003 24 16093 7.2 210 09:20 02.04.2020
5563 Clear 19 1003 21 16093 5.1 210 08:47 02.04.2020
5564 Clear 19 1003 21 16093 5.1 210 08:28 02.04.2020
5565 Clear 19 1003 18 16093 8.7 220 07:54 02.04.2020
5566 Clear 20 1003 18 16093 8.7 220 07:36 02.04.2020
5567 Clear 20 1003 18 16093 8.7 220 07:18 02.04.2020
5568 Clear 21 1002 17 16093 8.7 220 06:23 02.04.2020
5569 Clear 22 1002 16 16093 6.7 220 05:46 02.04.2020
5570 Clear 22 1002 16 16093 6.7 220 05:46 02.04.2020
5571 Clear 22 1002 16 16093 6.7 220 05:46 02.04.2020
5572 Clouds 23 1002 14 16093 6.2 210 04:55 02.04.2020
5573 Clouds 26 1003 18 16093 5.7 220 02:19 02.04.2020
5574 Clouds 26 1004 18 16093 4.1 210 00:59 02.04.2020
5575 Clouds 26 1004 18 16093 4.1 210 00:38 02.04.2020
5576 Clouds 26 1004 18 16093 4.1 210 00:19 02.04.2020
5577 Clouds 26 1005 19 16093 5.1 180 23:38 01.04.2020
5578 Clouds 26 1005 19 16093 5.1 180 23:19 01.04.2020
5579 Clouds 24 1006 23 16093 2.6 60 22:56 01.04.2020
5580 Clouds 24 1006 23 16093 2.6 60 22:37 01.04.2020
5581 Clouds 24 1006 23 16093 2.6 60 22:19 01.04.2020
5582 Clouds 23 1007 26 16093 2.1 80 21:39 01.04.2020
5583 Clouds 22 1007 26 16093 2.1 80 21:19 01.04.2020
5584 Clouds 22 1008 28 16093 3.6 70 20:56 01.04.2020
5585 Clouds 21 1008 28 16093 3.6 70 20:38 01.04.2020
5586 Clouds 21 1008 28 16093 3.6 70 20:19 01.04.2020
5587 Clouds 20 1009 29 16093 1.5 360 19:55 01.04.2020
5588 Clouds 20 1009 29 16093 1.5 360 19:37 01.04.2020
5589 Clouds 20 1009 29 16093 1.5 360 19:19 01.04.2020
5590 Clouds 19 1009 31 16093 3.34 211 18:41 01.04.2020
5591 Clouds 18 1009 31 16093 3.34 211 18:21 01.04.2020
5592 Clouds 16 1009 38 16093 1.5 270 17:56 01.04.2020
5593 Clouds 16 1009 38 16093 1.5 270 17:37 01.04.2020
5594 Clouds 15 1009 38 16093 1.5 270 17:18 01.04.2020
5595 Clouds 14 1008 47 16093 2.1 210 16:56 01.04.2020
5596 Clouds 13 1008 47 16093 2.1 210 16:38 01.04.2020
5597 Clouds 12 1008 47 16093 2.1 210 16:20 01.04.2020
5598 Clouds 12 1008 41 16093 2.37 215 15:42 01.04.2020
5599 Clouds 12 1008 41 16093 2.37 215 15:22 01.04.2020
5600 Clouds 12 1008 38 16093 2.1 240 14:59 01.04.2020
5601 Clouds 13 1008 38 16093 2.1 240 14:39 01.04.2020
5602 Clouds 13 1008 38 16093 2.1 240 14:21 01.04.2020
5603 Clouds 13 1008 41 16093 2.6 290 13:59 01.04.2020
5604 Clouds 13 1008 41 16093 2.6 290 13:38 01.04.2020
5605 Clouds 13 1008 41 16093 2.6 290 13:20 01.04.2020
5606 Clouds 14 1009 38 16093 2.6 300 12:57 01.04.2020
5607 Clouds 14 1009 38 16093 2.6 300 12:37 01.04.2020
5608 Clouds 14 1009 38 16093 2.6 300 12:18 01.04.2020
5609 Clouds 14 1009 38 16093 2.6 300 12:18 01.04.2020
5610 Clouds 14 1009 36 16093 2.1 260 11:56 01.04.2020
5611 Clouds 15 1009 36 16093 2.1 260 11:37 01.04.2020
5612 Clouds 15 1009 36 16093 2.1 260 11:18 01.04.2020
5613 Clouds 16 1009 33 16093 2.1 270 10:38 01.04.2020
5614 Clouds 16 1009 33 16093 2.1 270 10:20 01.04.2020
5615 Clouds 16 1010 31 16093 2.1 220 09:58 01.04.2020
5616 Clouds 17 1010 31 16093 2.1 220 09:39 01.04.2020
5617 Clouds 17 1010 27 16093 2.1 220 09:19 01.04.2020
5618 Clouds 17 1011 25 16093 2.1 210 08:43 01.04.2020
5619 Clouds 17 1011 25 16093 2.1 210 08:18 01.04.2020
5620 Clouds 18 1011 25 16093 3.6 200 07:48 01.04.2020
5621 Clouds 18 1011 25 16093 3.6 200 07:22 01.04.2020
5622 Clouds 19 1011 26 16093 3.1 170 06:59 01.04.2020
5623 Clouds 19 1011 26 16093 3.1 170 06:38 01.04.2020
5624 Clouds 19 1011 26 16093 3.1 170 06:20 01.04.2020
5625 Clouds 21 1012 23 16093 2.1 80 04:38 01.04.2020
5626 Clouds 23 1012 22 16093 4.1 80 03:35 01.04.2020
5627 Clouds 23 1013 16 16093 3.1 110 02:59 01.04.2020
5628 Clouds 24 1013 16 16093 3.1 110 02:23 01.04.2020
5629 Clouds 24 1014 17 16093 2.6 30 01:43 01.04.2020
5630 Clouds 23 1014 17 16093 2.6 30 01:23 01.04.2020
5631 Clouds 23 1015 17 16093 2.1 0 00:46 01.04.2020
5632 Clouds 23 1015 17 16093 2.1 0 00:46 01.04.2020
5633 Clouds 23 1015 17 16093 2.1 0 00:21 01.04.2020
5634 Clouds 22 1017 19 16093 2.6 10 23:49 31.03.2020
5635 Clouds 22 1017 19 16093 2.6 10 23:28 31.03.2020
5636 Clouds 22 1017 19 16093 2.6 10 22:59 31.03.2020
5637 Clouds 22 1018 21 16093 3.1 0 22:38 31.03.2020
5638 Clouds 22 1018 21 16093 3.1 0 22:20 31.03.2020
5639 Clouds 21 1018 21 16093 3.1 0 21:57 31.03.2020
5640 Clouds 21 1019 24 16093 3.1 90 21:39 31.03.2020
5641 Clouds 20 1019 24 16093 3.1 90 21:20 31.03.2020
5642 Clouds 19 1019 24 16093 3.1 90 20:56 31.03.2020
5643 Clouds 19 1020 20 16093 0.72 87 20:37 31.03.2020
5644 Clouds 19 1021 20 16093 0.72 87 20:18 31.03.2020
5645 Clouds 19 1021 20 16093 0.72 87 20:18 31.03.2020
5646 Clouds 18 1021 20 16093 0.72 87 19:54 31.03.2020
5647 Clouds 18 1021 20 16093 0.72 87 19:36 31.03.2020
5648 Clouds 18 1021 20 16093 0.72 87 19:18 31.03.2020
5649 Clouds 16 1021 36 16093 0.72 87 18:41 31.03.2020
5650 Clouds 16 1021 36 16093 0.32 56 18:19 31.03.2020
5651 Clouds 15 1021 36 16093 0.32 56 17:56 31.03.2020
5652 Clouds 14 1021 43 16093 1.5 180 17:37 31.03.2020
5653 Clouds 13 1021 43 16093 1.5 180 17:19 31.03.2020
5654 Clouds 11 1020 50 16093 2.1 220 16:41 31.03.2020
5655 Clouds 10 1020 50 16093 2.1 220 16:20 31.03.2020
5656 Clouds 10 1020 50 16093 2.1 210 15:59 31.03.2020
5657 Clouds 10 1020 50 16093 2.1 210 15:41 31.03.2020
5658 Clouds 10 1020 50 16093 2.1 210 15:23 31.03.2020
5659 Clouds 10 1020 50 16093 2.1 220 14:59 31.03.2020
5660 Clouds 10 1020 50 16093 2.1 220 14:40 31.03.2020
5661 Clouds 10 1020 50 16093 2.1 220 14:21 31.03.2020
5662 Clouds 10 1020 46 16093 2.1 200 13:54 31.03.2020
5663 Clouds 11 1020 46 16093 2.1 200 13:36 31.03.2020
5664 Clouds 11 1020 46 16093 2.1 200 13:18 31.03.2020
5665 Clouds 11 1020 46 16093 2.1 270 12:42 31.03.2020
5666 Clouds 11 1020 46 16093 2.1 270 12:20 31.03.2020
5667 Clear 11 1021 43 16093 1.5 250 11:55 31.03.2020
5668 Clear 11 1021 43 16093 1.5 250 11:36 31.03.2020
5669 Clear 11 1021 43 16093 1.5 250 11:18 31.03.2020
5670 Clear 12 1021 43 16093 1.5 240 10:54 31.03.2020
5671 Clear 12 1021 43 16093 1.5 240 10:36 31.03.2020
5672 Clear 12 1021 43 16093 1.5 240 10:18 31.03.2020
5673 Clear 12 1021 41 16093 2.1 270 09:42 31.03.2020
5674 Clear 13 1021 41 16093 2.1 270 09:24 31.03.2020
5675 Clear 13 1021 26 16093 3.1 290 08:57 31.03.2020
5676 Clear 13 1021 26 16093 3.1 290 08:39 31.03.2020
5677 Clear 14 1021 26 16093 3.1 290 08:19 31.03.2020
5678 Clear 14 1021 26 16093 3.1 290 08:19 31.03.2020
5679 Clear 14 1021 26 16093 3.1 290 08:19 31.03.2020
5680 Clear 14 1021 29 16093 1.04 171 07:56 31.03.2020
5681 Clear 15 1021 29 16093 1.04 171 07:37 31.03.2020
5682 Clear 15 1021 29 16093 1.04 171 07:18 31.03.2020
5683 Clear 16 1021 27 16093 2.6 100 06:45 31.03.2020
5684 Clear 16 1021 27 16093 2.6 100 06:18 31.03.2020
5685 Clear 17 1020 27 16093 4.1 80 05:39 31.03.2020
5686 Clear 20 1020 22 16093 4.1 80 03:34 31.03.2020
5687 Clouds 21 1021 19 16093 3.1 50 01:54 31.03.2020
5688 Clouds 21 1021 19 16093 3.1 50 01:34 31.03.2020
5689 Clouds 21 1021 21 16093 2.1 0 00:46 31.03.2020
5690 Clouds 20 1021 21 16093 2.1 0 00:25 31.03.2020
5691 Clouds 19 1022 21 16093 3.1 0 23:41 30.03.2020
5692 Clouds 19 1022 21 16093 3.1 0 23:20 30.03.2020
5693 Clouds 19 1023 21 16093 2.6 30 22:58 30.03.2020
5694 Clouds 19 1023 21 16093 2.6 30 22:39 30.03.2020
5695 Clouds 19 1023 21 16093 2.6 30 22:39 30.03.2020
5696 Clouds 19 1023 21 16093 2.6 30 22:20 30.03.2020
5697 Clouds 18 1024 33 16093 2.1 130 21:58 30.03.2020
5698 Clouds 18 1024 33 16093 2.1 130 21:39 30.03.2020
5699 Clouds 17 1024 33 16093 2.1 130 21:21 30.03.2020
5700 Clouds 17 1024 38 16093 0.28 252 20:59 30.03.2020
5701 Clouds 17 1024 38 16093 0.28 252 20:39 30.03.2020
5702 Clouds 16 1024 38 16093 0.28 252 20:20 30.03.2020
5703 Clear 15 1023 41 16093 0.28 252 19:57 30.03.2020
5704 Clear 16 1023 41 16093 0.28 252 19:39 30.03.2020
5705 Clear 15 1023 41 16093 0.28 252 19:20 30.03.2020
5706 Clear 14 1023 44 16093 2.1 50 18:43 30.03.2020
5707 Clear 14 1023 44 16093 2.1 50 18:25 30.03.2020
5708 Clear 13 1023 53 16093 1.5 250 17:58 30.03.2020
5709 Clear 12 1023 53 16093 1.5 250 17:39 30.03.2020
5710 Clear 12 1023 53 16093 1.5 250 17:39 30.03.2020
5711 Clear 12 1023 53 16093 1.5 250 17:20 30.03.2020
5712 Clear 10 1022 57 16093 2.6 190 16:58 30.03.2020
5713 Clear 10 1022 57 16093 2.6 190 16:39 30.03.2020
5714 Clear 9 1022 57 16093 2.6 190 16:20 30.03.2020
5715 Clear 9 1022 57 16093 2.6 190 16:20 30.03.2020
5716 Clear 8 1021 61 16093 2.6 210 15:56 30.03.2020
5717 Clear 8 1021 61 16093 2.6 210 15:38 30.03.2020
5718 Clear 8 1021 61 16093 2.6 210 15:38 30.03.2020
5719 Clear 8 1021 61 16093 2.6 210 15:20 30.03.2020
5720 Clear 8 1020 57 16093 3.1 190 14:56 30.03.2020
5721 Clear 9 1020 57 16093 3.1 190 14:37 30.03.2020
5722 Clear 9 1020 57 16093 3.1 190 14:18 30.03.2020
5723 Clear 9 1019 53 16093 1.5 160 13:55 30.03.2020
5724 Clear 9 1019 53 16093 1.5 160 13:37 30.03.2020
5725 Clear 9 1019 53 16093 1.5 160 13:19 30.03.2020
5726 Clear 10 1018 53 16093 2.1 210 12:44 30.03.2020
5727 Clear 9 1018 53 16093 2.1 210 12:21 30.03.2020
5728 Clear 9 1018 53 16093 3.1 200 11:57 30.03.2020
5729 Clear 9 1018 53 16093 3.1 200 11:39 30.03.2020
5730 Clear 9 1018 53 16093 3.1 200 11:21 30.03.2020
5731 Clouds 10 1018 54 16093 2.25 298 10:41 30.03.2020
5732 Clouds 10 1018 54 16093 2.25 298 10:23 30.03.2020
5733 Clouds 11 1018 54 16093 1.5 200 09:59 30.03.2020
5734 Clouds 11 1018 54 16093 1.5 200 09:40 30.03.2020
5735 Clouds 10 1018 54 16093 1.5 200 09:19 30.03.2020
5736 Clouds 11 1017 50 16093 3.87 315 08:44 30.03.2020
5737 Clouds 11 1017 50 16093 3.87 315 08:23 30.03.2020
5738 Clouds 11 1017 50 16093 3.87 315 07:55 30.03.2020
5739 Clouds 11 1017 50 16093 3.87 315 07:37 30.03.2020
5740 Clouds 12 1016 44 16093 1.5 180 06:59 30.03.2020
5741 Clouds 12 1016 44 16093 1.5 180 06:34 30.03.2020
5742 Clouds 13 1015 47 16093 4.1 350 05:59 30.03.2020
5743 Clouds 13 1015 47 16093 4.1 350 05:34 30.03.2020
5744 Clouds 13 1014 47 16093 5.1 320 04:26 30.03.2020
5745 Rain 14 1014 41 16093 8.7 350 03:45 30.03.2020
5746 Rain 15 1013 33 16093 9.3 350 02:43 30.03.2020
5747 Clouds 17 1013 22 16093 2.6 0 01:52 30.03.2020
5748 Clouds 18 1014 22 16093 6.2 240 00:56 30.03.2020
5749 Clouds 18 1014 22 16093 6.2 240 00:25 30.03.2020
5750 Clouds 17 1015 23 16093 3.6 280 23:43 29.03.2020
5751 Clouds 17 1015 23 16093 3.6 280 23:24 29.03.2020
5752 Clouds 17 1015 27 16093 2.1 0 22:59 29.03.2020
5753 Clouds 17 1015 27 16093 2.1 0 22:39 29.03.2020
5754 Clouds 17 1015 27 16093 2.1 0 22:19 29.03.2020
5755 Clouds 17 1016 23 16093 1.5 0 21:58 29.03.2020
5756 Clouds 17 1016 23 16093 1.5 0 21:37 29.03.2020
5757 Clouds 16 1016 23 16093 1.5 0 21:18 29.03.2020
5758 Clouds 16 1017 26 16093 1.5 60 20:55 29.03.2020
5759 Clouds 16 1017 26 16093 1.5 60 20:37 29.03.2020
5760 Clouds 16 1017 26 16093 1.5 60 20:37 29.03.2020
5761 Clouds 16 1017 30 16093 1.5 0 20:18 29.03.2020
5762 Clouds 15 1017 30 16093 1.5 0 19:43 29.03.2020
5763 Clouds 15 1017 30 16093 1.5 0 19:24 29.03.2020
5764 Clouds 15 1017 30 16093 1.5 0 18:58 29.03.2020
5765 Clouds 14 1016 30 16093 2.57 202 18:40 29.03.2020
5766 Clouds 14 1016 30 16093 2.57 202 18:21 29.03.2020
5767 Clouds 14 1016 30 16093 1.33 162 17:59 29.03.2020
5768 Clouds 14 1016 33 16093 2.6 120 17:41 29.03.2020
5769 Clouds 13 1016 33 16093 2.6 120 17:22 29.03.2020
5770 Clouds 13 1016 30 16093 1.33 162 16:58 29.03.2020
5771 Clouds 12 1016 30 16093 1.33 162 16:39 29.03.2020
5772 Clouds 12 1016 30 16093 1.33 162 16:21 29.03.2020
5773 Clouds 12 1016 30 16093 1.5 180 15:58 29.03.2020
5774 Clouds 12 1016 30 16093 1.5 180 15:39 29.03.2020
5775 Clouds 12 1016 30 16093 1.5 180 15:19 29.03.2020
5776 Clouds 12 1015 35 16093 1.5 197 14:55 29.03.2020
5777 Clouds 12 1015 35 16093 1.5 197 14:36 29.03.2020
5778 Clouds 12 1015 35 16093 1.5 197 14:36 29.03.2020
5779 Clouds 12 1015 35 16093 1.5 197 14:18 29.03.2020
5780 Clouds 12 1015 32 16093 1.7 194 13:42 29.03.2020
5781 Clouds 12 1015 32 16093 1.7 194 13:22 29.03.2020
5782 Clouds 12 1016 40 16093 1.5 340 12:58 29.03.2020
5783 Clouds 12 1016 32 16093 1.7 194 12:39 29.03.2020
5784 Clouds 12 1016 22 16093 2.6 190 12:19 29.03.2020
5785 Clouds 13 1016 22 16093 2.6 190 11:59 29.03.2020
5786 Clouds 12 1016 22 16093 2.6 190 11:38 29.03.2020
5787 Clouds 13 1016 22 16093 2.6 190 11:19 29.03.2020
5788 Clouds 12 1016 26 16093 1.73 190 10:39 29.03.2020
5789 Clouds 12 1016 26 16093 1.73 190 10:39 29.03.2020
5790 Clouds 13 1016 26 16093 1.73 190 10:21 29.03.2020
5791 Clouds 13 1017 26 16093 1.5 250 09:56 29.03.2020
5792 Clouds 13 1017 26 16093 1.5 250 09:38 29.03.2020
5793 Clouds 13 1017 26 16093 1.5 250 09:18 29.03.2020
5794 Clouds 13 1017 24 16093 2.1 190 08:43 29.03.2020
5795 Clouds 13 1017 24 16093 2.1 190 08:25 29.03.2020
5796 Clouds 14 1017 21 16093 2.1 190 07:47 29.03.2020
5797 Clouds 14 1017 21 16093 2.1 190 07:47 29.03.2020
5798 Clouds 14 1017 21 16093 2.1 190 07:23 29.03.2020
5799 Clouds 14 1016 21 16093 2.6 150 06:40 29.03.2020
5800 Clouds 16 1016 20 16093 3.6 120 04:56 29.03.2020
5801 Clouds 17 1016 17 16093 5.7 140 03:41 29.03.2020
5802 Clouds 17 1016 17 16093 5.7 140 03:20 29.03.2020
5803 Clouds 17 1016 18 16093 2.6 0 01:43 29.03.2020
5804 Clouds 17 1016 18 16093 2.6 0 01:22 29.03.2020
5805 Clouds 18 1017 19 16093 5.7 50 00:45 29.03.2020
5806 Clouds 18 1017 19 16093 5.7 50 00:27 29.03.2020
5807 Clouds 17 1018 18 16093 2.6 90 23:41 28.03.2020
5808 Clouds 18 1018 18 16093 2.6 90 23:22 28.03.2020
5809 Clouds 17 1019 20 16093 5.1 70 22:46 28.03.2020
5810 Clouds 17 1019 20 16093 5.1 70 22:23 28.03.2020
5811 Clouds 17 1020 20 16093 2.6 0 21:59 28.03.2020
5812 Clouds 17 1020 20 16093 2.6 0 21:40 28.03.2020
5813 Clouds 17 1020 20 16093 2.6 0 21:21 28.03.2020
5814 Clouds 16 1021 21 16093 1.5 0 20:57 28.03.2020
5815 Clouds 16 1021 21 16093 1.5 0 20:38 28.03.2020
5816 Clouds 15 1021 21 16093 1.5 0 20:20 28.03.2020
5817 Clouds 15 1021 24 16093 3.1 60 19:55 28.03.2020
5818 Clouds 14 1021 24 16093 3.1 60 19:36 28.03.2020
5819 Clouds 14 1021 24 16093 3.1 60 19:18 28.03.2020
5820 Clouds 13 1021 28 16093 2.13 174 18:42 28.03.2020
5821 Clouds 13 1021 28 16093 2.13 174 18:21 28.03.2020
5822 Clouds 12 1021 30 16093 1.5 340 17:43 28.03.2020
5823 Clouds 11 1021 30 16093 1.5 340 17:24 28.03.2020
5824 Clouds 11 1021 30 16093 1.5 340 16:59 28.03.2020
5825 Clouds 11 1021 30 16093 1.5 340 16:59 28.03.2020
5826 Clouds 10 1021 34 16093 1.27 209 16:40 28.03.2020
5827 Clouds 9 1021 34 16093 1.27 209 16:19 28.03.2020
5828 Clouds 8 1020 39 16093 1.27 209 15:55 28.03.2020
5829 Clouds 7 1020 39 16093 1.27 209 15:37 28.03.2020
5830 Clouds 7 1020 39 16093 1.27 209 15:18 28.03.2020
5831 Clear 7 1019 39 16093 1.27 209 14:41 28.03.2020
5832 Clear 6 1019 39 16093 1.27 209 14:21 28.03.2020
5833 Clear 6 1019 39 16093 1.27 209 14:21 28.03.2020
5834 Clear 7 1019 36 16093 1.91 225 13:43 28.03.2020
5835 Clear 7 1019 36 16093 1.91 225 13:24 28.03.2020
5836 Clear 7 1019 31 16093 3.1 200 12:43 28.03.2020
5837 Clear 7 1019 31 16093 3.1 200 12:24 28.03.2020
5838 Clear 7 1019 27 16093 2.1 210 11:59 28.03.2020
5839 Clear 8 1019 27 16093 2.1 210 11:41 28.03.2020
5840 Clear 8 1019 27 16093 2.1 210 11:20 28.03.2020
5841 Clear 8 1018 25 16093 2.6 180 10:40 28.03.2020
5842 Clear 8 1018 25 16093 2.6 180 10:22 28.03.2020
5843 Clear 9 1018 23 16093 3.1 210 09:43 28.03.2020
5844 Clear 9 1018 23 16093 3.1 210 09:24 28.03.2020
5845 Clear 9 1018 23 16093 2.6 200 08:59 28.03.2020
5846 Clear 9 1018 23 16093 2.6 200 08:41 28.03.2020
5847 Clear 9 1018 23 16093 2.6 200 08:22 28.03.2020
5848 Clear 10 1018 22 16093 3.1 200 07:46 28.03.2020
5849 Clear 10 1018 22 16093 3.1 200 07:28 28.03.2020
5850 Clear 11 1017 19 16093 3.1 220 06:36 28.03.2020
5851 Clear 11 1017 16 16093 4.6 260 05:54 28.03.2020
5852 Clear 12 1017 16 16093 4.6 260 05:21 28.03.2020
5853 Clear 12 1016 16 16093 3.1 260 04:42 28.03.2020
5854 Clouds 13 1015 15 16093 5.1 350 03:54 28.03.2020
5855 Clouds 15 1015 14 16093 2.1 300 02:25 28.03.2020
5856 Clouds 15 1014 14 16093 1.5 0 01:41 28.03.2020
5857 Clouds 15 1014 14 16093 1.5 0 01:18 28.03.2020
5858 Clouds 15 1014 12 16093 4.1 10 00:37 28.03.2020
5859 Clouds 15 1014 12 16093 4.1 10 23:57 27.03.2020
5860 Clouds 15 1014 11 16093 4.6 360 23:39 27.03.2020
5861 Clouds 15 1014 11 16093 4.6 360 23:21 27.03.2020
5862 Clouds 15 1014 11 16093 3.1 0 22:56 27.03.2020
5863 Rain 15 1015 19 16093 3.1 0 22:37 27.03.2020
5864 Rain 15 1015 19 16093 3.1 0 22:37 27.03.2020
5865 Rain 15 1015 19 16093 3.1 0 22:19 27.03.2020
5866 Rain 14 1015 15 16093 7.2 350 21:44 27.03.2020
5867 Rain 14 1015 15 16093 7.2 350 21:25 27.03.2020
5868 Rain 14 1015 15 16093 7.2 350 21:25 27.03.2020
5869 Rain 14 1015 18 16093 10.3 350 20:59 27.03.2020
5870 Rain 14 1015 18 16093 10.3 350 20:41 27.03.2020
5871 Rain 13 1015 18 16093 10.3 350 20:20 27.03.2020
5872 Clouds 13 1015 22 16093 9.3 360 19:58 27.03.2020
5873 Clouds 12 1015 22 16093 9.3 360 19:39 27.03.2020
5874 Clouds 12 1015 22 16093 9.3 360 19:20 27.03.2020
5875 Clouds 11 1014 43 16093 3.6 60 18:44 27.03.2020
5876 Clouds 11 1014 43 16093 3.6 60 18:25 27.03.2020
5877 Clouds 10 1014 49 16093 4.6 350 17:58 27.03.2020
5878 Clouds 9 1014 49 16093 4.6 350 17:39 27.03.2020
5879 Clouds 8 1014 49 16093 4.6 350 17:19 27.03.2020
5880 Clouds 8 1013 48 16093 2.6 350 16:44 27.03.2020
5881 Clouds 8 1013 48 16093 2.6 350 16:25 27.03.2020
5882 Clouds 8 1013 48 16093 2.6 350 16:25 27.03.2020
5883 Clouds 7 1012 65 16093 2.1 290 15:56 27.03.2020
5884 Clouds 6 1012 65 16093 2.1 290 15:38 27.03.2020
5885 Clouds 6 1012 65 16093 2.1 290 15:19 27.03.2020
5886 Rain 6 1011 70 16093 2.1 200 14:43 27.03.2020
5887 Rain 6 1011 70 16093 2.1 200 14:24 27.03.2020
5888 Rain 6 1011 65 16093 3.6 240 13:55 27.03.2020
5889 Rain 6 1011 65 16093 3.6 240 13:36 27.03.2020
5890 Rain 6 1011 65 16093 3.6 240 13:18 27.03.2020
5891 Rain 6 1011 65 16093 3.6 240 13:18 27.03.2020
5892 Rain 7 1011 48 16093 3.6 310 12:43 27.03.2020
5893 Rain 7 1011 48 16093 3.6 310 12:19 27.03.2020
5894 Rain 7 1011 61 16093 6.7 340 11:55 27.03.2020
5895 Rain 7 1011 61 16093 6.7 340 11:36 27.03.2020
5896 Rain 7 1011 61 16093 6.7 340 11:18 27.03.2020
5897 Clouds 7 1011 61 16093 2.1 30 10:42 27.03.2020
5898 Clouds 7 1011 61 16093 2.1 30 10:22 27.03.2020
5899 Clouds 7 1011 61 16093 2.1 30 10:22 27.03.2020
5900 Clouds 7 1011 45 16093 5.7 320 09:59 27.03.2020
5901 Clouds 7 1011 45 16093 5.7 320 09:41 27.03.2020
5902 Clouds 7 1011 45 16093 5.7 320 09:22 27.03.2020
5903 Clouds 8 1011 45 16093 5.1 330 08:59 27.03.2020
5904 Clouds 8 1011 45 16093 5.1 330 08:40 27.03.2020
5905 Clouds 8 1011 45 16093 5.1 330 08:22 27.03.2020
5906 Clouds 8 1011 49 16093 5.7 350 07:57 27.03.2020
5907 Clouds 8 1011 49 16093 5.7 350 07:57 27.03.2020
5908 Clouds 8 1011 49 16093 5.7 350 07:38 27.03.2020
5909 Clouds 9 1011 49 16093 5.7 350 07:20 27.03.2020
5910 Rain 9 1011 46 16093 5.1 340 06:39 27.03.2020
5911 Rain 10 1011 43 16093 3.6 320 05:45 27.03.2020
5912 Rain 12 1009 28 16093 7.7 300 03:26 27.03.2020
5913 Rain 15 1008 18 16093 5.7 200 01:55 27.03.2020
5914 Rain 15 1008 19 16093 4.1 170 01:18 27.03.2020
5915 Rain 15 1008 19 16093 4.1 170 00:38 27.03.2020
5916 Rain 15 1008 19 16093 4.1 170 00:19 27.03.2020
5917 Clouds 15 1009 21 16093 4.1 240 23:37 26.03.2020
5918 Clouds 16 1009 21 16093 4.1 240 23:18 26.03.2020
5919 Clouds 16 1009 21 16093 4.1 240 22:56 26.03.2020
5920 Clouds 15 1010 26 16093 2.1 0 22:36 26.03.2020
5921 Clouds 15 1010 26 16093 2.1 0 22:18 26.03.2020
5922 Rain 14 1011 24 16093 2.1 0 21:40 26.03.2020
5923 Rain 14 1011 24 16093 2.1 0 21:21 26.03.2020
5924 Rain 14 1011 24 16093 2.1 0 21:21 26.03.2020
5925 Clouds 14 1012 28 16093 4.1 110 20:58 26.03.2020
5926 Clouds 14 1012 28 16093 4.1 110 20:39 26.03.2020
5927 Clouds 13 1012 28 16093 4.1 110 20:21 26.03.2020
5928 Clouds 13 1012 26 16093 3.6 190 19:58 26.03.2020
5929 Clouds 13 1012 26 16093 3.6 190 19:39 26.03.2020
5930 Clouds 13 1012 26 16093 3.6 190 19:20 26.03.2020
5931 Clouds 12 1012 32 16093 4.6 170 18:58 26.03.2020
5932 Clouds 12 1012 32 16093 4.6 170 18:39 26.03.2020
5933 Clouds 12 1012 32 16093 4.6 170 18:21 26.03.2020
5934 Clouds 11 1012 32 16093 4.6 210 17:44 26.03.2020
5935 Clouds 10 1012 32 16093 4.6 210 17:19 26.03.2020
5936 Clouds 10 1012 32 16093 4.6 210 16:55 26.03.2020
5937 Clouds 10 1012 32 16093 4.6 210 16:55 26.03.2020
5938 Clouds 9 1011 39 16093 7.7 230 16:37 26.03.2020
5939 Clouds 9 1011 39 16093 7.7 230 16:18 26.03.2020
5940 Clouds 8 1010 42 16093 5.7 200 15:41 26.03.2020
5941 Clouds 8 1010 42 16093 5.7 200 15:22 26.03.2020
5942 Clouds 7 1010 42 16093 5.7 220 14:58 26.03.2020
5943 Clouds 7 1010 42 16093 5.7 220 14:39 26.03.2020
5944 Clouds 7 1010 42 16093 5.7 220 14:19 26.03.2020
5945 Clouds 8 1010 42 16093 4.1 180 13:44 26.03.2020
5946 Clouds 8 1010 42 16093 4.1 180 13:24 26.03.2020
5947 Clouds 8 1009 45 16093 5.7 200 12:58 26.03.2020
5948 Clouds 8 1009 45 16093 5.7 200 12:38 26.03.2020
5949 Clouds 9 1009 45 16093 5.7 200 12:20 26.03.2020
5950 Clouds 9 1009 43 16093 5.1 210 11:45 26.03.2020
5951 Clouds 9 1009 43 16093 5.1 210 11:22 26.03.2020
5952 Clouds 10 1010 43 16093 3.6 220 10:56 26.03.2020
5953 Clouds 10 1010 43 16093 3.6 220 10:37 26.03.2020
5954 Clouds 10 1010 43 16093 3.6 220 10:19 26.03.2020
5955 Clouds 10 1010 39 16093 4.6 220 09:44 26.03.2020
5956 Clouds 11 1010 39 16093 4.6 220 09:20 26.03.2020
5957 Clouds 11 1009 46 16093 8.2 230 08:55 26.03.2020
5958 Clouds 11 1009 46 16093 8.2 230 08:55 26.03.2020
5959 Clouds 11 1009 46 16093 8.2 230 08:37 26.03.2020
5960 Clouds 11 1009 46 16093 8.2 230 08:18 26.03.2020
5961 Clouds 12 1009 39 16093 7.2 220 07:43 26.03.2020
5962 Clouds 12 1009 39 16093 7.2 220 07:21 26.03.2020
5963 Clouds 13 1009 35 16093 4.1 220 06:48 26.03.2020
5964 Clouds 13 1009 35 16093 3.1 220 05:57 26.03.2020
5965 Clouds 14 1008 29 16093 7.2 230 04:25 26.03.2020
5966 Clouds 15 1008 29 16093 6.2 230 03:41 26.03.2020
5967 Clouds 16 1008 23 16093 7.2 230 02:54 26.03.2020
5968 Clouds 18 1008 22 16093 9.3 230 01:50 26.03.2020
5969 Clouds 19 1008 19 16093 6.7 240 00:52 26.03.2020
5970 Clouds 19 1008 19 16093 6.7 240 23:59 25.03.2020
5971 Clouds 19 1009 16 16093 8.2 230 23:40 25.03.2020
5972 Clouds 19 1009 16 16093 8.2 230 23:20 25.03.2020
5973 Clouds 19 1011 15 16093 8.7 240 22:40 25.03.2020
5974 Clouds 19 1011 15 16093 8.7 240 22:21 25.03.2020
5975 Clouds 18 1011 17 16093 8.2 210 21:56 25.03.2020
5976 Clouds 18 1011 17 16093 8.2 210 21:37 25.03.2020
5977 Clouds 18 1011 17 16093 8.2 210 21:19 25.03.2020
5978 Clouds 18 1011 17 16093 8.2 210 21:19 25.03.2020
5979 Clouds 17 1012 18 16093 6.2 210 20:54 25.03.2020
5980 Clouds 17 1012 18 16093 6.2 210 20:36 25.03.2020
5981 Clouds 17 1012 18 16093 6.2 210 20:18 25.03.2020
5982 Clouds 17 1013 18 16093 5.1 210 19:42 25.03.2020
5983 Clouds 17 1013 18 16093 5.1 210 19:22 25.03.2020
5984 Clouds 16 1013 18 16093 5.1 210 18:56 25.03.2020
5985 Clouds 16 1013 31 16093 5.1 180 18:37 25.03.2020
5986 Clouds 15 1013 31 16093 5.1 180 18:19 25.03.2020
5987 Clouds 15 1013 31 16093 5.1 180 17:54 25.03.2020
5988 Clouds 14 1013 30 16093 3.1 190 17:36 25.03.2020
5989 Clouds 14 1013 30 16093 3.1 190 17:18 25.03.2020
5990 Clouds 12 1013 39 16093 3.6 190 16:43 25.03.2020
5991 Clouds 12 1013 39 16093 3.6 190 16:22 25.03.2020
5992 Clouds 12 1012 39 16093 5.1 160 15:57 25.03.2020
5993 Clouds 11 1012 39 16093 5.1 160 15:38 25.03.2020
5994 Clouds 11 1012 39 16093 5.1 160 15:19 25.03.2020
5995 Clouds 11 1012 39 16093 5.7 170 14:41 25.03.2020
5996 Clouds 11 1012 39 16093 5.7 170 14:21 25.03.2020
5997 Clouds 12 1012 35 16093 3.6 190 13:46 25.03.2020
5998 Clouds 12 1012 35 16093 3.6 190 13:26 25.03.2020
5999 Clouds 12 1011 37 16093 7.7 230 12:57 25.03.2020
6000 Clouds 12 1011 37 16093 7.7 230 12:37 25.03.2020
6001 Clouds 12 1012 35 16093 6.7 200 12:18 25.03.2020
6002 Clouds 13 1012 35 16093 6.7 200 11:43 25.03.2020
6003 Clouds 13 1012 35 16093 6.7 200 11:21 25.03.2020
6004 Clouds 13 1012 35 16093 6.7 200 11:21 25.03.2020
6005 Clouds 13 1013 40 16093 5.7 200 10:59 25.03.2020
6006 Clouds 13 1013 40 16093 5.7 200 10:40 25.03.2020
6007 Clouds 13 1013 40 16093 5.7 200 10:19 25.03.2020
6008 Clouds 13 1013 40 16093 5.7 200 10:19 25.03.2020
6009 Clouds 13 1013 41 16093 8.2 220 09:59 25.03.2020
6010 Clouds 13 1013 41 16093 8.2 220 09:40 25.03.2020
6011 Clouds 13 1013 41 16093 8.2 220 09:21 25.03.2020
6012 Clouds 14 1013 41 16093 10.8 230 08:43 25.03.2020
6013 Clouds 14 1013 41 16093 10.8 230 08:25 25.03.2020
6014 Clouds 15 1013 38 16093 8.7 220 07:59 25.03.2020
6015 Clouds 15 1013 38 16093 8.7 220 07:39 25.03.2020
6016 Clouds 15 1013 38 16093 8.7 220 07:39 25.03.2020
6017 Clouds 15 1013 38 16093 8.7 220 07:19 25.03.2020
6018 Clouds 15 1014 38 16093 5.7 230 06:45 25.03.2020
6019 Clouds 15 1014 38 16093 5.7 230 06:25 25.03.2020
6020 Clouds 16 1013 36 16093 5.1 230 05:48 25.03.2020
6021 Clouds 17 1013 31 16093 5.7 200 04:46 25.03.2020
6022 Clouds 17 1013 25 16093 6.2 200 03:58 25.03.2020
6023 Clouds 17 1013 25 16093 6.2 200 03:34 25.03.2020
6024 Clouds 19 1013 26 16093 7.2 210 01:41 25.03.2020
6025 Clouds 19 1013 26 16093 7.2 210 01:41 25.03.2020
6026 Clouds 19 1013 26 16093 7.2 210 01:41 25.03.2020
6027 Clouds 19 1013 26 16093 7.2 210 01:41 25.03.2020
6028 Clouds 20 1014 23 16093 8.7 230 00:58 25.03.2020
6029 Clouds 20 1014 23 16093 8.7 230 00:40 25.03.2020
6030 Clouds 20 1015 22 16093 7.7 220 00:18 25.03.2020
6031 Clouds 20 1015 22 16093 7.7 220 23:40 24.03.2020
6032 Clouds 20 1015 22 16093 7.7 220 23:21 24.03.2020
6033 Clouds 20 1015 22 16093 7.7 220 22:55 24.03.2020
6034 Clouds 20 1015 22 16093 7.7 200 22:36 24.03.2020
6035 Clouds 20 1015 22 16093 7.7 200 22:18 24.03.2020
6036 Clouds 19 1016 32 16093 6.7 180 21:43 24.03.2020
6037 Clouds 20 1016 32 16093 6.7 180 21:19 24.03.2020
6038 Clouds 19 1018 36 16093 7.7 190 20:59 24.03.2020
6039 Clouds 18 1018 36 16093 7.7 190 20:41 24.03.2020
6040 Clouds 18 1018 36 16093 7.7 190 20:23 24.03.2020
6041 Clouds 17 1018 36 16093 6.7 200 19:48 24.03.2020
6042 Clouds 17 1018 36 16093 6.7 200 19:48 24.03.2020
6043 Clouds 17 1018 36 16093 6.7 200 19:24 24.03.2020
6044 Clouds 16 1018 44 16093 6.7 170 18:59 24.03.2020
6045 Clouds 16 1018 44 16093 6.7 170 18:40 24.03.2020
6046 Clouds 16 1018 44 16093 6.7 170 18:40 24.03.2020
6047 -273 0 0 0 0 0 18:20 24.03.2020
6048 Clouds 14 1018 44 16093 6.7 170 17:58 24.03.2020
6049 Clouds 14 1018 50 16093 4.1 160 17:40 24.03.2020
6050 Clouds 13 1018 50 16093 4.1 160 17:22 24.03.2020
6051 Clouds 12 1018 50 16093 4.1 160 16:57 24.03.2020
6052 Clear 12 1018 62 16093 5.56 195 16:38 24.03.2020
6053 Clear 11 1018 54 16093 3.6 190 16:20 24.03.2020
6054 Clear 10 1018 81 16093 5.56 195 15:44 24.03.2020
6055 Clear 10 1018 81 16093 5.56 195 15:25 24.03.2020
6056 Clear 9 1018 75 16093 1.5 340 14:57 24.03.2020
6057 Clear 9 1017 57 16093 6.7 200 14:37 24.03.2020
6058 Clear 10 1017 57 16093 6.7 200 14:18 24.03.2020
6059 Clear 11 1017 54 16093 4.6 170 13:41 24.03.2020
6060 Clear 11 1017 54 16093 4.6 170 13:22 24.03.2020
6061 Clear 11 1017 54 16093 4.6 170 12:45 24.03.2020
6062 Clear 11 1017 54 16093 4.6 170 12:27 24.03.2020
6063 Clear 11 1017 50 16093 5.1 180 11:57 24.03.2020
6064 Clear 11 1017 50 16093 5.1 180 11:38 24.03.2020
6065 Clear 11 1018 54 16093 3.6 130 11:18 24.03.2020
6066 Clear 11 1018 61 16093 4.62 211 10:42 24.03.2020
6067 Clear 11 1017 50 16093 6.7 200 10:19 24.03.2020
6068 Clear 11 1017 50 16093 6.7 200 10:19 24.03.2020
6069 Clear 11 1018 66 16093 4.62 211 09:48 24.03.2020
6070 Clear 11 1018 66 16093 4.62 211 09:27 24.03.2020
6071 Clear 12 1018 66 16093 4.62 211 08:58 24.03.2020
6072 Clear 12 1018 76 16093 4.62 211 08:38 24.03.2020
6073 Clear 12 1018 47 16093 3.1 190 08:20 24.03.2020
6074 Clear 12 1018 62 16093 1.5 290 07:45 24.03.2020
6075 Clouds 12 1018 41 16093 2.6 210 07:22 24.03.2020
6076 Clear 12 1018 71 16093 3.1 310 06:42 24.03.2020
6077 Clear 13 1018 62 16093 3.1 30 06:21 24.03.2020
6078 Clear 14 1017 50 16093 4.26 250 04:53 24.03.2020
6079 Clear 16 1016 51 16093 2.1 180 03:43 24.03.2020
6080 Clear 17 1016 41 16093 3.6 190 02:45 24.03.2020
6081 Clouds 18 1016 34 16093 5.7 230 01:22 24.03.2020
6082 Clouds 18 1016 36 16093 6.2 210 00:41 24.03.2020
6083 Clouds 18 1015 29 16093 5.7 290 00:22 24.03.2020
6084 Clouds 18 1016 34 16093 5.1 210 23:38 23.03.2020
6085 Clouds 18 1015 29 16093 2.1 220 23:19 23.03.2020
6086 Clouds 18 1016 29 16093 7.7 260 22:45 23.03.2020
6087 Clouds 18 1016 29 16093 7.7 260 22:23 23.03.2020
6088 Clouds 17 1016 36 16093 8.7 240 21:55 23.03.2020
6089 Clear 17 1016 42 16093 7.7 230 21:37 23.03.2020
6090 Clear 17 1016 42 16093 7.7 230 21:37 23.03.2020
6091 Clear 17 1016 42 16093 7.7 230 21:37 23.03.2020
6092 Clouds 16 1016 30 16093 7.7 260 21:19 23.03.2020
6093 Clouds 16 1016 39 16093 8.2 210 20:55 23.03.2020
6094 Clear 15 1016 44 16093 6.7 220 20:36 23.03.2020
6095 Clouds 16 1015 36 16093 7.2 230 20:18 23.03.2020
6096 Clouds 16 1015 36 16093 7.2 230 20:18 23.03.2020
6097 Thunderstorm 15 1016 48 16093 7.2 200 19:41 23.03.2020
6098 Rain 15 1015 38 16093 7.7 220 19:22 23.03.2020
6099 Rain 14 1016 58 16093 5.7 240 18:56 23.03.2020
6100 Rain 13 1016 58 16093 5.7 240 18:38 23.03.2020
6101 Rain 13 1015 62 16093 6.2 250 18:18 23.03.2020
6102 Rain 12 1016 87 16093 2.6 230 17:41 23.03.2020
6103 Clouds 12 1015 51 16093 6.2 230 17:20 23.03.2020
6104 Clouds 12 1015 51 16093 6.2 230 16:55 23.03.2020
6105 Clouds 11 1014 82 16093 2.6 190 16:37 23.03.2020
6106 Clouds 11 1014 82 16093 2.6 190 16:18 23.03.2020
6107 Drizzle 11 1015 81 16093 2.1 90 15:40 23.03.2020
6108 Clouds 11 1014 71 16093 3.1 100 15:19 23.03.2020
6109 Rain 11 1014 62 16093 3.6 200 14:38 23.03.2020
6110 Rain 11 1014 62 16093 3.6 200 14:19 23.03.2020
6111 Drizzle 11 1015 81 11265 2.6 80 13:57 23.03.2020
6112 Drizzle 11 1015 50 16093 1 120 13:38 23.03.2020
6113 Drizzle 11 1015 50 16093 1 120 13:20 23.03.2020
6114 Drizzle 11 1015 50 16093 1 120 13:20 23.03.2020
6115 Rain 12 1015 71 16093 5.86 186 12:44 23.03.2020
6116 Clouds 13 1014 47 16093 2.1 180 12:25 23.03.2020
6117 Rain 13 1014 58 16093 3.6 200 11:57 23.03.2020
6118 Clouds 14 1015 50 16093 5.1 230 11:38 23.03.2020
6119 Clouds 14 1015 50 16093 5.1 230 11:38 23.03.2020
6120 Rain 14 1014 47 16093 2.1 210 11:19 23.03.2020
6121 Rain 14 1014 47 16093 2.1 210 10:56 23.03.2020
6122 Clouds 14 1015 47 16093 4.1 110 10:36 23.03.2020
6123 Clouds 14 1015 47 16093 2.6 240 10:18 23.03.2020
6124 Clouds 14 1016 54 16093 2.1 70 09:42 23.03.2020
6125 Clouds 14 1015 47 16093 1.5 260 09:20 23.03.2020
6126 Clouds 14 1016 54 16093 3.28 184 08:40 23.03.2020
6127 Clouds 15 1016 41 16093 5.42 179 08:20 23.03.2020
6128 Clouds 15 1016 51 16093 5.42 179 07:58 23.03.2020
6129 Clear 15 1016 54 16093 5.42 179 07:37 23.03.2020
6130 Clouds 15 1017 41 16093 5.1 160 07:18 23.03.2020
6131 Clouds 15 1017 51 16093 1.5 200 06:48 23.03.2020
6132 Clouds 15 1017 39 16093 3.1 120 05:45 23.03.2020
6133 Clouds 16 1016 36 16093 6.27 149 04:41 23.03.2020
6134 Clouds 16 1016 31 16093 3.1 110 03:23 23.03.2020
6135 Clouds 18 1016 25 16093 4.1 130 01:50 23.03.2020
6136 Clouds 18 1017 26 16093 4.1 130 00:50 23.03.2020
6137 Clouds 18 1017 26 16093 4.1 130 00:31 23.03.2020
6138 Clear 19 1017 25 16093 2.1 0 23:45 22.03.2020
6139 Clouds 19 1018 29 16093 1.5 0 23:25 22.03.2020
6140 Clear 18 1018 29 16093 3.1 40 22:44 22.03.2020
6141 Clouds 18 1018 29 16093 4.1 70 22:22 22.03.2020
6142 Clouds 18 1018 34 16093 1.64 147 21:55 22.03.2020
6143 Clouds 18 1019 42 16093 1.64 147 21:36 22.03.2020
6144 Clouds 17 1020 29 16093 3.1 50 21:18 22.03.2020
6145 Clear 17 1020 36 16093 1.64 147 20:45 22.03.2020
6146 Clear 17 1020 36 16093 1.64 147 20:24 22.03.2020
6147 Clear 16 1020 41 16093 0.66 60 19:57 22.03.2020
6148 Clear 15 1021 51 16093 0.66 60 19:39 22.03.2020
6149 Clouds 15 1021 41 16093 0.66 60 19:20 22.03.2020
6150 Clear 15 1021 54 16093 0.66 60 18:58 22.03.2020
6151 Clear 15 1021 62 16093 0.66 60 18:40 22.03.2020
6152 Clouds 14 1021 44 16093 0.66 60 18:21 22.03.2020
6153 Clear 13 1021 66 16093 0.66 60 17:57 22.03.2020
6154 Clear 13 1021 76 16093 0.66 60 17:38 22.03.2020
6155 Clouds 12 1021 47 16093 1.5 40 17:20 22.03.2020
6156 Clear 12 1021 76 16093 0.38 81 16:57 22.03.2020
6157 Clear 11 1021 71 16093 0.38 81 16:39 22.03.2020
6158 Clear 11 1021 71 16093 0.38 81 16:39 22.03.2020
6159 Clouds 10 1020 50 16093 0.38 81 16:20 22.03.2020
6160 Clear 9 1020 75 16093 0.38 81 15:40 22.03.2020
6161 Clouds 8 1020 57 16093 2.6 220 15:20 22.03.2020
6162 Clear 8 1020 70 16093 0.38 81 14:46 22.03.2020
6163 Clear 8 1020 70 16093 0.38 81 14:46 22.03.2020
6164 Clouds 8 1020 57 16093 2.1 210 14:18 22.03.2020
6165 Clear 9 1019 70 16093 0.47 289 13:44 22.03.2020
6166 Clouds 9 1019 53 16093 1.5 180 13:20 22.03.2020
6167 Clear 9 1019 70 16093 1.5 20 12:58 22.03.2020
6168 Clear 9 1019 75 16093 0.41 275 12:39 22.03.2020
6169 Clouds 9 1019 50 16093 0.41 275 12:19 22.03.2020
6170 Clear 9 1019 61 16093 0.41 275 11:43 22.03.2020
6171 Clouds 9 1019 50 16093 1.5 210 11:25 22.03.2020
6172 Clear 10 1019 66 16093 0.63 334 10:58 22.03.2020
6173 Clear 10 1020 66 16093 0.63 334 10:39 22.03.2020
6174 Clouds 10 1019 46 16093 0.63 334 10:21 22.03.2020
6175 Clear 11 1020 58 16093 0.63 334 09:45 22.03.2020
6176 Clear 11 1020 58 16093 0.63 334 09:27 22.03.2020
6177 Clear 11 1019 66 16093 0.63 334 08:48 22.03.2020
6178 Clear 11 1019 66 16093 0.63 334 08:48 22.03.2020
6179 Clear 11 1019 66 16093 0.63 334 08:48 22.03.2020
6180 Clear 11 1019 66 16093 0.31 314 08:29 22.03.2020
6181 Clear 12 1019 66 16093 1.5 10 07:54 22.03.2020
6182 Clear 12 1019 54 16093 0.93 2 07:36 22.03.2020
6183 Clear 13 1019 50 16093 2.1 80 06:41 22.03.2020
6184 Clouds 14 1019 50 16093 1.5 40 05:41 22.03.2020
6185 Clouds 15 1019 44 16093 1.52 111 04:34 22.03.2020
6186 Clear 17 1017 31 16093 3.6 50 01:36 22.03.2020
6187 Clear 17 1017 29 16093 0.82 175 00:49 22.03.2020
6188 Clear 17 1017 29 16093 0.82 175 00:29 22.03.2020
6189 Clear 17 1018 33 16093 0.82 175 23:45 21.03.2020
6190 Clouds 17 1018 27 16093 2.6 40 23:21 21.03.2020
6191 Clear 16 1018 33 16093 0.64 358 22:58 21.03.2020
6192 Clouds 17 1018 33 16093 0.64 358 22:37 21.03.2020
6193 Clouds 17 1019 27 16093 2.1 340 22:18 21.03.2020
6194 Clouds 16 1019 36 16093 0.64 358 21:56 21.03.2020
6195 Clear 16 1019 36 16093 2.1 0 21:37 21.03.2020
6196 Clouds 16 1019 29 16093 1.5 20 21:18 21.03.2020
6197 Clear 15 1020 41 16093 2.1 0 20:42 21.03.2020
6198 Clouds 15 1020 39 16093 1.5 0 20:20 21.03.2020
6199 Clear 14 1021 41 16093 2.1 40 19:45 21.03.2020
6200 Clear 14 1021 41 16093 2.1 40 19:25 21.03.2020
6201 Clear 14 1021 41 16093 2.1 70 18:59 21.03.2020
6202 Clear 13 1021 47 16093 3.1 350 18:40 21.03.2020
6203 Clouds 13 1021 50 16093 2.64 21 18:20 21.03.2020
6204 Clouds 13 1021 50 16093 2.64 21 17:57 21.03.2020
6205 Clear 12 1021 50 16093 4.6 340 17:39 21.03.2020
6206 Clouds 12 1021 58 16093 2.1 170 17:21 21.03.2020
6207 Clear 10 1021 57 16093 4.6 350 16:42 21.03.2020
6208 Clouds 10 1021 62 16093 1.72 8 16:22 21.03.2020
6209 Clear 9 1021 61 16093 4.6 350 15:58 21.03.2020
6210 Clouds 9 1021 66 16093 2.6 10 15:39 21.03.2020
6211 Clouds 9 1021 62 16093 1.5 350 15:21 21.03.2020
6212 Clouds 9 1021 66 16093 1.72 8 14:55 21.03.2020
6213 Clouds 9 1021 57 16093 3.1 30 14:37 21.03.2020
6214 Clouds 9 1021 62 16093 1.76 21 14:18 21.03.2020
6215 Clouds 9 1020 61 16093 3.6 20 13:57 21.03.2020
6216 Clouds 9 1020 61 16093 3.1 10 13:38 21.03.2020
6217 Clouds 9 1020 57 16093 1.76 21 13:19 21.03.2020
6218 Clear 9 1021 70 16093 1.73 27 12:41 21.03.2020
6219 Clouds 9 1021 57 16093 2.1 30 12:20 21.03.2020
6220 Clouds 9 1021 57 16093 2.1 30 11:59 21.03.2020
6221 Clouds 9 1021 76 16093 1.73 27 11:39 21.03.2020
6222 Clouds 9 1021 57 16093 2.6 360 11:20 21.03.2020
6223 Clouds 9 1021 57 16093 2.6 360 10:58 21.03.2020
6224 Clouds 9 1021 87 16093 2.03 17 10:39 21.03.2020
6225 Clouds 9 1021 54 16093 2.6 30 10:21 21.03.2020
6226 Clouds 9 1021 76 16093 2.03 17 09:58 21.03.2020
6227 Clouds 9 1021 70 16093 2.03 17 09:39 21.03.2020
6228 Clouds 9 1022 54 16093 2.1 20 09:20 21.03.2020
6229 Clouds 10 1022 70 16093 2.03 17 08:55 21.03.2020
6230 Clouds 10 1022 76 16093 2.03 17 08:37 21.03.2020
6231 Clouds 10 1022 54 16093 3.1 40 08:18 21.03.2020
6232 Clouds 10 1022 87 16093 2.6 240 07:33 21.03.2020
6233 Clouds 10 1022 62 16093 2.1 10 06:56 21.03.2020
6234 Clouds 11 1022 62 16093 2.6 20 06:36 21.03.2020
6235 Clouds 11 1023 62 16093 2.6 30 06:18 21.03.2020
6236 Clouds 11 1022 54 16093 4.1 30 05:23 21.03.2020
6237 Clouds 12 1022 54 16093 4.1 10 03:38 21.03.2020
6238 Clouds 12 1022 47 16093 2.1 30 02:36 21.03.2020
6239 Clouds 13 1022 47 16093 1.21 116 01:42 21.03.2020
6240 Clouds 13 1022 50 16093 3.6 160 01:21 21.03.2020
6241 Clouds 13 1022 50 16093 1.63 168 00:38 21.03.2020
6242 Clouds 14 1021 44 16093 3.6 70 23:59 20.03.2020
6243 Clouds 14 1022 58 16093 3.1 350 23:41 20.03.2020
6244 Rain 13 1022 44 16093 0.94 141 23:20 20.03.2020
6245 Clouds 13 1022 58 16093 2.6 290 22:43 20.03.2020
6246 Clouds 13 1022 58 16093 2.6 290 22:24 20.03.2020
6247 Clouds 13 1023 62 16093 0.94 141 21:58 20.03.2020
6248 Clouds 13 1023 62 16093 2.6 0 21:39 20.03.2020
6249 Rain 12 1023 54 16093 1.5 0 21:19 20.03.2020
6250 Clouds 12 1024 62 16093 0.94 141 20:57 20.03.2020
6251 Clouds 12 1024 66 16093 3.1 40 20:39 20.03.2020
6252 Clouds 11 1024 58 16093 3.1 90 20:18 20.03.2020
6253 Clouds 11 1024 58 16093 3.1 70 19:46 20.03.2020
6254 Clouds 10 1024 71 16093 2.6 110 19:19 20.03.2020
6255 Clouds 10 1024 76 16093 2.1 30 18:57 20.03.2020
6256 Clouds 9 1024 76 16093 2.1 30 18:37 20.03.2020
6257 Clouds 9 1024 76 16093 2.1 30 18:19 20.03.2020
6258 Clouds 8 1024 87 16093 3.1 20 17:41 20.03.2020
6259 Clouds 8 1024 87 16093 2.6 80 17:22 20.03.2020
6260 Clouds 8 1024 87 16093 2.6 80 16:59 20.03.2020
6261 Clouds 7 1023 75 16093 4.1 90 16:41 20.03.2020
6262 Clouds 7 1023 75 16093 3.1 90 16:20 20.03.2020
6263 Clear 7 1022 93 16093 3.1 40 15:44 20.03.2020
6264 Clouds 7 1022 87 16093 2.1 90 15:22 20.03.2020
6265 Clouds 6 1022 81 16093 2.6 110 14:58 20.03.2020
6266 Clouds 6 1022 81 16093 2.6 110 14:58 20.03.2020
6267 Clouds 6 1022 81 16093 2.6 110 14:40 20.03.2020
6268 Clouds 6 1022 93 16093 0.45 133 14:20 20.03.2020
6269 Clouds 6 1022 100 16093 1.5 20 13:48 20.03.2020
6270 Clouds 6 1021 87 16093 2.6 110 13:21 20.03.2020
6271 Clouds 7 1022 93 16093 2.1 40 12:57 20.03.2020
6272 Clouds 7 1021 93 16093 2.1 50 12:37 20.03.2020
6273 Clouds 7 1021 93 16093 2.6 90 12:18 20.03.2020
6274 Clouds 7 1021 87 16093 1.04 76 11:39 20.03.2020
6275 Rain 7 1021 87 16093 1.5 90 11:20 20.03.2020
6276 Rain 7 1021 87 16093 1.5 90 10:54 20.03.2020
6277 Rain 7 1021 87 16093 3.6 80 10:36 20.03.2020
6278 Rain 7 1021 87 16093 3.6 80 10:18 20.03.2020
6279 Rain 7 1021 93 16093 3.1 90 09:43 20.03.2020
6280 Rain 7 1021 87 16093 3.6 90 09:20 20.03.2020
6281 Rain 7 1021 93 16093 2.1 50 08:43 20.03.2020
6282 Rain 7 1020 87 16093 2.6 100 08:23 20.03.2020
6283 Rain 7 1021 93 16093 1.42 254 07:57 20.03.2020
6284 Rain 8 1020 81 16093 4.1 80 07:38 20.03.2020
6285 Rain 8 1020 81 16093 4.1 80 07:19 20.03.2020
6286 Clouds 8 1020 93 16093 3.1 60 06:42 20.03.2020
6287 Clouds 8 1020 70 16093 3.1 90 05:57 20.03.2020
6288 Rain 9 1019 87 16093 2.12 143 04:27 20.03.2020
6289 Clouds 11 1018 81 16093 3.1 40 02:43 20.03.2020
6290 Clouds 12 1015 29 16093 3.1 360 01:50 20.03.2020
6291 Clouds 13 1017 66 16093 5.7 140 00:38 20.03.2020
6292 Rain 13 1016 21 16093 7.7 270 23:58 19.03.2020
6293 Clouds 13 1017 53 16093 7.2 150 23:40 19.03.2020
6294 Rain 14 1016 30 16093 9.3 240 23:19 19.03.2020
6295 Clouds 14 1015 28 16093 7.2 190 22:38 19.03.2020
6296 Clouds 14 1015 28 16093 7.2 190 22:20 19.03.2020
6297 Clouds 13 1016 47 16093 8.2 150 21:57 19.03.2020
6298 Clouds 13 1016 47 16093 7.7 140 21:38 19.03.2020
6299 Clouds 13 1016 35 16093 6.2 200 21:18 19.03.2020
6300 Clouds 12 1016 32 16093 5.1 200 20:42 19.03.2020
6301 Clouds 12 1016 32 16093 5.1 200 20:42 19.03.2020
6302 Clouds 12 1016 32 16093 5.1 200 20:24 19.03.2020
6303 Clouds 12 1016 50 16093 9.3 150 19:57 19.03.2020
6304 Clear 11 1016 50 16093 7.2 150 19:38 19.03.2020
6305 Clouds 11 1015 37 16093 5.7 170 19:20 19.03.2020
6306 Clear 11 1016 53 16093 5.7 160 18:57 19.03.2020
6307 Clear 11 1016 53 16093 5.7 160 18:38 19.03.2020
6308 Clouds 10 1015 37 16093 3.6 180 18:19 19.03.2020
6309 Clear 10 1015 57 16093 6.2 150 17:42 19.03.2020
6310 Clouds 9 1014 39 16093 6.2 190 17:19 19.03.2020
6311 Clouds 9 1014 39 16093 6.2 190 16:55 19.03.2020
6312 Clear 8 1014 65 16093 4.84 190 16:37 19.03.2020
6313 Clouds 8 1013 49 16093 3.1 180 16:19 19.03.2020
6314 Clear 7 1013 75 16093 4.6 130 15:40 19.03.2020
6315 Clouds 6 1011 52 16093 3.1 200 15:18 19.03.2020
6316 Clouds 6 1012 87 16093 1.5 170 14:43 19.03.2020
6317 Clear 6 1011 56 16093 7.7 200 14:21 19.03.2020
6318 Clouds 6 1009 45 16093 4.1 190 13:41 19.03.2020
6319 Clouds 6 1009 45 16093 4.1 190 13:20 19.03.2020
6320 Clouds 7 1008 45 16093 3.1 200 12:58 19.03.2020
6321 Clouds 7 1008 45 16093 3.1 200 12:40 19.03.2020
6322 Clouds 7 1008 45 16093 3.1 200 12:21 19.03.2020
6323 Clouds 7 1008 45 16093 2.6 210 11:43 19.03.2020
6324 Clouds 7 1008 45 16093 2.6 210 11:24 19.03.2020
6325 Clouds 8 1008 45 16093 2.6 210 10:57 19.03.2020
6326 Clouds 8 1007 69 16093 2.6 220 10:38 19.03.2020
6327 Clouds 8 1007 69 16093 2.6 220 10:19 19.03.2020
6328 Clouds 8 1007 66 16093 1.5 220 09:45 19.03.2020
6329 Clouds 8 1007 66 16093 1.5 220 09:27 19.03.2020
6330 Clouds 8 1006 62 16093 1.5 210 08:59 19.03.2020
6331 Clouds 8 1006 62 16093 1.5 210 08:41 19.03.2020
6332 Clouds 9 1006 62 16093 1.5 210 08:19 19.03.2020
6333 Clouds 9 1006 62 16093 2.02 135 07:44 19.03.2020
6334 Clouds 9 1006 62 16093 2.02 135 07:44 19.03.2020
6335 Clouds 9 1006 62 16093 2.02 135 07:23 19.03.2020
6336 Clouds 9 1006 62 16093 2.1 140 06:34 19.03.2020
6337 Clouds 10 1005 62 16093 3.6 80 05:47 19.03.2020
6338 Clouds 10 1005 62 16093 3.6 80 04:54 19.03.2020
6339 Clouds 11 1005 71 16093 2.6 110 04:34 19.03.2020
6340 Clouds 12 1004 54 16093 4.1 40 02:37 19.03.2020
6341 Clouds 13 1005 58 16093 4.6 50 00:58 19.03.2020
6342 Clouds 13 1005 43 16093 3.6 120 00:22 19.03.2020
6343 Clouds 13 1006 50 16093 2.1 70 23:48 18.03.2020
6344 Clouds 13 1006 43 16093 4.1 110 23:27 18.03.2020
6345 Clouds 13 1007 54 16093 2.51 168 22:44 18.03.2020
6346 Clouds 13 1007 40 16093 4.6 100 22:24 18.03.2020
6347 Clouds 12 1007 62 16093 2.6 10 21:59 18.03.2020
6348 Clouds 13 1008 62 16093 5.1 110 21:41 18.03.2020
6349 Clouds 12 1008 35 16093 3.6 70 21:21 18.03.2020
6350 Clouds 12 1008 53 16093 3.1 90 20:57 18.03.2020
6351 Clouds 12 1009 43 16093 1.5 120 20:39 18.03.2020
6352 Clouds 11 1009 37 16093 1.5 50 20:20 18.03.2020
6353 Clouds 11 1009 40 16093 2.42 120 19:55 18.03.2020
6354 Clouds 11 1010 43 16093 2.42 120 19:36 18.03.2020
6355 Clouds 11 1010 40 16093 2.42 120 19:18 18.03.2020
6356 Clouds 10 1010 64 16093 2.42 120 18:41 18.03.2020
6357 Clouds 10 1010 40 16093 2.42 120 18:20 18.03.2020
6358 Clouds 9 1010 40 16093 2.42 120 17:57 18.03.2020
6359 Clouds 9 1010 65 16093 2.42 120 17:39 18.03.2020
6360 Clouds 8 1010 45 16093 2.1 250 17:20 18.03.2020
6361 Clouds 8 1010 70 16093 1.5 110 16:54 18.03.2020
6362 Clouds 7 1010 70 16093 1.5 110 16:36 18.03.2020
6363 Clouds 7 1009 49 16093 4.19 134 16:18 18.03.2020
6364 Clouds 7 1009 87 16093 2.1 70 15:44 18.03.2020
6365 Clouds 6 1009 49 16093 4.1 200 15:20 18.03.2020
6366 Clouds 6 1009 87 16093 2.6 40 14:44 18.03.2020
6367 Clouds 7 1009 49 16093 3.1 190 14:21 18.03.2020
6368 Clouds 7 1010 87 16093 2.6 40 13:42 18.03.2020
6369 Clouds 7 1009 52 16093 3.1 200 13:20 18.03.2020
6370 Clear 7 1010 75 16093 2.6 80 12:59 18.03.2020
6371 Clear 7 1010 81 16093 2.1 40 12:41 18.03.2020
6372 Clouds 8 1009 49 16093 1.5 220 12:19 18.03.2020
6373 Clouds 8 1010 81 16093 2.1 100 11:39 18.03.2020
6374 Clouds 8 1010 49 16093 1.5 120 11:20 18.03.2020
6375 Clouds 8 1010 49 16093 1.5 120 10:58 18.03.2020
6376 Clear 8 1011 70 16093 2.1 20 10:38 18.03.2020
6377 Clouds 9 1010 43 16093 1.5 220 10:20 18.03.2020
6378 Clouds 9 1011 57 16093 2.6 200 09:43 18.03.2020
6379 Clouds 9 1011 57 16093 2.6 200 09:25 18.03.2020
6380 Clear 9 1011 57 16093 3.6 250 08:56 18.03.2020
6381 Clouds 9 1011 57 16093 3.1 130 08:38 18.03.2020
6382 Clouds 10 1010 37 16093 4.6 230 08:20 18.03.2020
6383 Clouds 10 1009 39 16093 3.6 320 07:44 18.03.2020
6384 Clouds 10 1011 37 16093 3.6 190 07:26 18.03.2020
6385 Clear 10 1011 61 16093 2.1 220 06:44 18.03.2020
6386 Clouds 11 1010 40 16093 4.6 200 06:20 18.03.2020
6387 Clear 11 1011 53 16093 2.1 231 05:34 18.03.2020
6388 Clouds 12 1010 46 16093 7.2 210 04:25 18.03.2020
6389 Clouds 13 1010 41 16093 7.2 210 02:44 18.03.2020
6390 Clouds 14 1010 39 16093 7.2 190 01:48 18.03.2020
6391 Clouds 14 1010 28 16093 6.7 250 01:26 18.03.2020
6392 Clouds 14 1010 29 16093 6.7 230 00:24 18.03.2020
6393 Clouds 15 1010 40 16093 4.1 220 23:48 17.03.2020
6394 Clouds 15 1010 33 16093 7.2 210 23:27 17.03.2020
6395 Clouds 14 1008 28 16093 4.1 300 22:55 17.03.2020
6396 Clouds 14 1011 47 16093 4.6 220 22:37 17.03.2020
6397 Clouds 14 1012 47 16093 7.7 240 22:18 17.03.2020
6398 Clouds 14 1012 44 16093 2.1 250 21:39 17.03.2020
6399 Clouds 14 1012 35 16093 6.2 230 21:21 17.03.2020
6400 Clouds 13 1013 50 16093 2.1 230 20:40 17.03.2020
6401 Rain 12 1013 43 16093 7.2 220 20:21 17.03.2020
6402 Clouds 12 1013 54 16093 3.1 270 19:58 17.03.2020
6403 Rain 12 1013 43 16093 6.2 210 19:39 17.03.2020
6404 Rain 12 1013 43 16093 6.2 210 19:18 17.03.2020
6405 Rain 12 1013 43 16093 6.2 210 18:55 17.03.2020
6406 Clouds 12 1013 58 16093 4.1 220 18:37 17.03.2020
6407 Clouds 11 1013 50 16093 5.7 170 18:19 17.03.2020
6408 Clouds 11 1013 62 16093 2.1 180 17:40 17.03.2020
6409 Clouds 11 1013 66 16093 5.7 200 17:21 17.03.2020
6410 Clouds 10 1013 70 16093 2.1 310 16:45 17.03.2020
6411 Clouds 10 1012 57 16093 5.1 180 16:20 17.03.2020
6412 Clouds 10 1013 75 16093 2.6 310 15:58 17.03.2020
6413 Clouds 10 1012 66 16093 3.82 195 15:39 17.03.2020
6414 Rain 9 1011 57 16093 4.6 200 15:18 17.03.2020
6415 Clear 9 1012 75 16093 3.82 195 14:41 17.03.2020
6416 Clouds 9 1011 57 16093 3.6 190 14:21 17.03.2020
6417 Clouds 9 1009 70 16093 9.8 310 13:44 17.03.2020
6418 Clear 10 1011 66 16093 2.1 230 13:26 17.03.2020
6419 Clear 10 1011 58 16093 4.6 170 12:58 17.03.2020
6420 Clear 10 1011 62 16093 3.1 170 12:39 17.03.2020
6421 Clouds 10 1010 54 16093 2.1 210 12:21 17.03.2020
6422 Clouds 11 1011 58 16093 5.1 190 11:45 17.03.2020
6423 Clouds 11 1011 50 16093 3.1 190 11:27 17.03.2020
6424 Clouds 11 1011 50 16093 3.1 190 10:58 17.03.2020
6425 Clouds 11 1011 58 16093 4.6 210 10:37 17.03.2020
6426 Clouds 11 1011 54 16093 1.5 200 10:19 17.03.2020
6427 Clear 12 1011 47 16093 5.1 140 09:55 17.03.2020
6428 Clear 12 1011 54 16093 5.7 190 09:36 17.03.2020
6429 Clouds 12 1011 47 16093 4.1 200 09:18 17.03.2020
6430 Clear 12 1011 50 16093 7.2 200 08:42 17.03.2020
6431 Clouds 12 1010 47 16093 5.7 190 08:21 17.03.2020
6432 Clear 13 1011 50 16093 7.2 200 07:49 17.03.2020
6433 Clouds 13 1010 44 16093 5.1 180 07:24 17.03.2020
6434 Clear 14 1011 50 16093 9.8 200 06:53 17.03.2020
6435 Clouds 14 1010 41 16093 6.7 190 06:27 17.03.2020
6436 Clear 15 1011 47 16093 5.7 210 05:38 17.03.2020
6437 Clear 16 1010 44 16093 4.1 180 03:36 17.03.2020
6438 Clear 17 1010 34 16093 171.3 333 02:38 17.03.2020
6439 Clear 18 1011 36 16093 8.2 160 01:41 17.03.2020
6440 Clouds 18 1010 32 16093 8.2 150 01:18 17.03.2020
6441 Clouds 18 1011 37 16093 6.2 160 00:19 17.03.2020
6442 Clouds 18 1012 39 16093 6.2 150 23:43 16.03.2020
6443 Clouds 18 1011 37 16093 5.7 150 23:22 16.03.2020
6444 Clouds 17 1013 34 16093 8.2 140 22:38 16.03.2020
6445 Clouds 17 1013 36 16093 5.7 140 22:20 16.03.2020
6446 Clouds 17 1012 44 16093 9.3 130 21:45 16.03.2020
6447 Clear 17 1014 45 16093 7.7 160 21:27 16.03.2020
6448 Clouds 16 1015 45 16093 7.7 160 20:59 16.03.2020
6449 Clouds 16 1015 51 16093 6.7 150 20:40 16.03.2020
6450 Clouds 16 1015 44 16093 9.42 161 20:21 16.03.2020
6451 Clear 15 1016 51 16093 6.2 150 19:46 16.03.2020
6452 Clear 15 1016 51 16093 6.2 150 19:25 16.03.2020
6453 Clear 14 1016 51 16093 5.7 170 18:59 16.03.2020
6454 Clear 14 1016 54 16093 4.1 130 18:39 16.03.2020
6455 Clear 13 1017 50 16093 1.5 270 18:20 16.03.2020
6456 Clear 12 1017 62 16093 2.1 70 17:46 16.03.2020
6457 Clouds 12 1017 58 16093 1.5 100 17:25 16.03.2020
6458 Clear 12 1016 62 16093 4.1 90 16:57 16.03.2020
6459 Clouds 11 1017 62 16093 1.7 177 16:39 16.03.2020
6460 Clouds 11 1017 62 16093 1.7 177 16:39 16.03.2020
6461 Clouds 10 1016 62 16093 1.7 177 16:20 16.03.2020
6462 Clear 9 1016 76 16093 1.7 177 15:43 16.03.2020
6463 Clear 9 1016 76 16093 1.7 177 15:23 16.03.2020
6464 Clear 9 1016 76 16093 3.1 80 14:47 16.03.2020
6465 Clear 9 1015 62 16093 2.1 160 14:20 16.03.2020
6466 Clear 9 1016 70 16093 2.1 300 13:48 16.03.2020
6467 Clear 9 1016 70 16093 2.1 300 13:28 16.03.2020
6468 Clear 9 1015 75 16093 2.69 181 12:57 16.03.2020
6469 Clear 9 1015 75 16093 2.69 181 12:38 16.03.2020
6470 Clear 9 1015 58 16093 2.69 181 12:20 16.03.2020
6471 Clear 10 1015 66 16093 2.69 181 11:43 16.03.2020
6472 Clear 10 1015 54 16093 2.1 190 11:23 16.03.2020
6473 Clear 10 1016 66 16093 2.77 171 10:44 16.03.2020
6474 Clear 11 1016 66 16093 2.77 171 10:24 16.03.2020
6475 Clear 11 1016 62 16093 1.5 120 09:49 16.03.2020
6476 Clear 11 1016 62 16093 1.5 120 09:30 16.03.2020
6477 Clear 12 1016 71 16093 2.77 171 08:59 16.03.2020
6478 Clear 12 1016 58 16093 2.1 0 08:39 16.03.2020
6479 Clear 12 1016 50 16093 2.6 240 08:20 16.03.2020
6480 Clear 12 1017 58 16093 2.1 320 07:41 16.03.2020
6481 Clouds 12 1016 50 16093 1.5 250 07:18 16.03.2020
6482 Clear 13 1017 58 16093 4.1 220 06:28 16.03.2020
6483 Clouds 14 1016 44 16093 1.5 170 05:55 16.03.2020
6484 Clear 16 1016 51 16093 4.1 170 03:54 16.03.2020
6485 Clear 19 1015 42 16093 11.3 160 01:44 16.03.2020
6486 Clear 19 1015 32 16093 9.3 180 00:44 16.03.2020
6487 Clouds 19 1014 37 16093 7.7 160 23:56 15.03.2020
6488 Clouds 19 1014 40 16093 9.8 150 23:37 15.03.2020
6489 Clear 19 1015 37 16093 7.2 230 23:18 15.03.2020
6490 Clouds 19 1015 40 16093 11.3 160 22:41 15.03.2020
6491 Clouds 19 1015 32 16093 4.1 200 22:20 15.03.2020
6492 Clouds 18 1016 45 16093 8.7 160 21:39 15.03.2020
6493 Clouds 18 1016 37 16093 3.6 210 21:21 15.03.2020
6494 Clouds 17 1016 48 16093 10.8 160 20:55 15.03.2020
6495 Clouds 17 1017 48 16093 10.3 160 20:36 15.03.2020
6496 Clouds 16 1017 48 16093 4.1 220 20:18 15.03.2020
6497 Clouds 16 1018 59 16093 6.7 150 19:42 15.03.2020
6498 Clouds 16 1018 59 16093 6.7 150 19:24 15.03.2020
6499 Clouds 15 1018 59 16093 7.7 160 18:59 15.03.2020
6500 Clouds 15 1018 62 16093 4.6 170 18:40 15.03.2020
6501 Clouds 15 1017 47 16093 5.1 190 18:22 15.03.2020
6502 Clouds 14 1018 71 16093 2.1 130 17:57 15.03.2020
6503 Clouds 14 1018 71 16093 2.1 130 17:38 15.03.2020
6504 Clouds 13 1017 50 16093 4.1 190 17:18 15.03.2020
6505 Clouds 12 1018 81 16093 2.91 187 16:43 15.03.2020
6506 Clouds 11 1018 81 16093 2.91 187 16:25 15.03.2020
6507 Clouds 11 1018 81 16093 2.1 310 15:58 15.03.2020
6508 Clouds 10 1017 87 16093 2.1 340 15:40 15.03.2020
6509 Clouds 10 1017 66 16093 2.6 160 15:19 15.03.2020
6510 Clouds 10 1017 81 16093 2.91 187 14:46 15.03.2020
6511 Clouds 10 1016 62 16093 3.6 180 14:24 15.03.2020
6512 Clouds 10 1017 81 16093 3.26 170 13:58 15.03.2020
6513 Clouds 10 1017 81 16093 3.26 170 13:38 15.03.2020
6514 Clouds 10 1017 81 16093 3.26 170 13:38 15.03.2020
6515 Clouds 10 1016 62 16093 2.6 170 13:20 15.03.2020
6516 Clear 10 1016 81 16093 2.1 350 12:44 15.03.2020
6517 Clouds 10 1016 66 16093 2.38 172 12:25 15.03.2020
6518 Clear 11 1017 76 16093 1.5 330 11:56 15.03.2020
6519 Clear 11 1017 76 16093 1.5 330 11:38 15.03.2020
6520 Clouds 11 1016 66 16093 1.5 170 11:20 15.03.2020
6521 Clouds 12 1017 71 16093 3.1 120 10:55 15.03.2020
6522 Clouds 12 1017 71 16093 3.1 120 10:36 15.03.2020
6523 Clouds 12 1016 62 16093 2.1 180 10:18 15.03.2020
6524 Clear 12 1017 71 16093 3.6 150 09:39 15.03.2020
6525 Clouds 12 1016 58 16093 2.6 170 09:20 15.03.2020
6526 Clear 13 1017 66 16093 4.1 130 08:42 15.03.2020
6527 Clouds 13 1017 58 16093 3.6 180 08:20 15.03.2020
6528 Clouds 14 1018 66 16093 3.1 210 07:50 15.03.2020
6529 Clouds 14 1018 66 16093 3.1 210 07:23 15.03.2020
6530 Clouds 14 1017 62 16093 4.6 260 06:44 15.03.2020
6531 Clouds 14 1017 67 16093 2.6 250 05:49 15.03.2020
6532 Clouds 15 1017 62 16093 2.6 260 04:58 15.03.2020
6533 Clear 15 1017 58 16093 4.6 160 04:40 15.03.2020
6534 Clouds 15 1015 48 16093 4.1 150 04:20 15.03.2020
6535 Clear 16 1016 58 16093 7.2 160 03:24 15.03.2020
6536 Clouds 17 1016 55 16093 8.2 160 02:28 15.03.2020
6537 Clouds 18 1016 51 16093 10.3 160 00:59 15.03.2020
6538 Clouds 18 1015 48 16093 9.8 150 00:41 15.03.2020
6539 Clouds 18 1015 37 16093 4.1 220 00:19 15.03.2020
6540 Clouds 18 1015 48 16093 10.3 150 23:40 14.03.2020
6541 Clouds 18 1015 39 16093 2.1 220 23:20 14.03.2020
6542 Clear 17 1015 37 16093 6.2 190 22:56 14.03.2020
6543 Clouds 17 1016 51 16093 10.3 160 22:38 14.03.2020
6544 Clouds 18 1015 39 16093 4.6 200 22:19 14.03.2020
6545 Clouds 17 1016 45 16093 9.8 160 21:55 14.03.2020
6546 Clouds 17 1016 45 16093 9.8 160 21:55 14.03.2020
6547 Clouds 17 1016 48 16093 9.3 150 21:36 14.03.2020
6548 Clouds 17 1016 48 16093 9.3 150 21:36 14.03.2020
6549 Clouds 17 1016 42 16093 4.6 210 21:18 14.03.2020
6550 Clouds 17 1016 42 16093 4.6 210 21:18 14.03.2020
6551 Clear 17 1016 48 16093 9.8 160 20:56 14.03.2020
6552 Clear 17 1016 48 16093 9.8 160 20:56 14.03.2020
6553 Clouds 16 1017 51 16093 9.8 160 20:38 14.03.2020
6554 Clouds 16 1016 45 16093 6.2 200 20:18 14.03.2020
6555 Clouds 15 1017 58 16093 7.7 170 19:41 14.03.2020
6556 Clouds 15 1017 48 16093 5.1 180 19:21 14.03.2020
6557 Clouds 15 1017 58 16093 8.7 170 18:41 14.03.2020
6558 Clouds 14 1016 58 16093 6.7 150 18:21 14.03.2020
6559 Clouds 14 1017 67 16093 6.2 160 17:43 14.03.2020
6560 Clouds 13 1016 62 16093 4.6 180 17:24 14.03.2020
6561 Clouds 12 1016 62 16093 4.6 180 16:59 14.03.2020
6562 Clouds 12 1017 76 16093 3.1 180 16:39 14.03.2020
6563 Clouds 12 1015 66 16093 3.6 170 16:20 14.03.2020
6564 Clouds 11 1016 81 16093 4.6 190 15:48 14.03.2020
6565 Clouds 11 1016 81 16093 4.6 190 15:25 14.03.2020
6566 Clear 11 1015 76 16093 4.1 230 14:44 14.03.2020
6567 Clouds 11 1014 66 16093 4.6 200 14:22 14.03.2020
6568 Clear 11 1015 76 16093 6.2 240 13:57 14.03.2020
6569 Clouds 12 1014 71 16093 4.6 210 13:39 14.03.2020
6570 Clouds 12 1013 62 16093 4.6 200 13:20 14.03.2020
6571 Clouds 12 1014 71 16093 4.1 210 12:44 14.03.2020
6572 Clouds 12 1013 58 16093 6.2 200 12:26 14.03.2020
6573 Clouds 12 1013 58 16093 6.2 200 12:26 14.03.2020
6574 Clouds 12 1014 76 16093 6.2 190 11:47 14.03.2020
6575 Clouds 12 1013 58 16093 4.6 190 11:27 14.03.2020
6576 Clouds 13 1013 58 16093 4.6 190 10:59 14.03.2020
6577 Clouds 13 1014 71 16093 5.7 190 10:40 14.03.2020
6578 Clouds 13 1013 58 16093 6.2 200 10:22 14.03.2020
6579 Clouds 13 1014 71 16093 6.32 171 09:43 14.03.2020
6580 Clouds 13 1013 58 16093 4.1 160 09:22 14.03.2020
6581 Clouds 13 1011 76 16093 3.6 130 08:47 14.03.2020
6582 Clouds 13 1014 71 16093 3.1 230 08:28 14.03.2020
6583 Clouds 13 1013 66 16093 4.6 150 07:51 14.03.2020
6584 Clouds 13 1013 66 16093 4.6 150 07:23 14.03.2020
6585 Clouds 13 1013 66 16093 4.6 160 06:59 14.03.2020
6586 Clouds 13 1013 66 16093 4.6 170 06:39 14.03.2020
6587 Clouds 13 1011 58 16093 2.6 180 05:19 14.03.2020
6588 Clouds 13 1011 58 16093 6.7 180 03:42 14.03.2020
6589 Clouds 13 1011 58 16093 6.7 180 03:23 14.03.2020
6590 Rain 14 1009 44 16093 5.7 210 02:20 14.03.2020
6591 Clouds 14 1010 62 16093 5.7 160 00:42 14.03.2020
6592 Clouds 14 1009 67 16093 7.7 160 23:45 13.03.2020
6593 Rain 15 1009 44 16093 7.7 240 23:26 13.03.2020
6594 Clouds 15 1008 66 16093 3.1 130 22:47 13.03.2020
6595 Clouds 15 1009 62 16093 9.3 170 22:25 13.03.2020
6596 Clouds 15 1009 62 16093 11.3 150 21:43 13.03.2020
6597 Clouds 15 1009 44 16093 6.2 220 21:21 13.03.2020
6598 Clouds 14 1008 55 16093 8.7 160 20:57 13.03.2020
6599 Clouds 14 1010 67 16093 10.3 150 20:38 13.03.2020
6600 Clouds 14 1009 51 16093 7.7 200 20:19 13.03.2020
6601 Clouds 14 1010 76 16093 9.3 160 19:45 13.03.2020
6602 Clouds 13 1010 76 16093 9.3 160 19:27 13.03.2020
6603 Clouds 13 1010 71 16093 8.2 160 18:47 13.03.2020
6604 Rain 12 1010 71 16093 8.2 160 18:28 13.03.2020
6605 Clouds 12 1009 76 16093 7.7 160 17:57 13.03.2020
6606 Clouds 12 1009 76 16093 7.7 160 17:37 13.03.2020
6607 Clouds 12 1008 66 16093 5.1 190 17:18 13.03.2020
6608 Rain 11 1007 63 9656 5.7 140 16:41 13.03.2020
6609 Rain 11 1007 63 9656 5.7 140 16:23 13.03.2020
6610 Rain 11 1008 87 16093 5.7 170 15:55 13.03.2020
6611 Rain 11 1008 87 16093 5.1 140 15:37 13.03.2020
6612 Rain 11 1007 76 16093 2.6 190 15:18 13.03.2020
6613 Rain 11 1006 81 16093 2.1 80 14:41 13.03.2020
6614 Rain 11 1007 81 16093 1.5 100 14:22 13.03.2020
6615 Rain 11 1007 93 16093 6.2 150 13:56 13.03.2020
6616 Rain 11 1007 87 16093 2.1 200 13:38 13.03.2020
6617 Rain 11 1006 81 8047 1.5 110 13:18 13.03.2020
6618 Rain 11 1007 93 16093 1.5 140 12:40 13.03.2020
6619 Rain 11 1006 76 16093 2.65 132 12:21 13.03.2020
6620 Rain 11 1006 76 16093 2.65 132 11:57 13.03.2020
6621 Rain 11 1006 93 16093 1.5 320 11:38 13.03.2020
6622 Rain 12 1006 76 16093 3.1 300 11:19 13.03.2020
6623 Rain 11 1006 100 16093 2.6 360 10:47 13.03.2020
6624 Rain 11 1006 100 16093 2.6 360 10:26 13.03.2020
6625 Clouds 12 1007 87 16093 2.46 135 09:56 13.03.2020
6626 Clouds 12 1007 87 16093 1.5 40 09:38 13.03.2020
6627 Clouds 11 1007 76 16093 1.5 290 09:20 13.03.2020
6628 Clouds 12 1007 93 16093 2.46 135 08:42 13.03.2020
6629 Clouds 12 1008 87 16093 2.94 119 08:22 13.03.2020
6630 Clouds 12 1008 93 16093 2.38 74 07:47 13.03.2020
6631 Clouds 12 1008 93 16093 2.38 74 07:27 13.03.2020
6632 Rain 11 1009 93 16093 2.6 70 06:46 13.03.2020
6633 Rain 11 1008 82 16093 3.1 70 06:24 13.03.2020
6634 Rain 12 1008 76 9656 4.6 330 05:46 13.03.2020
6635 Rain 12 1008 76 4023 3.1 330 05:19 13.03.2020
6636 Thunderstorm 13 1008 100 4828 5.7 180 04:35 13.03.2020
6637 Thunderstorm 15 1006 93 8047 4.6 20 02:58 13.03.2020
6638 Rain 16 1005 49 16093 2.6 30 01:41 13.03.2020
6639 Rain 18 1005 49 16093 2.6 30 01:18 13.03.2020
6640 Rain 19 1006 67 8047 3.6 20 00:43 13.03.2020
6641 Clouds 19 1007 40 16093 3.1 70 00:20 13.03.2020
6642 Clouds 20 1007 48 16093 4.1 30 23:40 12.03.2020
6643 Clouds 20 1008 37 16093 4.1 60 23:22 12.03.2020
6644 Clouds 20 1008 29 16093 3.6 120 22:47 12.03.2020
6645 Clear 20 1008 48 16093 7.7 20 22:29 12.03.2020
6646 Clear 20 1009 45 16093 7.7 20 21:59 12.03.2020
6647 Clouds 20 1011 48 16093 6.7 30 21:40 12.03.2020
6648 Clouds 20 1011 42 16093 2.6 0 21:21 12.03.2020
6649 Clouds 19 1013 48 16093 4.1 30 20:42 12.03.2020
6650 Clouds 19 1013 42 16093 4.1 40 20:20 12.03.2020
6651 Clouds 19 1013 42 16093 4.1 40 20:20 12.03.2020
6652 Clear 19 1013 48 16093 5.1 30 19:56 12.03.2020
6653 Clear 18 1013 55 16093 4.1 20 19:37 12.03.2020
6654 Clear 18 1014 59 16093 3.6 70 19:18 12.03.2020
6655 Clear 17 1014 59 16093 3.1 40 18:42 12.03.2020
6656 Clouds 17 1014 59 16093 3.93 14 18:22 12.03.2020
6657 Clouds 16 1014 59 16093 3.93 14 17:56 12.03.2020
6658 Clear 15 1014 72 16093 3.93 14 17:37 12.03.2020
6659 Clear 14 1015 71 16093 1.5 0 17:18 12.03.2020
6660 Clear 13 1014 76 16093 3.1 350 16:41 12.03.2020
6661 Clouds 13 1014 71 16093 1.64 3 16:23 12.03.2020
6662 Clear 12 1014 76 16093 1.64 3 15:49 12.03.2020
6663 Clear 11 1014 76 16093 1.64 3 15:28 12.03.2020
6664 Clear 11 1014 81 16093 1.64 3 14:58 12.03.2020
6665 Clear 11 1014 93 16093 1.64 3 14:38 12.03.2020
6666 Clear 11 1014 93 16093 1.64 3 14:38 12.03.2020
6667 Clouds 11 1014 81 16093 0.73 348 14